<?xml version='1.0' encoding='UTF-8'?><gpx version="1.1" creator="JPX - https://github.com/jenetics/jpx" xmlns="http://www.topografix.com/GPX/1/1"><trk><trkseg><trkpt lat="45.7503591" lon="7.4306922"><ele>939.0</ele><time>2026-04-19T07:48:50.428Z</time></trkpt><trkpt lat="45.7502308" lon="7.4306831"><ele>939.0</ele><time>2026-04-19T07:48:57.434Z</time></trkpt><trkpt lat="45.7502612" lon="7.430597"><ele>939.0</ele><time>2026-04-19T07:49:06.427Z</time></trkpt><trkpt lat="45.7502923" lon="7.4304946"><ele>939.0</ele><time>2026-04-19T07:49:13.432Z</time></trkpt><trkpt lat="45.7503427" lon="7.4304325"><ele>939.0</ele><time>2026-04-19T07:49:18.434Z</time></trkpt><trkpt lat="45.7504104" lon="7.4304308"><ele>939.0</ele><time>2026-04-19T07:49:43.43Z</time></trkpt><trkpt lat="45.7504849" lon="7.4304626"><ele>939.0</ele><time>2026-04-19T07:52:12.438Z</time></trkpt><trkpt lat="45.7504524" lon="7.4305401"><ele>939.0</ele><time>2026-04-19T07:52:35.436Z</time></trkpt><trkpt lat="45.7504252" lon="7.4304001"><ele>939.0</ele><time>2026-04-19T07:52:38.435Z</time></trkpt><trkpt lat="45.7504107" lon="7.4302667"><ele>939.0</ele><time>2026-04-19T07:52:41.432Z</time></trkpt><trkpt lat="45.750389" lon="7.4301324"><ele>939.0</ele><time>2026-04-19T07:52:44.446Z</time></trkpt><trkpt lat="45.7503957" lon="7.4300038"><ele>939.0</ele><time>2026-04-19T07:52:47.424Z</time></trkpt><trkpt lat="45.7503556" lon="7.4299334"><ele>938.8333333333334</ele><time>2026-04-19T07:52:50.441Z</time></trkpt><trkpt lat="45.7502654" lon="7.4299486"><ele>938.6666666666667</ele><time>2026-04-19T07:52:53.439Z</time></trkpt><trkpt lat="45.7501984" lon="7.4298765"><ele>938.5</ele><time>2026-04-19T07:52:56.437Z</time></trkpt><trkpt lat="45.750177" lon="7.4297523"><ele>938.3333333333334</ele><time>2026-04-19T07:52:59.442Z</time></trkpt><trkpt lat="45.7501825" lon="7.4296478"><ele>938.1666666666667</ele><time>2026-04-19T07:53:01.436Z</time></trkpt><trkpt lat="45.7501916" lon="7.429551"><ele>938.0</ele><time>2026-04-19T07:53:03.438Z</time></trkpt><trkpt lat="45.7502127" lon="7.4294636"><ele>939.0000000000001</ele><time>2026-04-19T07:53:05.445Z</time></trkpt><trkpt lat="45.7502372" lon="7.4293401"><ele>940.0</ele><time>2026-04-19T07:53:08.437Z</time></trkpt><trkpt lat="45.750223" lon="7.4292232"><ele>941.0</ele><time>2026-04-19T07:53:11.436Z</time></trkpt><trkpt lat="45.7501816" lon="7.4291459"><ele>942.0</ele><time>2026-04-19T07:53:13.435Z</time></trkpt><trkpt lat="45.7501352" lon="7.4290786"><ele>943.0000000000001</ele><time>2026-04-19T07:53:15.444Z</time></trkpt><trkpt lat="45.7500743" lon="7.4289257"><ele>944.0</ele><time>2026-04-19T07:53:19.227Z</time></trkpt><trkpt lat="45.7500722" lon="7.4287978"><ele>939.5000000000001</ele><time>2026-04-19T07:53:22.236Z</time></trkpt><trkpt lat="45.7500921" lon="7.4286818"><ele>935.0</ele><time>2026-04-19T07:53:25.231Z</time></trkpt><trkpt lat="45.7501062" lon="7.428567"><ele>930.5</ele><time>2026-04-19T07:53:28.223Z</time></trkpt><trkpt lat="45.7501188" lon="7.4284569"><ele>926.0</ele><time>2026-04-19T07:53:31.126Z</time></trkpt><trkpt lat="45.7501262" lon="7.4283337"><ele>921.5000000000001</ele><time>2026-04-19T07:53:34.126Z</time></trkpt><trkpt lat="45.7501335" lon="7.4282246"><ele>917.0</ele><time>2026-04-19T07:53:37.138Z</time></trkpt><trkpt lat="45.7501348" lon="7.4281223"><ele>917.0</ele><time>2026-04-19T07:53:40.027Z</time></trkpt><trkpt lat="45.7501499" lon="7.4280156"><ele>917.0</ele><time>2026-04-19T07:53:42.943Z</time></trkpt><trkpt lat="45.7501801" lon="7.4279354"><ele>917.0</ele><time>2026-04-19T07:53:45.955Z</time></trkpt><trkpt lat="45.7502499" lon="7.427957"><ele>917.0</ele><time>2026-04-19T07:53:48.95Z</time></trkpt><trkpt lat="45.7502919" lon="7.4280487"><ele>917.0</ele><time>2026-04-19T07:53:51.95Z</time></trkpt><trkpt lat="45.7503226" lon="7.4281606"><ele>917.0</ele><time>2026-04-19T07:53:54.947Z</time></trkpt><trkpt lat="45.7503526" lon="7.4282608"><ele>917.0</ele><time>2026-04-19T07:53:57.948Z</time></trkpt><trkpt lat="45.7503688" lon="7.4283598"><ele>921.5000000000001</ele><time>2026-04-19T07:54:00.95Z</time></trkpt><trkpt lat="45.7504029" lon="7.4284795"><ele>926.0</ele><time>2026-04-19T07:54:04.945Z</time></trkpt><trkpt lat="45.750431" lon="7.4285753"><ele>930.5</ele><time>2026-04-19T07:54:07.945Z</time></trkpt><trkpt lat="45.7504553" lon="7.4286877"><ele>935.0</ele><time>2026-04-19T07:54:10.951Z</time></trkpt><trkpt lat="45.7504845" lon="7.4288005"><ele>939.5000000000001</ele><time>2026-04-19T07:54:13.947Z</time></trkpt><trkpt lat="45.7505098" lon="7.428912"><ele>944.0</ele><time>2026-04-19T07:54:16.952Z</time></trkpt><trkpt lat="45.750548" lon="7.4290199"><ele>944.0000000000001</ele><time>2026-04-19T07:54:19.947Z</time></trkpt><trkpt lat="45.7505931" lon="7.4291138"><ele>944.0</ele><time>2026-04-19T07:54:22.941Z</time></trkpt><trkpt lat="45.7506393" lon="7.429195"><ele>944.0</ele><time>2026-04-19T07:54:25.953Z</time></trkpt><trkpt lat="45.750678" lon="7.4292926"><ele>944.0</ele><time>2026-04-19T07:54:28.964Z</time></trkpt><trkpt lat="45.7507316" lon="7.4293972"><ele>944.0000000000001</ele><time>2026-04-19T07:54:31.944Z</time></trkpt><trkpt lat="45.7507727" lon="7.4294912"><ele>944.0</ele><time>2026-04-19T07:54:35.024Z</time></trkpt><trkpt lat="45.7508068" lon="7.4295924"><ele>943.0000000000001</ele><time>2026-04-19T07:54:37.953Z</time></trkpt><trkpt lat="45.7508232" lon="7.4296835"><ele>942.0</ele><time>2026-04-19T07:54:39.952Z</time></trkpt><trkpt lat="45.7508493" lon="7.4298131"><ele>941.0</ele><time>2026-04-19T07:54:42.954Z</time></trkpt><trkpt lat="45.7508808" lon="7.4299258"><ele>940.0</ele><time>2026-04-19T07:54:45.946Z</time></trkpt><trkpt lat="45.750904" lon="7.430037"><ele>939.0000000000001</ele><time>2026-04-19T07:54:48.955Z</time></trkpt><trkpt lat="45.7509339" lon="7.4301402"><ele>938.0</ele><time>2026-04-19T07:54:51.949Z</time></trkpt><trkpt lat="45.7509658" lon="7.4302526"><ele>938.0000000000001</ele><time>2026-04-19T07:54:54.943Z</time></trkpt><trkpt lat="45.7509949" lon="7.4303578"><ele>938.0</ele><time>2026-04-19T07:54:57.946Z</time></trkpt><trkpt lat="45.7510274" lon="7.430478"><ele>938.0</ele><time>2026-04-19T07:55:00.956Z</time></trkpt><trkpt lat="45.7510317" lon="7.4306047"><ele>938.0</ele><time>2026-04-19T07:55:03.949Z</time></trkpt><trkpt lat="45.7510275" lon="7.4307229"><ele>938.0000000000001</ele><time>2026-04-19T07:55:06.946Z</time></trkpt><trkpt lat="45.7510216" lon="7.4308525"><ele>938.0</ele><time>2026-04-19T07:55:10.027Z</time></trkpt><trkpt lat="45.7510046" lon="7.4309677"><ele>938.1666666666667</ele><time>2026-04-19T07:55:12.943Z</time></trkpt><trkpt lat="45.7509835" lon="7.4310844"><ele>938.3333333333334</ele><time>2026-04-19T07:55:15.942Z</time></trkpt><trkpt lat="45.7509638" lon="7.4312068"><ele>938.5</ele><time>2026-04-19T07:55:18.937Z</time></trkpt><trkpt lat="45.7509391" lon="7.4313269"><ele>938.6666666666667</ele><time>2026-04-19T07:55:21.937Z</time></trkpt><trkpt lat="45.7509164" lon="7.4314342"><ele>938.8333333333334</ele><time>2026-04-19T07:55:24.943Z</time></trkpt><trkpt lat="45.7508922" lon="7.4315425"><ele>939.0</ele><time>2026-04-19T07:55:28.01Z</time></trkpt><trkpt lat="45.7508646" lon="7.4316586"><ele>940.6666666666666</ele><time>2026-04-19T07:55:30.94Z</time></trkpt><trkpt lat="45.750839" lon="7.431765"><ele>942.3333333333333</ele><time>2026-04-19T07:55:33.942Z</time></trkpt><trkpt lat="45.7508165" lon="7.4318792"><ele>944.0</ele><time>2026-04-19T07:55:36.939Z</time></trkpt><trkpt lat="45.7507901" lon="7.4319899"><ele>945.6666666666666</ele><time>2026-04-19T07:55:40.102Z</time></trkpt><trkpt lat="45.7507588" lon="7.4321041"><ele>947.3333333333333</ele><time>2026-04-19T07:55:43.104Z</time></trkpt><trkpt lat="45.7507353" lon="7.4322144"><ele>949.0</ele><time>2026-04-19T07:55:46.104Z</time></trkpt><trkpt lat="45.7506992" lon="7.4323623"><ele>950.8333333333333</ele><time>2026-04-19T07:55:50.035Z</time></trkpt><trkpt lat="45.7506714" lon="7.4324737"><ele>952.6666666666666</ele><time>2026-04-19T07:55:52.937Z</time></trkpt><trkpt lat="45.7506504" lon="7.4325975"><ele>954.5</ele><time>2026-04-19T07:55:55.945Z</time></trkpt><trkpt lat="45.7506441" lon="7.4327246"><ele>956.3333333333333</ele><time>2026-04-19T07:55:58.944Z</time></trkpt><trkpt lat="45.7506381" lon="7.4328147"><ele>958.1666666666666</ele><time>2026-04-19T07:56:00.951Z</time></trkpt><trkpt lat="45.7506467" lon="7.4329397"><ele>960.0</ele><time>2026-04-19T07:56:03.948Z</time></trkpt><trkpt lat="45.7506498" lon="7.4330564"><ele>961.8333333333334</ele><time>2026-04-19T07:56:06.946Z</time></trkpt><trkpt lat="45.7506406" lon="7.433172"><ele>963.6666666666667</ele><time>2026-04-19T07:56:09.947Z</time></trkpt><trkpt lat="45.750621" lon="7.4332898"><ele>965.5</ele><time>2026-04-19T07:56:12.948Z</time></trkpt><trkpt lat="45.750596" lon="7.4333752"><ele>967.3333333333334</ele><time>2026-04-19T07:56:14.95Z</time></trkpt><trkpt lat="45.7505539" lon="7.4334799"><ele>969.1666666666667</ele><time>2026-04-19T07:56:17.945Z</time></trkpt><trkpt lat="45.7505152" lon="7.433593"><ele>971.0</ele><time>2026-04-19T07:56:20.948Z</time></trkpt><trkpt lat="45.7504734" lon="7.4336831"><ele>971.0000000000001</ele><time>2026-04-19T07:56:23.951Z</time></trkpt><trkpt lat="45.7504457" lon="7.4337831"><ele>971.0</ele><time>2026-04-19T07:56:26.951Z</time></trkpt><trkpt lat="45.7504147" lon="7.4338848"><ele>971.0</ele><time>2026-04-19T07:56:29.946Z</time></trkpt><trkpt lat="45.7503913" lon="7.4339942"><ele>971.0</ele><time>2026-04-19T07:56:32.949Z</time></trkpt><trkpt lat="45.750379" lon="7.434113"><ele>971.0000000000001</ele><time>2026-04-19T07:56:35.952Z</time></trkpt><trkpt lat="45.7503737" lon="7.4342362"><ele>971.0</ele><time>2026-04-19T07:56:38.951Z</time></trkpt><trkpt lat="45.7503717" lon="7.4343633"><ele>972.7142857142858</ele><time>2026-04-19T07:56:41.944Z</time></trkpt><trkpt lat="45.7503849" lon="7.4344636"><ele>974.4285714285716</ele><time>2026-04-19T07:56:44.948Z</time></trkpt><trkpt lat="45.7503955" lon="7.4345661"><ele>976.1428571428571</ele><time>2026-04-19T07:56:47.951Z</time></trkpt><trkpt lat="45.7504026" lon="7.4346602"><ele>977.8571428571429</ele><time>2026-04-19T07:56:50.954Z</time></trkpt><trkpt lat="45.7504128" lon="7.4347594"><ele>979.5714285714286</ele><time>2026-04-19T07:56:53.948Z</time></trkpt><trkpt lat="45.7504118" lon="7.4348679"><ele>981.2857142857142</ele><time>2026-04-19T07:56:56.948Z</time></trkpt><trkpt lat="45.7503992" lon="7.4349717"><ele>982.9999999999999</ele><time>2026-04-19T07:56:59.948Z</time></trkpt><trkpt lat="45.7503838" lon="7.4350697"><ele>984.2857142857142</ele><time>2026-04-19T07:57:02.945Z</time></trkpt><trkpt lat="45.7503557" lon="7.4351581"><ele>985.5714285714286</ele><time>2026-04-19T07:57:05.948Z</time></trkpt><trkpt lat="45.750326" lon="7.435246"><ele>986.8571428571429</ele><time>2026-04-19T07:57:08.946Z</time></trkpt><trkpt lat="45.7503034" lon="7.435342"><ele>988.1428571428571</ele><time>2026-04-19T07:57:11.949Z</time></trkpt><trkpt lat="45.7502783" lon="7.4354432"><ele>989.4285714285716</ele><time>2026-04-19T07:57:14.955Z</time></trkpt><trkpt lat="45.7502568" lon="7.4355445"><ele>990.7142857142858</ele><time>2026-04-19T07:57:18.009Z</time></trkpt><trkpt lat="45.7502332" lon="7.4356415"><ele>992.0</ele><time>2026-04-19T07:57:20.959Z</time></trkpt><trkpt lat="45.7502047" lon="7.435737"><ele>990.0000000000001</ele><time>2026-04-19T07:57:23.956Z</time></trkpt><trkpt lat="45.7501762" lon="7.4358248"><ele>988.0</ele><time>2026-04-19T07:57:27.025Z</time></trkpt><trkpt lat="45.750146" lon="7.4359336"><ele>986.0</ele><time>2026-04-19T07:57:30.941Z</time></trkpt><trkpt lat="45.7501101" lon="7.4360336"><ele>984.0</ele><time>2026-04-19T07:57:34.948Z</time></trkpt><trkpt lat="45.7500838" lon="7.4361271"><ele>982.0000000000001</ele><time>2026-04-19T07:57:38.028Z</time></trkpt><trkpt lat="45.7500564" lon="7.4362413"><ele>980.0</ele><time>2026-04-19T07:57:41.958Z</time></trkpt><trkpt lat="45.7500463" lon="7.4363399"><ele>980.0</ele><time>2026-04-19T07:57:45.96Z</time></trkpt><trkpt lat="45.7500303" lon="7.4364402"><ele>980.0</ele><time>2026-04-19T07:57:49.031Z</time></trkpt><trkpt lat="45.7500012" lon="7.4365392"><ele>980.0</ele><time>2026-04-19T07:57:51.948Z</time></trkpt><trkpt lat="45.7499689" lon="7.4366221"><ele>980.0</ele><time>2026-04-19T07:57:54.938Z</time></trkpt><trkpt lat="45.7499123" lon="7.4367039"><ele>980.0</ele><time>2026-04-19T07:57:58.98Z</time></trkpt><trkpt lat="45.7498769" lon="7.4368166"><ele>980.0</ele><time>2026-04-19T07:58:02.938Z</time></trkpt><trkpt lat="45.7498544" lon="7.4369028"><ele>980.0</ele><time>2026-04-19T07:58:05.946Z</time></trkpt><trkpt lat="45.7498531" lon="7.4370151"><ele>980.0</ele><time>2026-04-19T07:58:09.953Z</time></trkpt><trkpt lat="45.7498437" lon="7.4371322"><ele>980.0</ele><time>2026-04-19T07:58:13.949Z</time></trkpt><trkpt lat="45.7498368" lon="7.4372318"><ele>980.0</ele><time>2026-04-19T07:58:16.949Z</time></trkpt><trkpt lat="45.7498281" lon="7.4373231"><ele>980.0</ele><time>2026-04-19T07:58:19.951Z</time></trkpt><trkpt lat="45.7498073" lon="7.4374344"><ele>980.0</ele><time>2026-04-19T07:58:23.953Z</time></trkpt><trkpt lat="45.7497696" lon="7.4375402"><ele>980.0</ele><time>2026-04-19T07:58:27.941Z</time></trkpt><trkpt lat="45.7497325" lon="7.4376194"><ele>980.0</ele><time>2026-04-19T07:58:30.948Z</time></trkpt><trkpt lat="45.7496871" lon="7.4377208"><ele>981.7142857142858</ele><time>2026-04-19T07:58:34.941Z</time></trkpt><trkpt lat="45.749649" lon="7.437801"><ele>983.4285714285714</ele><time>2026-04-19T07:58:37.945Z</time></trkpt><trkpt lat="45.7496218" lon="7.4379143"><ele>985.1428571428571</ele><time>2026-04-19T07:58:41.947Z</time></trkpt><trkpt lat="45.7495996" lon="7.4380016"><ele>986.8571428571429</ele><time>2026-04-19T07:58:44.944Z</time></trkpt><trkpt lat="45.7495763" lon="7.43809"><ele>988.5714285714287</ele><time>2026-04-19T07:58:47.986Z</time></trkpt><trkpt lat="45.7495497" lon="7.4382088"><ele>990.2857142857143</ele><time>2026-04-19T07:58:51.945Z</time></trkpt><trkpt lat="45.7495279" lon="7.4383056"><ele>992.0</ele><time>2026-04-19T07:58:54.939Z</time></trkpt><trkpt lat="45.7494935" lon="7.4384128"><ele>991.7142857142858</ele><time>2026-04-19T07:58:59.028Z</time></trkpt><trkpt lat="45.7494729" lon="7.4385076"><ele>991.4285714285716</ele><time>2026-04-19T07:59:02.019Z</time></trkpt><trkpt lat="45.7494527" lon="7.4385949"><ele>991.1428571428571</ele><time>2026-04-19T07:59:05.015Z</time></trkpt><trkpt lat="45.7494267" lon="7.4386786"><ele>990.8571428571429</ele><time>2026-04-19T07:59:08.015Z</time></trkpt><trkpt lat="45.7493995" lon="7.4387636"><ele>990.5714285714286</ele><time>2026-04-19T07:59:11.012Z</time></trkpt><trkpt lat="45.7493666" lon="7.4388728"><ele>990.2857142857142</ele><time>2026-04-19T07:59:15.017Z</time></trkpt><trkpt lat="45.7493382" lon="7.4389702"><ele>989.9999999999999</ele><time>2026-04-19T07:59:18.014Z</time></trkpt><trkpt lat="45.7493131" lon="7.4390786"><ele>989.9999999999999</ele><time>2026-04-19T07:59:22.011Z</time></trkpt><trkpt lat="45.7492874" lon="7.4391816"><ele>990.0</ele><time>2026-04-19T07:59:26.016Z</time></trkpt><trkpt lat="45.7492598" lon="7.4393027"><ele>989.9999999999999</ele><time>2026-04-19T07:59:29.953Z</time></trkpt><trkpt lat="45.7492432" lon="7.439423"><ele>989.9999999999999</ele><time>2026-04-19T07:59:33.958Z</time></trkpt><trkpt lat="45.7492266" lon="7.4395138"><ele>990.0</ele><time>2026-04-19T07:59:36.957Z</time></trkpt><trkpt lat="45.7492209" lon="7.4396043"><ele>989.9999999999999</ele><time>2026-04-19T07:59:40.029Z</time></trkpt><trkpt lat="45.7492096" lon="7.4397"><ele>989.9999999999999</ele><time>2026-04-19T07:59:42.944Z</time></trkpt><trkpt lat="45.7492002" lon="7.4398151"><ele>991.3333333333334</ele><time>2026-04-19T07:59:46.946Z</time></trkpt><trkpt lat="45.7491912" lon="7.4399311"><ele>992.6666666666667</ele><time>2026-04-19T07:59:50.947Z</time></trkpt><trkpt lat="45.7491786" lon="7.4400242"><ele>994.0</ele><time>2026-04-19T07:59:53.948Z</time></trkpt><trkpt lat="45.7491688" lon="7.4401448"><ele>995.3333333333334</ele><time>2026-04-19T07:59:57.948Z</time></trkpt><trkpt lat="45.7491601" lon="7.4402372"><ele>996.6666666666667</ele><time>2026-04-19T08:00:00.948Z</time></trkpt><trkpt lat="45.7491493" lon="7.4403542"><ele>998.0</ele><time>2026-04-19T08:00:04.954Z</time></trkpt><trkpt lat="45.7491381" lon="7.440476"><ele>998.7142857142858</ele><time>2026-04-19T08:00:09.025Z</time></trkpt><trkpt lat="45.7491315" lon="7.4405665"><ele>999.4285714285714</ele><time>2026-04-19T08:00:11.953Z</time></trkpt><trkpt lat="45.7491209" lon="7.4406577"><ele>1000.1428571428571</ele><time>2026-04-19T08:00:14.961Z</time></trkpt><trkpt lat="45.7491172" lon="7.4407546"><ele>1000.8571428571429</ele><time>2026-04-19T08:00:17.956Z</time></trkpt><trkpt lat="45.7491156" lon="7.4408471"><ele>1001.5714285714284</ele><time>2026-04-19T08:00:20.956Z</time></trkpt><trkpt lat="45.7491236" lon="7.4409444"><ele>1002.2857142857142</ele><time>2026-04-19T08:00:23.957Z</time></trkpt><trkpt lat="45.7491479" lon="7.4410609"><ele>1003.0</ele><time>2026-04-19T08:00:27.952Z</time></trkpt><trkpt lat="45.7491793" lon="7.4411475"><ele>1003.0</ele><time>2026-04-19T08:00:30.949Z</time></trkpt><trkpt lat="45.7492228" lon="7.441258"><ele>1002.9999999999999</ele><time>2026-04-19T08:00:34.951Z</time></trkpt><trkpt lat="45.7492621" lon="7.4413589"><ele>1003.0</ele><time>2026-04-19T08:00:37.945Z</time></trkpt><trkpt lat="45.749299" lon="7.4414344"><ele>1003.0</ele><time>2026-04-19T08:00:41.946Z</time></trkpt><trkpt lat="45.7493251" lon="7.4415194"><ele>1002.9999999999999</ele><time>2026-04-19T08:00:44.95Z</time></trkpt><trkpt lat="45.749352" lon="7.4416157"><ele>1003.0</ele><time>2026-04-19T08:00:48.942Z</time></trkpt><trkpt lat="45.7493659" lon="7.4417103"><ele>1003.0</ele><time>2026-04-19T08:00:51.951Z</time></trkpt><trkpt lat="45.749385" lon="7.4418105"><ele>1008.5714285714286</ele><time>2026-04-19T08:00:55.955Z</time></trkpt><trkpt lat="45.7493991" lon="7.4418999"><ele>1014.1428571428571</ele><time>2026-04-19T08:00:58.947Z</time></trkpt><trkpt lat="45.7494059" lon="7.4419942"><ele>1019.7142857142857</ele><time>2026-04-19T08:01:03.027Z</time></trkpt><trkpt lat="45.7494131" lon="7.4420974"><ele>1025.2857142857142</ele><time>2026-04-19T08:01:05.952Z</time></trkpt><trkpt lat="45.7494177" lon="7.4421901"><ele>1030.857142857143</ele><time>2026-04-19T08:01:09.035Z</time></trkpt><trkpt lat="45.7494103" lon="7.4422881"><ele>1036.4285714285713</ele><time>2026-04-19T08:01:11.959Z</time></trkpt><trkpt lat="45.7493973" lon="7.4423849"><ele>1042.0</ele><time>2026-04-19T08:01:15.029Z</time></trkpt><trkpt lat="45.7493822" lon="7.4424828"><ele>1038.5</ele><time>2026-04-19T08:01:17.947Z</time></trkpt><trkpt lat="45.7493571" lon="7.4425885"><ele>1035.0</ele><time>2026-04-19T08:01:22.03Z</time></trkpt><trkpt lat="45.7493305" lon="7.4426783"><ele>1031.5</ele><time>2026-04-19T08:01:24.955Z</time></trkpt><trkpt lat="45.7493084" lon="7.4427691"><ele>1028.0</ele><time>2026-04-19T08:01:27.951Z</time></trkpt><trkpt lat="45.7492864" lon="7.4428817"><ele>1024.5</ele><time>2026-04-19T08:01:31.956Z</time></trkpt><trkpt lat="45.7492687" lon="7.4430017"><ele>1021.0</ele><time>2026-04-19T08:01:35.953Z</time></trkpt><trkpt lat="45.7492561" lon="7.4430998"><ele>1021.0</ele><time>2026-04-19T08:01:38.95Z</time></trkpt><trkpt lat="45.7492416" lon="7.4432153"><ele>1021.0</ele><time>2026-04-19T08:01:42.98Z</time></trkpt><trkpt lat="45.7492345" lon="7.4433296"><ele>1021.0</ele><time>2026-04-19T08:01:46.948Z</time></trkpt><trkpt lat="45.7492302" lon="7.4434236"><ele>1021.0</ele><time>2026-04-19T08:01:49.952Z</time></trkpt><trkpt lat="45.7492196" lon="7.4435192"><ele>1021.0</ele><time>2026-04-19T08:01:53.016Z</time></trkpt><trkpt lat="45.7492062" lon="7.4436161"><ele>1021.0</ele><time>2026-04-19T08:01:55.963Z</time></trkpt><trkpt lat="45.7491979" lon="7.4437082"><ele>1021.0</ele><time>2026-04-19T08:01:58.955Z</time></trkpt><trkpt lat="45.749188" lon="7.4438048"><ele>1021.5714285714286</ele><time>2026-04-19T08:02:02.005Z</time></trkpt><trkpt lat="45.7491733" lon="7.443896"><ele>1022.1428571428571</ele><time>2026-04-19T08:02:04.947Z</time></trkpt><trkpt lat="45.7491706" lon="7.4440135"><ele>1022.7142857142857</ele><time>2026-04-19T08:02:08.95Z</time></trkpt><trkpt lat="45.7491701" lon="7.4441169"><ele>1023.2857142857142</ele><time>2026-04-19T08:02:11.948Z</time></trkpt><trkpt lat="45.7491886" lon="7.4442217"><ele>1023.8571428571429</ele><time>2026-04-19T08:02:15.948Z</time></trkpt><trkpt lat="45.7492117" lon="7.4443171"><ele>1024.4285714285713</ele><time>2026-04-19T08:02:18.951Z</time></trkpt><trkpt lat="45.7492345" lon="7.4444083"><ele>1025.0</ele><time>2026-04-19T08:02:21.965Z</time></trkpt><trkpt lat="45.7492647" lon="7.4444948"><ele>1024.9999999999998</ele><time>2026-04-19T08:02:25.027Z</time></trkpt><trkpt lat="45.7492959" lon="7.444603"><ele>1025.0</ele><time>2026-04-19T08:02:28.945Z</time></trkpt><trkpt lat="45.749314" lon="7.4447009"><ele>1025.0</ele><time>2026-04-19T08:02:31.951Z</time></trkpt><trkpt lat="45.7493351" lon="7.4447927"><ele>1025.0</ele><time>2026-04-19T08:02:35.018Z</time></trkpt><trkpt lat="45.7493497" lon="7.4448885"><ele>1025.0</ele><time>2026-04-19T08:02:37.947Z</time></trkpt><trkpt lat="45.7493734" lon="7.4449801"><ele>1024.9999999999998</ele><time>2026-04-19T08:02:40.955Z</time></trkpt><trkpt lat="45.7494011" lon="7.4450921"><ele>1025.0</ele><time>2026-04-19T08:02:45.033Z</time></trkpt><trkpt lat="45.7494258" lon="7.4451813"><ele>1028.2857142857142</ele><time>2026-04-19T08:02:47.962Z</time></trkpt><trkpt lat="45.7494475" lon="7.4452737"><ele>1031.5714285714284</ele><time>2026-04-19T08:02:50.957Z</time></trkpt><trkpt lat="45.7494724" lon="7.4453702"><ele>1034.857142857143</ele><time>2026-04-19T08:02:53.955Z</time></trkpt><trkpt lat="45.7494958" lon="7.4454615"><ele>1038.142857142857</ele><time>2026-04-19T08:02:56.95Z</time></trkpt><trkpt lat="45.7495305" lon="7.4455593"><ele>1041.4285714285716</ele><time>2026-04-19T08:03:00.948Z</time></trkpt><trkpt lat="45.7495843" lon="7.4456529"><ele>1044.7142857142858</ele><time>2026-04-19T08:03:04.948Z</time></trkpt><trkpt lat="45.7496383" lon="7.4457132"><ele>1048.0</ele><time>2026-04-19T08:03:07.95Z</time></trkpt><trkpt lat="45.7496854" lon="7.4457738"><ele>1048.0</ele><time>2026-04-19T08:03:10.949Z</time></trkpt><trkpt lat="45.749742" lon="7.4458236"><ele>1048.0</ele><time>2026-04-19T08:03:13.95Z</time></trkpt><trkpt lat="45.7498032" lon="7.4458959"><ele>1048.0</ele><time>2026-04-19T08:03:17.95Z</time></trkpt><trkpt lat="45.7498629" lon="7.4459832"><ele>1048.0</ele><time>2026-04-19T08:03:21.954Z</time></trkpt><trkpt lat="45.7498983" lon="7.4460579"><ele>1048.0</ele><time>2026-04-19T08:03:25.027Z</time></trkpt><trkpt lat="45.7499241" lon="7.4461416"><ele>1048.0</ele><time>2026-04-19T08:03:27.951Z</time></trkpt><trkpt lat="45.749939" lon="7.4462319"><ele>1048.0</ele><time>2026-04-19T08:03:30.948Z</time></trkpt><trkpt lat="45.7499387" lon="7.4463474"><ele>1047.5</ele><time>2026-04-19T08:03:34.987Z</time></trkpt><trkpt lat="45.749943" lon="7.4464577"><ele>1047.0</ele><time>2026-04-19T08:03:38.95Z</time></trkpt><trkpt lat="45.7499322" lon="7.4465712"><ele>1046.5</ele><time>2026-04-19T08:03:42.95Z</time></trkpt><trkpt lat="45.7499277" lon="7.4466627"><ele>1046.0</ele><time>2026-04-19T08:03:45.948Z</time></trkpt><trkpt lat="45.7499261" lon="7.4467805"><ele>1045.5</ele><time>2026-04-19T08:03:49.947Z</time></trkpt><trkpt lat="45.7499217" lon="7.4468771"><ele>1045.0</ele><time>2026-04-19T08:03:52.946Z</time></trkpt><trkpt lat="45.7499354" lon="7.4469925"><ele>1045.0</ele><time>2026-04-19T08:03:56.947Z</time></trkpt><trkpt lat="45.7499699" lon="7.4470708"><ele>1045.0</ele><time>2026-04-19T08:03:59.949Z</time></trkpt><trkpt lat="45.7500259" lon="7.4471219"><ele>1045.0</ele><time>2026-04-19T08:04:02.948Z</time></trkpt><trkpt lat="45.7500904" lon="7.4471351"><ele>1045.0</ele><time>2026-04-19T08:04:05.938Z</time></trkpt><trkpt lat="45.7501546" lon="7.4471118"><ele>1045.0</ele><time>2026-04-19T08:04:08.94Z</time></trkpt><trkpt lat="45.750213" lon="7.4470641"><ele>1045.0</ele><time>2026-04-19T08:04:11.94Z</time></trkpt><trkpt lat="45.7502574" lon="7.4469915"><ele>1045.0</ele><time>2026-04-19T08:04:14.943Z</time></trkpt><trkpt lat="45.7502833" lon="7.4468982"><ele>1045.5714285714284</ele><time>2026-04-19T08:04:18.033Z</time></trkpt><trkpt lat="45.7503129" lon="7.4468093"><ele>1046.142857142857</ele><time>2026-04-19T08:04:20.946Z</time></trkpt><trkpt lat="45.7503236" lon="7.446714"><ele>1046.7142857142858</ele><time>2026-04-19T08:04:23.955Z</time></trkpt><trkpt lat="45.7503444" lon="7.4466256"><ele>1047.2857142857142</ele><time>2026-04-19T08:04:26.943Z</time></trkpt><trkpt lat="45.7503726" lon="7.4465419"><ele>1047.857142857143</ele><time>2026-04-19T08:04:29.942Z</time></trkpt><trkpt lat="45.7503879" lon="7.4464527"><ele>1048.4285714285713</ele><time>2026-04-19T08:04:32.943Z</time></trkpt><trkpt lat="45.7504133" lon="7.4463628"><ele>1049.0</ele><time>2026-04-19T08:04:35.943Z</time></trkpt><trkpt lat="45.7504373" lon="7.4462657"><ele>1050.4285714285713</ele><time>2026-04-19T08:04:38.938Z</time></trkpt><trkpt lat="45.7504511" lon="7.4461701"><ele>1051.857142857143</ele><time>2026-04-19T08:04:41.942Z</time></trkpt><trkpt lat="45.7504734" lon="7.4460718"><ele>1053.2857142857142</ele><time>2026-04-19T08:04:45.023Z</time></trkpt><trkpt lat="45.750496" lon="7.4459819"><ele>1054.7142857142858</ele><time>2026-04-19T08:04:47.946Z</time></trkpt><trkpt lat="45.7505223" lon="7.4458998"><ele>1056.142857142857</ele><time>2026-04-19T08:04:50.95Z</time></trkpt><trkpt lat="45.7505638" lon="7.4458241"><ele>1057.5714285714284</ele><time>2026-04-19T08:04:53.954Z</time></trkpt><trkpt lat="45.7506141" lon="7.4457643"><ele>1059.0</ele><time>2026-04-19T08:04:56.956Z</time></trkpt><trkpt lat="45.7506728" lon="7.4457202"><ele>1059.0</ele><time>2026-04-19T08:04:59.963Z</time></trkpt><trkpt lat="45.7507383" lon="7.4457128"><ele>1059.0</ele><time>2026-04-19T08:05:02.962Z</time></trkpt><trkpt lat="45.7508223" lon="7.44572"><ele>1059.0</ele><time>2026-04-19T08:05:06.961Z</time></trkpt><trkpt lat="45.7508858" lon="7.4457149"><ele>1059.0</ele><time>2026-04-19T08:05:09.962Z</time></trkpt><trkpt lat="45.7509516" lon="7.4457255"><ele>1059.0</ele><time>2026-04-19T08:05:13.035Z</time></trkpt><trkpt lat="45.7510249" lon="7.4457256"><ele>1059.0</ele><time>2026-04-19T08:05:15.95Z</time></trkpt><trkpt lat="45.7510961" lon="7.4457348"><ele>1059.0</ele><time>2026-04-19T08:05:19.029Z</time></trkpt><trkpt lat="45.7511722" lon="7.445738"><ele>1061.0</ele><time>2026-04-19T08:05:21.952Z</time></trkpt><trkpt lat="45.75125" lon="7.4457332"><ele>1063.0</ele><time>2026-04-19T08:05:24.956Z</time></trkpt><trkpt lat="45.7513228" lon="7.4457432"><ele>1065.0</ele><time>2026-04-19T08:05:27.955Z</time></trkpt><trkpt lat="45.7514015" lon="7.445763"><ele>1067.0</ele><time>2026-04-19T08:05:30.952Z</time></trkpt><trkpt lat="45.7514744" lon="7.4457809"><ele>1069.0</ele><time>2026-04-19T08:05:33.952Z</time></trkpt><trkpt lat="45.7515468" lon="7.4458071"><ele>1071.0</ele><time>2026-04-19T08:05:37.034Z</time></trkpt><trkpt lat="45.7516136" lon="7.445842"><ele>1071.0</ele><time>2026-04-19T08:05:39.962Z</time></trkpt><trkpt lat="45.7516881" lon="7.4458743"><ele>1071.0</ele><time>2026-04-19T08:05:42.963Z</time></trkpt><trkpt lat="45.7517532" lon="7.4459096"><ele>1071.0</ele><time>2026-04-19T08:05:45.964Z</time></trkpt><trkpt lat="45.7518163" lon="7.4459515"><ele>1071.0</ele><time>2026-04-19T08:05:48.959Z</time></trkpt><trkpt lat="45.751878" lon="7.4460052"><ele>1071.0</ele><time>2026-04-19T08:05:51.968Z</time></trkpt><trkpt lat="45.7519388" lon="7.4460539"><ele>1071.0</ele><time>2026-04-19T08:05:54.964Z</time></trkpt><trkpt lat="45.7520011" lon="7.4461024"><ele>1071.0</ele><time>2026-04-19T08:05:57.962Z</time></trkpt><trkpt lat="45.7520628" lon="7.4461445"><ele>1072.2857142857142</ele><time>2026-04-19T08:06:00.96Z</time></trkpt><trkpt lat="45.7521342" lon="7.446183"><ele>1073.5714285714284</ele><time>2026-04-19T08:06:03.964Z</time></trkpt><trkpt lat="45.7522103" lon="7.4461906"><ele>1074.857142857143</ele><time>2026-04-19T08:06:06.958Z</time></trkpt><trkpt lat="45.7522823" lon="7.4461796"><ele>1076.142857142857</ele><time>2026-04-19T08:06:09.954Z</time></trkpt><trkpt lat="45.7523507" lon="7.4461502"><ele>1077.4285714285713</ele><time>2026-04-19T08:06:12.958Z</time></trkpt><trkpt lat="45.7524144" lon="7.4461029"><ele>1078.7142857142858</ele><time>2026-04-19T08:06:15.958Z</time></trkpt><trkpt lat="45.7524794" lon="7.4460587"><ele>1080.0</ele><time>2026-04-19T08:06:19.061Z</time></trkpt><trkpt lat="45.7525426" lon="7.4460134"><ele>1080.0</ele><time>2026-04-19T08:06:21.959Z</time></trkpt><trkpt lat="45.7526068" lon="7.4459594"><ele>1080.0</ele><time>2026-04-19T08:06:24.971Z</time></trkpt><trkpt lat="45.7526751" lon="7.4459127"><ele>1080.0</ele><time>2026-04-19T08:06:27.961Z</time></trkpt><trkpt lat="45.7527431" lon="7.445871"><ele>1080.0</ele><time>2026-04-19T08:06:30.961Z</time></trkpt><trkpt lat="45.752816" lon="7.4458291"><ele>1080.0</ele><time>2026-04-19T08:06:33.967Z</time></trkpt><trkpt lat="45.752885" lon="7.4458021"><ele>1080.0</ele><time>2026-04-19T08:06:36.957Z</time></trkpt><trkpt lat="45.7529595" lon="7.4457964"><ele>1080.0</ele><time>2026-04-19T08:06:39.966Z</time></trkpt><trkpt lat="45.7530332" lon="7.4458047"><ele>1080.142857142857</ele><time>2026-04-19T08:06:42.958Z</time></trkpt><trkpt lat="45.7531036" lon="7.4458231"><ele>1080.2857142857142</ele><time>2026-04-19T08:06:45.957Z</time></trkpt><trkpt lat="45.7531772" lon="7.4458539"><ele>1080.4285714285713</ele><time>2026-04-19T08:06:48.964Z</time></trkpt><trkpt lat="45.7532529" lon="7.4458755"><ele>1080.5714285714284</ele><time>2026-04-19T08:06:51.961Z</time></trkpt><trkpt lat="45.7533247" lon="7.4458819"><ele>1080.7142857142858</ele><time>2026-04-19T08:06:54.964Z</time></trkpt><trkpt lat="45.7533959" lon="7.4458741"><ele>1080.8571428571427</ele><time>2026-04-19T08:06:57.958Z</time></trkpt><trkpt lat="45.7534582" lon="7.4458535"><ele>1081.0</ele><time>2026-04-19T08:07:00.959Z</time></trkpt><trkpt lat="45.7535248" lon="7.4458299"><ele>1083.0</ele><time>2026-04-19T08:07:03.962Z</time></trkpt><trkpt lat="45.753596" lon="7.4457945"><ele>1085.0</ele><time>2026-04-19T08:07:06.999Z</time></trkpt><trkpt lat="45.7536626" lon="7.4457456"><ele>1087.0</ele><time>2026-04-19T08:07:09.956Z</time></trkpt><trkpt lat="45.7537303" lon="7.4456915"><ele>1089.0</ele><time>2026-04-19T08:07:13.955Z</time></trkpt><trkpt lat="45.7538014" lon="7.4456423"><ele>1091.0</ele><time>2026-04-19T08:07:18.03Z</time></trkpt><trkpt lat="45.7538754" lon="7.4455975"><ele>1093.0</ele><time>2026-04-19T08:07:21.947Z</time></trkpt><trkpt lat="45.7539503" lon="7.4455802"><ele>1093.0</ele><time>2026-04-19T08:07:25.951Z</time></trkpt><trkpt lat="45.7540271" lon="7.4455798"><ele>1093.0</ele><time>2026-04-19T08:07:29.944Z</time></trkpt><trkpt lat="45.7540996" lon="7.4455969"><ele>1093.0</ele><time>2026-04-19T08:07:34.029Z</time></trkpt><trkpt lat="45.7541772" lon="7.4456141"><ele>1093.0</ele><time>2026-04-19T08:07:38.029Z</time></trkpt><trkpt lat="45.7542386" lon="7.4456352"><ele>1093.0</ele><time>2026-04-19T08:07:40.942Z</time></trkpt><trkpt lat="45.7543097" lon="7.4456644"><ele>1093.0</ele><time>2026-04-19T08:07:44.943Z</time></trkpt><trkpt lat="45.7543825" lon="7.4456968"><ele>1093.0</ele><time>2026-04-19T08:07:49.94Z</time></trkpt><trkpt lat="45.7544549" lon="7.4457287"><ele>1096.0</ele><time>2026-04-19T08:07:55.031Z</time></trkpt><trkpt lat="45.7545249" lon="7.4457696"><ele>1099.0</ele><time>2026-04-19T08:07:59.952Z</time></trkpt><trkpt lat="45.754594" lon="7.4458168"><ele>1102.0</ele><time>2026-04-19T08:08:04.979Z</time></trkpt><trkpt lat="45.754665" lon="7.445853"><ele>1105.0</ele><time>2026-04-19T08:08:09.953Z</time></trkpt><trkpt lat="45.7547354" lon="7.4458722"><ele>1108.0</ele><time>2026-04-19T08:08:15.028Z</time></trkpt><trkpt lat="45.7548149" lon="7.4458862"><ele>1111.0</ele><time>2026-04-19T08:08:19.947Z</time></trkpt><trkpt lat="45.7548901" lon="7.4459077"><ele>1111.0</ele><time>2026-04-19T08:08:24.938Z</time></trkpt><trkpt lat="45.7549591" lon="7.4459358"><ele>1111.0</ele><time>2026-04-19T08:08:30.035Z</time></trkpt><trkpt lat="45.7550288" lon="7.4459674"><ele>1111.0</ele><time>2026-04-19T08:08:35.036Z</time></trkpt><trkpt lat="45.7550898" lon="7.445999"><ele>1111.0</ele><time>2026-04-19T08:08:38.952Z</time></trkpt><trkpt lat="45.7551599" lon="7.4459992"><ele>1111.0</ele><time>2026-04-19T08:08:44.039Z</time></trkpt><trkpt lat="45.7552223" lon="7.4459872"><ele>1111.0</ele><time>2026-04-19T08:08:47.952Z</time></trkpt><trkpt lat="45.7552887" lon="7.4459921"><ele>1111.0</ele><time>2026-04-19T08:08:52.953Z</time></trkpt><trkpt lat="45.7553554" lon="7.4459753"><ele>1113.4285714285716</ele><time>2026-04-19T08:08:57.95Z</time></trkpt><trkpt lat="45.7554246" lon="7.4459572"><ele>1115.857142857143</ele><time>2026-04-19T08:09:03.961Z</time></trkpt><trkpt lat="45.7554924" lon="7.4459432"><ele>1118.2857142857142</ele><time>2026-04-19T08:09:08.959Z</time></trkpt><trkpt lat="45.7555548" lon="7.4459038"><ele>1120.7142857142858</ele><time>2026-04-19T08:09:13.961Z</time></trkpt><trkpt lat="45.7556196" lon="7.4458623"><ele>1123.142857142857</ele><time>2026-04-19T08:09:18.948Z</time></trkpt><trkpt lat="45.7556808" lon="7.4457937"><ele>1125.5714285714287</ele><time>2026-04-19T08:09:23.947Z</time></trkpt><trkpt lat="45.7557201" lon="7.4457199"><ele>1128.0</ele><time>2026-04-19T08:09:28.95Z</time></trkpt><trkpt lat="45.7557722" lon="7.4456484"><ele>1128.0</ele><time>2026-04-19T08:09:33.949Z</time></trkpt><trkpt lat="45.7558403" lon="7.445594"><ele>1128.0</ele><time>2026-04-19T08:09:38.951Z</time></trkpt><trkpt lat="45.7559032" lon="7.4455502"><ele>1128.0</ele><time>2026-04-19T08:09:43.957Z</time></trkpt><trkpt lat="45.7559631" lon="7.4455103"><ele>1128.0</ele><time>2026-04-19T08:09:47.952Z</time></trkpt><trkpt lat="45.7560252" lon="7.445475"><ele>1128.0</ele><time>2026-04-19T08:09:52.951Z</time></trkpt><trkpt lat="45.7560853" lon="7.445438"><ele>1128.0</ele><time>2026-04-19T08:09:56.953Z</time></trkpt><trkpt lat="45.756145" lon="7.4454003"><ele>1128.0</ele><time>2026-04-19T08:10:00.957Z</time></trkpt><trkpt lat="45.7562085" lon="7.4453469"><ele>1130.7142857142858</ele><time>2026-04-19T08:10:04.951Z</time></trkpt><trkpt lat="45.7562688" lon="7.4453118"><ele>1133.4285714285713</ele><time>2026-04-19T08:10:08.954Z</time></trkpt><trkpt lat="45.7563284" lon="7.4452825"><ele>1136.142857142857</ele><time>2026-04-19T08:10:12.962Z</time></trkpt><trkpt lat="45.7563987" lon="7.445242"><ele>1138.857142857143</ele><time>2026-04-19T08:10:17.953Z</time></trkpt><trkpt lat="45.7564601" lon="7.4452088"><ele>1141.5714285714287</ele><time>2026-04-19T08:10:21.952Z</time></trkpt><trkpt lat="45.7565338" lon="7.4451917"><ele>1144.2857142857142</ele><time>2026-04-19T08:10:26.955Z</time></trkpt><trkpt lat="45.7565999" lon="7.4451785"><ele>1147.0</ele><time>2026-04-19T08:10:30.95Z</time></trkpt><trkpt lat="45.7566639" lon="7.4451919"><ele>1147.0</ele><time>2026-04-19T08:10:34.951Z</time></trkpt><trkpt lat="45.756739" lon="7.445216"><ele>1147.0</ele><time>2026-04-19T08:10:39.955Z</time></trkpt><trkpt lat="45.7568117" lon="7.4452598"><ele>1147.0</ele><time>2026-04-19T08:10:44.954Z</time></trkpt><trkpt lat="45.7568723" lon="7.4452906"><ele>1147.0</ele><time>2026-04-19T08:10:48.947Z</time></trkpt><trkpt lat="45.7569332" lon="7.445316"><ele>1147.0</ele><time>2026-04-19T08:10:52.964Z</time></trkpt><trkpt lat="45.7569966" lon="7.4453327"><ele>1147.0</ele><time>2026-04-19T08:10:56.946Z</time></trkpt><trkpt lat="45.7570576" lon="7.4453603"><ele>1147.0</ele><time>2026-04-19T08:11:00.943Z</time></trkpt><trkpt lat="45.7571146" lon="7.4454018"><ele>1146.2857142857142</ele><time>2026-04-19T08:11:04.948Z</time></trkpt><trkpt lat="45.7571776" lon="7.4454378"><ele>1145.5714285714287</ele><time>2026-04-19T08:11:08.945Z</time></trkpt><trkpt lat="45.7572397" lon="7.4454541"><ele>1144.857142857143</ele><time>2026-04-19T08:11:12.946Z</time></trkpt><trkpt lat="45.7573042" lon="7.445471"><ele>1144.142857142857</ele><time>2026-04-19T08:11:16.952Z</time></trkpt><trkpt lat="45.7573803" lon="7.4454551"><ele>1143.4285714285713</ele><time>2026-04-19T08:11:21.945Z</time></trkpt><trkpt lat="45.7574444" lon="7.4454735"><ele>1142.7142857142858</ele><time>2026-04-19T08:11:25.951Z</time></trkpt><trkpt lat="45.7575192" lon="7.4454996"><ele>1142.0</ele><time>2026-04-19T08:11:30.949Z</time></trkpt><trkpt lat="45.7575789" lon="7.445538"><ele>1142.0</ele><time>2026-04-19T08:11:34.984Z</time></trkpt><trkpt lat="45.7576417" lon="7.4455768"><ele>1142.0</ele><time>2026-04-19T08:11:38.949Z</time></trkpt><trkpt lat="45.7577004" lon="7.4456177"><ele>1142.0</ele><time>2026-04-19T08:11:42.948Z</time></trkpt><trkpt lat="45.7577585" lon="7.4456852"><ele>1142.0</ele><time>2026-04-19T08:11:48.028Z</time></trkpt><trkpt lat="45.7578148" lon="7.4457386"><ele>1142.0</ele><time>2026-04-19T08:11:51.952Z</time></trkpt><trkpt lat="45.7578709" lon="7.4457986"><ele>1142.0</ele><time>2026-04-19T08:11:55.95Z</time></trkpt><trkpt lat="45.7579259" lon="7.4458685"><ele>1142.0</ele><time>2026-04-19T08:11:59.948Z</time></trkpt><trkpt lat="45.7579742" lon="7.4459576"><ele>1142.4285714285716</ele><time>2026-04-19T08:12:03.952Z</time></trkpt><trkpt lat="45.7580333" lon="7.4460331"><ele>1142.857142857143</ele><time>2026-04-19T08:12:07.95Z</time></trkpt><trkpt lat="45.7580893" lon="7.4460892"><ele>1143.2857142857142</ele><time>2026-04-19T08:12:10.947Z</time></trkpt><trkpt lat="45.758141" lon="7.4461508"><ele>1143.7142857142858</ele><time>2026-04-19T08:12:13.946Z</time></trkpt><trkpt lat="45.7581967" lon="7.4462058"><ele>1144.142857142857</ele><time>2026-04-19T08:12:17.029Z</time></trkpt><trkpt lat="45.7582581" lon="7.4462627"><ele>1144.5714285714287</ele><time>2026-04-19T08:12:19.949Z</time></trkpt><trkpt lat="45.7583164" lon="7.4463135"><ele>1145.0</ele><time>2026-04-19T08:12:23.026Z</time></trkpt><trkpt lat="45.7583786" lon="7.4463532"><ele>1145.0000000000002</ele><time>2026-04-19T08:12:25.955Z</time></trkpt><trkpt lat="45.758441" lon="7.4463692"><ele>1145.0</ele><time>2026-04-19T08:12:29.025Z</time></trkpt><trkpt lat="45.7585103" lon="7.4463632"><ele>1145.0</ele><time>2026-04-19T08:12:31.949Z</time></trkpt><trkpt lat="45.7585781" lon="7.4463595"><ele>1145.0</ele><time>2026-04-19T08:12:35.065Z</time></trkpt><trkpt lat="45.7586445" lon="7.4463661"><ele>1145.0</ele><time>2026-04-19T08:12:37.977Z</time></trkpt><trkpt lat="45.7587211" lon="7.4464033"><ele>1145.0000000000002</ele><time>2026-04-19T08:12:41.947Z</time></trkpt><trkpt lat="45.7587923" lon="7.4464616"><ele>1145.0</ele><time>2026-04-19T08:12:45.944Z</time></trkpt><trkpt lat="45.7588468" lon="7.4465159"><ele>1147.5714285714287</ele><time>2026-04-19T08:12:49.013Z</time></trkpt><trkpt lat="45.7588999" lon="7.4465745"><ele>1150.142857142857</ele><time>2026-04-19T08:12:51.942Z</time></trkpt><trkpt lat="45.7589456" lon="7.4466394"><ele>1152.7142857142858</ele><time>2026-04-19T08:12:54.948Z</time></trkpt><trkpt lat="45.7589923" lon="7.4467033"><ele>1155.2857142857142</ele><time>2026-04-19T08:12:57.955Z</time></trkpt><trkpt lat="45.7590397" lon="7.4467754"><ele>1157.857142857143</ele><time>2026-04-19T08:13:00.946Z</time></trkpt><trkpt lat="45.7590757" lon="7.4468584"><ele>1160.4285714285716</ele><time>2026-04-19T08:13:04.03Z</time></trkpt><trkpt lat="45.7591119" lon="7.446938"><ele>1163.0</ele><time>2026-04-19T08:13:06.949Z</time></trkpt><trkpt lat="45.7591541" lon="7.4470268"><ele>1163.0</ele><time>2026-04-19T08:13:10.945Z</time></trkpt><trkpt lat="45.7591987" lon="7.4471139"><ele>1163.0</ele><time>2026-04-19T08:13:15.944Z</time></trkpt><trkpt lat="45.7592617" lon="7.4471429"><ele>1163.0</ele><time>2026-04-19T08:13:20.944Z</time></trkpt><trkpt lat="45.7592574" lon="7.4470296"><ele>1163.0</ele><time>2026-04-19T08:13:25.949Z</time></trkpt><trkpt lat="45.7592378" lon="7.4469204"><ele>1163.0</ele><time>2026-04-19T08:13:30.964Z</time></trkpt><trkpt lat="45.7592154" lon="7.4468163"><ele>1163.0</ele><time>2026-04-19T08:13:35.957Z</time></trkpt><trkpt lat="45.7592076" lon="7.4467083"><ele>1163.0</ele><time>2026-04-19T08:13:40.944Z</time></trkpt><trkpt lat="45.7591938" lon="7.4466146"><ele>1163.0</ele><time>2026-04-19T08:13:45.031Z</time></trkpt><trkpt lat="45.7591771" lon="7.446527"><ele>1163.0</ele><time>2026-04-19T08:13:49.027Z</time></trkpt><trkpt lat="45.7591578" lon="7.4464377"><ele>1163.0</ele><time>2026-04-19T08:13:52.946Z</time></trkpt><trkpt lat="45.759136" lon="7.4463434"><ele>1163.0</ele><time>2026-04-19T08:13:56.968Z</time></trkpt><trkpt lat="45.7590953" lon="7.4462462"><ele>1163.0</ele><time>2026-04-19T08:14:01.941Z</time></trkpt><trkpt lat="45.7590386" lon="7.44617"><ele>1163.0</ele><time>2026-04-19T08:14:06.949Z</time></trkpt><trkpt lat="45.758997" lon="7.4460789"><ele>1165.5714285714287</ele><time>2026-04-19T08:14:11.952Z</time></trkpt><trkpt lat="45.7589562" lon="7.4459951"><ele>1168.142857142857</ele><time>2026-04-19T08:14:15.951Z</time></trkpt><trkpt lat="45.7589109" lon="7.4459189"><ele>1170.7142857142858</ele><time>2026-04-19T08:14:20.037Z</time></trkpt><trkpt lat="45.7588604" lon="7.4458351"><ele>1173.2857142857142</ele><time>2026-04-19T08:14:23.948Z</time></trkpt><trkpt lat="45.7588184" lon="7.4457541"><ele>1175.857142857143</ele><time>2026-04-19T08:14:27.945Z</time></trkpt><trkpt lat="45.7587619" lon="7.4456698"><ele>1178.4285714285716</ele><time>2026-04-19T08:14:31.944Z</time></trkpt><trkpt lat="45.7587179" lon="7.4455951"><ele>1181.0</ele><time>2026-04-19T08:14:35.948Z</time></trkpt><trkpt lat="45.758672" lon="7.4455014"><ele>1180.7142857142858</ele><time>2026-04-19T08:14:40.032Z</time></trkpt><trkpt lat="45.75864" lon="7.4454141"><ele>1180.4285714285716</ele><time>2026-04-19T08:14:43.949Z</time></trkpt><trkpt lat="45.7586093" lon="7.4453096"><ele>1180.142857142857</ele><time>2026-04-19T08:14:47.95Z</time></trkpt><trkpt lat="45.7585959" lon="7.4451997"><ele>1179.857142857143</ele><time>2026-04-19T08:14:51.952Z</time></trkpt><trkpt lat="45.7585776" lon="7.4450919"><ele>1179.5714285714284</ele><time>2026-04-19T08:14:55.959Z</time></trkpt><trkpt lat="45.7585386" lon="7.4449901"><ele>1179.2857142857142</ele><time>2026-04-19T08:15:00.026Z</time></trkpt><trkpt lat="45.7584894" lon="7.4449333"><ele>1179.0</ele><time>2026-04-19T08:15:02.954Z</time></trkpt><trkpt lat="45.7584136" lon="7.4448994"><ele>1179.0</ele><time>2026-04-19T08:15:06.957Z</time></trkpt><trkpt lat="45.7583331" lon="7.4448626"><ele>1179.0</ele><time>2026-04-19T08:15:10.941Z</time></trkpt><trkpt lat="45.7582634" lon="7.4448298"><ele>1179.0</ele><time>2026-04-19T08:15:14.938Z</time></trkpt><trkpt lat="45.7581931" lon="7.4447958"><ele>1179.0</ele><time>2026-04-19T08:15:19.031Z</time></trkpt><trkpt lat="45.7581224" lon="7.4447589"><ele>1179.0</ele><time>2026-04-19T08:15:22.944Z</time></trkpt><trkpt lat="45.7580555" lon="7.4447194"><ele>1179.0</ele><time>2026-04-19T08:15:26.955Z</time></trkpt><trkpt lat="45.7579604" lon="7.4446835"><ele>1179.0</ele><time>2026-04-19T08:15:31.95Z</time></trkpt><trkpt lat="45.7578822" lon="7.4446624"><ele>1179.0</ele><time>2026-04-19T08:15:35.951Z</time></trkpt><trkpt lat="45.7578075" lon="7.4446355"><ele>1179.0</ele><time>2026-04-19T08:15:39.959Z</time></trkpt><trkpt lat="45.7577368" lon="7.444588"><ele>1179.0</ele><time>2026-04-19T08:15:43.958Z</time></trkpt><trkpt lat="45.7576746" lon="7.4445425"><ele>1179.0</ele><time>2026-04-19T08:15:47.948Z</time></trkpt><trkpt lat="45.757606" lon="7.444491"><ele>1179.0</ele><time>2026-04-19T08:15:51.943Z</time></trkpt><trkpt lat="45.7575427" lon="7.4444297"><ele>1181.2857142857142</ele><time>2026-04-19T08:15:55.951Z</time></trkpt><trkpt lat="45.7574884" lon="7.4443729"><ele>1183.5714285714284</ele><time>2026-04-19T08:16:00.038Z</time></trkpt><trkpt lat="45.7574315" lon="7.4443031"><ele>1185.8571428571427</ele><time>2026-04-19T08:16:04.943Z</time></trkpt><trkpt lat="45.7573757" lon="7.4442508"><ele>1188.142857142857</ele><time>2026-04-19T08:16:08.942Z</time></trkpt><trkpt lat="45.7573267" lon="7.4441904"><ele>1190.4285714285716</ele><time>2026-04-19T08:16:12.949Z</time></trkpt><trkpt lat="45.7572705" lon="7.4441151"><ele>1192.7142857142856</ele><time>2026-04-19T08:16:17.953Z</time></trkpt><trkpt lat="45.7572259" lon="7.4440405"><ele>1195.0</ele><time>2026-04-19T08:16:21.956Z</time></trkpt><trkpt lat="45.7571812" lon="7.4439732"><ele>1195.0</ele><time>2026-04-19T08:16:25.963Z</time></trkpt><trkpt lat="45.7571417" lon="7.4438854"><ele>1195.0</ele><time>2026-04-19T08:16:30.955Z</time></trkpt><trkpt lat="45.7572166" lon="7.4438974"><ele>1195.0</ele><time>2026-04-19T08:16:36.952Z</time></trkpt><trkpt lat="45.757273" lon="7.4439494"><ele>1195.0</ele><time>2026-04-19T08:16:40.948Z</time></trkpt><trkpt lat="45.7573228" lon="7.4440073"><ele>1195.0</ele><time>2026-04-19T08:16:44.95Z</time></trkpt><trkpt lat="45.7573855" lon="7.444036"><ele>1195.0</ele><time>2026-04-19T08:16:48.947Z</time></trkpt><trkpt lat="45.7574316" lon="7.4441056"><ele>1195.0</ele><time>2026-04-19T08:16:53.028Z</time></trkpt><trkpt lat="45.7575003" lon="7.4441246"><ele>1195.0</ele><time>2026-04-19T08:16:56.949Z</time></trkpt><trkpt lat="45.75757" lon="7.4441471"><ele>1195.0</ele><time>2026-04-19T08:17:01.947Z</time></trkpt><trkpt lat="45.7576387" lon="7.4441862"><ele>1195.0</ele><time>2026-04-19T08:17:05.95Z</time></trkpt><trkpt lat="45.7577138" lon="7.4442264"><ele>1195.0</ele><time>2026-04-19T08:17:09.953Z</time></trkpt><trkpt lat="45.7577865" lon="7.4442736"><ele>1195.0</ele><time>2026-04-19T08:17:14.032Z</time></trkpt><trkpt lat="45.7578481" lon="7.4442933"><ele>1195.0</ele><time>2026-04-19T08:17:16.943Z</time></trkpt><trkpt lat="45.7579152" lon="7.4443133"><ele>1195.0</ele><time>2026-04-19T08:17:19.949Z</time></trkpt><trkpt lat="45.7579937" lon="7.4443467"><ele>1197.4285714285713</ele><time>2026-04-19T08:17:23.948Z</time></trkpt><trkpt lat="45.7580584" lon="7.4443566"><ele>1199.857142857143</ele><time>2026-04-19T08:17:26.946Z</time></trkpt><trkpt lat="45.7581372" lon="7.4443547"><ele>1202.2857142857142</ele><time>2026-04-19T08:17:30.95Z</time></trkpt><trkpt lat="45.7582102" lon="7.4443554"><ele>1204.7142857142858</ele><time>2026-04-19T08:17:34.026Z</time></trkpt><trkpt lat="45.7582845" lon="7.4443607"><ele>1207.142857142857</ele><time>2026-04-19T08:17:36.946Z</time></trkpt><trkpt lat="45.7583476" lon="7.4443658"><ele>1209.5714285714287</ele><time>2026-04-19T08:17:39.946Z</time></trkpt><trkpt lat="45.758412" lon="7.4443484"><ele>1212.0</ele><time>2026-04-19T08:17:42.963Z</time></trkpt><trkpt lat="45.7584798" lon="7.4443047"><ele>1215.0</ele><time>2026-04-19T08:17:45.943Z</time></trkpt><trkpt lat="45.7585474" lon="7.4442372"><ele>1218.0</ele><time>2026-04-19T08:17:48.946Z</time></trkpt><trkpt lat="45.7586011" lon="7.4441829"><ele>1221.0</ele><time>2026-04-19T08:17:51.947Z</time></trkpt><trkpt lat="45.7586676" lon="7.4441503"><ele>1224.0</ele><time>2026-04-19T08:17:54.948Z</time></trkpt><trkpt lat="45.7587414" lon="7.444162"><ele>1227.0</ele><time>2026-04-19T08:17:57.949Z</time></trkpt><trkpt lat="45.7587961" lon="7.4442155"><ele>1230.0</ele><time>2026-04-19T08:18:00.951Z</time></trkpt><trkpt lat="45.7588481" lon="7.4443098"><ele>1233.0</ele><time>2026-04-19T08:18:03.956Z</time></trkpt><trkpt lat="45.7588877" lon="7.4444277"><ele>1233.0</ele><time>2026-04-19T08:18:06.95Z</time></trkpt><trkpt lat="45.7589178" lon="7.4445137"><ele>1233.0</ele><time>2026-04-19T08:18:08.954Z</time></trkpt><trkpt lat="45.7589498" lon="7.4445949"><ele>1233.0</ele><time>2026-04-19T08:18:10.953Z</time></trkpt><trkpt lat="45.7589913" lon="7.4446705"><ele>1233.0</ele><time>2026-04-19T08:18:12.95Z</time></trkpt><trkpt lat="45.7590393" lon="7.4447344"><ele>1233.0</ele><time>2026-04-19T08:18:15.028Z</time></trkpt><trkpt lat="45.7590911" lon="7.4447878"><ele>1233.0</ele><time>2026-04-19T08:18:16.946Z</time></trkpt><trkpt lat="45.7591735" lon="7.4448458"><ele>1233.0</ele><time>2026-04-19T08:18:19.946Z</time></trkpt><trkpt lat="45.7592396" lon="7.4448704"><ele>1234.5</ele><time>2026-04-19T08:18:21.969Z</time></trkpt><trkpt lat="45.7593012" lon="7.4448895"><ele>1236.0</ele><time>2026-04-19T08:18:23.942Z</time></trkpt><trkpt lat="45.7593941" lon="7.4448956"><ele>1237.5</ele><time>2026-04-19T08:18:26.949Z</time></trkpt><trkpt lat="45.7594865" lon="7.4449268"><ele>1239.0</ele><time>2026-04-19T08:18:29.95Z</time></trkpt><trkpt lat="45.7595651" lon="7.4449917"><ele>1240.5</ele><time>2026-04-19T08:18:32.951Z</time></trkpt><trkpt lat="45.7596288" lon="7.4450863"><ele>1242.0</ele><time>2026-04-19T08:18:35.949Z</time></trkpt><trkpt lat="45.7596725" lon="7.4451998"><ele>1241.9999999999998</ele><time>2026-04-19T08:18:38.948Z</time></trkpt><trkpt lat="45.7596955" lon="7.4452856"><ele>1242.0</ele><time>2026-04-19T08:18:40.951Z</time></trkpt><trkpt lat="45.7597342" lon="7.4454021"><ele>1242.0</ele><time>2026-04-19T08:18:43.957Z</time></trkpt><trkpt lat="45.7597699" lon="7.4455067"><ele>1242.0</ele><time>2026-04-19T08:18:46.954Z</time></trkpt><trkpt lat="45.7598088" lon="7.4455826"><ele>1242.0</ele><time>2026-04-19T08:18:49.952Z</time></trkpt><trkpt lat="45.7598584" lon="7.4456581"><ele>1241.9999999999998</ele><time>2026-04-19T08:18:52.955Z</time></trkpt><trkpt lat="45.7599204" lon="7.4457201"><ele>1242.0</ele><time>2026-04-19T08:18:55.954Z</time></trkpt><trkpt lat="45.7599838" lon="7.4457746"><ele>1243.9999999999998</ele><time>2026-04-19T08:18:58.943Z</time></trkpt><trkpt lat="45.7600399" lon="7.4458335"><ele>1246.0</ele><time>2026-04-19T08:19:01.956Z</time></trkpt><trkpt lat="45.7600906" lon="7.4459005"><ele>1248.0</ele><time>2026-04-19T08:19:04.955Z</time></trkpt><trkpt lat="45.760137" lon="7.4459688"><ele>1250.0</ele><time>2026-04-19T08:19:07.95Z</time></trkpt><trkpt lat="45.7601846" lon="7.4460362"><ele>1252.0</ele><time>2026-04-19T08:19:10.956Z</time></trkpt><trkpt lat="45.7602352" lon="7.4461035"><ele>1253.9999999999998</ele><time>2026-04-19T08:19:13.952Z</time></trkpt><trkpt lat="45.7602839" lon="7.4461718"><ele>1256.0</ele><time>2026-04-19T08:19:16.955Z</time></trkpt><trkpt lat="45.7603258" lon="7.44624"><ele>1253.4285714285713</ele><time>2026-04-19T08:19:19.949Z</time></trkpt><trkpt lat="45.7603716" lon="7.4463024"><ele>1250.857142857143</ele><time>2026-04-19T08:19:22.951Z</time></trkpt><trkpt lat="45.7604187" lon="7.4463626"><ele>1248.2857142857142</ele><time>2026-04-19T08:19:25.944Z</time></trkpt><trkpt lat="45.7604712" lon="7.4464252"><ele>1245.7142857142858</ele><time>2026-04-19T08:19:28.952Z</time></trkpt><trkpt lat="45.7605195" lon="7.4464969"><ele>1243.142857142857</ele><time>2026-04-19T08:19:31.951Z</time></trkpt><trkpt lat="45.7605616" lon="7.4465794"><ele>1240.5714285714284</ele><time>2026-04-19T08:19:34.95Z</time></trkpt><trkpt lat="45.7605823" lon="7.4466704"><ele>1238.0</ele><time>2026-04-19T08:19:37.958Z</time></trkpt><trkpt lat="45.7606033" lon="7.4467599"><ele>1238.0</ele><time>2026-04-19T08:19:40.949Z</time></trkpt><trkpt lat="45.760633" lon="7.4468444"><ele>1238.0</ele><time>2026-04-19T08:19:44.026Z</time></trkpt><trkpt lat="45.7606844" lon="7.4469096"><ele>1238.0</ele><time>2026-04-19T08:19:46.957Z</time></trkpt><trkpt lat="45.7607343" lon="7.4469695"><ele>1238.0</ele><time>2026-04-19T08:19:49.956Z</time></trkpt><trkpt lat="45.7607802" lon="7.447033"><ele>1238.0</ele><time>2026-04-19T08:19:52.952Z</time></trkpt><trkpt lat="45.7608509" lon="7.4470911"><ele>1238.0</ele><time>2026-04-19T08:19:56.946Z</time></trkpt><trkpt lat="45.7609079" lon="7.4471361"><ele>1238.0</ele><time>2026-04-19T08:19:59.947Z</time></trkpt><trkpt lat="45.7609877" lon="7.4471648"><ele>1238.2857142857142</ele><time>2026-04-19T08:20:04.026Z</time></trkpt><trkpt lat="45.7610507" lon="7.4471854"><ele>1238.5714285714287</ele><time>2026-04-19T08:20:06.948Z</time></trkpt><trkpt lat="45.7611263" lon="7.4472246"><ele>1238.857142857143</ele><time>2026-04-19T08:20:10.947Z</time></trkpt><trkpt lat="45.7612052" lon="7.4472623"><ele>1239.142857142857</ele><time>2026-04-19T08:20:15.006Z</time></trkpt><trkpt lat="45.7612688" lon="7.4472868"><ele>1239.4285714285713</ele><time>2026-04-19T08:20:17.948Z</time></trkpt><trkpt lat="45.7613335" lon="7.4473164"><ele>1239.7142857142858</ele><time>2026-04-19T08:20:20.951Z</time></trkpt><trkpt lat="45.7614009" lon="7.44735"><ele>1240.0</ele><time>2026-04-19T08:20:24.03Z</time></trkpt><trkpt lat="45.7614678" lon="7.4473864"><ele>1240.0</ele><time>2026-04-19T08:20:26.951Z</time></trkpt><trkpt lat="45.7615281" lon="7.4474288"><ele>1240.0</ele><time>2026-04-19T08:20:29.955Z</time></trkpt><trkpt lat="45.7615822" lon="7.4474818"><ele>1240.0</ele><time>2026-04-19T08:20:32.954Z</time></trkpt><trkpt lat="45.7616332" lon="7.4475512"><ele>1240.0</ele><time>2026-04-19T08:20:36.036Z</time></trkpt><trkpt lat="45.7616848" lon="7.4476088"><ele>1240.0</ele><time>2026-04-19T08:20:38.95Z</time></trkpt><trkpt lat="45.7617394" lon="7.4476654"><ele>1240.0</ele><time>2026-04-19T08:20:41.953Z</time></trkpt><trkpt lat="45.7618033" lon="7.44767"><ele>1240.0</ele><time>2026-04-19T08:20:45.032Z</time></trkpt><trkpt lat="45.7618323" lon="7.4475801"><ele>1240.0</ele><time>2026-04-19T08:20:47.941Z</time></trkpt><trkpt lat="45.7617893" lon="7.4475011"><ele>1240.0</ele><time>2026-04-19T08:20:50.948Z</time></trkpt><trkpt lat="45.7617318" lon="7.4474301"><ele>1240.0</ele><time>2026-04-19T08:20:53.946Z</time></trkpt><trkpt lat="45.7616708" lon="7.4473492"><ele>1240.0</ele><time>2026-04-19T08:20:56.943Z</time></trkpt><trkpt lat="45.7616208" lon="7.4472554"><ele>1240.0</ele><time>2026-04-19T08:20:59.944Z</time></trkpt><trkpt lat="45.7615839" lon="7.4471526"><ele>1240.0</ele><time>2026-04-19T08:21:02.946Z</time></trkpt><trkpt lat="45.76153" lon="7.4470626"><ele>1243.3333333333333</ele><time>2026-04-19T08:21:06.026Z</time></trkpt><trkpt lat="45.7614538" lon="7.4470105"><ele>1246.6666666666665</ele><time>2026-04-19T08:21:08.95Z</time></trkpt><trkpt lat="45.7613722" lon="7.4469751"><ele>1250.0</ele><time>2026-04-19T08:21:11.951Z</time></trkpt><trkpt lat="45.7612943" lon="7.4469308"><ele>1253.3333333333333</ele><time>2026-04-19T08:21:14.949Z</time></trkpt><trkpt lat="45.7612282" lon="7.4468657"><ele>1256.6666666666667</ele><time>2026-04-19T08:21:17.958Z</time></trkpt><trkpt lat="45.7611598" lon="7.4468022"><ele>1260.0</ele><time>2026-04-19T08:21:20.951Z</time></trkpt><trkpt lat="45.7610937" lon="7.4467422"><ele>1259.3333333333333</ele><time>2026-04-19T08:21:23.956Z</time></trkpt><trkpt lat="45.761029" lon="7.4466916"><ele>1258.6666666666667</ele><time>2026-04-19T08:21:26.952Z</time></trkpt><trkpt lat="45.7609853" lon="7.4466021"><ele>1258.0</ele><time>2026-04-19T08:21:29.96Z</time></trkpt><trkpt lat="45.7609563" lon="7.4464964"><ele>1257.3333333333335</ele><time>2026-04-19T08:21:32.953Z</time></trkpt><trkpt lat="45.7609305" lon="7.4463893"><ele>1256.6666666666667</ele><time>2026-04-19T08:21:35.948Z</time></trkpt><trkpt lat="45.760917" lon="7.4462761"><ele>1256.0</ele><time>2026-04-19T08:21:38.953Z</time></trkpt><trkpt lat="45.7608925" lon="7.4461721"><ele>1255.9999999999998</ele><time>2026-04-19T08:21:41.957Z</time></trkpt><trkpt lat="45.7608489" lon="7.4460841"><ele>1256.0</ele><time>2026-04-19T08:21:44.95Z</time></trkpt><trkpt lat="45.7607985" lon="7.445996"><ele>1256.0</ele><time>2026-04-19T08:21:47.952Z</time></trkpt><trkpt lat="45.7607451" lon="7.4459235"><ele>1256.0</ele><time>2026-04-19T08:21:50.956Z</time></trkpt><trkpt lat="45.7606855" lon="7.4458474"><ele>1256.0</ele><time>2026-04-19T08:21:54.026Z</time></trkpt><trkpt lat="45.7606299" lon="7.4457714"><ele>1255.9999999999998</ele><time>2026-04-19T08:21:56.953Z</time></trkpt><trkpt lat="45.7606078" lon="7.4456849"><ele>1256.0</ele><time>2026-04-19T08:22:00.028Z</time></trkpt><trkpt lat="45.7606739" lon="7.4456562"><ele>1256.0</ele><time>2026-04-19T08:22:03.948Z</time></trkpt><trkpt lat="45.760714" lon="7.4457303"><ele>1256.0</ele><time>2026-04-19T08:22:06.951Z</time></trkpt><trkpt lat="45.7607677" lon="7.4457946"><ele>1256.0</ele><time>2026-04-19T08:22:09.949Z</time></trkpt><trkpt lat="45.7608354" lon="7.4458602"><ele>1256.0</ele><time>2026-04-19T08:22:12.953Z</time></trkpt><trkpt lat="45.7609073" lon="7.4459069"><ele>1256.0</ele><time>2026-04-19T08:22:15.951Z</time></trkpt><trkpt lat="45.760982" lon="7.4459551"><ele>1256.0</ele><time>2026-04-19T08:22:19.026Z</time></trkpt><trkpt lat="45.7610504" lon="7.4460218"><ele>1256.5714285714284</ele><time>2026-04-19T08:22:21.949Z</time></trkpt><trkpt lat="45.7610927" lon="7.4460891"><ele>1257.142857142857</ele><time>2026-04-19T08:22:23.948Z</time></trkpt><trkpt lat="45.7611333" lon="7.4461649"><ele>1257.7142857142858</ele><time>2026-04-19T08:22:25.938Z</time></trkpt><trkpt lat="45.7611706" lon="7.4462449"><ele>1258.2857142857142</ele><time>2026-04-19T08:22:27.949Z</time></trkpt><trkpt lat="45.7612111" lon="7.4463162"><ele>1258.857142857143</ele><time>2026-04-19T08:22:29.95Z</time></trkpt><trkpt lat="45.7612544" lon="7.4463876"><ele>1259.4285714285713</ele><time>2026-04-19T08:22:31.948Z</time></trkpt><trkpt lat="45.7613073" lon="7.4464399"><ele>1260.0</ele><time>2026-04-19T08:22:33.942Z</time></trkpt><trkpt lat="45.7613659" lon="7.446479"><ele>1260.0</ele><time>2026-04-19T08:22:35.945Z</time></trkpt><trkpt lat="45.7614298" lon="7.4465134"><ele>1260.0</ele><time>2026-04-19T08:22:37.949Z</time></trkpt><trkpt lat="45.7614958" lon="7.4465435"><ele>1260.0</ele><time>2026-04-19T08:22:40.026Z</time></trkpt><trkpt lat="45.7615604" lon="7.4465694"><ele>1260.0</ele><time>2026-04-19T08:22:41.945Z</time></trkpt><trkpt lat="45.7616283" lon="7.4465855"><ele>1260.0</ele><time>2026-04-19T08:22:43.945Z</time></trkpt><trkpt lat="45.761694" lon="7.446593"><ele>1260.0</ele><time>2026-04-19T08:22:45.947Z</time></trkpt><trkpt lat="45.7617598" lon="7.446601"><ele>1260.0</ele><time>2026-04-19T08:22:47.947Z</time></trkpt><trkpt lat="45.7618298" lon="7.4466418"><ele>1262.1666666666667</ele><time>2026-04-19T08:22:49.946Z</time></trkpt><trkpt lat="45.7618827" lon="7.4467062"><ele>1264.3333333333333</ele><time>2026-04-19T08:22:51.944Z</time></trkpt><trkpt lat="45.7619474" lon="7.4467657"><ele>1266.5</ele><time>2026-04-19T08:22:53.948Z</time></trkpt><trkpt lat="45.7620233" lon="7.4468108"><ele>1268.6666666666665</ele><time>2026-04-19T08:22:55.945Z</time></trkpt><trkpt lat="45.7621006" lon="7.4468285"><ele>1270.8333333333333</ele><time>2026-04-19T08:22:57.948Z</time></trkpt><trkpt lat="45.7621733" lon="7.446835"><ele>1273.0</ele><time>2026-04-19T08:23:00.031Z</time></trkpt><trkpt lat="45.762249" lon="7.4468318"><ele>1273.0</ele><time>2026-04-19T08:23:01.949Z</time></trkpt><trkpt lat="45.7623345" lon="7.4468466"><ele>1273.0</ele><time>2026-04-19T08:23:03.947Z</time></trkpt><trkpt lat="45.7624171" lon="7.4468645"><ele>1273.0</ele><time>2026-04-19T08:23:05.947Z</time></trkpt><trkpt lat="45.7625032" lon="7.446895"><ele>1273.0</ele><time>2026-04-19T08:23:08.017Z</time></trkpt><trkpt lat="45.7625791" lon="7.446893"><ele>1273.0</ele><time>2026-04-19T08:23:10.026Z</time></trkpt><trkpt lat="45.762659" lon="7.44689"><ele>1273.0</ele><time>2026-04-19T08:23:11.946Z</time></trkpt><trkpt lat="45.7627351" lon="7.4468918"><ele>1273.5</ele><time>2026-04-19T08:23:13.948Z</time></trkpt><trkpt lat="45.7628132" lon="7.4468853"><ele>1274.0</ele><time>2026-04-19T08:23:16.035Z</time></trkpt><trkpt lat="45.7628862" lon="7.4468928"><ele>1274.5</ele><time>2026-04-19T08:23:17.953Z</time></trkpt><trkpt lat="45.7629751" lon="7.4468991"><ele>1275.0</ele><time>2026-04-19T08:23:20.03Z</time></trkpt><trkpt lat="45.7630489" lon="7.4469175"><ele>1275.5</ele><time>2026-04-19T08:23:21.944Z</time></trkpt><trkpt lat="45.7631193" lon="7.446956"><ele>1276.0</ele><time>2026-04-19T08:23:23.947Z</time></trkpt><trkpt lat="45.7632028" lon="7.4469914"><ele>1276.0</ele><time>2026-04-19T08:23:25.945Z</time></trkpt><trkpt lat="45.7632786" lon="7.4470287"><ele>1276.0</ele><time>2026-04-19T08:23:27.97Z</time></trkpt><trkpt lat="45.7633515" lon="7.4470648"><ele>1276.0</ele><time>2026-04-19T08:23:29.947Z</time></trkpt><trkpt lat="45.7634255" lon="7.4471071"><ele>1276.0</ele><time>2026-04-19T08:23:31.951Z</time></trkpt><trkpt lat="45.7634881" lon="7.4471776"><ele>1276.0</ele><time>2026-04-19T08:23:33.948Z</time></trkpt><trkpt lat="45.7635325" lon="7.4472553"><ele>1276.0</ele><time>2026-04-19T08:23:35.958Z</time></trkpt><trkpt lat="45.7635819" lon="7.4473188"><ele>1276.857142857143</ele><time>2026-04-19T08:23:37.95Z</time></trkpt><trkpt lat="45.7636364" lon="7.44737"><ele>1277.7142857142856</ele><time>2026-04-19T08:23:40.018Z</time></trkpt><trkpt lat="45.7636901" lon="7.4474226"><ele>1278.5714285714284</ele><time>2026-04-19T08:23:41.95Z</time></trkpt><trkpt lat="45.7637504" lon="7.4474679"><ele>1279.4285714285716</ele><time>2026-04-19T08:23:43.951Z</time></trkpt><trkpt lat="45.7638115" lon="7.4475146"><ele>1280.2857142857142</ele><time>2026-04-19T08:23:45.957Z</time></trkpt><trkpt lat="45.7638672" lon="7.447562"><ele>1281.142857142857</ele><time>2026-04-19T08:23:47.95Z</time></trkpt><trkpt lat="45.7639495" lon="7.4476298"><ele>1282.0</ele><time>2026-04-19T08:23:51.037Z</time></trkpt><trkpt lat="45.7640075" lon="7.4476872"><ele>1282.0</ele><time>2026-04-19T08:23:52.946Z</time></trkpt><trkpt lat="45.7640589" lon="7.4477544"><ele>1282.0</ele><time>2026-04-19T08:23:54.95Z</time></trkpt><trkpt lat="45.7641048" lon="7.4478287"><ele>1282.0</ele><time>2026-04-19T08:23:56.952Z</time></trkpt><trkpt lat="45.7641444" lon="7.447903"><ele>1282.0</ele><time>2026-04-19T08:23:58.95Z</time></trkpt><trkpt lat="45.7641959" lon="7.4480161"><ele>1282.0</ele><time>2026-04-19T08:24:01.953Z</time></trkpt><trkpt lat="45.7642514" lon="7.4481162"><ele>1282.0</ele><time>2026-04-19T08:24:04.962Z</time></trkpt><trkpt lat="45.7643012" lon="7.448197"><ele>1280.7142857142858</ele><time>2026-04-19T08:24:07.958Z</time></trkpt><trkpt lat="45.7643119" lon="7.4482975"><ele>1279.4285714285713</ele><time>2026-04-19T08:24:11.956Z</time></trkpt><trkpt lat="45.7642649" lon="7.448363"><ele>1278.142857142857</ele><time>2026-04-19T08:24:14.956Z</time></trkpt><trkpt lat="45.7642192" lon="7.448454"><ele>1276.857142857143</ele><time>2026-04-19T08:24:18.956Z</time></trkpt><trkpt lat="45.7641958" lon="7.4485466"><ele>1275.5714285714287</ele><time>2026-04-19T08:24:23.95Z</time></trkpt><trkpt lat="45.7642515" lon="7.4484868"><ele>1274.2857142857142</ele><time>2026-04-19T08:26:50.951Z</time></trkpt><trkpt lat="45.7642924" lon="7.4483919"><ele>1273.0</ele><time>2026-04-19T08:26:54.948Z</time></trkpt><trkpt lat="45.7643274" lon="7.4483038"><ele>1275.0</ele><time>2026-04-19T08:26:57.971Z</time></trkpt><trkpt lat="45.7643651" lon="7.4482053"><ele>1277.0</ele><time>2026-04-19T08:27:00.947Z</time></trkpt><trkpt lat="45.7644233" lon="7.4481274"><ele>1279.0</ele><time>2026-04-19T08:27:03.947Z</time></trkpt><trkpt lat="45.7644958" lon="7.448052"><ele>1281.0</ele><time>2026-04-19T08:27:06.951Z</time></trkpt><trkpt lat="45.7645538" lon="7.448006"><ele>1283.0</ele><time>2026-04-19T08:27:09.025Z</time></trkpt><trkpt lat="45.7646159" lon="7.4479823"><ele>1285.0</ele><time>2026-04-19T08:27:10.944Z</time></trkpt><trkpt lat="45.7647058" lon="7.4479581"><ele>1285.0000000000002</ele><time>2026-04-19T08:27:13.952Z</time></trkpt><trkpt lat="45.7647723" lon="7.4479457"><ele>1285.0</ele><time>2026-04-19T08:27:15.95Z</time></trkpt><trkpt lat="45.764866" lon="7.4479392"><ele>1285.0</ele><time>2026-04-19T08:27:19.033Z</time></trkpt><trkpt lat="45.7649302" lon="7.447937"><ele>1285.0</ele><time>2026-04-19T08:27:20.95Z</time></trkpt><trkpt lat="45.7649935" lon="7.4479178"><ele>1285.0</ele><time>2026-04-19T08:27:22.95Z</time></trkpt><trkpt lat="45.7650597" lon="7.4478756"><ele>1285.0000000000002</ele><time>2026-04-19T08:27:24.951Z</time></trkpt><trkpt lat="45.7651163" lon="7.4478099"><ele>1285.0</ele><time>2026-04-19T08:27:27.024Z</time></trkpt><trkpt lat="45.7651609" lon="7.4477444"><ele>1286.0</ele><time>2026-04-19T08:27:29.03Z</time></trkpt><trkpt lat="45.7652159" lon="7.4476558"><ele>1287.0</ele><time>2026-04-19T08:27:31.952Z</time></trkpt><trkpt lat="45.7652699" lon="7.4475526"><ele>1288.0</ele><time>2026-04-19T08:27:34.944Z</time></trkpt><trkpt lat="45.7653295" lon="7.4474467"><ele>1289.0</ele><time>2026-04-19T08:27:38.051Z</time></trkpt><trkpt lat="45.7653836" lon="7.4473442"><ele>1290.0</ele><time>2026-04-19T08:27:40.962Z</time></trkpt><trkpt lat="45.7654242" lon="7.447233"><ele>1291.0</ele><time>2026-04-19T08:27:43.957Z</time></trkpt><trkpt lat="45.7654634" lon="7.447117"><ele>1291.0</ele><time>2026-04-19T08:27:47.022Z</time></trkpt><trkpt lat="45.7655137" lon="7.4470079"><ele>1291.0</ele><time>2026-04-19T08:27:49.949Z</time></trkpt><trkpt lat="45.7655676" lon="7.4469021"><ele>1291.0</ele><time>2026-04-19T08:27:52.95Z</time></trkpt><trkpt lat="45.7656235" lon="7.4467961"><ele>1291.0</ele><time>2026-04-19T08:27:55.951Z</time></trkpt><trkpt lat="45.7656733" lon="7.4466813"><ele>1291.0</ele><time>2026-04-19T08:27:59.017Z</time></trkpt><trkpt lat="45.7657122" lon="7.4466002"><ele>1291.0</ele><time>2026-04-19T08:28:00.946Z</time></trkpt><trkpt lat="45.7657669" lon="7.4464984"><ele>1290.9999999999998</ele><time>2026-04-19T08:28:03.951Z</time></trkpt><trkpt lat="45.7658087" lon="7.4464293"><ele>1291.0</ele><time>2026-04-19T08:28:05.948Z</time></trkpt><trkpt lat="45.7658842" lon="7.4463427"><ele>1291.0</ele><time>2026-04-19T08:28:09.031Z</time></trkpt><trkpt lat="45.7659346" lon="7.446283"><ele>1291.0</ele><time>2026-04-19T08:28:10.944Z</time></trkpt><trkpt lat="45.7659812" lon="7.4462167"><ele>1291.0</ele><time>2026-04-19T08:28:12.948Z</time></trkpt><trkpt lat="45.7660282" lon="7.4461439"><ele>1290.9999999999998</ele><time>2026-04-19T08:28:15.028Z</time></trkpt><trkpt lat="45.7660746" lon="7.4460635"><ele>1291.0</ele><time>2026-04-19T08:28:16.948Z</time></trkpt><trkpt lat="45.7661392" lon="7.4459775"><ele>1292.6</ele><time>2026-04-19T08:28:19.035Z</time></trkpt><trkpt lat="45.7662013" lon="7.4458566"><ele>1294.1999999999998</ele><time>2026-04-19T08:28:20.988Z</time></trkpt><trkpt lat="45.7662436" lon="7.4457121"><ele>1295.8000000000002</ele><time>2026-04-19T08:28:22.951Z</time></trkpt><trkpt lat="45.7662815" lon="7.445534"><ele>1297.4</ele><time>2026-04-19T08:28:24.95Z</time></trkpt><trkpt lat="45.7662997" lon="7.4454327"><ele>1299.0</ele><time>2026-04-19T08:28:25.952Z</time></trkpt><trkpt lat="45.7663265" lon="7.4453435"><ele>1299.0</ele><time>2026-04-19T08:28:26.964Z</time></trkpt><trkpt lat="45.7663736" lon="7.4452688"><ele>1299.0</ele><time>2026-04-19T08:28:27.978Z</time></trkpt><trkpt lat="45.7664315" lon="7.4451976"><ele>1299.0</ele><time>2026-04-19T08:28:28.95Z</time></trkpt><trkpt lat="45.7664967" lon="7.4451294"><ele>1299.0</ele><time>2026-04-19T08:28:30.03Z</time></trkpt><trkpt lat="45.7665606" lon="7.4450635"><ele>1299.0</ele><time>2026-04-19T08:28:30.945Z</time></trkpt><trkpt lat="45.7666237" lon="7.4450091"><ele>1299.0</ele><time>2026-04-19T08:28:31.946Z</time></trkpt><trkpt lat="45.7666891" lon="7.4449574"><ele>1299.0</ele><time>2026-04-19T08:28:32.945Z</time></trkpt><trkpt lat="45.7667439" lon="7.4448972"><ele>1299.0</ele><time>2026-04-19T08:28:33.951Z</time></trkpt><trkpt lat="45.7668319" lon="7.4447928"><ele>1299.0</ele><time>2026-04-19T08:28:35.945Z</time></trkpt><trkpt lat="45.766929" lon="7.4447032"><ele>1299.0</ele><time>2026-04-19T08:28:38.026Z</time></trkpt><trkpt lat="45.7670096" lon="7.444583"><ele>1299.0</ele><time>2026-04-19T08:28:40.025Z</time></trkpt><trkpt lat="45.7670524" lon="7.4444311"><ele>1298.2</ele><time>2026-04-19T08:28:41.942Z</time></trkpt><trkpt lat="45.7670688" lon="7.4442727"><ele>1297.4</ele><time>2026-04-19T08:28:44.013Z</time></trkpt><trkpt lat="45.7671012" lon="7.4441221"><ele>1296.6</ele><time>2026-04-19T08:28:45.94Z</time></trkpt><trkpt lat="45.7671216" lon="7.4439658"><ele>1295.8</ele><time>2026-04-19T08:28:48.017Z</time></trkpt><trkpt lat="45.767137" lon="7.4438142"><ele>1295.0</ele><time>2026-04-19T08:28:50.025Z</time></trkpt><trkpt lat="45.7671632" lon="7.443672"><ele>1295.0</ele><time>2026-04-19T08:28:52.028Z</time></trkpt><trkpt lat="45.7672048" lon="7.4435243"><ele>1295.0</ele><time>2026-04-19T08:28:54.025Z</time></trkpt><trkpt lat="45.7672635" lon="7.4434024"><ele>1295.0</ele><time>2026-04-19T08:28:55.946Z</time></trkpt><trkpt lat="45.7673588" lon="7.4433426"><ele>1295.0</ele><time>2026-04-19T08:28:57.985Z</time></trkpt><trkpt lat="45.7674813" lon="7.443311"><ele>1295.0</ele><time>2026-04-19T08:29:00.024Z</time></trkpt><trkpt lat="45.7676013" lon="7.4432882"><ele>1289.75</ele><time>2026-04-19T08:29:01.944Z</time></trkpt><trkpt lat="45.767721" lon="7.4432611"><ele>1284.5</ele><time>2026-04-19T08:29:03.952Z</time></trkpt><trkpt lat="45.7678475" lon="7.4432291"><ele>1279.25</ele><time>2026-04-19T08:29:05.945Z</time></trkpt><trkpt lat="45.767957" lon="7.4432063"><ele>1274.0</ele><time>2026-04-19T08:29:07.944Z</time></trkpt><trkpt lat="45.7680727" lon="7.4431718"><ele>1274.0</ele><time>2026-04-19T08:29:10.026Z</time></trkpt><trkpt lat="45.7681824" lon="7.4430966"><ele>1274.0</ele><time>2026-04-19T08:29:11.942Z</time></trkpt><trkpt lat="45.7682738" lon="7.4429957"><ele>1274.0</ele><time>2026-04-19T08:29:13.943Z</time></trkpt><trkpt lat="45.7683537" lon="7.442862"><ele>1274.0</ele><time>2026-04-19T08:29:15.945Z</time></trkpt><trkpt lat="45.7684292" lon="7.4427305"><ele>1276.6</ele><time>2026-04-19T08:29:17.943Z</time></trkpt><trkpt lat="45.7685142" lon="7.4425963"><ele>1279.2</ele><time>2026-04-19T08:29:19.946Z</time></trkpt><trkpt lat="45.7686188" lon="7.4425048"><ele>1281.8</ele><time>2026-04-19T08:29:21.947Z</time></trkpt><trkpt lat="45.768681" lon="7.4424781"><ele>1284.3999999999999</ele><time>2026-04-19T08:29:22.947Z</time></trkpt><trkpt lat="45.7687474" lon="7.4424526"><ele>1287.0</ele><time>2026-04-19T08:29:23.943Z</time></trkpt><trkpt lat="45.7688156" lon="7.4424319"><ele>1287.0</ele><time>2026-04-19T08:29:24.943Z</time></trkpt><trkpt lat="45.7689387" lon="7.4423803"><ele>1287.0</ele><time>2026-04-19T08:29:26.947Z</time></trkpt><trkpt lat="45.7690025" lon="7.4423483"><ele>1287.0</ele><time>2026-04-19T08:29:27.941Z</time></trkpt><trkpt lat="45.7690659" lon="7.4423316"><ele>1287.0</ele><time>2026-04-19T08:29:28.945Z</time></trkpt><trkpt lat="45.7691379" lon="7.4423365"><ele>1287.0</ele><time>2026-04-19T08:29:29.942Z</time></trkpt><trkpt lat="45.7692546" lon="7.4423504"><ele>1287.0</ele><time>2026-04-19T08:29:31.946Z</time></trkpt><trkpt lat="45.7693626" lon="7.4423554"><ele>1284.8</ele><time>2026-04-19T08:29:34.028Z</time></trkpt><trkpt lat="45.7694795" lon="7.4423461"><ele>1282.6</ele><time>2026-04-19T08:29:35.954Z</time></trkpt><trkpt lat="45.7695433" lon="7.4423425"><ele>1280.3999999999999</ele><time>2026-04-19T08:29:36.948Z</time></trkpt><trkpt lat="45.7696683" lon="7.4423537"><ele>1278.1999999999998</ele><time>2026-04-19T08:29:39.024Z</time></trkpt><trkpt lat="45.7697849" lon="7.4423572"><ele>1276.0</ele><time>2026-04-19T08:29:40.94Z</time></trkpt><trkpt lat="45.7698947" lon="7.4423554"><ele>1276.0</ele><time>2026-04-19T08:29:42.946Z</time></trkpt><trkpt lat="45.770012" lon="7.44234"><ele>1276.0</ele><time>2026-04-19T08:29:45.031Z</time></trkpt><trkpt lat="45.7701224" lon="7.4423073"><ele>1276.0</ele><time>2026-04-19T08:29:47.005Z</time></trkpt><trkpt lat="45.7702163" lon="7.4422183"><ele>1276.0</ele><time>2026-04-19T08:29:49.011Z</time></trkpt><trkpt lat="45.7703043" lon="7.4421251"><ele>1281.1999999999998</ele><time>2026-04-19T08:29:50.945Z</time></trkpt><trkpt lat="45.7703975" lon="7.4420202"><ele>1286.3999999999999</ele><time>2026-04-19T08:29:52.943Z</time></trkpt><trkpt lat="45.770444" lon="7.4419503"><ele>1291.6</ele><time>2026-04-19T08:29:53.944Z</time></trkpt><trkpt lat="45.7705084" lon="7.4418231"><ele>1296.8</ele><time>2026-04-19T08:29:55.947Z</time></trkpt><trkpt lat="45.7705788" lon="7.4416985"><ele>1302.0</ele><time>2026-04-19T08:29:58.009Z</time></trkpt><trkpt lat="45.7706822" lon="7.4416701"><ele>1302.0</ele><time>2026-04-19T08:30:00.014Z</time></trkpt><trkpt lat="45.7707906" lon="7.4417245"><ele>1302.0</ele><time>2026-04-19T08:30:01.948Z</time></trkpt><trkpt lat="45.7708957" lon="7.4417555"><ele>1302.0</ele><time>2026-04-19T08:30:03.947Z</time></trkpt><trkpt lat="45.7710185" lon="7.4417369"><ele>1302.0</ele><time>2026-04-19T08:30:05.945Z</time></trkpt><trkpt lat="45.7710818" lon="7.4417183"><ele>1302.0</ele><time>2026-04-19T08:30:06.935Z</time></trkpt><trkpt lat="45.771146" lon="7.4417036"><ele>1298.7142857142858</ele><time>2026-04-19T08:30:07.941Z</time></trkpt><trkpt lat="45.7712163" lon="7.4416986"><ele>1295.4285714285716</ele><time>2026-04-19T08:30:08.941Z</time></trkpt><trkpt lat="45.7712888" lon="7.4417004"><ele>1292.142857142857</ele><time>2026-04-19T08:30:09.944Z</time></trkpt><trkpt lat="45.7713588" lon="7.4416673"><ele>1288.857142857143</ele><time>2026-04-19T08:30:10.94Z</time></trkpt><trkpt lat="45.7714197" lon="7.441601"><ele>1285.5714285714287</ele><time>2026-04-19T08:30:11.947Z</time></trkpt><trkpt lat="45.7714785" lon="7.4415499"><ele>1282.2857142857142</ele><time>2026-04-19T08:30:12.941Z</time></trkpt><trkpt lat="45.7715513" lon="7.4415289"><ele>1279.0</ele><time>2026-04-19T08:30:13.94Z</time></trkpt><trkpt lat="45.7716267" lon="7.4415337"><ele>1279.0</ele><time>2026-04-19T08:30:14.943Z</time></trkpt><trkpt lat="45.7716973" lon="7.4415403"><ele>1279.0</ele><time>2026-04-19T08:30:15.947Z</time></trkpt><trkpt lat="45.7717654" lon="7.4415266"><ele>1279.0</ele><time>2026-04-19T08:30:16.944Z</time></trkpt><trkpt lat="45.7718379" lon="7.4414963"><ele>1279.0</ele><time>2026-04-19T08:30:17.94Z</time></trkpt><trkpt lat="45.7719025" lon="7.4414432"><ele>1279.0</ele><time>2026-04-19T08:30:18.951Z</time></trkpt><trkpt lat="45.7719603" lon="7.4413781"><ele>1279.0</ele><time>2026-04-19T08:30:19.941Z</time></trkpt><trkpt lat="45.7720085" lon="7.4413104"><ele>1279.0</ele><time>2026-04-19T08:30:20.947Z</time></trkpt><trkpt lat="45.7720553" lon="7.4412438"><ele>1284.8000000000002</ele><time>2026-04-19T08:30:21.951Z</time></trkpt><trkpt lat="45.7721497" lon="7.4411127"><ele>1290.6000000000001</ele><time>2026-04-19T08:30:23.944Z</time></trkpt><trkpt lat="45.7722262" lon="7.4409951"><ele>1296.4</ele><time>2026-04-19T08:30:25.945Z</time></trkpt><trkpt lat="45.7723021" lon="7.4409285"><ele>1302.2</ele><time>2026-04-19T08:30:27.941Z</time></trkpt><trkpt lat="45.772373" lon="7.4409021"><ele>1308.0</ele><time>2026-04-19T08:30:29.937Z</time></trkpt><trkpt lat="45.7724367" lon="7.4409098"><ele>1308.0</ele><time>2026-04-19T08:30:32.938Z</time></trkpt><trkpt lat="45.7724821" lon="7.440983"><ele>1308.0</ele><time>2026-04-19T08:30:35.937Z</time></trkpt><trkpt lat="45.7724754" lon="7.4410972"><ele>1308.0</ele><time>2026-04-19T08:30:38.945Z</time></trkpt><trkpt lat="45.7724549" lon="7.4412209"><ele>1308.0</ele><time>2026-04-19T08:30:41.943Z</time></trkpt><trkpt lat="45.7724279" lon="7.4413318"><ele>1308.0</ele><time>2026-04-19T08:30:44.943Z</time></trkpt><trkpt lat="45.7724031" lon="7.4414391"><ele>1308.0</ele><time>2026-04-19T08:30:48.01Z</time></trkpt><trkpt lat="45.7723715" lon="7.4415462"><ele>1307.5</ele><time>2026-04-19T08:30:50.944Z</time></trkpt><trkpt lat="45.7723426" lon="7.4416491"><ele>1307.0</ele><time>2026-04-19T08:30:53.942Z</time></trkpt><trkpt lat="45.7723138" lon="7.4417468"><ele>1306.5</ele><time>2026-04-19T08:30:56.941Z</time></trkpt><trkpt lat="45.7722734" lon="7.4418507"><ele>1306.0</ele><time>2026-04-19T08:30:59.943Z</time></trkpt><trkpt lat="45.7722161" lon="7.4419281"><ele>1305.5</ele><time>2026-04-19T08:31:02.94Z</time></trkpt><trkpt lat="45.7721599" lon="7.4419988"><ele>1305.0</ele><time>2026-04-19T08:31:05.944Z</time></trkpt><trkpt lat="45.7721063" lon="7.4420769"><ele>1301.5</ele><time>2026-04-19T08:31:09.027Z</time></trkpt><trkpt lat="45.7720501" lon="7.4421514"><ele>1298.0</ele><time>2026-04-19T08:31:11.946Z</time></trkpt><trkpt lat="45.7719881" lon="7.4422171"><ele>1294.5</ele><time>2026-04-19T08:31:14.942Z</time></trkpt><trkpt lat="45.7719299" lon="7.4422879"><ele>1291.0</ele><time>2026-04-19T08:31:17.943Z</time></trkpt><trkpt lat="45.7718721" lon="7.4423601"><ele>1287.5</ele><time>2026-04-19T08:31:20.946Z</time></trkpt><trkpt lat="45.7718219" lon="7.4424379"><ele>1284.0</ele><time>2026-04-19T08:31:23.943Z</time></trkpt><trkpt lat="45.7717667" lon="7.4425113"><ele>1283.9999999999998</ele><time>2026-04-19T08:31:26.939Z</time></trkpt><trkpt lat="45.7717215" lon="7.4425859"><ele>1284.0</ele><time>2026-04-19T08:31:30.026Z</time></trkpt><trkpt lat="45.7716835" lon="7.4426874"><ele>1284.0</ele><time>2026-04-19T08:31:33.95Z</time></trkpt><trkpt lat="45.7716601" lon="7.4427918"><ele>1284.0</ele><time>2026-04-19T08:31:38.026Z</time></trkpt><trkpt lat="45.7716299" lon="7.4428755"><ele>1284.0</ele><time>2026-04-19T08:31:40.955Z</time></trkpt><trkpt lat="45.7715911" lon="7.4429602"><ele>1283.9999999999998</ele><time>2026-04-19T08:31:43.952Z</time></trkpt><trkpt lat="45.7715621" lon="7.4430495"><ele>1284.0</ele><time>2026-04-19T08:31:46.957Z</time></trkpt><trkpt lat="45.7715271" lon="7.4431545"><ele>1289.142857142857</ele><time>2026-04-19T08:31:50.953Z</time></trkpt><trkpt lat="45.7714808" lon="7.4432521"><ele>1294.2857142857142</ele><time>2026-04-19T08:31:54.953Z</time></trkpt><trkpt lat="45.7714491" lon="7.4433334"><ele>1299.4285714285716</ele><time>2026-04-19T08:31:58.027Z</time></trkpt><trkpt lat="45.7714185" lon="7.4434227"><ele>1304.5714285714284</ele><time>2026-04-19T08:32:00.949Z</time></trkpt><trkpt lat="45.7713662" lon="7.4434961"><ele>1309.7142857142858</ele><time>2026-04-19T08:32:03.945Z</time></trkpt><trkpt lat="45.7713242" lon="7.4435735"><ele>1314.857142857143</ele><time>2026-04-19T08:32:06.944Z</time></trkpt><trkpt lat="45.7712834" lon="7.4436445"><ele>1320.0</ele><time>2026-04-19T08:32:10.027Z</time></trkpt><trkpt lat="45.771235" lon="7.4437066"><ele>1320.0000000000002</ele><time>2026-04-19T08:32:12.984Z</time></trkpt><trkpt lat="45.771193" lon="7.4437745"><ele>1320.0</ele><time>2026-04-19T08:32:15.947Z</time></trkpt><trkpt lat="45.7711369" lon="7.4438308"><ele>1320.0</ele><time>2026-04-19T08:32:19.031Z</time></trkpt><trkpt lat="45.7710702" lon="7.443906"><ele>1320.0</ele><time>2026-04-19T08:32:22.949Z</time></trkpt><trkpt lat="45.7710226" lon="7.4439729"><ele>1320.0</ele><time>2026-04-19T08:32:25.946Z</time></trkpt><trkpt lat="45.7709633" lon="7.4440563"><ele>1320.0000000000002</ele><time>2026-04-19T08:32:30.027Z</time></trkpt><trkpt lat="45.7709095" lon="7.4441447"><ele>1320.0</ele><time>2026-04-19T08:32:33.941Z</time></trkpt><trkpt lat="45.7708608" lon="7.4442362"><ele>1321.1428571428573</ele><time>2026-04-19T08:32:38.026Z</time></trkpt><trkpt lat="45.7708237" lon="7.4443151"><ele>1322.2857142857142</ele><time>2026-04-19T08:32:40.945Z</time></trkpt><trkpt lat="45.7707825" lon="7.4443836"><ele>1323.4285714285716</ele><time>2026-04-19T08:32:43.941Z</time></trkpt><trkpt lat="45.7707478" lon="7.4444592"><ele>1324.5714285714287</ele><time>2026-04-19T08:32:46.937Z</time></trkpt><trkpt lat="45.7707051" lon="7.4445518"><ele>1325.7142857142858</ele><time>2026-04-19T08:32:50.94Z</time></trkpt><trkpt lat="45.7706612" lon="7.4446489"><ele>1326.857142857143</ele><time>2026-04-19T08:32:54.944Z</time></trkpt><trkpt lat="45.7706244" lon="7.4447274"><ele>1328.0</ele><time>2026-04-19T08:32:57.945Z</time></trkpt><trkpt lat="45.7705821" lon="7.4448014"><ele>1328.0</ele><time>2026-04-19T08:33:00.947Z</time></trkpt><trkpt lat="45.7705222" lon="7.4448506"><ele>1328.0</ele><time>2026-04-19T08:33:03.948Z</time></trkpt><trkpt lat="45.7704667" lon="7.4449364"><ele>1328.0</ele><time>2026-04-19T08:33:07.947Z</time></trkpt><trkpt lat="45.7704417" lon="7.4450502"><ele>1328.0</ele><time>2026-04-19T08:33:11.945Z</time></trkpt><trkpt lat="45.770442" lon="7.4451468"><ele>1328.0</ele><time>2026-04-19T08:33:14.947Z</time></trkpt><trkpt lat="45.7704425" lon="7.4452428"><ele>1328.0</ele><time>2026-04-19T08:33:18.011Z</time></trkpt><trkpt lat="45.7704533" lon="7.4453587"><ele>1328.0</ele><time>2026-04-19T08:33:21.949Z</time></trkpt><trkpt lat="45.7704773" lon="7.4454435"><ele>1328.0</ele><time>2026-04-19T08:33:24.95Z</time></trkpt><trkpt lat="45.7705191" lon="7.4455508"><ele>1328.0</ele><time>2026-04-19T08:33:28.948Z</time></trkpt><trkpt lat="45.7705613" lon="7.4456288"><ele>1328.0</ele><time>2026-04-19T08:33:31.949Z</time></trkpt><trkpt lat="45.7706071" lon="7.4457121"><ele>1328.0</ele><time>2026-04-19T08:33:34.945Z</time></trkpt><trkpt lat="45.7706419" lon="7.4458007"><ele>1328.0</ele><time>2026-04-19T08:33:37.953Z</time></trkpt><trkpt lat="45.770672" lon="7.4458956"><ele>1328.0</ele><time>2026-04-19T08:33:40.943Z</time></trkpt><trkpt lat="45.7706993" lon="7.4459903"><ele>1327.857142857143</ele><time>2026-04-19T08:33:43.947Z</time></trkpt><trkpt lat="45.7707252" lon="7.4460849"><ele>1327.7142857142858</ele><time>2026-04-19T08:33:47.031Z</time></trkpt><trkpt lat="45.7707363" lon="7.4461843"><ele>1327.5714285714287</ele><time>2026-04-19T08:33:49.955Z</time></trkpt><trkpt lat="45.7707462" lon="7.4462894"><ele>1327.4285714285716</ele><time>2026-04-19T08:33:52.959Z</time></trkpt><trkpt lat="45.7707541" lon="7.44638"><ele>1327.2857142857142</ele><time>2026-04-19T08:33:55.95Z</time></trkpt><trkpt lat="45.7707539" lon="7.4464733"><ele>1327.1428571428573</ele><time>2026-04-19T08:33:58.954Z</time></trkpt><trkpt lat="45.7707476" lon="7.4465886"><ele>1327.0</ele><time>2026-04-19T08:34:02.955Z</time></trkpt><trkpt lat="45.7707459" lon="7.4466797"><ele>1327.8333333333333</ele><time>2026-04-19T08:34:05.958Z</time></trkpt><trkpt lat="45.7707278" lon="7.4467934"><ele>1328.6666666666665</ele><time>2026-04-19T08:34:09.963Z</time></trkpt><trkpt lat="45.7707133" lon="7.4468818"><ele>1329.5</ele><time>2026-04-19T08:34:12.956Z</time></trkpt><trkpt lat="45.770677" lon="7.4469873"><ele>1330.3333333333333</ele><time>2026-04-19T08:34:16.958Z</time></trkpt><trkpt lat="45.7706411" lon="7.4470874"><ele>1331.1666666666667</ele><time>2026-04-19T08:34:20.957Z</time></trkpt><trkpt lat="45.7706007" lon="7.4471652"><ele>1332.0</ele><time>2026-04-19T08:34:23.959Z</time></trkpt><trkpt lat="45.7705572" lon="7.4472624"><ele>1334.857142857143</ele><time>2026-04-19T08:34:28.02Z</time></trkpt><trkpt lat="45.7705145" lon="7.4473576"><ele>1337.7142857142856</ele><time>2026-04-19T08:34:32.023Z</time></trkpt><trkpt lat="45.7704694" lon="7.447448"><ele>1340.5714285714284</ele><time>2026-04-19T08:34:35.956Z</time></trkpt><trkpt lat="45.7704309" lon="7.4475466"><ele>1343.4285714285716</ele><time>2026-04-19T08:34:39.952Z</time></trkpt><trkpt lat="45.7703909" lon="7.4476212"><ele>1346.2857142857142</ele><time>2026-04-19T08:34:42.961Z</time></trkpt><trkpt lat="45.770347" lon="7.4476904"><ele>1349.142857142857</ele><time>2026-04-19T08:34:45.955Z</time></trkpt><trkpt lat="45.7703101" lon="7.4477648"><ele>1352.0</ele><time>2026-04-19T08:34:48.947Z</time></trkpt><trkpt lat="45.7702691" lon="7.4478436"><ele>1352.0</ele><time>2026-04-19T08:34:52.029Z</time></trkpt><trkpt lat="45.7702249" lon="7.4479079"><ele>1352.0</ele><time>2026-04-19T08:34:54.943Z</time></trkpt><trkpt lat="45.7701831" lon="7.4479756"><ele>1352.0</ele><time>2026-04-19T08:34:57.943Z</time></trkpt><trkpt lat="45.7701322" lon="7.4480587"><ele>1352.0</ele><time>2026-04-19T08:35:01.938Z</time></trkpt><trkpt lat="45.7700759" lon="7.4481501"><ele>1352.0</ele><time>2026-04-19T08:35:05.944Z</time></trkpt><trkpt lat="45.7700304" lon="7.4482173"><ele>1352.0</ele><time>2026-04-19T08:35:08.938Z</time></trkpt><trkpt lat="45.7699835" lon="7.4482799"><ele>1352.0</ele><time>2026-04-19T08:35:12.022Z</time></trkpt><trkpt lat="45.7699391" lon="7.4483474"><ele>1352.142857142857</ele><time>2026-04-19T08:35:15.009Z</time></trkpt><trkpt lat="45.7698869" lon="7.4484317"><ele>1352.2857142857142</ele><time>2026-04-19T08:35:18.95Z</time></trkpt><trkpt lat="45.7698331" lon="7.448485"><ele>1352.4285714285716</ele><time>2026-04-19T08:35:22.947Z</time></trkpt><trkpt lat="45.7697873" lon="7.4485562"><ele>1352.5714285714284</ele><time>2026-04-19T08:35:26.945Z</time></trkpt><trkpt lat="45.7697584" lon="7.4486595"><ele>1352.7142857142856</ele><time>2026-04-19T08:35:30.944Z</time></trkpt><trkpt lat="45.7697488" lon="7.4487585"><ele>1352.857142857143</ele><time>2026-04-19T08:35:34.946Z</time></trkpt><trkpt lat="45.7697333" lon="7.4488482"><ele>1353.0</ele><time>2026-04-19T08:35:38.948Z</time></trkpt><trkpt lat="45.7697352" lon="7.4489445"><ele>1353.0</ele><time>2026-04-19T08:35:43.021Z</time></trkpt><trkpt lat="45.7697385" lon="7.4490529"><ele>1353.0</ele><time>2026-04-19T08:35:46.938Z</time></trkpt><trkpt lat="45.7697421" lon="7.4491465"><ele>1353.0</ele><time>2026-04-19T08:35:49.94Z</time></trkpt><trkpt lat="45.7697467" lon="7.4492621"><ele>1353.0</ele><time>2026-04-19T08:35:54.028Z</time></trkpt><trkpt lat="45.7697338" lon="7.4493541"><ele>1353.0</ele><time>2026-04-19T08:35:56.967Z</time></trkpt><trkpt lat="45.7697008" lon="7.4494421"><ele>1353.0</ele><time>2026-04-19T08:35:59.961Z</time></trkpt><trkpt lat="45.7696748" lon="7.4495291"><ele>1353.0</ele><time>2026-04-19T08:36:03.026Z</time></trkpt><trkpt lat="45.7696349" lon="7.4496345"><ele>1355.2857142857144</ele><time>2026-04-19T08:36:06.965Z</time></trkpt><trkpt lat="45.76961" lon="7.4497315"><ele>1357.5714285714284</ele><time>2026-04-19T08:36:09.968Z</time></trkpt><trkpt lat="45.7695878" lon="7.4498267"><ele>1359.857142857143</ele><time>2026-04-19T08:36:13.02Z</time></trkpt><trkpt lat="45.7695742" lon="7.4499185"><ele>1362.1428571428573</ele><time>2026-04-19T08:36:15.988Z</time></trkpt><trkpt lat="45.7695655" lon="7.4500149"><ele>1364.4285714285716</ele><time>2026-04-19T08:36:18.947Z</time></trkpt><trkpt lat="45.7695546" lon="7.4501094"><ele>1366.7142857142858</ele><time>2026-04-19T08:36:22.03Z</time></trkpt><trkpt lat="45.76954" lon="7.4502009"><ele>1369.0</ele><time>2026-04-19T08:36:24.945Z</time></trkpt><trkpt lat="45.7695173" lon="7.4503094"><ele>1369.0000000000002</ele><time>2026-04-19T08:36:28.942Z</time></trkpt><trkpt lat="45.7694915" lon="7.4503939"><ele>1369.0</ele><time>2026-04-19T08:36:31.952Z</time></trkpt><trkpt lat="45.7694468" lon="7.4504672"><ele>1369.0</ele><time>2026-04-19T08:36:35.028Z</time></trkpt><trkpt lat="45.7693926" lon="7.450514"><ele>1369.0</ele><time>2026-04-19T08:36:37.952Z</time></trkpt><trkpt lat="45.7693151" lon="7.4505586"><ele>1369.0</ele><time>2026-04-19T08:36:41.98Z</time></trkpt><trkpt lat="45.7692536" lon="7.4505862"><ele>1369.0000000000002</ele><time>2026-04-19T08:36:45.034Z</time></trkpt><trkpt lat="45.7691815" lon="7.4506234"><ele>1369.0</ele><time>2026-04-19T08:36:47.942Z</time></trkpt><trkpt lat="45.7691163" lon="7.4506894"><ele>1367.0</ele><time>2026-04-19T08:36:50.944Z</time></trkpt><trkpt lat="45.7690842" lon="7.4507888"><ele>1365.0</ele><time>2026-04-19T08:36:53.941Z</time></trkpt><trkpt lat="45.7690783" lon="7.4508991"><ele>1363.0</ele><time>2026-04-19T08:36:56.951Z</time></trkpt><trkpt lat="45.769084" lon="7.4510077"><ele>1361.0</ele><time>2026-04-19T08:36:59.95Z</time></trkpt><trkpt lat="45.769098" lon="7.4511133"><ele>1359.0</ele><time>2026-04-19T08:37:03.029Z</time></trkpt><trkpt lat="45.7691145" lon="7.4512205"><ele>1357.0</ele><time>2026-04-19T08:37:05.94Z</time></trkpt><trkpt lat="45.769122" lon="7.4513232"><ele>1357.0</ele><time>2026-04-19T08:37:08.945Z</time></trkpt><trkpt lat="45.7691223" lon="7.4514278"><ele>1357.0</ele><time>2026-04-19T08:37:11.945Z</time></trkpt><trkpt lat="45.7690999" lon="7.4515321"><ele>1357.0</ele><time>2026-04-19T08:37:15.033Z</time></trkpt><trkpt lat="45.7690706" lon="7.4516307"><ele>1357.0</ele><time>2026-04-19T08:37:17.947Z</time></trkpt><trkpt lat="45.7690431" lon="7.4517236"><ele>1357.0</ele><time>2026-04-19T08:37:20.947Z</time></trkpt><trkpt lat="45.7690174" lon="7.4518199"><ele>1357.0</ele><time>2026-04-19T08:37:24.029Z</time></trkpt><trkpt lat="45.7690037" lon="7.4519209"><ele>1357.0</ele><time>2026-04-19T08:37:26.949Z</time></trkpt><trkpt lat="45.7690018" lon="7.4520234"><ele>1357.4285714285713</ele><time>2026-04-19T08:37:29.952Z</time></trkpt><trkpt lat="45.7690185" lon="7.4521254"><ele>1357.857142857143</ele><time>2026-04-19T08:37:32.948Z</time></trkpt><trkpt lat="45.7690573" lon="7.4522065"><ele>1358.2857142857142</ele><time>2026-04-19T08:37:35.966Z</time></trkpt><trkpt lat="45.7690881" lon="7.4522976"><ele>1358.7142857142858</ele><time>2026-04-19T08:37:38.949Z</time></trkpt><trkpt lat="45.7691322" lon="7.4523752"><ele>1359.142857142857</ele><time>2026-04-19T08:37:41.951Z</time></trkpt><trkpt lat="45.7691755" lon="7.452459"><ele>1359.5714285714287</ele><time>2026-04-19T08:37:45.027Z</time></trkpt><trkpt lat="45.7692115" lon="7.4525443"><ele>1360.0</ele><time>2026-04-19T08:37:47.946Z</time></trkpt><trkpt lat="45.7692514" lon="7.452627"><ele>1360.0</ele><time>2026-04-19T08:37:50.957Z</time></trkpt><trkpt lat="45.7692837" lon="7.4527127"><ele>1360.0</ele><time>2026-04-19T08:37:53.946Z</time></trkpt><trkpt lat="45.7693206" lon="7.4528004"><ele>1360.0</ele><time>2026-04-19T08:37:56.941Z</time></trkpt><trkpt lat="45.7693545" lon="7.4528876"><ele>1360.0</ele><time>2026-04-19T08:37:59.943Z</time></trkpt><trkpt lat="45.7693803" lon="7.4529743"><ele>1360.0</ele><time>2026-04-19T08:38:03.008Z</time></trkpt><trkpt lat="45.7694061" lon="7.4530682"><ele>1360.0</ele><time>2026-04-19T08:38:05.944Z</time></trkpt><trkpt lat="45.769425" lon="7.4531718"><ele>1360.0</ele><time>2026-04-19T08:38:08.947Z</time></trkpt><trkpt lat="45.7694307" lon="7.4532685"><ele>1360.142857142857</ele><time>2026-04-19T08:38:11.945Z</time></trkpt><trkpt lat="45.7694275" lon="7.4533655"><ele>1360.2857142857142</ele><time>2026-04-19T08:38:15.056Z</time></trkpt><trkpt lat="45.7694112" lon="7.453458"><ele>1360.4285714285713</ele><time>2026-04-19T08:38:17.963Z</time></trkpt><trkpt lat="45.7693761" lon="7.4535495"><ele>1360.5714285714284</ele><time>2026-04-19T08:38:20.951Z</time></trkpt><trkpt lat="45.7693368" lon="7.4536361"><ele>1360.7142857142858</ele><time>2026-04-19T08:38:23.947Z</time></trkpt><trkpt lat="45.7693027" lon="7.4537303"><ele>1360.8571428571427</ele><time>2026-04-19T08:38:26.948Z</time></trkpt><trkpt lat="45.7692793" lon="7.4538192"><ele>1361.0</ele><time>2026-04-19T08:38:29.942Z</time></trkpt><trkpt lat="45.7692595" lon="7.4539249"><ele>1361.7142857142856</ele><time>2026-04-19T08:38:32.942Z</time></trkpt><trkpt lat="45.7692453" lon="7.4540327"><ele>1362.4285714285713</ele><time>2026-04-19T08:38:35.942Z</time></trkpt><trkpt lat="45.7692447" lon="7.4541328"><ele>1363.142857142857</ele><time>2026-04-19T08:38:38.951Z</time></trkpt><trkpt lat="45.769253" lon="7.4542297"><ele>1363.8571428571427</ele><time>2026-04-19T08:38:41.946Z</time></trkpt><trkpt lat="45.7692802" lon="7.454326"><ele>1364.5714285714284</ele><time>2026-04-19T08:38:44.952Z</time></trkpt><trkpt lat="45.7693363" lon="7.4543991"><ele>1365.2857142857142</ele><time>2026-04-19T08:38:47.951Z</time></trkpt><trkpt lat="45.7694109" lon="7.4544131"><ele>1366.0</ele><time>2026-04-19T08:38:50.949Z</time></trkpt><trkpt lat="45.7694449" lon="7.4543283"><ele>1369.4285714285716</ele><time>2026-04-19T08:38:53.949Z</time></trkpt><trkpt lat="45.7694207" lon="7.4542304"><ele>1372.857142857143</ele><time>2026-04-19T08:38:56.947Z</time></trkpt><trkpt lat="45.769393" lon="7.4541249"><ele>1376.2857142857142</ele><time>2026-04-19T08:38:59.945Z</time></trkpt><trkpt lat="45.7694078" lon="7.4540182"><ele>1379.7142857142858</ele><time>2026-04-19T08:39:02.948Z</time></trkpt><trkpt lat="45.7694461" lon="7.4539226"><ele>1383.142857142857</ele><time>2026-04-19T08:39:05.949Z</time></trkpt><trkpt lat="45.7694961" lon="7.4538589"><ele>1386.5714285714287</ele><time>2026-04-19T08:39:08.955Z</time></trkpt><trkpt lat="45.7695528" lon="7.4538027"><ele>1390.0</ele><time>2026-04-19T08:39:11.951Z</time></trkpt><trkpt lat="45.7696103" lon="7.4537378"><ele>1390.4285714285716</ele><time>2026-04-19T08:39:14.948Z</time></trkpt><trkpt lat="45.7696603" lon="7.4536787"><ele>1390.857142857143</ele><time>2026-04-19T08:39:17.951Z</time></trkpt><trkpt lat="45.7697175" lon="7.4536148"><ele>1391.2857142857142</ele><time>2026-04-19T08:39:20.953Z</time></trkpt><trkpt lat="45.7697687" lon="7.4535512"><ele>1391.7142857142858</ele><time>2026-04-19T08:39:23.948Z</time></trkpt><trkpt lat="45.7698137" lon="7.4534839"><ele>1392.142857142857</ele><time>2026-04-19T08:39:26.946Z</time></trkpt><trkpt lat="45.7698611" lon="7.4533818"><ele>1392.5714285714287</ele><time>2026-04-19T08:39:30.951Z</time></trkpt><trkpt lat="45.7698983" lon="7.4532923"><ele>1393.0</ele><time>2026-04-19T08:39:33.944Z</time></trkpt><trkpt lat="45.7699293" lon="7.4532008"><ele>1393.0</ele><time>2026-04-19T08:39:37.025Z</time></trkpt><trkpt lat="45.7699584" lon="7.4531142"><ele>1393.0</ele><time>2026-04-19T08:39:39.959Z</time></trkpt><trkpt lat="45.7699912" lon="7.4530251"><ele>1393.0</ele><time>2026-04-19T08:39:42.956Z</time></trkpt><trkpt lat="45.7700241" lon="7.452943"><ele>1393.0</ele><time>2026-04-19T08:39:45.96Z</time></trkpt><trkpt lat="45.7700614" lon="7.452824"><ele>1393.0</ele><time>2026-04-19T08:39:49.959Z</time></trkpt><trkpt lat="45.770092" lon="7.452734"><ele>1393.0</ele><time>2026-04-19T08:39:52.952Z</time></trkpt><trkpt lat="45.7701205" lon="7.4526433"><ele>1393.0</ele><time>2026-04-19T08:39:55.961Z</time></trkpt><trkpt lat="45.7701437" lon="7.4525538"><ele>1392.5714285714287</ele><time>2026-04-19T08:39:59.025Z</time></trkpt><trkpt lat="45.7701775" lon="7.4524639"><ele>1392.142857142857</ele><time>2026-04-19T08:40:01.947Z</time></trkpt><trkpt lat="45.770213" lon="7.4523716"><ele>1391.7142857142858</ele><time>2026-04-19T08:40:04.947Z</time></trkpt><trkpt lat="45.770247" lon="7.4522803"><ele>1391.2857142857142</ele><time>2026-04-19T08:40:07.95Z</time></trkpt><trkpt lat="45.770285" lon="7.4521914"><ele>1390.857142857143</ele><time>2026-04-19T08:40:10.948Z</time></trkpt><trkpt lat="45.7703187" lon="7.4521012"><ele>1390.4285714285716</ele><time>2026-04-19T08:40:13.95Z</time></trkpt><trkpt lat="45.7703528" lon="7.4520156"><ele>1390.0</ele><time>2026-04-19T08:40:16.952Z</time></trkpt><trkpt lat="45.7703901" lon="7.4519314"><ele>1393.2857142857144</ele><time>2026-04-19T08:40:19.961Z</time></trkpt><trkpt lat="45.7704176" lon="7.4518425"><ele>1396.5714285714287</ele><time>2026-04-19T08:40:22.95Z</time></trkpt><trkpt lat="45.7704536" lon="7.451761"><ele>1399.857142857143</ele><time>2026-04-19T08:40:25.949Z</time></trkpt><trkpt lat="45.7704908" lon="7.4516787"><ele>1403.1428571428573</ele><time>2026-04-19T08:40:28.942Z</time></trkpt><trkpt lat="45.7705207" lon="7.4515928"><ele>1406.4285714285716</ele><time>2026-04-19T08:40:31.945Z</time></trkpt><trkpt lat="45.7705502" lon="7.451497"><ele>1409.7142857142858</ele><time>2026-04-19T08:40:34.946Z</time></trkpt><trkpt lat="45.770598" lon="7.4514148"><ele>1413.0</ele><time>2026-04-19T08:40:38.03Z</time></trkpt><trkpt lat="45.7706455" lon="7.451338"><ele>1413.142857142857</ele><time>2026-04-19T08:40:40.957Z</time></trkpt><trkpt lat="45.7706907" lon="7.4512627"><ele>1413.2857142857142</ele><time>2026-04-19T08:40:43.953Z</time></trkpt><trkpt lat="45.7707372" lon="7.4511885"><ele>1413.4285714285716</ele><time>2026-04-19T08:40:47.027Z</time></trkpt><trkpt lat="45.7707804" lon="7.4511115"><ele>1413.5714285714284</ele><time>2026-04-19T08:40:49.948Z</time></trkpt><trkpt lat="45.7708188" lon="7.4510189"><ele>1413.7142857142858</ele><time>2026-04-19T08:40:52.962Z</time></trkpt><trkpt lat="45.7708521" lon="7.4509326"><ele>1413.857142857143</ele><time>2026-04-19T08:40:55.954Z</time></trkpt><trkpt lat="45.7708696" lon="7.4508244"><ele>1414.0</ele><time>2026-04-19T08:40:59.024Z</time></trkpt><trkpt lat="45.7708819" lon="7.450723"><ele>1414.0</ele><time>2026-04-19T08:41:01.957Z</time></trkpt><trkpt lat="45.7708852" lon="7.450613"><ele>1414.0</ele><time>2026-04-19T08:41:04.962Z</time></trkpt><trkpt lat="45.770876" lon="7.4505097"><ele>1414.0</ele><time>2026-04-19T08:41:07.957Z</time></trkpt><trkpt lat="45.7708644" lon="7.4504053"><ele>1414.0</ele><time>2026-04-19T08:41:10.956Z</time></trkpt><trkpt lat="45.7708511" lon="7.4502984"><ele>1414.0</ele><time>2026-04-19T08:41:13.962Z</time></trkpt><trkpt lat="45.7708442" lon="7.450192"><ele>1414.0</ele><time>2026-04-19T08:41:16.964Z</time></trkpt><trkpt lat="45.7708579" lon="7.450086"><ele>1414.0</ele><time>2026-04-19T08:41:20.028Z</time></trkpt><trkpt lat="45.7708833" lon="7.4499899"><ele>1413.857142857143</ele><time>2026-04-19T08:41:22.948Z</time></trkpt><trkpt lat="45.7709188" lon="7.4499082"><ele>1413.7142857142858</ele><time>2026-04-19T08:41:25.949Z</time></trkpt><trkpt lat="45.7709606" lon="7.4498274"><ele>1413.5714285714284</ele><time>2026-04-19T08:41:28.94Z</time></trkpt><trkpt lat="45.7709936" lon="7.4497321"><ele>1413.4285714285716</ele><time>2026-04-19T08:41:31.947Z</time></trkpt><trkpt lat="45.7710066" lon="7.4496336"><ele>1413.2857142857142</ele><time>2026-04-19T08:41:34.953Z</time></trkpt><trkpt lat="45.7710237" lon="7.4495393"><ele>1413.142857142857</ele><time>2026-04-19T08:41:38.021Z</time></trkpt><trkpt lat="45.7710401" lon="7.4494395"><ele>1413.0</ele><time>2026-04-19T08:41:40.955Z</time></trkpt><trkpt lat="45.7710592" lon="7.4493432"><ele>1417.7142857142858</ele><time>2026-04-19T08:41:43.948Z</time></trkpt><trkpt lat="45.7710765" lon="7.4492407"><ele>1422.4285714285716</ele><time>2026-04-19T08:41:47.02Z</time></trkpt><trkpt lat="45.7711121" lon="7.4491536"><ele>1427.1428571428573</ele><time>2026-04-19T08:41:49.953Z</time></trkpt><trkpt lat="45.7711664" lon="7.4490844"><ele>1431.857142857143</ele><time>2026-04-19T08:41:52.952Z</time></trkpt><trkpt lat="45.7712307" lon="7.4490376"><ele>1436.5714285714287</ele><time>2026-04-19T08:41:55.949Z</time></trkpt><trkpt lat="45.771295" lon="7.4489892"><ele>1441.2857142857144</ele><time>2026-04-19T08:41:58.949Z</time></trkpt><trkpt lat="45.771348" lon="7.4489247"><ele>1446.0</ele><time>2026-04-19T08:42:01.948Z</time></trkpt><trkpt lat="45.7713974" lon="7.4488488"><ele>1446.0000000000002</ele><time>2026-04-19T08:42:04.949Z</time></trkpt><trkpt lat="45.7714547" lon="7.4487956"><ele>1446.0</ele><time>2026-04-19T08:42:08.02Z</time></trkpt><trkpt lat="45.7715154" lon="7.4488234"><ele>1446.0</ele><time>2026-04-19T08:42:10.945Z</time></trkpt><trkpt lat="45.7714873" lon="7.4489131"><ele>1446.0</ele><time>2026-04-19T08:42:13.943Z</time></trkpt><trkpt lat="45.7714412" lon="7.4489799"><ele>1446.0</ele><time>2026-04-19T08:42:16.947Z</time></trkpt><trkpt lat="45.7713929" lon="7.4490478"><ele>1446.0000000000002</ele><time>2026-04-19T08:42:19.955Z</time></trkpt><trkpt lat="45.7713476" lon="7.449126"><ele>1446.0</ele><time>2026-04-19T08:42:22.956Z</time></trkpt><trkpt lat="45.7713009" lon="7.449193"><ele>1446.0000000000002</ele><time>2026-04-19T08:42:25.949Z</time></trkpt><trkpt lat="45.77126" lon="7.4492772"><ele>1446.0</ele><time>2026-04-19T08:42:29.026Z</time></trkpt><trkpt lat="45.7712398" lon="7.4493761"><ele>1446.0</ele><time>2026-04-19T08:42:31.946Z</time></trkpt><trkpt lat="45.7712469" lon="7.4494749"><ele>1446.0</ele><time>2026-04-19T08:42:35.027Z</time></trkpt><trkpt lat="45.771255" lon="7.4495781"><ele>1446.0</ele><time>2026-04-19T08:42:37.959Z</time></trkpt><trkpt lat="45.7712631" lon="7.4496781"><ele>1446.0000000000002</ele><time>2026-04-19T08:42:40.947Z</time></trkpt><trkpt lat="45.7712743" lon="7.4497849"><ele>1446.0</ele><time>2026-04-19T08:42:43.95Z</time></trkpt><trkpt lat="45.7712766" lon="7.4498889"><ele>1447.0</ele><time>2026-04-19T08:42:47.041Z</time></trkpt><trkpt lat="45.7712759" lon="7.449995"><ele>1448.0</ele><time>2026-04-19T08:42:49.947Z</time></trkpt><trkpt lat="45.7712749" lon="7.4500971"><ele>1449.0</ele><time>2026-04-19T08:42:52.949Z</time></trkpt><trkpt lat="45.7712792" lon="7.4502049"><ele>1450.0</ele><time>2026-04-19T08:42:55.949Z</time></trkpt><trkpt lat="45.7712919" lon="7.4503193"><ele>1451.0</ele><time>2026-04-19T08:42:58.971Z</time></trkpt><trkpt lat="45.7713151" lon="7.4504401"><ele>1452.0</ele><time>2026-04-19T08:43:01.944Z</time></trkpt><trkpt lat="45.7713273" lon="7.4505694"><ele>1452.5</ele><time>2026-04-19T08:43:04.945Z</time></trkpt><trkpt lat="45.7713257" lon="7.4506856"><ele>1453.0</ele><time>2026-04-19T08:43:07.95Z</time></trkpt><trkpt lat="45.7713259" lon="7.450798"><ele>1453.5</ele><time>2026-04-19T08:43:10.948Z</time></trkpt><trkpt lat="45.771332" lon="7.4509224"><ele>1454.0</ele><time>2026-04-19T08:43:13.949Z</time></trkpt><trkpt lat="45.7713414" lon="7.4510508"><ele>1454.5</ele><time>2026-04-19T08:43:16.949Z</time></trkpt><trkpt lat="45.7713529" lon="7.4511783"><ele>1455.0</ele><time>2026-04-19T08:43:20.033Z</time></trkpt><trkpt lat="45.7713723" lon="7.4512924"><ele>1455.1666666666667</ele><time>2026-04-19T08:43:22.955Z</time></trkpt><trkpt lat="45.7713907" lon="7.4514085"><ele>1455.3333333333333</ele><time>2026-04-19T08:43:25.954Z</time></trkpt><trkpt lat="45.7714128" lon="7.4515209"><ele>1455.5</ele><time>2026-04-19T08:43:29.035Z</time></trkpt><trkpt lat="45.7714324" lon="7.4516373"><ele>1455.6666666666665</ele><time>2026-04-19T08:43:31.959Z</time></trkpt><trkpt lat="45.7714534" lon="7.451745"><ele>1455.8333333333333</ele><time>2026-04-19T08:43:34.962Z</time></trkpt><trkpt lat="45.7714662" lon="7.4518626"><ele>1456.0</ele><time>2026-04-19T08:43:37.963Z</time></trkpt><trkpt lat="45.7714761" lon="7.4519655"><ele>1456.0</ele><time>2026-04-19T08:43:40.96Z</time></trkpt><trkpt lat="45.7714895" lon="7.4520635"><ele>1456.0</ele><time>2026-04-19T08:43:43.964Z</time></trkpt><trkpt lat="45.7715037" lon="7.452166"><ele>1456.0</ele><time>2026-04-19T08:43:46.963Z</time></trkpt><trkpt lat="45.771517" lon="7.45227"><ele>1456.0</ele><time>2026-04-19T08:43:50.028Z</time></trkpt><trkpt lat="45.7715309" lon="7.4523731"><ele>1456.0</ele><time>2026-04-19T08:43:52.941Z</time></trkpt><trkpt lat="45.7715417" lon="7.4524755"><ele>1456.0</ele><time>2026-04-19T08:43:55.949Z</time></trkpt><trkpt lat="45.7715592" lon="7.4525743"><ele>1456.0</ele><time>2026-04-19T08:43:58.941Z</time></trkpt><trkpt lat="45.7715795" lon="7.4526878"><ele>1455.857142857143</ele><time>2026-04-19T08:44:02.955Z</time></trkpt><trkpt lat="45.7716019" lon="7.4527807"><ele>1455.7142857142858</ele><time>2026-04-19T08:44:05.947Z</time></trkpt><trkpt lat="45.7716395" lon="7.452872"><ele>1455.5714285714284</ele><time>2026-04-19T08:44:08.942Z</time></trkpt><trkpt lat="45.7716666" lon="7.4529663"><ele>1455.4285714285716</ele><time>2026-04-19T08:44:11.942Z</time></trkpt><trkpt lat="45.7717006" lon="7.4530552"><ele>1455.2857142857142</ele><time>2026-04-19T08:44:14.944Z</time></trkpt><trkpt lat="45.7717343" lon="7.4531492"><ele>1455.142857142857</ele><time>2026-04-19T08:44:17.953Z</time></trkpt><trkpt lat="45.7717483" lon="7.4532512"><ele>1455.0</ele><time>2026-04-19T08:44:20.95Z</time></trkpt><trkpt lat="45.771773" lon="7.4533521"><ele>1454.4285714285713</ele><time>2026-04-19T08:44:23.949Z</time></trkpt><trkpt lat="45.771802" lon="7.4534471"><ele>1453.8571428571427</ele><time>2026-04-19T08:44:26.943Z</time></trkpt><trkpt lat="45.7718269" lon="7.4535418"><ele>1453.2857142857142</ele><time>2026-04-19T08:44:30.016Z</time></trkpt><trkpt lat="45.7718658" lon="7.4536396"><ele>1452.7142857142858</ele><time>2026-04-19T08:44:32.944Z</time></trkpt><trkpt lat="45.771896" lon="7.4537423"><ele>1452.142857142857</ele><time>2026-04-19T08:44:35.949Z</time></trkpt><trkpt lat="45.7719295" lon="7.4538367"><ele>1451.5714285714287</ele><time>2026-04-19T08:44:38.947Z</time></trkpt><trkpt lat="45.7719622" lon="7.4539316"><ele>1451.0</ele><time>2026-04-19T08:44:41.949Z</time></trkpt><trkpt lat="45.7720026" lon="7.4540243"><ele>1454.4285714285716</ele><time>2026-04-19T08:44:44.953Z</time></trkpt><trkpt lat="45.7720348" lon="7.4541186"><ele>1457.8571428571427</ele><time>2026-04-19T08:44:47.953Z</time></trkpt><trkpt lat="45.7720823" lon="7.4542044"><ele>1461.2857142857142</ele><time>2026-04-19T08:44:50.957Z</time></trkpt><trkpt lat="45.7721383" lon="7.4542622"><ele>1464.7142857142858</ele><time>2026-04-19T08:44:53.955Z</time></trkpt><trkpt lat="45.7722097" lon="7.4542924"><ele>1468.1428571428573</ele><time>2026-04-19T08:44:56.955Z</time></trkpt><trkpt lat="45.7722772" lon="7.454324"><ele>1471.5714285714284</ele><time>2026-04-19T08:44:59.952Z</time></trkpt><trkpt lat="45.7723491" lon="7.4543397"><ele>1475.0</ele><time>2026-04-19T08:45:02.948Z</time></trkpt><trkpt lat="45.7724174" lon="7.4543758"><ele>1475.0</ele><time>2026-04-19T08:45:05.948Z</time></trkpt><trkpt lat="45.7724786" lon="7.4544392"><ele>1475.0</ele><time>2026-04-19T08:45:08.951Z</time></trkpt><trkpt lat="45.7724865" lon="7.4545534"><ele>1475.0</ele><time>2026-04-19T08:45:11.957Z</time></trkpt><trkpt lat="45.772457" lon="7.4546586"><ele>1475.0</ele><time>2026-04-19T08:45:14.956Z</time></trkpt><trkpt lat="45.7724005" lon="7.454753"><ele>1475.0</ele><time>2026-04-19T08:45:17.953Z</time></trkpt><trkpt lat="45.7723425" lon="7.4548408"><ele>1475.0</ele><time>2026-04-19T08:45:20.955Z</time></trkpt><trkpt lat="45.7722985" lon="7.454943"><ele>1474.8333333333335</ele><time>2026-04-19T08:45:24.028Z</time></trkpt><trkpt lat="45.7722824" lon="7.4550586"><ele>1474.6666666666667</ele><time>2026-04-19T08:45:26.947Z</time></trkpt><trkpt lat="45.7722808" lon="7.4551803"><ele>1474.5</ele><time>2026-04-19T08:45:30.028Z</time></trkpt><trkpt lat="45.7722808" lon="7.4552999"><ele>1474.3333333333333</ele><time>2026-04-19T08:45:32.951Z</time></trkpt><trkpt lat="45.7722783" lon="7.4554234"><ele>1474.1666666666665</ele><time>2026-04-19T08:45:35.956Z</time></trkpt><trkpt lat="45.7722838" lon="7.4555469"><ele>1474.0</ele><time>2026-04-19T08:45:38.957Z</time></trkpt><trkpt lat="45.7722858" lon="7.4556705"><ele>1474.3333333333333</ele><time>2026-04-19T08:45:42.024Z</time></trkpt><trkpt lat="45.7722834" lon="7.4557905"><ele>1474.6666666666665</ele><time>2026-04-19T08:45:44.953Z</time></trkpt><trkpt lat="45.7722787" lon="7.4559153"><ele>1475.0</ele><time>2026-04-19T08:45:47.956Z</time></trkpt><trkpt lat="45.7722793" lon="7.4560392"><ele>1475.3333333333333</ele><time>2026-04-19T08:45:50.952Z</time></trkpt><trkpt lat="45.7722898" lon="7.4561605"><ele>1475.6666666666667</ele><time>2026-04-19T08:45:53.948Z</time></trkpt><trkpt lat="45.7723086" lon="7.456278"><ele>1476.0</ele><time>2026-04-19T08:45:56.953Z</time></trkpt><trkpt lat="45.7723335" lon="7.4563973"><ele>1476.0</ele><time>2026-04-19T08:45:59.951Z</time></trkpt><trkpt lat="45.7723736" lon="7.4565111"><ele>1476.0</ele><time>2026-04-19T08:46:03.032Z</time></trkpt><trkpt lat="45.7724157" lon="7.4566073"><ele>1476.0</ele><time>2026-04-19T08:46:05.943Z</time></trkpt><trkpt lat="45.7724613" lon="7.456693"><ele>1476.0</ele><time>2026-04-19T08:46:08.951Z</time></trkpt><trkpt lat="45.7725138" lon="7.4567719"><ele>1476.0</ele><time>2026-04-19T08:46:11.945Z</time></trkpt><trkpt lat="45.7725598" lon="7.4568562"><ele>1476.0</ele><time>2026-04-19T08:46:14.947Z</time></trkpt><trkpt lat="45.7725979" lon="7.4569427"><ele>1476.0</ele><time>2026-04-19T08:46:17.948Z</time></trkpt><trkpt lat="45.7726445" lon="7.457027"><ele>1476.0</ele><time>2026-04-19T08:46:20.948Z</time></trkpt><trkpt lat="45.7726914" lon="7.4571176"><ele>1476.0</ele><time>2026-04-19T08:46:24.013Z</time></trkpt><trkpt lat="45.7727377" lon="7.4572011"><ele>1476.0</ele><time>2026-04-19T08:46:26.948Z</time></trkpt><trkpt lat="45.7728036" lon="7.4572525"><ele>1476.0</ele><time>2026-04-19T08:46:29.948Z</time></trkpt><trkpt lat="45.7728535" lon="7.4573115"><ele>1476.0</ele><time>2026-04-19T08:46:32.945Z</time></trkpt><trkpt lat="45.7729066" lon="7.457389"><ele>1476.0</ele><time>2026-04-19T08:46:35.951Z</time></trkpt><trkpt lat="45.7729621" lon="7.4574593"><ele>1479.0</ele><time>2026-04-19T08:46:39.007Z</time></trkpt><trkpt lat="45.773021" lon="7.4575253"><ele>1482.0</ele><time>2026-04-19T08:46:41.951Z</time></trkpt><trkpt lat="45.7730829" lon="7.4575857"><ele>1485.0</ele><time>2026-04-19T08:46:45.027Z</time></trkpt><trkpt lat="45.7731506" lon="7.4576326"><ele>1488.0</ele><time>2026-04-19T08:46:47.949Z</time></trkpt><trkpt lat="45.7732138" lon="7.4576817"><ele>1491.0</ele><time>2026-04-19T08:46:50.949Z</time></trkpt><trkpt lat="45.7732748" lon="7.4577284"><ele>1494.0</ele><time>2026-04-19T08:46:54.029Z</time></trkpt><trkpt lat="45.7733384" lon="7.457777"><ele>1497.0</ele><time>2026-04-19T08:46:57.945Z</time></trkpt><trkpt lat="45.7734067" lon="7.4578201"><ele>1497.0</ele><time>2026-04-19T08:47:00.952Z</time></trkpt><trkpt lat="45.7734831" lon="7.4578574"><ele>1497.0</ele><time>2026-04-19T08:47:04.03Z</time></trkpt><trkpt lat="45.7735605" lon="7.4579024"><ele>1497.0</ele><time>2026-04-19T08:47:06.945Z</time></trkpt><trkpt lat="45.7736332" lon="7.4579485"><ele>1497.0</ele><time>2026-04-19T08:47:09.95Z</time></trkpt><trkpt lat="45.7737104" lon="7.4579981"><ele>1497.0</ele><time>2026-04-19T08:47:13.024Z</time></trkpt><trkpt lat="45.7737858" lon="7.458053"><ele>1497.0</ele><time>2026-04-19T08:47:15.947Z</time></trkpt><trkpt lat="45.7738653" lon="7.4580956"><ele>1495.5</ele><time>2026-04-19T08:47:18.949Z</time></trkpt><trkpt lat="45.7739441" lon="7.4581383"><ele>1494.0</ele><time>2026-04-19T08:47:21.943Z</time></trkpt><trkpt lat="45.7740195" lon="7.4581791"><ele>1492.5</ele><time>2026-04-19T08:47:25.033Z</time></trkpt><trkpt lat="45.7741008" lon="7.4582277"><ele>1491.0</ele><time>2026-04-19T08:47:27.951Z</time></trkpt><trkpt lat="45.7741797" lon="7.458278"><ele>1489.5</ele><time>2026-04-19T08:47:30.952Z</time></trkpt><trkpt lat="45.77426" lon="7.4583422"><ele>1488.0</ele><time>2026-04-19T08:47:34.027Z</time></trkpt><trkpt lat="45.7743441" lon="7.4584029"><ele>1492.6666666666667</ele><time>2026-04-19T08:47:36.951Z</time></trkpt><trkpt lat="45.7744038" lon="7.4584381"><ele>1497.3333333333333</ele><time>2026-04-19T08:47:40.031Z</time></trkpt><trkpt lat="45.7744884" lon="7.4584901"><ele>1502.0</ele><time>2026-04-19T08:47:44.029Z</time></trkpt><trkpt lat="45.7745734" lon="7.4585482"><ele>1506.6666666666665</ele><time>2026-04-19T08:47:46.943Z</time></trkpt><trkpt lat="45.774654" lon="7.4586135"><ele>1511.3333333333333</ele><time>2026-04-19T08:47:49.947Z</time></trkpt><trkpt lat="45.774734" lon="7.45868"><ele>1516.0</ele><time>2026-04-19T08:47:52.974Z</time></trkpt><trkpt lat="45.7748065" lon="7.4587471"><ele>1513.857142857143</ele><time>2026-04-19T08:47:55.947Z</time></trkpt><trkpt lat="45.7748884" lon="7.4588154"><ele>1511.7142857142858</ele><time>2026-04-19T08:47:58.946Z</time></trkpt><trkpt lat="45.7749451" lon="7.4588563"><ele>1509.5714285714284</ele><time>2026-04-19T08:48:00.952Z</time></trkpt><trkpt lat="45.775031" lon="7.4589078"><ele>1507.4285714285716</ele><time>2026-04-19T08:48:04.027Z</time></trkpt><trkpt lat="45.7750925" lon="7.4589328"><ele>1505.2857142857142</ele><time>2026-04-19T08:48:05.949Z</time></trkpt><trkpt lat="45.7751526" lon="7.4589606"><ele>1503.142857142857</ele><time>2026-04-19T08:48:07.942Z</time></trkpt><trkpt lat="45.7752158" lon="7.4589717"><ele>1501.0</ele><time>2026-04-19T08:48:09.948Z</time></trkpt><trkpt lat="45.7753046" lon="7.4589743"><ele>1501.0</ele><time>2026-04-19T08:48:12.949Z</time></trkpt><trkpt lat="45.7753889" lon="7.4589446"><ele>1501.0</ele><time>2026-04-19T08:48:15.948Z</time></trkpt><trkpt lat="45.7754676" lon="7.4588986"><ele>1501.0</ele><time>2026-04-19T08:48:18.948Z</time></trkpt><trkpt lat="45.7755447" lon="7.4588592"><ele>1501.0</ele><time>2026-04-19T08:48:21.948Z</time></trkpt><trkpt lat="45.7756213" lon="7.4588106"><ele>1501.0</ele><time>2026-04-19T08:48:25.024Z</time></trkpt><trkpt lat="45.7756933" lon="7.4587541"><ele>1501.0</ele><time>2026-04-19T08:48:27.952Z</time></trkpt><trkpt lat="45.7757687" lon="7.4587027"><ele>1505.3333333333333</ele><time>2026-04-19T08:48:30.953Z</time></trkpt><trkpt lat="45.7758444" lon="7.4586495"><ele>1509.6666666666665</ele><time>2026-04-19T08:48:34.03Z</time></trkpt><trkpt lat="45.7759106" lon="7.4585918"><ele>1514.0</ele><time>2026-04-19T08:48:36.955Z</time></trkpt><trkpt lat="45.7759814" lon="7.4585321"><ele>1518.3333333333333</ele><time>2026-04-19T08:48:39.961Z</time></trkpt><trkpt lat="45.7760563" lon="7.4584816"><ele>1522.6666666666667</ele><time>2026-04-19T08:48:42.96Z</time></trkpt><trkpt lat="45.7761636" lon="7.4584206"><ele>1527.0</ele><time>2026-04-19T08:48:46.956Z</time></trkpt><trkpt lat="45.7762442" lon="7.4584567"><ele>1526.8333333333333</ele><time>2026-04-19T08:48:49.959Z</time></trkpt><trkpt lat="45.776277" lon="7.4585685"><ele>1526.6666666666667</ele><time>2026-04-19T08:48:52.958Z</time></trkpt><trkpt lat="45.7762687" lon="7.4586994"><ele>1526.5</ele><time>2026-04-19T08:48:55.964Z</time></trkpt><trkpt lat="45.7762525" lon="7.4588225"><ele>1526.3333333333335</ele><time>2026-04-19T08:48:58.951Z</time></trkpt><trkpt lat="45.776233" lon="7.4589438"><ele>1526.1666666666667</ele><time>2026-04-19T08:49:02.06Z</time></trkpt><trkpt lat="45.776214" lon="7.4590729"><ele>1526.0</ele><time>2026-04-19T08:49:04.952Z</time></trkpt><trkpt lat="45.7762101" lon="7.4591995"><ele>1526.0</ele><time>2026-04-19T08:49:08.029Z</time></trkpt><trkpt lat="45.7762462" lon="7.4593117"><ele>1526.0</ele><time>2026-04-19T08:49:10.949Z</time></trkpt><trkpt lat="45.7763142" lon="7.4593875"><ele>1526.0</ele><time>2026-04-19T08:49:13.967Z</time></trkpt><trkpt lat="45.7763922" lon="7.4594351"><ele>1526.0</ele><time>2026-04-19T08:49:16.957Z</time></trkpt><trkpt lat="45.7764799" lon="7.459456"><ele>1526.0</ele><time>2026-04-19T08:49:19.955Z</time></trkpt><trkpt lat="45.7765679" lon="7.4594421"><ele>1526.0</ele><time>2026-04-19T08:49:22.953Z</time></trkpt><trkpt lat="45.776655" lon="7.4594115"><ele>1526.0</ele><time>2026-04-19T08:49:25.955Z</time></trkpt><trkpt lat="45.7767371" lon="7.4593944"><ele>1526.0</ele><time>2026-04-19T08:49:28.954Z</time></trkpt><trkpt lat="45.7768107" lon="7.4593919"><ele>1526.0</ele><time>2026-04-19T08:49:31.952Z</time></trkpt><trkpt lat="45.7768805" lon="7.4594034"><ele>1526.0</ele><time>2026-04-19T08:49:35.029Z</time></trkpt><trkpt lat="45.7769418" lon="7.4594435"><ele>1526.0</ele><time>2026-04-19T08:49:37.948Z</time></trkpt><trkpt lat="45.7769896" lon="7.4595202"><ele>1526.0</ele><time>2026-04-19T08:49:40.945Z</time></trkpt><trkpt lat="45.7770291" lon="7.4596083"><ele>1526.0</ele><time>2026-04-19T08:49:43.948Z</time></trkpt><trkpt lat="45.7770529" lon="7.4597093"><ele>1529.4285714285713</ele><time>2026-04-19T08:49:46.946Z</time></trkpt><trkpt lat="45.7770787" lon="7.4598099"><ele>1532.857142857143</ele><time>2026-04-19T08:49:49.952Z</time></trkpt><trkpt lat="45.7771068" lon="7.4599027"><ele>1536.2857142857142</ele><time>2026-04-19T08:49:52.953Z</time></trkpt><trkpt lat="45.7771377" lon="7.4599937"><ele>1539.7142857142858</ele><time>2026-04-19T08:49:55.96Z</time></trkpt><trkpt lat="45.7771634" lon="7.4600814"><ele>1543.142857142857</ele><time>2026-04-19T08:49:58.954Z</time></trkpt><trkpt lat="45.7771956" lon="7.460181"><ele>1546.5714285714284</ele><time>2026-04-19T08:50:03.044Z</time></trkpt><trkpt lat="45.7772266" lon="7.4602874"><ele>1550.0</ele><time>2026-04-19T08:50:05.957Z</time></trkpt><trkpt lat="45.7772617" lon="7.4603907"><ele>1548.142857142857</ele><time>2026-04-19T08:50:09.024Z</time></trkpt><trkpt lat="45.7772875" lon="7.4604854"><ele>1546.2857142857142</ele><time>2026-04-19T08:50:11.951Z</time></trkpt><trkpt lat="45.7773165" lon="7.460578"><ele>1544.4285714285716</ele><time>2026-04-19T08:50:14.96Z</time></trkpt><trkpt lat="45.7773534" lon="7.4606728"><ele>1542.5714285714284</ele><time>2026-04-19T08:50:17.952Z</time></trkpt><trkpt lat="45.7773922" lon="7.4607681"><ele>1540.7142857142858</ele><time>2026-04-19T08:50:20.95Z</time></trkpt><trkpt lat="45.7774459" lon="7.4608392"><ele>1538.857142857143</ele><time>2026-04-19T08:50:23.945Z</time></trkpt><trkpt lat="45.7775094" lon="7.4608941"><ele>1537.0</ele><time>2026-04-19T08:50:27.032Z</time></trkpt><trkpt lat="45.7775758" lon="7.4609287"><ele>1537.0000000000002</ele><time>2026-04-19T08:50:30.026Z</time></trkpt><trkpt lat="45.7776461" lon="7.4609691"><ele>1537.0</ele><time>2026-04-19T08:50:32.953Z</time></trkpt><trkpt lat="45.7777199" lon="7.461007"><ele>1537.0</ele><time>2026-04-19T08:50:35.95Z</time></trkpt><trkpt lat="45.7777905" lon="7.4610417"><ele>1537.0</ele><time>2026-04-19T08:50:38.95Z</time></trkpt><trkpt lat="45.7778533" lon="7.4610941"><ele>1537.0000000000002</ele><time>2026-04-19T08:50:41.949Z</time></trkpt><trkpt lat="45.7779233" lon="7.4611351"><ele>1537.0</ele><time>2026-04-19T08:50:44.948Z</time></trkpt><trkpt lat="45.7779945" lon="7.4611799"><ele>1538.857142857143</ele><time>2026-04-19T08:50:47.95Z</time></trkpt><trkpt lat="45.7780597" lon="7.4612463"><ele>1540.7142857142858</ele><time>2026-04-19T08:50:50.948Z</time></trkpt><trkpt lat="45.7781155" lon="7.4613198"><ele>1542.5714285714284</ele><time>2026-04-19T08:50:53.948Z</time></trkpt><trkpt lat="45.7781611" lon="7.4613982"><ele>1544.4285714285716</ele><time>2026-04-19T08:50:56.949Z</time></trkpt><trkpt lat="45.7782046" lon="7.4614836"><ele>1546.2857142857142</ele><time>2026-04-19T08:50:59.947Z</time></trkpt><trkpt lat="45.7782476" lon="7.4615672"><ele>1548.142857142857</ele><time>2026-04-19T08:51:02.946Z</time></trkpt><trkpt lat="45.7782926" lon="7.4616461"><ele>1550.0</ele><time>2026-04-19T08:51:05.947Z</time></trkpt><trkpt lat="45.7783402" lon="7.4617381"><ele>1549.9999999999998</ele><time>2026-04-19T08:51:09.059Z</time></trkpt><trkpt lat="45.7783955" lon="7.4618187"><ele>1550.0</ele><time>2026-04-19T08:51:11.944Z</time></trkpt><trkpt lat="45.7784492" lon="7.4618879"><ele>1550.0</ele><time>2026-04-19T08:51:14.948Z</time></trkpt><trkpt lat="45.7785012" lon="7.4619521"><ele>1550.0</ele><time>2026-04-19T08:51:17.947Z</time></trkpt><trkpt lat="45.7785525" lon="7.4620258"><ele>1550.0</ele><time>2026-04-19T08:51:20.942Z</time></trkpt><trkpt lat="45.7786022" lon="7.4620968"><ele>1549.9999999999998</ele><time>2026-04-19T08:51:24.023Z</time></trkpt><trkpt lat="45.7786597" lon="7.46216"><ele>1550.0</ele><time>2026-04-19T08:51:26.945Z</time></trkpt><trkpt lat="45.7787201" lon="7.4622105"><ele>1550.2857142857142</ele><time>2026-04-19T08:51:30.008Z</time></trkpt><trkpt lat="45.7787861" lon="7.4622414"><ele>1550.5714285714284</ele><time>2026-04-19T08:51:32.942Z</time></trkpt><trkpt lat="45.7788568" lon="7.4622375"><ele>1550.8571428571427</ele><time>2026-04-19T08:51:35.946Z</time></trkpt><trkpt lat="45.7789284" lon="7.4622258"><ele>1551.142857142857</ele><time>2026-04-19T08:51:38.942Z</time></trkpt><trkpt lat="45.7790041" lon="7.4621929"><ele>1551.4285714285716</ele><time>2026-04-19T08:51:41.943Z</time></trkpt><trkpt lat="45.7790785" lon="7.462184"><ele>1551.7142857142856</ele><time>2026-04-19T08:51:44.948Z</time></trkpt><trkpt lat="45.7791463" lon="7.4621985"><ele>1552.0</ele><time>2026-04-19T08:51:48.009Z</time></trkpt><trkpt lat="45.77922" lon="7.462233"><ele>1552.0</ele><time>2026-04-19T08:51:50.944Z</time></trkpt><trkpt lat="45.7792927" lon="7.462271"><ele>1552.0</ele><time>2026-04-19T08:51:53.947Z</time></trkpt><trkpt lat="45.7793648" lon="7.4622962"><ele>1552.0</ele><time>2026-04-19T08:51:57.025Z</time></trkpt><trkpt lat="45.7794346" lon="7.4623344"><ele>1552.0</ele><time>2026-04-19T08:51:59.962Z</time></trkpt><trkpt lat="45.7795027" lon="7.4623674"><ele>1552.0</ele><time>2026-04-19T08:52:02.958Z</time></trkpt><trkpt lat="45.7795667" lon="7.4624103"><ele>1552.0</ele><time>2026-04-19T08:52:05.961Z</time></trkpt><trkpt lat="45.7796384" lon="7.4624212"><ele>1552.0</ele><time>2026-04-19T08:52:09.025Z</time></trkpt><trkpt lat="45.7797074" lon="7.4624032"><ele>1558.5000000000002</ele><time>2026-04-19T08:52:12.948Z</time></trkpt><trkpt lat="45.7797855" lon="7.4623499"><ele>1565.0</ele><time>2026-04-19T08:52:17.026Z</time></trkpt><trkpt lat="45.7798573" lon="7.4623596"><ele>1571.5</ele><time>2026-04-19T08:52:19.952Z</time></trkpt><trkpt lat="45.7799116" lon="7.4624434"><ele>1578.0</ele><time>2026-04-19T08:52:22.949Z</time></trkpt><trkpt lat="45.7799188" lon="7.4625653"><ele>1584.5000000000002</ele><time>2026-04-19T08:52:25.942Z</time></trkpt><trkpt lat="45.7799" lon="7.4626836"><ele>1591.0</ele><time>2026-04-19T08:52:29.026Z</time></trkpt><trkpt lat="45.779884" lon="7.4628094"><ele>1591.0</ele><time>2026-04-19T08:52:31.947Z</time></trkpt><trkpt lat="45.7798801" lon="7.4629333"><ele>1591.0</ele><time>2026-04-19T08:52:34.948Z</time></trkpt><trkpt lat="45.7798906" lon="7.4630361"><ele>1591.0</ele><time>2026-04-19T08:52:37.979Z</time></trkpt><trkpt lat="45.779909" lon="7.463134"><ele>1591.0</ele><time>2026-04-19T08:52:41.951Z</time></trkpt><trkpt lat="45.7799591" lon="7.4631957"><ele>1591.0</ele><time>2026-04-19T08:52:45.952Z</time></trkpt><trkpt lat="45.7800266" lon="7.4632545"><ele>1591.0</ele><time>2026-04-19T08:55:25.95Z</time></trkpt><trkpt lat="45.7800725" lon="7.4633208"><ele>1591.0</ele><time>2026-04-19T08:55:29.948Z</time></trkpt><trkpt lat="45.7800863" lon="7.4634113"><ele>1588.1666666666667</ele><time>2026-04-19T08:55:32.944Z</time></trkpt><trkpt lat="45.7800797" lon="7.4635166"><ele>1585.3333333333335</ele><time>2026-04-19T08:55:35.945Z</time></trkpt><trkpt lat="45.7800363" lon="7.4636226"><ele>1582.5</ele><time>2026-04-19T08:55:38.975Z</time></trkpt><trkpt lat="45.779997" lon="7.4637121"><ele>1579.6666666666665</ele><time>2026-04-19T08:55:40.95Z</time></trkpt><trkpt lat="45.7799492" lon="7.4638146"><ele>1576.8333333333333</ele><time>2026-04-19T08:55:42.946Z</time></trkpt><trkpt lat="45.7799223" lon="7.4639047"><ele>1574.0</ele><time>2026-04-19T08:55:44.948Z</time></trkpt><trkpt lat="45.7798953" lon="7.4640091"><ele>1573.0</ele><time>2026-04-19T08:55:46.952Z</time></trkpt><trkpt lat="45.7798708" lon="7.464123"><ele>1572.0</ele><time>2026-04-19T08:55:48.951Z</time></trkpt><trkpt lat="45.7798522" lon="7.4642405"><ele>1571.0</ele><time>2026-04-19T08:55:50.946Z</time></trkpt><trkpt lat="45.779822" lon="7.4644159"><ele>1570.0</ele><time>2026-04-19T08:55:53.946Z</time></trkpt><trkpt lat="45.7798252" lon="7.4645304"><ele>1569.0</ele><time>2026-04-19T08:55:55.956Z</time></trkpt><trkpt lat="45.7798462" lon="7.4646446"><ele>1569.0</ele><time>2026-04-19T08:55:57.952Z</time></trkpt><trkpt lat="45.7798854" lon="7.4647405"><ele>1569.0</ele><time>2026-04-19T08:55:59.947Z</time></trkpt><trkpt lat="45.7799193" lon="7.4648298"><ele>1569.0</ele><time>2026-04-19T08:56:01.948Z</time></trkpt><trkpt lat="45.7799608" lon="7.4649353"><ele>1569.0</ele><time>2026-04-19T08:56:03.949Z</time></trkpt><trkpt lat="45.7799994" lon="7.4650311"><ele>1569.0</ele><time>2026-04-19T08:56:05.952Z</time></trkpt><trkpt lat="45.7800347" lon="7.4651292"><ele>1569.0</ele><time>2026-04-19T08:56:07.947Z</time></trkpt><trkpt lat="45.7800653" lon="7.4652126"><ele>1569.0</ele><time>2026-04-19T08:56:09.947Z</time></trkpt><trkpt lat="45.7800997" lon="7.4653096"><ele>1569.0</ele><time>2026-04-19T08:56:11.947Z</time></trkpt><trkpt lat="45.7801421" lon="7.4654093"><ele>1569.0</ele><time>2026-04-19T08:56:13.95Z</time></trkpt><trkpt lat="45.7801839" lon="7.4655"><ele>1569.0</ele><time>2026-04-19T08:56:15.947Z</time></trkpt><trkpt lat="45.7802256" lon="7.465585"><ele>1569.0</ele><time>2026-04-19T08:56:17.944Z</time></trkpt><trkpt lat="45.7802744" lon="7.4656637"><ele>1569.0</ele><time>2026-04-19T08:56:19.952Z</time></trkpt><trkpt lat="45.7803359" lon="7.4657118"><ele>1569.0</ele><time>2026-04-19T08:56:21.942Z</time></trkpt><trkpt lat="45.7804016" lon="7.4657251"><ele>1571.142857142857</ele><time>2026-04-19T08:56:23.951Z</time></trkpt><trkpt lat="45.7804742" lon="7.4657389"><ele>1573.2857142857142</ele><time>2026-04-19T08:56:25.947Z</time></trkpt><trkpt lat="45.7805502" lon="7.4657748"><ele>1575.4285714285716</ele><time>2026-04-19T08:56:27.947Z</time></trkpt><trkpt lat="45.7806116" lon="7.4658149"><ele>1577.5714285714284</ele><time>2026-04-19T08:56:29.948Z</time></trkpt><trkpt lat="45.7806661" lon="7.4658664"><ele>1579.7142857142856</ele><time>2026-04-19T08:56:31.95Z</time></trkpt><trkpt lat="45.7807206" lon="7.4659263"><ele>1581.857142857143</ele><time>2026-04-19T08:56:33.952Z</time></trkpt><trkpt lat="45.7807745" lon="7.4659867"><ele>1584.0</ele><time>2026-04-19T08:56:35.943Z</time></trkpt><trkpt lat="45.7808393" lon="7.4660325"><ele>1584.0</ele><time>2026-04-19T08:56:37.952Z</time></trkpt><trkpt lat="45.7809055" lon="7.466101"><ele>1584.0</ele><time>2026-04-19T08:56:39.948Z</time></trkpt><trkpt lat="45.7809557" lon="7.4661873"><ele>1584.0</ele><time>2026-04-19T08:56:41.949Z</time></trkpt><trkpt lat="45.7809904" lon="7.4662723"><ele>1584.0</ele><time>2026-04-19T08:56:43.95Z</time></trkpt><trkpt lat="45.7810119" lon="7.4663619"><ele>1584.0</ele><time>2026-04-19T08:56:45.951Z</time></trkpt><trkpt lat="45.7810302" lon="7.4664639"><ele>1584.0</ele><time>2026-04-19T08:56:47.952Z</time></trkpt><trkpt lat="45.7810564" lon="7.4665599"><ele>1584.0</ele><time>2026-04-19T08:56:49.945Z</time></trkpt><trkpt lat="45.7810835" lon="7.4666611"><ele>1584.7142857142858</ele><time>2026-04-19T08:56:51.947Z</time></trkpt><trkpt lat="45.7811205" lon="7.4667464"><ele>1585.4285714285713</ele><time>2026-04-19T08:56:53.944Z</time></trkpt><trkpt lat="45.7811558" lon="7.4668314"><ele>1586.142857142857</ele><time>2026-04-19T08:56:55.947Z</time></trkpt><trkpt lat="45.7812056" lon="7.466907"><ele>1586.857142857143</ele><time>2026-04-19T08:56:57.948Z</time></trkpt><trkpt lat="45.7812536" lon="7.4669806"><ele>1587.5714285714284</ele><time>2026-04-19T08:56:59.948Z</time></trkpt><trkpt lat="45.7812959" lon="7.4670754"><ele>1588.2857142857142</ele><time>2026-04-19T08:57:01.949Z</time></trkpt><trkpt lat="45.781321" lon="7.4671682"><ele>1589.0</ele><time>2026-04-19T08:57:03.948Z</time></trkpt><trkpt lat="45.7813497" lon="7.4672728"><ele>1589.0</ele><time>2026-04-19T08:57:05.942Z</time></trkpt><trkpt lat="45.7813722" lon="7.4673742"><ele>1589.0</ele><time>2026-04-19T08:57:07.943Z</time></trkpt><trkpt lat="45.7813806" lon="7.4674749"><ele>1589.0</ele><time>2026-04-19T08:57:09.952Z</time></trkpt><trkpt lat="45.781382" lon="7.4675842"><ele>1589.0</ele><time>2026-04-19T08:57:11.947Z</time></trkpt><trkpt lat="45.7813699" lon="7.4676851"><ele>1589.0</ele><time>2026-04-19T08:57:13.952Z</time></trkpt><trkpt lat="45.7813547" lon="7.4677943"><ele>1589.0</ele><time>2026-04-19T08:57:15.946Z</time></trkpt><trkpt lat="45.7813375" lon="7.4678954"><ele>1589.0</ele><time>2026-04-19T08:57:17.945Z</time></trkpt><trkpt lat="45.7813259" lon="7.4679916"><ele>1587.3333333333333</ele><time>2026-04-19T08:57:19.948Z</time></trkpt><trkpt lat="45.7813099" lon="7.4680972"><ele>1585.6666666666665</ele><time>2026-04-19T08:57:21.945Z</time></trkpt><trkpt lat="45.7813032" lon="7.4682045"><ele>1584.0</ele><time>2026-04-19T08:57:23.95Z</time></trkpt><trkpt lat="45.7813037" lon="7.4683145"><ele>1582.3333333333335</ele><time>2026-04-19T08:57:25.952Z</time></trkpt><trkpt lat="45.7813246" lon="7.4684204"><ele>1580.6666666666667</ele><time>2026-04-19T08:57:27.948Z</time></trkpt><trkpt lat="45.7813606" lon="7.4685211"><ele>1579.0</ele><time>2026-04-19T08:57:29.951Z</time></trkpt><trkpt lat="45.7814056" lon="7.468608"><ele>1579.0000000000002</ele><time>2026-04-19T08:57:31.953Z</time></trkpt><trkpt lat="45.7814488" lon="7.4686911"><ele>1579.0</ele><time>2026-04-19T08:57:33.95Z</time></trkpt><trkpt lat="45.7815052" lon="7.4687561"><ele>1579.0</ele><time>2026-04-19T08:57:35.95Z</time></trkpt><trkpt lat="45.7815709" lon="7.4688009"><ele>1579.0</ele><time>2026-04-19T08:57:37.945Z</time></trkpt><trkpt lat="45.7816393" lon="7.4688421"><ele>1579.0</ele><time>2026-04-19T08:57:39.949Z</time></trkpt><trkpt lat="45.7817074" lon="7.468874"><ele>1579.0000000000002</ele><time>2026-04-19T08:57:41.949Z</time></trkpt><trkpt lat="45.7817757" lon="7.4689116"><ele>1579.0</ele><time>2026-04-19T08:57:43.951Z</time></trkpt><trkpt lat="45.7818441" lon="7.4689437"><ele>1579.1666666666667</ele><time>2026-04-19T08:57:45.954Z</time></trkpt><trkpt lat="45.7819127" lon="7.4689747"><ele>1579.3333333333335</ele><time>2026-04-19T08:57:47.951Z</time></trkpt><trkpt lat="45.7819819" lon="7.4690168"><ele>1579.5</ele><time>2026-04-19T08:57:49.951Z</time></trkpt><trkpt lat="45.7820505" lon="7.4690622"><ele>1579.6666666666665</ele><time>2026-04-19T08:57:51.942Z</time></trkpt><trkpt lat="45.7821164" lon="7.4691189"><ele>1579.8333333333333</ele><time>2026-04-19T08:57:53.949Z</time></trkpt><trkpt lat="45.7821863" lon="7.4691754"><ele>1580.0</ele><time>2026-04-19T08:57:55.953Z</time></trkpt><trkpt lat="45.7822592" lon="7.4692213"><ele>1579.9999999999998</ele><time>2026-04-19T08:57:57.951Z</time></trkpt><trkpt lat="45.7823285" lon="7.469259"><ele>1580.0</ele><time>2026-04-19T08:57:59.951Z</time></trkpt><trkpt lat="45.7823992" lon="7.4692698"><ele>1580.0</ele><time>2026-04-19T08:58:01.949Z</time></trkpt><trkpt lat="45.7824676" lon="7.4692788"><ele>1580.0</ele><time>2026-04-19T08:58:03.95Z</time></trkpt><trkpt lat="45.782559" lon="7.4692918"><ele>1579.9999999999998</ele><time>2026-04-19T08:58:06.945Z</time></trkpt><trkpt lat="45.7826458" lon="7.4692899"><ele>1580.0</ele><time>2026-04-19T08:58:09.946Z</time></trkpt><trkpt lat="45.7827339" lon="7.4692876"><ele>1580.9999999999998</ele><time>2026-04-19T08:58:12.948Z</time></trkpt><trkpt lat="45.7828239" lon="7.469275"><ele>1582.0</ele><time>2026-04-19T08:58:15.95Z</time></trkpt><trkpt lat="45.7829102" lon="7.4692843"><ele>1583.0</ele><time>2026-04-19T08:58:18.955Z</time></trkpt><trkpt lat="45.7829934" lon="7.469277"><ele>1584.0</ele><time>2026-04-19T08:58:21.946Z</time></trkpt><trkpt lat="45.7830778" lon="7.4692722"><ele>1584.9999999999998</ele><time>2026-04-19T08:58:24.952Z</time></trkpt><trkpt lat="45.7831653" lon="7.4692726"><ele>1586.0</ele><time>2026-04-19T08:58:27.95Z</time></trkpt><trkpt lat="45.7832542" lon="7.4692617"><ele>1585.9999999999998</ele><time>2026-04-19T08:58:30.948Z</time></trkpt><trkpt lat="45.7833473" lon="7.4692551"><ele>1586.0</ele><time>2026-04-19T08:58:33.95Z</time></trkpt><trkpt lat="45.7834287" lon="7.4692616"><ele>1586.0</ele><time>2026-04-19T08:58:36.952Z</time></trkpt><trkpt lat="45.7834945" lon="7.4692913"><ele>1586.0</ele><time>2026-04-19T08:58:38.948Z</time></trkpt><trkpt lat="45.7835778" lon="7.469324"><ele>1585.9999999999998</ele><time>2026-04-19T08:58:41.948Z</time></trkpt><trkpt lat="45.7836585" lon="7.4693252"><ele>1586.0</ele><time>2026-04-19T08:58:44.951Z</time></trkpt><trkpt lat="45.7837518" lon="7.4692952"><ele>1582.8333333333333</ele><time>2026-04-19T08:58:47.949Z</time></trkpt><trkpt lat="45.7838246" lon="7.4692075"><ele>1579.6666666666665</ele><time>2026-04-19T08:58:50.953Z</time></trkpt><trkpt lat="45.7838861" lon="7.4691256"><ele>1576.5</ele><time>2026-04-19T08:58:53.945Z</time></trkpt><trkpt lat="45.7839414" lon="7.4690438"><ele>1573.3333333333335</ele><time>2026-04-19T08:58:56.948Z</time></trkpt><trkpt lat="45.783996" lon="7.4689507"><ele>1570.1666666666667</ele><time>2026-04-19T08:58:59.944Z</time></trkpt><trkpt lat="45.7840541" lon="7.4688554"><ele>1567.0</ele><time>2026-04-19T08:59:02.946Z</time></trkpt><trkpt lat="45.7841111" lon="7.4687547"><ele>1567.0000000000002</ele><time>2026-04-19T08:59:05.946Z</time></trkpt><trkpt lat="45.7841563" lon="7.4686459"><ele>1567.0</ele><time>2026-04-19T08:59:08.945Z</time></trkpt><trkpt lat="45.7841941" lon="7.4685291"><ele>1567.0</ele><time>2026-04-19T08:59:11.949Z</time></trkpt><trkpt lat="45.7842347" lon="7.4684186"><ele>1567.0</ele><time>2026-04-19T08:59:14.941Z</time></trkpt><trkpt lat="45.7842839" lon="7.4683113"><ele>1567.0000000000002</ele><time>2026-04-19T08:59:17.953Z</time></trkpt><trkpt lat="45.7843366" lon="7.4682021"><ele>1567.0</ele><time>2026-04-19T08:59:20.945Z</time></trkpt><trkpt lat="45.7843739" lon="7.4680913"><ele>1567.0000000000002</ele><time>2026-04-19T08:59:23.951Z</time></trkpt><trkpt lat="45.7844145" lon="7.4679793"><ele>1567.0</ele><time>2026-04-19T08:59:26.948Z</time></trkpt><trkpt lat="45.7844679" lon="7.4678875"><ele>1567.0</ele><time>2026-04-19T08:59:29.948Z</time></trkpt><trkpt lat="45.7845418" lon="7.4678043"><ele>1567.0</ele><time>2026-04-19T08:59:32.945Z</time></trkpt><trkpt lat="45.7846034" lon="7.4677548"><ele>1567.0000000000002</ele><time>2026-04-19T08:59:34.942Z</time></trkpt><trkpt lat="45.7846776" lon="7.4677061"><ele>1567.0</ele><time>2026-04-19T08:59:37.946Z</time></trkpt><trkpt lat="45.784737" lon="7.4676749"><ele>1572.6666666666667</ele><time>2026-04-19T08:59:39.946Z</time></trkpt><trkpt lat="45.7848137" lon="7.467641"><ele>1578.3333333333335</ele><time>2026-04-19T08:59:42.946Z</time></trkpt><trkpt lat="45.7848777" lon="7.4676131"><ele>1584.0</ele><time>2026-04-19T08:59:44.946Z</time></trkpt><trkpt lat="45.7849654" lon="7.4675806"><ele>1589.6666666666665</ele><time>2026-04-19T08:59:47.944Z</time></trkpt><trkpt lat="45.785041" lon="7.4675898"><ele>1595.3333333333333</ele><time>2026-04-19T08:59:50.949Z</time></trkpt><trkpt lat="45.7851082" lon="7.4675758"><ele>1601.0</ele><time>2026-04-19T08:59:53.944Z</time></trkpt><trkpt lat="45.7851753" lon="7.4675369"><ele>1600.3333333333333</ele><time>2026-04-19T08:59:56.945Z</time></trkpt><trkpt lat="45.7852509" lon="7.4675043"><ele>1599.6666666666665</ele><time>2026-04-19T08:59:59.951Z</time></trkpt><trkpt lat="45.785325" lon="7.4674867"><ele>1599.0</ele><time>2026-04-19T09:00:02.951Z</time></trkpt><trkpt lat="45.7853972" lon="7.4674772"><ele>1598.3333333333335</ele><time>2026-04-19T09:00:05.95Z</time></trkpt><trkpt lat="45.7854678" lon="7.4674621"><ele>1597.6666666666667</ele><time>2026-04-19T09:00:08.95Z</time></trkpt><trkpt lat="45.7855425" lon="7.4674334"><ele>1597.0</ele><time>2026-04-19T09:00:11.948Z</time></trkpt><trkpt lat="45.7856162" lon="7.4674103"><ele>1597.0000000000002</ele><time>2026-04-19T09:00:14.937Z</time></trkpt><trkpt lat="45.785693" lon="7.4674156"><ele>1597.0</ele><time>2026-04-19T09:00:17.948Z</time></trkpt><trkpt lat="45.7857684" lon="7.4674449"><ele>1597.0</ele><time>2026-04-19T09:00:20.947Z</time></trkpt><trkpt lat="45.7858314" lon="7.4674912"><ele>1597.0</ele><time>2026-04-19T09:00:23.949Z</time></trkpt><trkpt lat="45.7859031" lon="7.4675455"><ele>1597.0000000000002</ele><time>2026-04-19T09:00:26.944Z</time></trkpt><trkpt lat="45.785981" lon="7.4675934"><ele>1597.0</ele><time>2026-04-19T09:00:29.948Z</time></trkpt><trkpt lat="45.7860673" lon="7.4676203"><ele>1596.8333333333335</ele><time>2026-04-19T09:00:32.944Z</time></trkpt><trkpt lat="45.7861584" lon="7.4676226"><ele>1596.6666666666667</ele><time>2026-04-19T09:00:35.948Z</time></trkpt><trkpt lat="45.7862448" lon="7.4675938"><ele>1596.5</ele><time>2026-04-19T09:00:38.944Z</time></trkpt><trkpt lat="45.7863028" lon="7.4675563"><ele>1596.3333333333335</ele><time>2026-04-19T09:00:40.952Z</time></trkpt><trkpt lat="45.7863853" lon="7.4675016"><ele>1596.1666666666667</ele><time>2026-04-19T09:00:43.951Z</time></trkpt><trkpt lat="45.7864495" lon="7.4674525"><ele>1596.0</ele><time>2026-04-19T09:00:46.945Z</time></trkpt><trkpt lat="45.7865281" lon="7.4673861"><ele>1596.0</ele><time>2026-04-19T09:00:49.954Z</time></trkpt><trkpt lat="45.7865985" lon="7.467302"><ele>1596.0</ele><time>2026-04-19T09:00:52.951Z</time></trkpt><trkpt lat="45.78667" lon="7.4672349"><ele>1596.0</ele><time>2026-04-19T09:00:55.941Z</time></trkpt><trkpt lat="45.7867366" lon="7.4671653"><ele>1596.0</ele><time>2026-04-19T09:00:58.946Z</time></trkpt><trkpt lat="45.78681" lon="7.4670912"><ele>1596.0</ele><time>2026-04-19T09:01:01.946Z</time></trkpt><trkpt lat="45.7868825" lon="7.4670184"><ele>1596.0</ele><time>2026-04-19T09:01:04.95Z</time></trkpt><trkpt lat="45.7869593" lon="7.4669414"><ele>1595.8333333333333</ele><time>2026-04-19T09:01:07.945Z</time></trkpt><trkpt lat="45.7870295" lon="7.4668722"><ele>1595.6666666666665</ele><time>2026-04-19T09:01:10.952Z</time></trkpt><trkpt lat="45.7870883" lon="7.4667959"><ele>1595.5</ele><time>2026-04-19T09:01:13.951Z</time></trkpt><trkpt lat="45.7871542" lon="7.4667437"><ele>1595.3333333333333</ele><time>2026-04-19T09:01:16.943Z</time></trkpt><trkpt lat="45.7872199" lon="7.4666863"><ele>1595.1666666666665</ele><time>2026-04-19T09:01:19.946Z</time></trkpt><trkpt lat="45.7872666" lon="7.4666136"><ele>1595.0</ele><time>2026-04-19T09:01:22.946Z</time></trkpt><trkpt lat="45.7873285" lon="7.4665491"><ele>1594.9999999999998</ele><time>2026-04-19T09:01:25.938Z</time></trkpt><trkpt lat="45.7873946" lon="7.4664851"><ele>1595.0</ele><time>2026-04-19T09:01:28.946Z</time></trkpt><trkpt lat="45.787448" lon="7.4663932"><ele>1595.0</ele><time>2026-04-19T09:01:31.946Z</time></trkpt><trkpt lat="45.7874937" lon="7.466306"><ele>1595.0</ele><time>2026-04-19T09:01:34.943Z</time></trkpt><trkpt lat="45.7875324" lon="7.4662028"><ele>1594.9999999999998</ele><time>2026-04-19T09:01:37.944Z</time></trkpt><trkpt lat="45.7875638" lon="7.4660839"><ele>1595.0</ele><time>2026-04-19T09:01:40.946Z</time></trkpt><trkpt lat="45.7876052" lon="7.465981"><ele>1596.6666666666665</ele><time>2026-04-19T09:01:43.945Z</time></trkpt><trkpt lat="45.7876617" lon="7.4658923"><ele>1598.3333333333333</ele><time>2026-04-19T09:01:46.944Z</time></trkpt><trkpt lat="45.7877357" lon="7.4658284"><ele>1600.0</ele><time>2026-04-19T09:01:49.951Z</time></trkpt><trkpt lat="45.7878169" lon="7.4657742"><ele>1601.6666666666665</ele><time>2026-04-19T09:01:52.947Z</time></trkpt><trkpt lat="45.787896" lon="7.4657136"><ele>1603.3333333333333</ele><time>2026-04-19T09:01:55.942Z</time></trkpt><trkpt lat="45.7879721" lon="7.4656442"><ele>1605.0</ele><time>2026-04-19T09:01:58.942Z</time></trkpt><trkpt lat="45.7880424" lon="7.4655788"><ele>1605.0</ele><time>2026-04-19T09:02:01.946Z</time></trkpt><trkpt lat="45.7881136" lon="7.4655204"><ele>1605.0</ele><time>2026-04-19T09:02:04.948Z</time></trkpt><trkpt lat="45.7881931" lon="7.4654658"><ele>1605.0</ele><time>2026-04-19T09:02:07.946Z</time></trkpt><trkpt lat="45.7882721" lon="7.4653997"><ele>1605.0</ele><time>2026-04-19T09:02:10.946Z</time></trkpt><trkpt lat="45.7883488" lon="7.4653411"><ele>1605.0</ele><time>2026-04-19T09:02:13.944Z</time></trkpt><trkpt lat="45.7884271" lon="7.4652892"><ele>1605.0</ele><time>2026-04-19T09:02:16.943Z</time></trkpt><trkpt lat="45.7885023" lon="7.465222"><ele>1611.3333333333333</ele><time>2026-04-19T09:02:19.942Z</time></trkpt><trkpt lat="45.7885565" lon="7.4651758"><ele>1617.6666666666665</ele><time>2026-04-19T09:02:21.946Z</time></trkpt><trkpt lat="45.7886296" lon="7.4651103"><ele>1624.0</ele><time>2026-04-19T09:02:24.955Z</time></trkpt><trkpt lat="45.7887043" lon="7.4650374"><ele>1630.3333333333333</ele><time>2026-04-19T09:02:27.943Z</time></trkpt><trkpt lat="45.7887664" lon="7.4649536"><ele>1636.6666666666665</ele><time>2026-04-19T09:02:30.946Z</time></trkpt><trkpt lat="45.7888341" lon="7.4648639"><ele>1643.0</ele><time>2026-04-19T09:02:33.949Z</time></trkpt><trkpt lat="45.7889113" lon="7.4648139"><ele>1642.9999999999998</ele><time>2026-04-19T09:02:36.944Z</time></trkpt><trkpt lat="45.7889907" lon="7.464843"><ele>1643.0</ele><time>2026-04-19T09:02:39.943Z</time></trkpt><trkpt lat="45.7890233" lon="7.464955"><ele>1643.0</ele><time>2026-04-19T09:02:42.945Z</time></trkpt><trkpt lat="45.7890208" lon="7.4650904"><ele>1643.0</ele><time>2026-04-19T09:02:45.942Z</time></trkpt><trkpt lat="45.7890133" lon="7.4651919"><ele>1642.9999999999998</ele><time>2026-04-19T09:02:47.947Z</time></trkpt><trkpt lat="45.7889816" lon="7.4653078"><ele>1643.0</ele><time>2026-04-19T09:02:49.951Z</time></trkpt><trkpt lat="45.7889731" lon="7.4654447"><ele>1641.2</ele><time>2026-04-19T09:02:51.949Z</time></trkpt><trkpt lat="45.7889528" lon="7.4655461"><ele>1639.4</ele><time>2026-04-19T09:02:53.949Z</time></trkpt><trkpt lat="45.7889267" lon="7.4656587"><ele>1637.6000000000001</ele><time>2026-04-19T09:02:55.948Z</time></trkpt><trkpt lat="45.7888989" lon="7.4657892"><ele>1635.8000000000002</ele><time>2026-04-19T09:02:57.947Z</time></trkpt><trkpt lat="45.7888763" lon="7.4659333"><ele>1634.0</ele><time>2026-04-19T09:02:59.949Z</time></trkpt><trkpt lat="45.7888507" lon="7.4660798"><ele>1634.0</ele><time>2026-04-19T09:03:01.952Z</time></trkpt><trkpt lat="45.7888118" lon="7.4662374"><ele>1634.0</ele><time>2026-04-19T09:03:03.949Z</time></trkpt><trkpt lat="45.7887756" lon="7.4663927"><ele>1634.0</ele><time>2026-04-19T09:03:05.949Z</time></trkpt><trkpt lat="45.7887714" lon="7.4665496"><ele>1634.0</ele><time>2026-04-19T09:03:07.946Z</time></trkpt><trkpt lat="45.7888046" lon="7.4666951"><ele>1634.0</ele><time>2026-04-19T09:03:09.953Z</time></trkpt><trkpt lat="45.7888872" lon="7.4667859"><ele>1631.6666666666665</ele><time>2026-04-19T09:03:11.948Z</time></trkpt><trkpt lat="45.7889671" lon="7.46687"><ele>1629.3333333333333</ele><time>2026-04-19T09:03:13.946Z</time></trkpt><trkpt lat="45.7890289" lon="7.4669708"><ele>1627.0</ele><time>2026-04-19T09:03:15.951Z</time></trkpt><trkpt lat="45.7890842" lon="7.4670395"><ele>1624.6666666666665</ele><time>2026-04-19T09:03:17.951Z</time></trkpt><trkpt lat="45.7891452" lon="7.4670894"><ele>1622.3333333333333</ele><time>2026-04-19T09:03:19.947Z</time></trkpt><trkpt lat="45.7892184" lon="7.4671483"><ele>1620.0</ele><time>2026-04-19T09:03:21.945Z</time></trkpt><trkpt lat="45.7893045" lon="7.4671646"><ele>1622.0</ele><time>2026-04-19T09:03:23.941Z</time></trkpt><trkpt lat="45.7893809" lon="7.4671226"><ele>1624.0</ele><time>2026-04-19T09:03:25.945Z</time></trkpt><trkpt lat="45.789457" lon="7.4670961"><ele>1626.0</ele><time>2026-04-19T09:03:27.942Z</time></trkpt><trkpt lat="45.7895374" lon="7.467068"><ele>1628.0</ele><time>2026-04-19T09:03:29.949Z</time></trkpt><trkpt lat="45.7896259" lon="7.4670475"><ele>1630.0</ele><time>2026-04-19T09:03:31.949Z</time></trkpt><trkpt lat="45.7897135" lon="7.4670282"><ele>1632.0</ele><time>2026-04-19T09:03:33.946Z</time></trkpt><trkpt lat="45.7897888" lon="7.4670179"><ele>1632.0</ele><time>2026-04-19T09:03:35.945Z</time></trkpt><trkpt lat="45.7898645" lon="7.4669961"><ele>1632.0</ele><time>2026-04-19T09:03:37.941Z</time></trkpt><trkpt lat="45.7899357" lon="7.4669695"><ele>1632.0</ele><time>2026-04-19T09:03:39.946Z</time></trkpt><trkpt lat="45.7900108" lon="7.4669433"><ele>1632.0</ele><time>2026-04-19T09:03:41.947Z</time></trkpt><trkpt lat="45.7900818" lon="7.4669257"><ele>1632.0</ele><time>2026-04-19T09:03:43.949Z</time></trkpt><trkpt lat="45.7901521" lon="7.4669055"><ele>1632.0</ele><time>2026-04-19T09:03:45.947Z</time></trkpt><trkpt lat="45.7902211" lon="7.4668977"><ele>1632.0</ele><time>2026-04-19T09:03:47.945Z</time></trkpt><trkpt lat="45.7902843" lon="7.4669373"><ele>1633.142857142857</ele><time>2026-04-19T09:03:49.944Z</time></trkpt><trkpt lat="45.7903363" lon="7.4670103"><ele>1634.2857142857142</ele><time>2026-04-19T09:03:51.95Z</time></trkpt><trkpt lat="45.7903628" lon="7.4670992"><ele>1635.4285714285716</ele><time>2026-04-19T09:03:53.947Z</time></trkpt><trkpt lat="45.7903466" lon="7.4672054"><ele>1636.5714285714284</ele><time>2026-04-19T09:03:55.941Z</time></trkpt><trkpt lat="45.7903746" lon="7.467311"><ele>1637.7142857142856</ele><time>2026-04-19T09:03:57.949Z</time></trkpt><trkpt lat="45.7904254" lon="7.4673739"><ele>1638.857142857143</ele><time>2026-04-19T09:03:59.951Z</time></trkpt><trkpt lat="45.790505" lon="7.4673643"><ele>1640.0</ele><time>2026-04-19T09:04:01.944Z</time></trkpt><trkpt lat="45.7905882" lon="7.4673443"><ele>1636.4999999999998</ele><time>2026-04-19T09:04:03.945Z</time></trkpt><trkpt lat="45.7906822" lon="7.4673349"><ele>1633.0</ele><time>2026-04-19T09:04:05.945Z</time></trkpt><trkpt lat="45.7907662" lon="7.4673322"><ele>1629.5</ele><time>2026-04-19T09:04:07.948Z</time></trkpt><trkpt lat="45.7908492" lon="7.4673209"><ele>1626.0</ele><time>2026-04-19T09:04:09.939Z</time></trkpt><trkpt lat="45.7909308" lon="7.4673147"><ele>1622.4999999999998</ele><time>2026-04-19T09:04:11.947Z</time></trkpt><trkpt lat="45.791015" lon="7.4673152"><ele>1619.0</ele><time>2026-04-19T09:04:13.947Z</time></trkpt><trkpt lat="45.7911035" lon="7.4673183"><ele>1618.9999999999998</ele><time>2026-04-19T09:04:15.948Z</time></trkpt><trkpt lat="45.7911868" lon="7.4673608"><ele>1619.0</ele><time>2026-04-19T09:04:17.948Z</time></trkpt><trkpt lat="45.7912568" lon="7.4674329"><ele>1619.0</ele><time>2026-04-19T09:04:19.941Z</time></trkpt><trkpt lat="45.7913175" lon="7.4675188"><ele>1619.0</ele><time>2026-04-19T09:04:21.949Z</time></trkpt><trkpt lat="45.7913872" lon="7.4675882"><ele>1618.9999999999998</ele><time>2026-04-19T09:04:23.953Z</time></trkpt><trkpt lat="45.7914768" lon="7.4676392"><ele>1619.0</ele><time>2026-04-19T09:04:25.941Z</time></trkpt><trkpt lat="45.7915673" lon="7.4676291"><ele>1619.0</ele><time>2026-04-19T09:04:27.95Z</time></trkpt><trkpt lat="45.7916588" lon="7.467625"><ele>1619.0</ele><time>2026-04-19T09:04:29.947Z</time></trkpt><trkpt lat="45.7917483" lon="7.4676157"><ele>1619.0</ele><time>2026-04-19T09:04:31.948Z</time></trkpt><trkpt lat="45.7918386" lon="7.4676304"><ele>1619.0</ele><time>2026-04-19T09:04:33.95Z</time></trkpt><trkpt lat="45.7919256" lon="7.4676154"><ele>1619.0</ele><time>2026-04-19T09:04:35.95Z</time></trkpt><trkpt lat="45.7919984" lon="7.4675146"><ele>1618.4</ele><time>2026-04-19T09:04:37.949Z</time></trkpt><trkpt lat="45.7920791" lon="7.4674191"><ele>1617.8000000000002</ele><time>2026-04-19T09:04:39.946Z</time></trkpt><trkpt lat="45.7921714" lon="7.4673974"><ele>1617.1999999999998</ele><time>2026-04-19T09:04:41.945Z</time></trkpt><trkpt lat="45.7922647" lon="7.4673978"><ele>1616.6</ele><time>2026-04-19T09:04:43.946Z</time></trkpt><trkpt lat="45.7923527" lon="7.4674074"><ele>1616.0</ele><time>2026-04-19T09:04:45.945Z</time></trkpt><trkpt lat="45.7924393" lon="7.4674223"><ele>1615.9999999999998</ele><time>2026-04-19T09:04:47.947Z</time></trkpt><trkpt lat="45.7925162" lon="7.4674375"><ele>1616.0</ele><time>2026-04-19T09:04:49.943Z</time></trkpt><trkpt lat="45.7925889" lon="7.4674198"><ele>1616.0</ele><time>2026-04-19T09:04:51.946Z</time></trkpt><trkpt lat="45.7926514" lon="7.4673466"><ele>1616.0</ele><time>2026-04-19T09:04:53.944Z</time></trkpt><trkpt lat="45.7926989" lon="7.4672556"><ele>1615.9999999999998</ele><time>2026-04-19T09:04:55.945Z</time></trkpt><trkpt lat="45.7927209" lon="7.4671579"><ele>1616.0</ele><time>2026-04-19T09:04:57.938Z</time></trkpt><trkpt lat="45.7928082" lon="7.4671138"><ele>1620.6</ele><time>2026-04-19T09:05:00.945Z</time></trkpt><trkpt lat="45.7928867" lon="7.4672009"><ele>1625.1999999999998</ele><time>2026-04-19T09:05:02.942Z</time></trkpt><trkpt lat="45.7929303" lon="7.4673031"><ele>1629.8000000000002</ele><time>2026-04-19T09:05:04.948Z</time></trkpt><trkpt lat="45.7929821" lon="7.467406"><ele>1634.4</ele><time>2026-04-19T09:05:06.95Z</time></trkpt><trkpt lat="45.7929997" lon="7.4675467"><ele>1639.0</ele><time>2026-04-19T09:05:08.944Z</time></trkpt><trkpt lat="45.7930036" lon="7.4676803"><ele>1639.0000000000002</ele><time>2026-04-19T09:05:10.947Z</time></trkpt><trkpt lat="45.7930093" lon="7.4678015"><ele>1639.0</ele><time>2026-04-19T09:05:12.946Z</time></trkpt><trkpt lat="45.7930418" lon="7.4679209"><ele>1639.0</ele><time>2026-04-19T09:05:14.943Z</time></trkpt><trkpt lat="45.7930973" lon="7.4680247"><ele>1639.0</ele><time>2026-04-19T09:05:16.942Z</time></trkpt><trkpt lat="45.7931706" lon="7.4681191"><ele>1639.0000000000002</ele><time>2026-04-19T09:05:18.945Z</time></trkpt><trkpt lat="45.7932423" lon="7.4681613"><ele>1639.0</ele><time>2026-04-19T09:05:20.948Z</time></trkpt><trkpt lat="45.7933294" lon="7.4681797"><ele>1635.6666666666667</ele><time>2026-04-19T09:05:22.948Z</time></trkpt><trkpt lat="45.7934161" lon="7.4681958"><ele>1632.3333333333335</ele><time>2026-04-19T09:05:24.95Z</time></trkpt><trkpt lat="45.793498" lon="7.4682195"><ele>1629.0</ele><time>2026-04-19T09:05:26.944Z</time></trkpt><trkpt lat="45.7935883" lon="7.4682207"><ele>1625.6666666666665</ele><time>2026-04-19T09:05:28.946Z</time></trkpt><trkpt lat="45.7936775" lon="7.4682434"><ele>1622.3333333333333</ele><time>2026-04-19T09:05:30.951Z</time></trkpt><trkpt lat="45.7937678" lon="7.4682637"><ele>1619.0</ele><time>2026-04-19T09:05:32.945Z</time></trkpt><trkpt lat="45.7938568" lon="7.4682922"><ele>1619.0</ele><time>2026-04-19T09:05:34.946Z</time></trkpt><trkpt lat="45.7939465" lon="7.4683197"><ele>1619.0</ele><time>2026-04-19T09:05:36.944Z</time></trkpt><trkpt lat="45.7940391" lon="7.4683505"><ele>1619.0</ele><time>2026-04-19T09:05:38.944Z</time></trkpt><trkpt lat="45.7941285" lon="7.4683727"><ele>1619.0</ele><time>2026-04-19T09:05:40.948Z</time></trkpt><trkpt lat="45.7942138" lon="7.4684098"><ele>1619.0</ele><time>2026-04-19T09:05:42.943Z</time></trkpt><trkpt lat="45.7942983" lon="7.4684445"><ele>1621.4999999999998</ele><time>2026-04-19T09:05:44.944Z</time></trkpt><trkpt lat="45.7943845" lon="7.4684737"><ele>1624.0</ele><time>2026-04-19T09:05:46.944Z</time></trkpt><trkpt lat="45.7944649" lon="7.4684978"><ele>1626.5</ele><time>2026-04-19T09:05:48.946Z</time></trkpt><trkpt lat="45.7945464" lon="7.4685208"><ele>1629.0</ele><time>2026-04-19T09:05:50.946Z</time></trkpt><trkpt lat="45.7946223" lon="7.4685486"><ele>1631.4999999999998</ele><time>2026-04-19T09:05:52.949Z</time></trkpt><trkpt lat="45.7946953" lon="7.4685712"><ele>1634.0</ele><time>2026-04-19T09:05:54.946Z</time></trkpt><trkpt lat="45.7947722" lon="7.4685921"><ele>1633.9999999999998</ele><time>2026-04-19T09:05:56.948Z</time></trkpt><trkpt lat="45.7948428" lon="7.4686034"><ele>1634.0</ele><time>2026-04-19T09:05:58.948Z</time></trkpt><trkpt lat="45.7949258" lon="7.4686221"><ele>1634.0</ele><time>2026-04-19T09:06:00.947Z</time></trkpt><trkpt lat="45.795008" lon="7.468635"><ele>1634.0</ele><time>2026-04-19T09:06:02.949Z</time></trkpt><trkpt lat="45.79509" lon="7.4686569"><ele>1633.9999999999998</ele><time>2026-04-19T09:06:04.944Z</time></trkpt><trkpt lat="45.7951712" lon="7.4686706"><ele>1634.0</ele><time>2026-04-19T09:06:06.948Z</time></trkpt><trkpt lat="45.7952561" lon="7.4686818"><ele>1636.3333333333333</ele><time>2026-04-19T09:06:08.941Z</time></trkpt><trkpt lat="45.7953328" lon="7.4686996"><ele>1638.6666666666665</ele><time>2026-04-19T09:06:10.946Z</time></trkpt><trkpt lat="45.7954098" lon="7.4687366"><ele>1641.0</ele><time>2026-04-19T09:06:12.949Z</time></trkpt><trkpt lat="45.7954812" lon="7.4687923"><ele>1643.3333333333335</ele><time>2026-04-19T09:06:14.94Z</time></trkpt><trkpt lat="45.7955632" lon="7.4688344"><ele>1645.6666666666667</ele><time>2026-04-19T09:06:16.95Z</time></trkpt><trkpt lat="45.7956413" lon="7.4688843"><ele>1648.0</ele><time>2026-04-19T09:06:18.945Z</time></trkpt><trkpt lat="45.7957223" lon="7.4689304"><ele>1645.6666666666667</ele><time>2026-04-19T09:06:20.946Z</time></trkpt><trkpt lat="45.7958007" lon="7.4689493"><ele>1643.3333333333335</ele><time>2026-04-19T09:06:22.951Z</time></trkpt><trkpt lat="45.7958869" lon="7.4689583"><ele>1641.0</ele><time>2026-04-19T09:06:24.949Z</time></trkpt><trkpt lat="45.7959731" lon="7.4689595"><ele>1638.6666666666665</ele><time>2026-04-19T09:06:26.955Z</time></trkpt><trkpt lat="45.7960606" lon="7.4689459"><ele>1636.3333333333333</ele><time>2026-04-19T09:06:28.946Z</time></trkpt><trkpt lat="45.7961453" lon="7.4689516"><ele>1634.0</ele><time>2026-04-19T09:06:30.945Z</time></trkpt><trkpt lat="45.7962365" lon="7.4689548"><ele>1633.9999999999998</ele><time>2026-04-19T09:06:32.942Z</time></trkpt><trkpt lat="45.7963267" lon="7.4689733"><ele>1634.0</ele><time>2026-04-19T09:06:34.945Z</time></trkpt><trkpt lat="45.7964087" lon="7.4689891"><ele>1634.0</ele><time>2026-04-19T09:06:36.947Z</time></trkpt><trkpt lat="45.7964933" lon="7.469021"><ele>1634.0</ele><time>2026-04-19T09:06:38.948Z</time></trkpt><trkpt lat="45.7965577" lon="7.4690897"><ele>1633.9999999999998</ele><time>2026-04-19T09:06:40.943Z</time></trkpt><trkpt lat="45.7965712" lon="7.4692145"><ele>1634.0</ele><time>2026-04-19T09:06:42.947Z</time></trkpt><trkpt lat="45.7965341" lon="7.4693138"><ele>1633.9999999999998</ele><time>2026-04-19T09:06:44.943Z</time></trkpt><trkpt lat="45.796471" lon="7.4693716"><ele>1634.0</ele><time>2026-04-19T09:06:46.947Z</time></trkpt><trkpt lat="45.7963977" lon="7.4693889"><ele>1634.0</ele><time>2026-04-19T09:06:48.952Z</time></trkpt><trkpt lat="45.7963254" lon="7.4694193"><ele>1634.0</ele><time>2026-04-19T09:06:50.944Z</time></trkpt><trkpt lat="45.7962567" lon="7.4694546"><ele>1633.9999999999998</ele><time>2026-04-19T09:06:52.946Z</time></trkpt><trkpt lat="45.7961831" lon="7.4695052"><ele>1634.0</ele><time>2026-04-19T09:06:54.95Z</time></trkpt><trkpt lat="45.7961137" lon="7.4695692"><ele>1632.4999999999998</ele><time>2026-04-19T09:06:56.949Z</time></trkpt><trkpt lat="45.7960545" lon="7.4696316"><ele>1631.0</ele><time>2026-04-19T09:06:58.943Z</time></trkpt><trkpt lat="45.7959905" lon="7.4696981"><ele>1629.5</ele><time>2026-04-19T09:07:00.947Z</time></trkpt><trkpt lat="45.7959358" lon="7.4697635"><ele>1628.0</ele><time>2026-04-19T09:07:02.948Z</time></trkpt><trkpt lat="45.7958885" lon="7.4698629"><ele>1626.4999999999998</ele><time>2026-04-19T09:07:04.947Z</time></trkpt><trkpt lat="45.7958447" lon="7.4699613"><ele>1625.0</ele><time>2026-04-19T09:07:06.944Z</time></trkpt><trkpt lat="45.7958029" lon="7.4700465"><ele>1624.9999999999998</ele><time>2026-04-19T09:07:08.943Z</time></trkpt><trkpt lat="45.7957558" lon="7.4701187"><ele>1625.0</ele><time>2026-04-19T09:07:10.948Z</time></trkpt><trkpt lat="45.7957009" lon="7.470193"><ele>1625.0</ele><time>2026-04-19T09:07:12.952Z</time></trkpt><trkpt lat="45.79564" lon="7.4702648"><ele>1625.0</ele><time>2026-04-19T09:07:14.945Z</time></trkpt><trkpt lat="45.7955723" lon="7.470328"><ele>1624.9999999999998</ele><time>2026-04-19T09:07:16.946Z</time></trkpt><trkpt lat="45.7955006" lon="7.4703907"><ele>1625.0</ele><time>2026-04-19T09:07:18.949Z</time></trkpt><trkpt lat="45.7954342" lon="7.470445"><ele>1624.6666666666665</ele><time>2026-04-19T09:07:20.945Z</time></trkpt><trkpt lat="45.79537" lon="7.4705022"><ele>1624.3333333333333</ele><time>2026-04-19T09:07:22.945Z</time></trkpt><trkpt lat="45.7953043" lon="7.4705571"><ele>1624.0</ele><time>2026-04-19T09:07:24.944Z</time></trkpt><trkpt lat="45.7952368" lon="7.4706014"><ele>1623.6666666666665</ele><time>2026-04-19T09:07:26.945Z</time></trkpt><trkpt lat="45.7951746" lon="7.4706574"><ele>1623.3333333333333</ele><time>2026-04-19T09:07:28.944Z</time></trkpt><trkpt lat="45.7951098" lon="7.4707113"><ele>1623.0</ele><time>2026-04-19T09:07:30.95Z</time></trkpt><trkpt lat="45.7950671" lon="7.4708009"><ele>1623.0</ele><time>2026-04-19T09:07:32.949Z</time></trkpt><trkpt lat="45.7950081" lon="7.4709008"><ele>1623.0</ele><time>2026-04-19T09:07:34.94Z</time></trkpt><trkpt lat="45.7949256" lon="7.470981"><ele>1623.0</ele><time>2026-04-19T09:07:36.944Z</time></trkpt><trkpt lat="45.7948488" lon="7.4710534"><ele>1623.0</ele><time>2026-04-19T09:07:38.947Z</time></trkpt><trkpt lat="45.7947727" lon="7.4711173"><ele>1623.0</ele><time>2026-04-19T09:07:40.946Z</time></trkpt><trkpt lat="45.7947062" lon="7.4712138"><ele>1627.8000000000002</ele><time>2026-04-19T09:07:42.947Z</time></trkpt><trkpt lat="45.7946545" lon="7.4713309"><ele>1632.6</ele><time>2026-04-19T09:07:44.942Z</time></trkpt><trkpt lat="45.7946151" lon="7.4714473"><ele>1637.4</ele><time>2026-04-19T09:07:46.944Z</time></trkpt><trkpt lat="45.7945892" lon="7.4715679"><ele>1642.1999999999998</ele><time>2026-04-19T09:07:48.944Z</time></trkpt><trkpt lat="45.794565" lon="7.471698"><ele>1647.0</ele><time>2026-04-19T09:07:50.946Z</time></trkpt><trkpt lat="45.7945113" lon="7.4718119"><ele>1647.0</ele><time>2026-04-19T09:07:52.942Z</time></trkpt><trkpt lat="45.7944206" lon="7.4718828"><ele>1647.0</ele><time>2026-04-19T09:07:54.938Z</time></trkpt><trkpt lat="45.7943195" lon="7.4718645"><ele>1647.0</ele><time>2026-04-19T09:07:56.936Z</time></trkpt><trkpt lat="45.7942236" lon="7.4718323"><ele>1647.0</ele><time>2026-04-19T09:07:58.947Z</time></trkpt><trkpt lat="45.794121" lon="7.471825"><ele>1647.0</ele><time>2026-04-19T09:08:00.954Z</time></trkpt><trkpt lat="45.7940251" lon="7.4718316"><ele>1649.1666666666667</ele><time>2026-04-19T09:08:03.05Z</time></trkpt><trkpt lat="45.7939294" lon="7.4718613"><ele>1651.3333333333335</ele><time>2026-04-19T09:08:05.025Z</time></trkpt><trkpt lat="45.7938495" lon="7.4718771"><ele>1653.5</ele><time>2026-04-19T09:08:06.946Z</time></trkpt><trkpt lat="45.7937806" lon="7.4718977"><ele>1655.6666666666667</ele><time>2026-04-19T09:08:09.029Z</time></trkpt><trkpt lat="45.7937133" lon="7.4719492"><ele>1657.8333333333335</ele><time>2026-04-19T09:08:10.945Z</time></trkpt><trkpt lat="45.7936459" lon="7.4720529"><ele>1660.0</ele><time>2026-04-19T09:08:12.973Z</time></trkpt><trkpt lat="45.793575" lon="7.4721398"><ele>1658.2</ele><time>2026-04-19T09:08:15.027Z</time></trkpt><trkpt lat="45.7934864" lon="7.4721918"><ele>1656.4</ele><time>2026-04-19T09:08:16.949Z</time></trkpt><trkpt lat="45.7933866" lon="7.4722042"><ele>1654.6</ele><time>2026-04-19T09:08:19.027Z</time></trkpt><trkpt lat="45.7932774" lon="7.4722221"><ele>1652.8</ele><time>2026-04-19T09:08:20.943Z</time></trkpt><trkpt lat="45.7931739" lon="7.4722518"><ele>1651.0</ele><time>2026-04-19T09:08:22.944Z</time></trkpt><trkpt lat="45.7930686" lon="7.4722971"><ele>1651.0</ele><time>2026-04-19T09:08:24.942Z</time></trkpt><trkpt lat="45.7929658" lon="7.4723411"><ele>1651.0</ele><time>2026-04-19T09:08:27.012Z</time></trkpt><trkpt lat="45.7928676" lon="7.4723683"><ele>1651.0</ele><time>2026-04-19T09:08:29.013Z</time></trkpt><trkpt lat="45.7927667" lon="7.4723977"><ele>1651.0</ele><time>2026-04-19T09:08:30.943Z</time></trkpt><trkpt lat="45.7926681" lon="7.4724251"><ele>1651.0</ele><time>2026-04-19T09:08:32.95Z</time></trkpt><trkpt lat="45.7925602" lon="7.4724491"><ele>1647.6</ele><time>2026-04-19T09:08:35.031Z</time></trkpt><trkpt lat="45.7924581" lon="7.4724831"><ele>1644.1999999999998</ele><time>2026-04-19T09:08:36.957Z</time></trkpt><trkpt lat="45.7923477" lon="7.4725102"><ele>1640.8000000000002</ele><time>2026-04-19T09:08:38.957Z</time></trkpt><trkpt lat="45.7922502" lon="7.4725413"><ele>1637.4</ele><time>2026-04-19T09:08:40.956Z</time></trkpt><trkpt lat="45.7921508" lon="7.4725612"><ele>1634.0</ele><time>2026-04-19T09:08:42.959Z</time></trkpt><trkpt lat="45.7920516" lon="7.4725883"><ele>1634.0</ele><time>2026-04-19T09:08:45.027Z</time></trkpt><trkpt lat="45.7919462" lon="7.4726081"><ele>1634.0</ele><time>2026-04-19T09:08:46.942Z</time></trkpt><trkpt lat="45.7918416" lon="7.4726098"><ele>1634.0</ele><time>2026-04-19T09:08:49.024Z</time></trkpt><trkpt lat="45.7917362" lon="7.4726025"><ele>1634.0</ele><time>2026-04-19T09:08:50.956Z</time></trkpt><trkpt lat="45.7916265" lon="7.4726105"><ele>1634.0</ele><time>2026-04-19T09:08:52.947Z</time></trkpt><trkpt lat="45.7915475" lon="7.4726913"><ele>1636.0</ele><time>2026-04-19T09:08:55.027Z</time></trkpt><trkpt lat="45.791458" lon="7.4727733"><ele>1638.0</ele><time>2026-04-19T09:08:56.941Z</time></trkpt><trkpt lat="45.7913765" lon="7.4728559"><ele>1640.0</ele><time>2026-04-19T09:08:58.965Z</time></trkpt><trkpt lat="45.7912895" lon="7.4729212"><ele>1642.0</ele><time>2026-04-19T09:09:00.956Z</time></trkpt><trkpt lat="45.7912063" lon="7.4729777"><ele>1644.0</ele><time>2026-04-19T09:09:02.951Z</time></trkpt><trkpt lat="45.7911249" lon="7.473026"><ele>1644.0</ele><time>2026-04-19T09:09:04.955Z</time></trkpt><trkpt lat="45.7910428" lon="7.4730589"><ele>1644.0</ele><time>2026-04-19T09:09:06.955Z</time></trkpt><trkpt lat="45.7909629" lon="7.4730891"><ele>1644.0</ele><time>2026-04-19T09:09:09.023Z</time></trkpt><trkpt lat="45.7908967" lon="7.4731331"><ele>1644.0</ele><time>2026-04-19T09:09:10.954Z</time></trkpt><trkpt lat="45.790851" lon="7.4732134"><ele>1644.0</ele><time>2026-04-19T09:09:12.954Z</time></trkpt><trkpt lat="45.7908245" lon="7.4733134"><ele>1644.0</ele><time>2026-04-19T09:09:14.947Z</time></trkpt><trkpt lat="45.7908098" lon="7.4734261"><ele>1643.6666666666667</ele><time>2026-04-19T09:09:16.95Z</time></trkpt><trkpt lat="45.7908027" lon="7.4735327"><ele>1643.3333333333335</ele><time>2026-04-19T09:09:18.951Z</time></trkpt><trkpt lat="45.7907946" lon="7.4736476"><ele>1643.0</ele><time>2026-04-19T09:09:20.952Z</time></trkpt><trkpt lat="45.7907785" lon="7.473767"><ele>1642.6666666666667</ele><time>2026-04-19T09:09:22.954Z</time></trkpt><trkpt lat="45.7907529" lon="7.4738761"><ele>1642.3333333333335</ele><time>2026-04-19T09:09:24.95Z</time></trkpt><trkpt lat="45.7907033" lon="7.4739628"><ele>1642.0</ele><time>2026-04-19T09:09:26.953Z</time></trkpt><trkpt lat="45.790652" lon="7.4740478"><ele>1642.0000000000002</ele><time>2026-04-19T09:09:28.953Z</time></trkpt><trkpt lat="45.7906005" lon="7.4741252"><ele>1642.0</ele><time>2026-04-19T09:09:30.959Z</time></trkpt><trkpt lat="45.7905466" lon="7.4741949"><ele>1642.0</ele><time>2026-04-19T09:09:32.947Z</time></trkpt><trkpt lat="45.790491" lon="7.4742582"><ele>1642.0</ele><time>2026-04-19T09:09:34.956Z</time></trkpt><trkpt lat="45.790424" lon="7.4743016"><ele>1642.0</ele><time>2026-04-19T09:09:36.952Z</time></trkpt><trkpt lat="45.7903391" lon="7.4743565"><ele>1642.0000000000002</ele><time>2026-04-19T09:09:39.947Z</time></trkpt><trkpt lat="45.7902795" lon="7.4743904"><ele>1642.0</ele><time>2026-04-19T09:09:41.957Z</time></trkpt><trkpt lat="45.7902231" lon="7.4744374"><ele>1641.0000000000002</ele><time>2026-04-19T09:09:43.954Z</time></trkpt><trkpt lat="45.7901684" lon="7.4744883"><ele>1640.0</ele><time>2026-04-19T09:09:45.953Z</time></trkpt><trkpt lat="45.7901237" lon="7.4745665"><ele>1639.0</ele><time>2026-04-19T09:09:47.952Z</time></trkpt><trkpt lat="45.7900961" lon="7.4746554"><ele>1638.0</ele><time>2026-04-19T09:09:49.951Z</time></trkpt><trkpt lat="45.7900694" lon="7.4747449"><ele>1637.0</ele><time>2026-04-19T09:09:51.955Z</time></trkpt><trkpt lat="45.7900352" lon="7.4748348"><ele>1636.0000000000002</ele><time>2026-04-19T09:09:53.957Z</time></trkpt><trkpt lat="45.7900025" lon="7.4749647"><ele>1635.0</ele><time>2026-04-19T09:09:57.024Z</time></trkpt><trkpt lat="45.7899613" lon="7.4750905"><ele>1635.0000000000002</ele><time>2026-04-19T09:09:59.956Z</time></trkpt><trkpt lat="45.7899356" lon="7.4751781"><ele>1635.0</ele><time>2026-04-19T09:10:01.954Z</time></trkpt><trkpt lat="45.7899103" lon="7.4752661"><ele>1635.0</ele><time>2026-04-19T09:10:03.955Z</time></trkpt><trkpt lat="45.7898805" lon="7.4753527"><ele>1635.0</ele><time>2026-04-19T09:10:05.952Z</time></trkpt><trkpt lat="45.7898507" lon="7.4754415"><ele>1635.0</ele><time>2026-04-19T09:10:08.033Z</time></trkpt><trkpt lat="45.7898181" lon="7.4755291"><ele>1635.0000000000002</ele><time>2026-04-19T09:10:10.03Z</time></trkpt><trkpt lat="45.7897675" lon="7.4756064"><ele>1635.0</ele><time>2026-04-19T09:10:11.947Z</time></trkpt><trkpt lat="45.7896963" lon="7.4756863"><ele>1634.7142857142858</ele><time>2026-04-19T09:10:14.953Z</time></trkpt><trkpt lat="45.7896316" lon="7.4757447"><ele>1634.4285714285716</ele><time>2026-04-19T09:10:17.952Z</time></trkpt><trkpt lat="45.7895575" lon="7.4758081"><ele>1634.1428571428573</ele><time>2026-04-19T09:10:20.955Z</time></trkpt><trkpt lat="45.7895034" lon="7.4758645"><ele>1633.857142857143</ele><time>2026-04-19T09:10:22.953Z</time></trkpt><trkpt lat="45.7894444" lon="7.4758994"><ele>1633.5714285714284</ele><time>2026-04-19T09:10:24.95Z</time></trkpt><trkpt lat="45.7893672" lon="7.4759594"><ele>1633.2857142857144</ele><time>2026-04-19T09:10:28.028Z</time></trkpt><trkpt lat="45.7893073" lon="7.4760023"><ele>1633.0</ele><time>2026-04-19T09:13:48.958Z</time></trkpt><trkpt lat="45.7892448" lon="7.4760664"><ele>1633.0</ele><time>2026-04-19T09:13:52.953Z</time></trkpt><trkpt lat="45.7891754" lon="7.4761134"><ele>1633.0</ele><time>2026-04-19T09:13:56.955Z</time></trkpt><trkpt lat="45.7891198" lon="7.4761568"><ele>1633.0</ele><time>2026-04-19T09:13:59.942Z</time></trkpt><trkpt lat="45.7890659" lon="7.4762045"><ele>1633.0</ele><time>2026-04-19T09:14:19.954Z</time></trkpt><trkpt lat="45.7890181" lon="7.4762895"><ele>1633.0</ele><time>2026-04-19T09:14:24.956Z</time></trkpt><trkpt lat="45.788944" lon="7.4763506"><ele>1633.0</ele><time>2026-04-19T09:14:27.948Z</time></trkpt><trkpt lat="45.788886" lon="7.4764152"><ele>1633.0</ele><time>2026-04-19T09:14:30.952Z</time></trkpt><trkpt lat="45.7888409" lon="7.4764976"><ele>1633.0</ele><time>2026-04-19T09:14:34.011Z</time></trkpt><trkpt lat="45.7887735" lon="7.4765785"><ele>1633.0</ele><time>2026-04-19T09:14:36.955Z</time></trkpt><trkpt lat="45.788722" lon="7.4766306"><ele>1633.0</ele><time>2026-04-19T09:14:38.953Z</time></trkpt><trkpt lat="45.7886619" lon="7.4766845"><ele>1633.0</ele><time>2026-04-19T09:14:40.954Z</time></trkpt><trkpt lat="45.7885982" lon="7.4767166"><ele>1633.0</ele><time>2026-04-19T09:14:42.954Z</time></trkpt><trkpt lat="45.788538" lon="7.4767554"><ele>1633.0</ele><time>2026-04-19T09:14:44.952Z</time></trkpt><trkpt lat="45.7884651" lon="7.4767984"><ele>1633.0</ele><time>2026-04-19T09:14:46.953Z</time></trkpt><trkpt lat="45.7883731" lon="7.4768716"><ele>1633.0</ele><time>2026-04-19T09:14:48.956Z</time></trkpt><trkpt lat="45.7882848" lon="7.4769293"><ele>1633.0</ele><time>2026-04-19T09:14:50.952Z</time></trkpt><trkpt lat="45.7881917" lon="7.4769765"><ele>1633.0</ele><time>2026-04-19T09:14:52.953Z</time></trkpt><trkpt lat="45.7880991" lon="7.4770143"><ele>1633.0</ele><time>2026-04-19T09:14:54.953Z</time></trkpt><trkpt lat="45.787998" lon="7.4770504"><ele>1633.0</ele><time>2026-04-19T09:14:56.954Z</time></trkpt><trkpt lat="45.7879004" lon="7.4771056"><ele>1632.0</ele><time>2026-04-19T09:14:58.953Z</time></trkpt><trkpt lat="45.7877954" lon="7.4771666"><ele>1631.0</ele><time>2026-04-19T09:15:00.95Z</time></trkpt><trkpt lat="45.787689" lon="7.4772202"><ele>1630.0</ele><time>2026-04-19T09:15:02.957Z</time></trkpt><trkpt lat="45.7875825" lon="7.477273"><ele>1629.0</ele><time>2026-04-19T09:15:04.954Z</time></trkpt><trkpt lat="45.787468" lon="7.4773381"><ele>1629.0</ele><time>2026-04-19T09:15:06.952Z</time></trkpt><trkpt lat="45.7874049" lon="7.4773765"><ele>1629.0</ele><time>2026-04-19T09:15:07.951Z</time></trkpt><trkpt lat="45.7873429" lon="7.4774119"><ele>1629.0</ele><time>2026-04-19T09:15:08.949Z</time></trkpt><trkpt lat="45.7872718" lon="7.4774444"><ele>1629.0</ele><time>2026-04-19T09:15:09.95Z</time></trkpt><trkpt lat="45.7872012" lon="7.4774897"><ele>1629.0</ele><time>2026-04-19T09:15:10.95Z</time></trkpt><trkpt lat="45.7871334" lon="7.4775348"><ele>1629.0</ele><time>2026-04-19T09:15:11.951Z</time></trkpt><trkpt lat="45.7870657" lon="7.477583"><ele>1629.0</ele><time>2026-04-19T09:15:12.95Z</time></trkpt><trkpt lat="45.7870015" lon="7.4776373"><ele>1629.0</ele><time>2026-04-19T09:15:13.957Z</time></trkpt><trkpt lat="45.786943" lon="7.4776911"><ele>1629.0</ele><time>2026-04-19T09:15:14.954Z</time></trkpt><trkpt lat="45.7868815" lon="7.4777404"><ele>1629.0</ele><time>2026-04-19T09:15:15.949Z</time></trkpt><trkpt lat="45.7868259" lon="7.4777904"><ele>1629.0</ele><time>2026-04-19T09:15:16.954Z</time></trkpt><trkpt lat="45.7867727" lon="7.4778419"><ele>1629.0</ele><time>2026-04-19T09:15:17.947Z</time></trkpt><trkpt lat="45.7867186" lon="7.4778893"><ele>1629.0</ele><time>2026-04-19T09:15:18.952Z</time></trkpt><trkpt lat="45.7866644" lon="7.4779372"><ele>1629.0</ele><time>2026-04-19T09:15:19.949Z</time></trkpt><trkpt lat="45.7866035" lon="7.4779839"><ele>1628.5714285714284</ele><time>2026-04-19T09:15:20.951Z</time></trkpt><trkpt lat="45.7865371" lon="7.4780403"><ele>1628.1428571428573</ele><time>2026-04-19T09:15:21.951Z</time></trkpt><trkpt lat="45.7864728" lon="7.478091"><ele>1627.7142857142858</ele><time>2026-04-19T09:15:22.951Z</time></trkpt><trkpt lat="45.7864077" lon="7.4781487"><ele>1627.2857142857142</ele><time>2026-04-19T09:15:23.952Z</time></trkpt><trkpt lat="45.7863529" lon="7.4782033"><ele>1626.8571428571427</ele><time>2026-04-19T09:15:24.952Z</time></trkpt><trkpt lat="45.7863047" lon="7.4782618"><ele>1626.4285714285716</ele><time>2026-04-19T09:15:25.95Z</time></trkpt><trkpt lat="45.7862571" lon="7.4783234"><ele>1626.0</ele><time>2026-04-19T09:15:26.946Z</time></trkpt><trkpt lat="45.7862243" lon="7.478406"><ele>1626.0</ele><time>2026-04-19T09:15:27.943Z</time></trkpt><trkpt lat="45.7862074" lon="7.4785167"><ele>1626.0</ele><time>2026-04-19T09:15:28.959Z</time></trkpt><trkpt lat="45.7861941" lon="7.4786322"><ele>1626.0</ele><time>2026-04-19T09:15:29.951Z</time></trkpt><trkpt lat="45.7861897" lon="7.4787513"><ele>1626.0</ele><time>2026-04-19T09:15:30.95Z</time></trkpt><trkpt lat="45.7861889" lon="7.4788751"><ele>1626.0</ele><time>2026-04-19T09:15:31.957Z</time></trkpt><trkpt lat="45.786189" lon="7.4789957"><ele>1626.0</ele><time>2026-04-19T09:15:32.951Z</time></trkpt><trkpt lat="45.7861917" lon="7.4791038"><ele>1625.5</ele><time>2026-04-19T09:15:33.952Z</time></trkpt><trkpt lat="45.7861923" lon="7.4792066"><ele>1625.0</ele><time>2026-04-19T09:15:34.953Z</time></trkpt><trkpt lat="45.7861882" lon="7.4793083"><ele>1624.5</ele><time>2026-04-19T09:15:35.95Z</time></trkpt><trkpt lat="45.7861848" lon="7.4794174"><ele>1624.0</ele><time>2026-04-19T09:15:36.952Z</time></trkpt><trkpt lat="45.7861832" lon="7.4795283"><ele>1623.5</ele><time>2026-04-19T09:15:38.021Z</time></trkpt><trkpt lat="45.7861823" lon="7.479647"><ele>1623.0</ele><time>2026-04-19T09:15:38.946Z</time></trkpt><trkpt lat="45.7861815" lon="7.4797596"><ele>1623.0</ele><time>2026-04-19T09:15:39.951Z</time></trkpt><trkpt lat="45.7861845" lon="7.479871"><ele>1623.0</ele><time>2026-04-19T09:15:40.949Z</time></trkpt><trkpt lat="45.7861911" lon="7.4799863"><ele>1623.0</ele><time>2026-04-19T09:15:41.957Z</time></trkpt><trkpt lat="45.7861988" lon="7.4801105"><ele>1623.0</ele><time>2026-04-19T09:15:42.958Z</time></trkpt><trkpt lat="45.7862095" lon="7.4802329"><ele>1623.0</ele><time>2026-04-19T09:15:44.017Z</time></trkpt><trkpt lat="45.786234" lon="7.4803407"><ele>1623.0</ele><time>2026-04-19T09:15:44.949Z</time></trkpt><trkpt lat="45.7862619" lon="7.4804493"><ele>1622.5</ele><time>2026-04-19T09:15:45.953Z</time></trkpt><trkpt lat="45.7862844" lon="7.4805626"><ele>1622.0</ele><time>2026-04-19T09:15:46.952Z</time></trkpt><trkpt lat="45.7863063" lon="7.4806676"><ele>1621.5</ele><time>2026-04-19T09:15:47.957Z</time></trkpt><trkpt lat="45.7863279" lon="7.4807798"><ele>1621.0</ele><time>2026-04-19T09:15:48.951Z</time></trkpt><trkpt lat="45.7863553" lon="7.480891"><ele>1620.5</ele><time>2026-04-19T09:15:49.95Z</time></trkpt><trkpt lat="45.7863804" lon="7.4810052"><ele>1620.0</ele><time>2026-04-19T09:15:50.955Z</time></trkpt><trkpt lat="45.7864204" lon="7.4811186"><ele>1620.0</ele><time>2026-04-19T09:15:51.953Z</time></trkpt><trkpt lat="45.7864674" lon="7.4812217"><ele>1620.0</ele><time>2026-04-19T09:15:52.954Z</time></trkpt><trkpt lat="45.7865158" lon="7.4813205"><ele>1620.0</ele><time>2026-04-19T09:15:53.948Z</time></trkpt><trkpt lat="45.7865647" lon="7.4814224"><ele>1620.0</ele><time>2026-04-19T09:15:54.952Z</time></trkpt><trkpt lat="45.7866163" lon="7.4815193"><ele>1620.0</ele><time>2026-04-19T09:15:55.951Z</time></trkpt><trkpt lat="45.7866705" lon="7.4816082"><ele>1620.0</ele><time>2026-04-19T09:15:56.956Z</time></trkpt><trkpt lat="45.7867292" lon="7.4816952"><ele>1619.6666666666667</ele><time>2026-04-19T09:15:57.973Z</time></trkpt><trkpt lat="45.7867795" lon="7.4817782"><ele>1619.3333333333335</ele><time>2026-04-19T09:15:58.953Z</time></trkpt><trkpt lat="45.7868304" lon="7.4818585"><ele>1619.0</ele><time>2026-04-19T09:15:59.948Z</time></trkpt><trkpt lat="45.7868858" lon="7.4819344"><ele>1618.6666666666667</ele><time>2026-04-19T09:16:00.951Z</time></trkpt><trkpt lat="45.7869354" lon="7.4820109"><ele>1618.3333333333335</ele><time>2026-04-19T09:16:01.958Z</time></trkpt><trkpt lat="45.7869802" lon="7.4820793"><ele>1618.0</ele><time>2026-04-19T09:16:02.953Z</time></trkpt><trkpt lat="45.7870682" lon="7.4822031"><ele>1614.75</ele><time>2026-04-19T09:16:04.96Z</time></trkpt><trkpt lat="45.7871452" lon="7.4823297"><ele>1611.5</ele><time>2026-04-19T09:16:06.95Z</time></trkpt><trkpt lat="45.7872245" lon="7.4824452"><ele>1608.25</ele><time>2026-04-19T09:16:08.959Z</time></trkpt><trkpt lat="45.7873081" lon="7.4825778"><ele>1605.0</ele><time>2026-04-19T09:16:10.956Z</time></trkpt><trkpt lat="45.7873861" lon="7.4826979"><ele>1605.0</ele><time>2026-04-19T09:16:12.953Z</time></trkpt><trkpt lat="45.7874644" lon="7.482828"><ele>1605.0</ele><time>2026-04-19T09:16:14.957Z</time></trkpt><trkpt lat="45.7875402" lon="7.4829516"><ele>1605.0</ele><time>2026-04-19T09:16:16.955Z</time></trkpt><trkpt lat="45.7876189" lon="7.483071"><ele>1605.0</ele><time>2026-04-19T09:16:19.02Z</time></trkpt><trkpt lat="45.7876994" lon="7.4831934"><ele>1604.8</ele><time>2026-04-19T09:16:20.953Z</time></trkpt><trkpt lat="45.7877759" lon="7.4833227"><ele>1604.6</ele><time>2026-04-19T09:16:22.956Z</time></trkpt><trkpt lat="45.7878546" lon="7.4834523"><ele>1604.4</ele><time>2026-04-19T09:16:24.954Z</time></trkpt><trkpt lat="45.7879287" lon="7.4835704"><ele>1604.2</ele><time>2026-04-19T09:16:26.957Z</time></trkpt><trkpt lat="45.7879856" lon="7.4836539"><ele>1604.0</ele><time>2026-04-19T09:16:28.954Z</time></trkpt><trkpt lat="45.7880266" lon="7.4837566"><ele>1600.9999999999998</ele><time>2026-04-19T09:16:31.952Z</time></trkpt><trkpt lat="45.7880878" lon="7.4838351"><ele>1598.0</ele><time>2026-04-19T09:16:39.01Z</time></trkpt><trkpt lat="45.78816" lon="7.483856"><ele>1595.0</ele><time>2026-04-19T09:16:40.946Z</time></trkpt><trkpt lat="45.7882566" lon="7.4838618"><ele>1592.0</ele><time>2026-04-19T09:16:42.949Z</time></trkpt><trkpt lat="45.788372" lon="7.4838744"><ele>1588.9999999999998</ele><time>2026-04-19T09:16:44.955Z</time></trkpt><trkpt lat="45.7884455" lon="7.4838985"><ele>1586.0</ele><time>2026-04-19T09:16:46.952Z</time></trkpt><trkpt lat="45.7885226" lon="7.4839043"><ele>1584.4285714285716</ele><time>2026-04-19T09:16:54.951Z</time></trkpt><trkpt lat="45.7886005" lon="7.4839178"><ele>1582.857142857143</ele><time>2026-04-19T09:16:56.948Z</time></trkpt><trkpt lat="45.7886795" lon="7.4839276"><ele>1581.2857142857142</ele><time>2026-04-19T09:16:59.019Z</time></trkpt><trkpt lat="45.7887416" lon="7.4839438"><ele>1579.7142857142858</ele><time>2026-04-19T09:17:00.95Z</time></trkpt><trkpt lat="45.7888232" lon="7.4839712"><ele>1578.142857142857</ele><time>2026-04-19T09:17:02.95Z</time></trkpt><trkpt lat="45.7888883" lon="7.4839915"><ele>1576.5714285714287</ele><time>2026-04-19T09:17:04.026Z</time></trkpt><trkpt lat="45.7889497" lon="7.4840152"><ele>1575.0</ele><time>2026-04-19T09:17:04.944Z</time></trkpt><trkpt lat="45.7890362" lon="7.4840661"><ele>1575.0</ele><time>2026-04-19T09:17:06.948Z</time></trkpt><trkpt lat="45.7891071" lon="7.4841304"><ele>1575.0</ele><time>2026-04-19T09:17:08.952Z</time></trkpt><trkpt lat="45.7892011" lon="7.484103"><ele>1575.0</ele><time>2026-04-19T09:17:10.946Z</time></trkpt><trkpt lat="45.7892993" lon="7.4841144"><ele>1575.0</ele><time>2026-04-19T09:17:13.036Z</time></trkpt><trkpt lat="45.7893731" lon="7.4841843"><ele>1575.0</ele><time>2026-04-19T09:17:14.947Z</time></trkpt><trkpt lat="45.7894367" lon="7.4842991"><ele>1574.8333333333333</ele><time>2026-04-19T09:17:17.037Z</time></trkpt><trkpt lat="45.7894855" lon="7.4844098"><ele>1574.6666666666665</ele><time>2026-04-19T09:17:19.027Z</time></trkpt><trkpt lat="45.7895357" lon="7.4844876"><ele>1574.5</ele><time>2026-04-19T09:17:20.955Z</time></trkpt><trkpt lat="45.7895885" lon="7.4845462"><ele>1574.3333333333333</ele><time>2026-04-19T09:17:22.952Z</time></trkpt><trkpt lat="45.7896635" lon="7.4845561"><ele>1574.1666666666665</ele><time>2026-04-19T09:17:24.954Z</time></trkpt><trkpt lat="45.7897452" lon="7.4845646"><ele>1574.0</ele><time>2026-04-19T09:17:26.971Z</time></trkpt><trkpt lat="45.7898311" lon="7.48456"><ele>1573.9999999999998</ele><time>2026-04-19T09:17:28.955Z</time></trkpt><trkpt lat="45.7899112" lon="7.4845513"><ele>1574.0</ele><time>2026-04-19T09:17:30.953Z</time></trkpt><trkpt lat="45.7899879" lon="7.4845321"><ele>1574.0</ele><time>2026-04-19T09:17:33.029Z</time></trkpt><trkpt lat="45.7900658" lon="7.4845246"><ele>1574.0</ele><time>2026-04-19T09:17:35.953Z</time></trkpt><trkpt lat="45.7901524" lon="7.4845567"><ele>1573.9999999999998</ele><time>2026-04-19T09:17:38.957Z</time></trkpt><trkpt lat="45.7902324" lon="7.4845976"><ele>1574.0</ele><time>2026-04-19T09:17:41.958Z</time></trkpt><trkpt lat="45.7902979" lon="7.4846059"><ele>1568.9999999999998</ele><time>2026-04-19T09:17:44.025Z</time></trkpt><trkpt lat="45.7903656" lon="7.4846411"><ele>1564.0</ele><time>2026-04-19T09:17:45.96Z</time></trkpt><trkpt lat="45.7904445" lon="7.4846603"><ele>1559.0</ele><time>2026-04-19T09:17:48.962Z</time></trkpt><trkpt lat="45.7905361" lon="7.4847075"><ele>1554.0</ele><time>2026-04-19T09:17:52.024Z</time></trkpt><trkpt lat="45.7905896" lon="7.4847664"><ele>1548.9999999999998</ele><time>2026-04-19T09:17:54.03Z</time></trkpt><trkpt lat="45.7906591" lon="7.4848378"><ele>1544.0</ele><time>2026-04-19T09:17:56.959Z</time></trkpt><trkpt lat="45.7907355" lon="7.4848665"><ele>1543.9999999999998</ele><time>2026-04-19T09:17:59.961Z</time></trkpt><trkpt lat="45.7908027" lon="7.4849008"><ele>1544.0</ele><time>2026-04-19T09:18:01.959Z</time></trkpt><trkpt lat="45.7908803" lon="7.4849535"><ele>1544.0</ele><time>2026-04-19T09:18:04.943Z</time></trkpt><trkpt lat="45.7909382" lon="7.4849933"><ele>1544.0</ele><time>2026-04-19T09:18:06.939Z</time></trkpt><trkpt lat="45.7909994" lon="7.4850379"><ele>1543.9999999999998</ele><time>2026-04-19T09:18:08.946Z</time></trkpt><trkpt lat="45.791052" lon="7.4851362"><ele>1544.0</ele><time>2026-04-19T09:18:12.945Z</time></trkpt><trkpt lat="45.7910628" lon="7.4852484"><ele>1545.0000000000002</ele><time>2026-04-19T09:18:15.945Z</time></trkpt><trkpt lat="45.7910662" lon="7.4853475"><ele>1546.0</ele><time>2026-04-19T09:18:18.025Z</time></trkpt><trkpt lat="45.7910572" lon="7.4854419"><ele>1547.0</ele><time>2026-04-19T09:18:19.956Z</time></trkpt><trkpt lat="45.7910959" lon="7.4855175"><ele>1548.0</ele><time>2026-04-19T09:18:21.952Z</time></trkpt><trkpt lat="45.7911672" lon="7.4855826"><ele>1549.0</ele><time>2026-04-19T09:18:23.98Z</time></trkpt><trkpt lat="45.7912105" lon="7.4856916"><ele>1550.0000000000002</ele><time>2026-04-19T09:18:26.952Z</time></trkpt><trkpt lat="45.7911963" lon="7.4857994"><ele>1551.0</ele><time>2026-04-19T09:18:30.949Z</time></trkpt><trkpt lat="45.7911649" lon="7.4858996"><ele>1551.0</ele><time>2026-04-19T09:18:34.951Z</time></trkpt><trkpt lat="45.7911366" lon="7.4860117"><ele>1551.0</ele><time>2026-04-19T09:18:39.029Z</time></trkpt><trkpt lat="45.7911489" lon="7.4861005"><ele>1551.0</ele><time>2026-04-19T09:18:41.952Z</time></trkpt><trkpt lat="45.7912067" lon="7.4861382"><ele>1551.0</ele><time>2026-04-19T09:18:46.954Z</time></trkpt><trkpt lat="45.7912326" lon="7.4862443"><ele>1551.0</ele><time>2026-04-19T09:18:56.946Z</time></trkpt><trkpt lat="45.7912555" lon="7.4863573"><ele>1551.0</ele><time>2026-04-19T09:18:59.937Z</time></trkpt><trkpt lat="45.7912696" lon="7.4864815"><ele>1552.1666666666667</ele><time>2026-04-19T09:19:02.948Z</time></trkpt><trkpt lat="45.7912857" lon="7.486603"><ele>1553.3333333333335</ele><time>2026-04-19T09:19:05.943Z</time></trkpt><trkpt lat="45.7912798" lon="7.4866987"><ele>1554.5</ele><time>2026-04-19T09:19:10.98Z</time></trkpt><trkpt lat="45.7912367" lon="7.4867821"><ele>1555.6666666666667</ele><time>2026-04-19T09:19:13.945Z</time></trkpt><trkpt lat="45.7912014" lon="7.4868626"><ele>1556.8333333333335</ele><time>2026-04-19T09:19:15.947Z</time></trkpt><trkpt lat="45.7911644" lon="7.4869588"><ele>1558.0</ele><time>2026-04-19T09:19:17.951Z</time></trkpt><trkpt lat="45.7911225" lon="7.4870695"><ele>1558.5714285714287</ele><time>2026-04-19T09:19:19.944Z</time></trkpt><trkpt lat="45.7910833" lon="7.4871575"><ele>1559.142857142857</ele><time>2026-04-19T09:19:21.951Z</time></trkpt><trkpt lat="45.7910386" lon="7.4872398"><ele>1559.7142857142858</ele><time>2026-04-19T09:19:24.945Z</time></trkpt><trkpt lat="45.7909743" lon="7.4873129"><ele>1560.2857142857142</ele><time>2026-04-19T09:19:28.014Z</time></trkpt><trkpt lat="45.790931" lon="7.4873792"><ele>1560.857142857143</ele><time>2026-04-19T09:19:29.948Z</time></trkpt><trkpt lat="45.7908925" lon="7.4874711"><ele>1561.4285714285716</ele><time>2026-04-19T09:19:32.947Z</time></trkpt><trkpt lat="45.7908598" lon="7.4875585"><ele>1562.0</ele><time>2026-04-19T09:19:35.944Z</time></trkpt><trkpt lat="45.7908264" lon="7.4876613"><ele>1553.8333333333333</ele><time>2026-04-19T09:19:39.944Z</time></trkpt><trkpt lat="45.7907944" lon="7.4877412"><ele>1545.6666666666665</ele><time>2026-04-19T09:19:42.942Z</time></trkpt><trkpt lat="45.7907771" lon="7.4878364"><ele>1537.5</ele><time>2026-04-19T09:19:47.011Z</time></trkpt><trkpt lat="45.7907562" lon="7.4879538"><ele>1529.3333333333333</ele><time>2026-04-19T09:19:49.947Z</time></trkpt><trkpt lat="45.790735" lon="7.4880475"><ele>1521.1666666666665</ele><time>2026-04-19T09:19:51.945Z</time></trkpt><trkpt lat="45.7907466" lon="7.4881617"><ele>1513.0</ele><time>2026-04-19T09:19:54.947Z</time></trkpt><trkpt lat="45.7907801" lon="7.488272"><ele>1511.0</ele><time>2026-04-19T09:19:57.947Z</time></trkpt><trkpt lat="45.7908142" lon="7.4883802"><ele>1509.0</ele><time>2026-04-19T09:20:00.946Z</time></trkpt><trkpt lat="45.7908203" lon="7.4884956"><ele>1507.0</ele><time>2026-04-19T09:20:04.952Z</time></trkpt><trkpt lat="45.7908738" lon="7.4886067"><ele>1505.0</ele><time>2026-04-19T09:20:09.016Z</time></trkpt><trkpt lat="45.7908961" lon="7.4887215"><ele>1503.0</ele><time>2026-04-19T09:20:11.953Z</time></trkpt><trkpt lat="45.7909324" lon="7.4888191"><ele>1501.0</ele><time>2026-04-19T09:20:14.947Z</time></trkpt><trkpt lat="45.7908692" lon="7.4888181"><ele>1505.1666666666665</ele><time>2026-04-19T09:20:23.947Z</time></trkpt><trkpt lat="45.7908298" lon="7.4888971"><ele>1509.3333333333333</ele><time>2026-04-19T09:20:29.942Z</time></trkpt><trkpt lat="45.7908567" lon="7.4889862"><ele>1513.5</ele><time>2026-04-19T09:20:31.946Z</time></trkpt><trkpt lat="45.7909137" lon="7.4890594"><ele>1517.6666666666667</ele><time>2026-04-19T09:20:32.947Z</time></trkpt><trkpt lat="45.7909838" lon="7.4891585"><ele>1521.8333333333335</ele><time>2026-04-19T09:20:34.944Z</time></trkpt><trkpt lat="45.7910766" lon="7.4892428"><ele>1526.0</ele><time>2026-04-19T09:20:37.028Z</time></trkpt><trkpt lat="45.7911696" lon="7.489311"><ele>1526.0</ele><time>2026-04-19T09:20:38.944Z</time></trkpt><trkpt lat="45.7912243" lon="7.4894202"><ele>1526.0</ele><time>2026-04-19T09:20:40.946Z</time></trkpt><trkpt lat="45.7912463" lon="7.4895456"><ele>1526.0</ele><time>2026-04-19T09:20:42.941Z</time></trkpt><trkpt lat="45.7912978" lon="7.4896611"><ele>1526.0</ele><time>2026-04-19T09:20:45.95Z</time></trkpt><trkpt lat="45.7913269" lon="7.4897421"><ele>1526.0</ele><time>2026-04-19T09:20:47.948Z</time></trkpt><trkpt lat="45.7913874" lon="7.4898392"><ele>1526.0</ele><time>2026-04-19T09:20:49.953Z</time></trkpt><trkpt lat="45.7914494" lon="7.4898965"><ele>1515.5</ele><time>2026-04-19T09:20:52.028Z</time></trkpt><trkpt lat="45.7915073" lon="7.489942"><ele>1505.0</ele><time>2026-04-19T09:20:53.942Z</time></trkpt><trkpt lat="45.7915748" lon="7.4899976"><ele>1494.5</ele><time>2026-04-19T09:20:55.939Z</time></trkpt><trkpt lat="45.7916336" lon="7.4901084"><ele>1484.0</ele><time>2026-04-19T09:20:58.026Z</time></trkpt><trkpt lat="45.7916768" lon="7.4901982"><ele>1473.5</ele><time>2026-04-19T09:20:59.95Z</time></trkpt><trkpt lat="45.7917128" lon="7.4902823"><ele>1463.0</ele><time>2026-04-19T09:21:02.947Z</time></trkpt><trkpt lat="45.7917408" lon="7.4903919"><ele>1464.3333333333335</ele><time>2026-04-19T09:21:32.943Z</time></trkpt><trkpt lat="45.7917713" lon="7.4905116"><ele>1465.6666666666667</ele><time>2026-04-19T09:21:34.948Z</time></trkpt><trkpt lat="45.7917993" lon="7.4906338"><ele>1467.0</ele><time>2026-04-19T09:21:36.945Z</time></trkpt><trkpt lat="45.7918362" lon="7.4907365"><ele>1468.3333333333333</ele><time>2026-04-19T09:21:38.943Z</time></trkpt><trkpt lat="45.7918596" lon="7.4908385"><ele>1469.6666666666665</ele><time>2026-04-19T09:21:40.947Z</time></trkpt><trkpt lat="45.7919103" lon="7.4909489"><ele>1471.0</ele><time>2026-04-19T09:21:43.947Z</time></trkpt><trkpt lat="45.7919533" lon="7.4910595"><ele>1471.0</ele><time>2026-04-19T09:21:46.94Z</time></trkpt><trkpt lat="45.7919921" lon="7.4911712"><ele>1471.0</ele><time>2026-04-19T09:21:49.942Z</time></trkpt><trkpt lat="45.7920308" lon="7.4912887"><ele>1471.0</ele><time>2026-04-19T09:21:52.981Z</time></trkpt><trkpt lat="45.7920561" lon="7.4914016"><ele>1471.0</ele><time>2026-04-19T09:21:55.95Z</time></trkpt><trkpt lat="45.7920905" lon="7.4915328"><ele>1471.0</ele><time>2026-04-19T09:21:58.949Z</time></trkpt><trkpt lat="45.7921225" lon="7.4916243"><ele>1471.0</ele><time>2026-04-19T09:22:00.938Z</time></trkpt><trkpt lat="45.7921534" lon="7.4917283"><ele>1466.3333333333333</ele><time>2026-04-19T09:22:02.944Z</time></trkpt><trkpt lat="45.792199" lon="7.4918021"><ele>1461.6666666666665</ele><time>2026-04-19T09:22:05.943Z</time></trkpt><trkpt lat="45.7921244" lon="7.4917565"><ele>1457.0</ele><time>2026-04-19T09:22:20.944Z</time></trkpt><trkpt lat="45.7920551" lon="7.4916685"><ele>1452.3333333333333</ele><time>2026-04-19T09:22:22.944Z</time></trkpt><trkpt lat="45.7919781" lon="7.4915545"><ele>1447.6666666666667</ele><time>2026-04-19T09:22:24.951Z</time></trkpt><trkpt lat="45.7919267" lon="7.4914959"><ele>1443.0</ele><time>2026-04-19T09:22:25.945Z</time></trkpt><trkpt lat="45.7918696" lon="7.4914337"><ele>1440.8333333333333</ele><time>2026-04-19T09:22:26.95Z</time></trkpt><trkpt lat="45.7918045" lon="7.4913678"><ele>1438.6666666666667</ele><time>2026-04-19T09:22:27.945Z</time></trkpt><trkpt lat="45.7917353" lon="7.4913032"><ele>1436.5</ele><time>2026-04-19T09:22:28.946Z</time></trkpt><trkpt lat="45.7916655" lon="7.4912364"><ele>1434.3333333333335</ele><time>2026-04-19T09:22:29.948Z</time></trkpt><trkpt lat="45.7915874" lon="7.4911617"><ele>1432.1666666666667</ele><time>2026-04-19T09:22:30.943Z</time></trkpt><trkpt lat="45.7915074" lon="7.4910862"><ele>1430.0</ele><time>2026-04-19T09:22:31.946Z</time></trkpt><trkpt lat="45.791428" lon="7.4910119"><ele>1430.0</ele><time>2026-04-19T09:22:32.944Z</time></trkpt><trkpt lat="45.7913477" lon="7.4909456"><ele>1430.0</ele><time>2026-04-19T09:22:33.951Z</time></trkpt><trkpt lat="45.7912623" lon="7.4908878"><ele>1430.0</ele><time>2026-04-19T09:22:34.946Z</time></trkpt><trkpt lat="45.7911701" lon="7.4908451"><ele>1430.0</ele><time>2026-04-19T09:22:35.946Z</time></trkpt><trkpt lat="45.7910679" lon="7.4908179"><ele>1430.0</ele><time>2026-04-19T09:22:36.944Z</time></trkpt><trkpt lat="45.790977" lon="7.4907985"><ele>1426.8</ele><time>2026-04-19T09:22:37.942Z</time></trkpt><trkpt lat="45.7908884" lon="7.4907869"><ele>1423.6</ele><time>2026-04-19T09:22:38.968Z</time></trkpt><trkpt lat="45.790792" lon="7.4907743"><ele>1420.4</ele><time>2026-04-19T09:22:39.944Z</time></trkpt><trkpt lat="45.7906998" lon="7.4907676"><ele>1417.2</ele><time>2026-04-19T09:22:40.948Z</time></trkpt><trkpt lat="45.7906125" lon="7.490776"><ele>1414.0</ele><time>2026-04-19T09:22:41.945Z</time></trkpt><trkpt lat="45.7905181" lon="7.4908039"><ele>1414.0</ele><time>2026-04-19T09:22:42.945Z</time></trkpt><trkpt lat="45.790427" lon="7.4908384"><ele>1414.0</ele><time>2026-04-19T09:22:43.947Z</time></trkpt><trkpt lat="45.7903337" lon="7.4908733"><ele>1414.0</ele><time>2026-04-19T09:22:44.943Z</time></trkpt><trkpt lat="45.7902421" lon="7.4909042"><ele>1414.0</ele><time>2026-04-19T09:22:45.945Z</time></trkpt><trkpt lat="45.7901518" lon="7.4909207"><ele>1414.0</ele><time>2026-04-19T09:22:46.947Z</time></trkpt><trkpt lat="45.7900553" lon="7.4909236"><ele>1412.1666666666665</ele><time>2026-04-19T09:22:47.947Z</time></trkpt><trkpt lat="45.7899667" lon="7.4909267"><ele>1410.3333333333333</ele><time>2026-04-19T09:22:48.944Z</time></trkpt><trkpt lat="45.7898842" lon="7.4909153"><ele>1408.5</ele><time>2026-04-19T09:22:49.948Z</time></trkpt><trkpt lat="45.7898065" lon="7.4908969"><ele>1406.6666666666667</ele><time>2026-04-19T09:22:50.948Z</time></trkpt><trkpt lat="45.7897312" lon="7.4908792"><ele>1404.8333333333335</ele><time>2026-04-19T09:22:51.944Z</time></trkpt><trkpt lat="45.7896562" lon="7.4908502"><ele>1403.0</ele><time>2026-04-19T09:22:52.944Z</time></trkpt><trkpt lat="45.7895841" lon="7.4908039"><ele>1403.0</ele><time>2026-04-19T09:22:53.943Z</time></trkpt><trkpt lat="45.7895098" lon="7.4907488"><ele>1403.0</ele><time>2026-04-19T09:22:54.951Z</time></trkpt><trkpt lat="45.7894382" lon="7.4906951"><ele>1403.0</ele><time>2026-04-19T09:22:55.946Z</time></trkpt><trkpt lat="45.7893672" lon="7.4906534"><ele>1403.0</ele><time>2026-04-19T09:22:56.946Z</time></trkpt><trkpt lat="45.7893087" lon="7.4905938"><ele>1403.0</ele><time>2026-04-19T09:22:57.948Z</time></trkpt><trkpt lat="45.7892531" lon="7.4905392"><ele>1403.0</ele><time>2026-04-19T09:22:58.945Z</time></trkpt><trkpt lat="45.7891992" lon="7.4904717"><ele>1402.6666666666667</ele><time>2026-04-19T09:22:59.943Z</time></trkpt><trkpt lat="45.78916" lon="7.4903854"><ele>1402.3333333333335</ele><time>2026-04-19T09:23:00.948Z</time></trkpt><trkpt lat="45.7891344" lon="7.4902812"><ele>1402.0</ele><time>2026-04-19T09:23:01.946Z</time></trkpt><trkpt lat="45.7891184" lon="7.4901658"><ele>1401.6666666666667</ele><time>2026-04-19T09:23:02.947Z</time></trkpt><trkpt lat="45.7890938" lon="7.4900623"><ele>1401.3333333333333</ele><time>2026-04-19T09:23:03.949Z</time></trkpt><trkpt lat="45.7890705" lon="7.4899558"><ele>1401.0</ele><time>2026-04-19T09:23:04.946Z</time></trkpt><trkpt lat="45.7890507" lon="7.4898371"><ele>1401.0</ele><time>2026-04-19T09:23:05.944Z</time></trkpt><trkpt lat="45.7890291" lon="7.4897185"><ele>1401.0</ele><time>2026-04-19T09:23:06.938Z</time></trkpt><trkpt lat="45.7890078" lon="7.4895953"><ele>1401.0</ele><time>2026-04-19T09:23:07.945Z</time></trkpt><trkpt lat="45.7889808" lon="7.489469"><ele>1401.0</ele><time>2026-04-19T09:23:08.939Z</time></trkpt><trkpt lat="45.7889597" lon="7.4893436"><ele>1401.0</ele><time>2026-04-19T09:23:09.946Z</time></trkpt><trkpt lat="45.7889366" lon="7.4892118"><ele>1400.8</ele><time>2026-04-19T09:23:10.952Z</time></trkpt><trkpt lat="45.7889091" lon="7.4890794"><ele>1400.6</ele><time>2026-04-19T09:23:11.942Z</time></trkpt><trkpt lat="45.7888767" lon="7.4889526"><ele>1400.4</ele><time>2026-04-19T09:23:12.948Z</time></trkpt><trkpt lat="45.788831" lon="7.4888296"><ele>1400.2</ele><time>2026-04-19T09:23:13.945Z</time></trkpt><trkpt lat="45.7887677" lon="7.4887152"><ele>1400.0</ele><time>2026-04-19T09:23:14.944Z</time></trkpt><trkpt lat="45.7886987" lon="7.4885993"><ele>1401.6</ele><time>2026-04-19T09:23:15.948Z</time></trkpt><trkpt lat="45.7886247" lon="7.488493"><ele>1403.2</ele><time>2026-04-19T09:23:16.948Z</time></trkpt><trkpt lat="45.7885573" lon="7.4883739"><ele>1404.8000000000002</ele><time>2026-04-19T09:23:17.947Z</time></trkpt><trkpt lat="45.78848" lon="7.4882519"><ele>1406.4</ele><time>2026-04-19T09:23:18.943Z</time></trkpt><trkpt lat="45.7884037" lon="7.4881292"><ele>1408.0</ele><time>2026-04-19T09:23:19.939Z</time></trkpt><trkpt lat="45.7883225" lon="7.4880036"><ele>1403.6000000000001</ele><time>2026-04-19T09:23:20.946Z</time></trkpt><trkpt lat="45.788241" lon="7.4878872"><ele>1399.2</ele><time>2026-04-19T09:23:21.953Z</time></trkpt><trkpt lat="45.7881615" lon="7.487772"><ele>1394.8</ele><time>2026-04-19T09:23:22.945Z</time></trkpt><trkpt lat="45.7880832" lon="7.4876683"><ele>1390.4</ele><time>2026-04-19T09:23:23.955Z</time></trkpt><trkpt lat="45.7880146" lon="7.4875745"><ele>1386.0</ele><time>2026-04-19T09:23:24.944Z</time></trkpt><trkpt lat="45.7879452" lon="7.4874839"><ele>1386.0</ele><time>2026-04-19T09:23:25.943Z</time></trkpt><trkpt lat="45.7878755" lon="7.4873936"><ele>1386.0</ele><time>2026-04-19T09:23:26.95Z</time></trkpt><trkpt lat="45.7878075" lon="7.4873134"><ele>1386.0</ele><time>2026-04-19T09:23:27.945Z</time></trkpt><trkpt lat="45.7877491" lon="7.4872406"><ele>1386.0</ele><time>2026-04-19T09:23:28.945Z</time></trkpt><trkpt lat="45.7876995" lon="7.4871819"><ele>1386.0</ele><time>2026-04-19T09:23:29.942Z</time></trkpt><trkpt lat="45.7875955" lon="7.4871405"><ele>1386.0</ele><time>2026-04-19T09:23:32.012Z</time></trkpt><trkpt lat="45.7875124" lon="7.4872564"><ele>1386.0</ele><time>2026-04-19T09:23:34.026Z</time></trkpt><trkpt lat="45.7875327" lon="7.4873843"><ele>1386.0</ele><time>2026-04-19T09:23:35.944Z</time></trkpt><trkpt lat="45.7875969" lon="7.4874984"><ele>1386.0</ele><time>2026-04-19T09:23:38.028Z</time></trkpt><trkpt lat="45.7876999" lon="7.4875674"><ele>1386.0</ele><time>2026-04-19T09:23:39.951Z</time></trkpt><trkpt lat="45.7878056" lon="7.4876457"><ele>1386.0</ele><time>2026-04-19T09:23:42.04Z</time></trkpt><trkpt lat="45.7879014" lon="7.4877256"><ele>1386.0</ele><time>2026-04-19T09:23:44.043Z</time></trkpt><trkpt lat="45.7879701" lon="7.4878237"><ele>1386.0</ele><time>2026-04-19T09:23:45.943Z</time></trkpt><trkpt lat="45.7880006" lon="7.4879831"><ele>1386.0</ele><time>2026-04-19T09:23:47.944Z</time></trkpt><trkpt lat="45.7879254" lon="7.4881289"><ele>1386.0</ele><time>2026-04-19T09:23:49.945Z</time></trkpt><trkpt lat="45.787869" lon="7.4881896"><ele>1386.0</ele><time>2026-04-19T09:23:50.948Z</time></trkpt><trkpt lat="45.7878149" lon="7.488249"><ele>1382.8333333333333</ele><time>2026-04-19T09:23:52.026Z</time></trkpt><trkpt lat="45.7877554" lon="7.4882904"><ele>1379.6666666666667</ele><time>2026-04-19T09:23:53.026Z</time></trkpt><trkpt lat="45.787686" lon="7.4883246"><ele>1376.5</ele><time>2026-04-19T09:23:54.024Z</time></trkpt><trkpt lat="45.787607" lon="7.4883498"><ele>1373.3333333333335</ele><time>2026-04-19T09:23:54.947Z</time></trkpt><trkpt lat="45.7875249" lon="7.4883688"><ele>1370.1666666666667</ele><time>2026-04-19T09:23:55.946Z</time></trkpt><trkpt lat="45.7874388" lon="7.4883749"><ele>1367.0</ele><time>2026-04-19T09:23:56.947Z</time></trkpt><trkpt lat="45.7873467" lon="7.4883537"><ele>1364.3999999999999</ele><time>2026-04-19T09:23:57.947Z</time></trkpt><trkpt lat="45.7872575" lon="7.4883235"><ele>1361.8</ele><time>2026-04-19T09:23:58.947Z</time></trkpt><trkpt lat="45.7871641" lon="7.4882858"><ele>1359.2</ele><time>2026-04-19T09:23:59.941Z</time></trkpt><trkpt lat="45.787076" lon="7.488233"><ele>1356.6</ele><time>2026-04-19T09:24:01.026Z</time></trkpt><trkpt lat="45.7869833" lon="7.4881646"><ele>1354.0</ele><time>2026-04-19T09:24:02.028Z</time></trkpt><trkpt lat="45.7868888" lon="7.4880943"><ele>1356.5</ele><time>2026-04-19T09:24:03.025Z</time></trkpt><trkpt lat="45.7867919" lon="7.4880179"><ele>1359.0</ele><time>2026-04-19T09:24:03.947Z</time></trkpt><trkpt lat="45.7866931" lon="7.4879379"><ele>1361.5</ele><time>2026-04-19T09:24:04.949Z</time></trkpt><trkpt lat="45.7865929" lon="7.4878523"><ele>1364.0</ele><time>2026-04-19T09:24:05.956Z</time></trkpt><trkpt lat="45.7864916" lon="7.4877733"><ele>1357.75</ele><time>2026-04-19T09:24:06.95Z</time></trkpt><trkpt lat="45.786393" lon="7.4876858"><ele>1351.5</ele><time>2026-04-19T09:24:07.95Z</time></trkpt><trkpt lat="45.7862934" lon="7.4876041"><ele>1345.25</ele><time>2026-04-19T09:24:08.947Z</time></trkpt><trkpt lat="45.7861921" lon="7.4875252"><ele>1339.0</ele><time>2026-04-19T09:24:09.952Z</time></trkpt><trkpt lat="45.786082" lon="7.4874698"><ele>1339.0</ele><time>2026-04-19T09:24:10.953Z</time></trkpt><trkpt lat="45.7859646" lon="7.4874312"><ele>1339.0</ele><time>2026-04-19T09:24:11.948Z</time></trkpt><trkpt lat="45.7858523" lon="7.4874041"><ele>1339.0</ele><time>2026-04-19T09:24:12.953Z</time></trkpt><trkpt lat="45.7857358" lon="7.4873748"><ele>1339.0</ele><time>2026-04-19T09:24:13.952Z</time></trkpt><trkpt lat="45.7856242" lon="7.487353"><ele>1339.0</ele><time>2026-04-19T09:24:14.949Z</time></trkpt><trkpt lat="45.7855057" lon="7.4873218"><ele>1339.0</ele><time>2026-04-19T09:24:15.953Z</time></trkpt><trkpt lat="45.7853881" lon="7.4872877"><ele>1339.0</ele><time>2026-04-19T09:24:16.955Z</time></trkpt><trkpt lat="45.7852715" lon="7.487257"><ele>1339.0</ele><time>2026-04-19T09:24:18.026Z</time></trkpt><trkpt lat="45.7851529" lon="7.4872232"><ele>1338.6</ele><time>2026-04-19T09:24:18.959Z</time></trkpt><trkpt lat="45.7850293" lon="7.487191"><ele>1338.2</ele><time>2026-04-19T09:24:19.952Z</time></trkpt><trkpt lat="45.7849192" lon="7.4871575"><ele>1337.8</ele><time>2026-04-19T09:24:20.943Z</time></trkpt><trkpt lat="45.7848209" lon="7.4871337"><ele>1337.3999999999999</ele><time>2026-04-19T09:24:22.025Z</time></trkpt><trkpt lat="45.7847236" lon="7.4871185"><ele>1337.0</ele><time>2026-04-19T09:24:22.971Z</time></trkpt><trkpt lat="45.784634" lon="7.4871186"><ele>1337.0</ele><time>2026-04-19T09:24:24.028Z</time></trkpt><trkpt lat="45.7845473" lon="7.4871218"><ele>1337.0</ele><time>2026-04-19T09:24:24.939Z</time></trkpt><trkpt lat="45.7844651" lon="7.4871348"><ele>1337.0</ele><time>2026-04-19T09:24:25.94Z</time></trkpt><trkpt lat="45.7843887" lon="7.4871467"><ele>1337.0</ele><time>2026-04-19T09:24:27.053Z</time></trkpt><trkpt lat="45.7843169" lon="7.4871603"><ele>1337.0</ele><time>2026-04-19T09:24:27.957Z</time></trkpt><trkpt lat="45.7842452" lon="7.4871607"><ele>1337.0</ele><time>2026-04-19T09:24:29.027Z</time></trkpt><trkpt lat="45.784179" lon="7.4871539"><ele>1335.5</ele><time>2026-04-19T09:24:29.943Z</time></trkpt><trkpt lat="45.784053" lon="7.4871201"><ele>1334.0</ele><time>2026-04-19T09:24:32.041Z</time></trkpt><trkpt lat="45.7839404" lon="7.4870949"><ele>1332.5</ele><time>2026-04-19T09:24:34.024Z</time></trkpt><trkpt lat="45.7838246" lon="7.4870785"><ele>1331.0</ele><time>2026-04-19T09:24:35.942Z</time></trkpt><trkpt lat="45.7837114" lon="7.4870535"><ele>1326.25</ele><time>2026-04-19T09:24:37.943Z</time></trkpt><trkpt lat="45.7836012" lon="7.4870065"><ele>1321.5</ele><time>2026-04-19T09:24:39.945Z</time></trkpt><trkpt lat="45.7834972" lon="7.486939"><ele>1316.75</ele><time>2026-04-19T09:24:42.027Z</time></trkpt><trkpt lat="45.7833904" lon="7.4868782"><ele>1312.0</ele><time>2026-04-19T09:24:44.025Z</time></trkpt><trkpt lat="45.7832926" lon="7.4867945"><ele>1312.0</ele><time>2026-04-19T09:24:45.942Z</time></trkpt><trkpt lat="45.7832062" lon="7.4866825"><ele>1312.0</ele><time>2026-04-19T09:24:47.944Z</time></trkpt><trkpt lat="45.7831187" lon="7.4865594"><ele>1312.0</ele><time>2026-04-19T09:24:49.943Z</time></trkpt><trkpt lat="45.7830397" lon="7.4864385"><ele>1312.0</ele><time>2026-04-19T09:24:52.027Z</time></trkpt><trkpt lat="45.7829534" lon="7.4863546"><ele>1312.0</ele><time>2026-04-19T09:24:53.947Z</time></trkpt><trkpt lat="45.7828572" lon="7.4863176"><ele>1312.0</ele><time>2026-04-19T09:24:55.951Z</time></trkpt><trkpt lat="45.7827395" lon="7.486295"><ele>1312.0</ele><time>2026-04-19T09:24:57.942Z</time></trkpt><trkpt lat="45.7826255" lon="7.486264"><ele>1312.0</ele><time>2026-04-19T09:24:59.953Z</time></trkpt><trkpt lat="45.7825148" lon="7.4862228"><ele>1312.0</ele><time>2026-04-19T09:25:02.022Z</time></trkpt><trkpt lat="45.7824129" lon="7.4861446"><ele>1310.3999999999999</ele><time>2026-04-19T09:25:04.028Z</time></trkpt><trkpt lat="45.7823432" lon="7.4860189"><ele>1308.8</ele><time>2026-04-19T09:25:05.939Z</time></trkpt><trkpt lat="45.7823015" lon="7.48587"><ele>1307.2</ele><time>2026-04-19T09:25:07.938Z</time></trkpt><trkpt lat="45.7822524" lon="7.4857289"><ele>1305.6</ele><time>2026-04-19T09:25:09.949Z</time></trkpt><trkpt lat="45.7822058" lon="7.4855963"><ele>1304.0</ele><time>2026-04-19T09:25:12.023Z</time></trkpt><trkpt lat="45.7821549" lon="7.4854637"><ele>1303.0</ele><time>2026-04-19T09:25:14.021Z</time></trkpt><trkpt lat="45.7820928" lon="7.4853276"><ele>1302.0</ele><time>2026-04-19T09:25:15.945Z</time></trkpt><trkpt lat="45.7820155" lon="7.4852208"><ele>1301.0</ele><time>2026-04-19T09:25:18.027Z</time></trkpt><trkpt lat="45.7819245" lon="7.4851311"><ele>1300.0</ele><time>2026-04-19T09:25:19.95Z</time></trkpt><trkpt lat="45.7818281" lon="7.4850617"><ele>1299.0</ele><time>2026-04-19T09:25:21.973Z</time></trkpt><trkpt lat="45.7817147" lon="7.485018"><ele>1299.0</ele><time>2026-04-19T09:25:24.025Z</time></trkpt><trkpt lat="45.7816001" lon="7.4849905"><ele>1299.0</ele><time>2026-04-19T09:25:25.939Z</time></trkpt><trkpt lat="45.7814888" lon="7.4849759"><ele>1299.0</ele><time>2026-04-19T09:25:27.942Z</time></trkpt><trkpt lat="45.7813739" lon="7.4849692"><ele>1299.0</ele><time>2026-04-19T09:25:29.938Z</time></trkpt><trkpt lat="45.7812482" lon="7.4849621"><ele>1299.0</ele><time>2026-04-19T09:25:32.019Z</time></trkpt><trkpt lat="45.7811259" lon="7.4849509"><ele>1299.0</ele><time>2026-04-19T09:25:33.957Z</time></trkpt><trkpt lat="45.7810038" lon="7.4849315"><ele>1299.0</ele><time>2026-04-19T09:25:35.939Z</time></trkpt><trkpt lat="45.7808847" lon="7.4849016"><ele>1299.0</ele><time>2026-04-19T09:25:37.938Z</time></trkpt><trkpt lat="45.7808225" lon="7.4848814"><ele>1299.0</ele><time>2026-04-19T09:25:38.943Z</time></trkpt><trkpt lat="45.7806993" lon="7.4848441"><ele>1302.4</ele><time>2026-04-19T09:25:40.944Z</time></trkpt><trkpt lat="45.780632" lon="7.484828"><ele>1305.8000000000002</ele><time>2026-04-19T09:25:42.026Z</time></trkpt><trkpt lat="45.7805115" lon="7.4847859"><ele>1309.1999999999998</ele><time>2026-04-19T09:25:44.029Z</time></trkpt><trkpt lat="45.7803898" lon="7.4847416"><ele>1312.6</ele><time>2026-04-19T09:25:45.944Z</time></trkpt><trkpt lat="45.7803261" lon="7.484703"><ele>1316.0</ele><time>2026-04-19T09:25:46.981Z</time></trkpt><trkpt lat="45.7802666" lon="7.4846592"><ele>1316.0</ele><time>2026-04-19T09:25:48.027Z</time></trkpt><trkpt lat="45.7802065" lon="7.4846072"><ele>1316.0</ele><time>2026-04-19T09:25:49.026Z</time></trkpt><trkpt lat="45.7801525" lon="7.4845452"><ele>1316.0</ele><time>2026-04-19T09:25:49.949Z</time></trkpt><trkpt lat="45.7800977" lon="7.484474"><ele>1316.0</ele><time>2026-04-19T09:25:50.943Z</time></trkpt><trkpt lat="45.7800459" lon="7.4843948"><ele>1316.0</ele><time>2026-04-19T09:25:52.047Z</time></trkpt><trkpt lat="45.779999" lon="7.4843086"><ele>1316.0</ele><time>2026-04-19T09:25:52.95Z</time></trkpt><trkpt lat="45.7799547" lon="7.4842244"><ele>1316.0</ele><time>2026-04-19T09:25:54.02Z</time></trkpt><trkpt lat="45.7799096" lon="7.4841464"><ele>1313.0</ele><time>2026-04-19T09:25:54.946Z</time></trkpt><trkpt lat="45.7798616" lon="7.4840736"><ele>1310.0</ele><time>2026-04-19T09:25:55.95Z</time></trkpt><trkpt lat="45.7798102" lon="7.4840101"><ele>1307.0</ele><time>2026-04-19T09:25:57.041Z</time></trkpt><trkpt lat="45.7797562" lon="7.4839563"><ele>1304.0</ele><time>2026-04-19T09:25:58.013Z</time></trkpt><trkpt lat="45.7796939" lon="7.4839203"><ele>1301.0</ele><time>2026-04-19T09:25:58.947Z</time></trkpt><trkpt lat="45.7796289" lon="7.4838956"><ele>1298.0</ele><time>2026-04-19T09:25:59.951Z</time></trkpt><trkpt lat="45.7795619" lon="7.4838832"><ele>1295.0</ele><time>2026-04-19T09:26:00.946Z</time></trkpt><trkpt lat="45.7794979" lon="7.4838764"><ele>1295.0</ele><time>2026-04-19T09:26:02.029Z</time></trkpt><trkpt lat="45.7794299" lon="7.4838697"><ele>1295.0</ele><time>2026-04-19T09:26:03.027Z</time></trkpt><trkpt lat="45.7793642" lon="7.4838649"><ele>1295.0</ele><time>2026-04-19T09:26:04.027Z</time></trkpt><trkpt lat="45.7792993" lon="7.4838583"><ele>1295.0</ele><time>2026-04-19T09:26:04.99Z</time></trkpt><trkpt lat="45.7792323" lon="7.4838565"><ele>1295.0</ele><time>2026-04-19T09:26:06.032Z</time></trkpt><trkpt lat="45.7791657" lon="7.4838576"><ele>1295.0</ele><time>2026-04-19T09:26:06.933Z</time></trkpt><trkpt lat="45.7790953" lon="7.4838538"><ele>1295.0</ele><time>2026-04-19T09:26:07.938Z</time></trkpt><trkpt lat="45.7790238" lon="7.4838443"><ele>1292.5714285714287</ele><time>2026-04-19T09:26:08.941Z</time></trkpt><trkpt lat="45.778958" lon="7.4838236"><ele>1290.142857142857</ele><time>2026-04-19T09:26:09.941Z</time></trkpt><trkpt lat="45.7788946" lon="7.4837895"><ele>1287.7142857142858</ele><time>2026-04-19T09:26:10.933Z</time></trkpt><trkpt lat="45.7788338" lon="7.4837398"><ele>1285.2857142857142</ele><time>2026-04-19T09:26:11.938Z</time></trkpt><trkpt lat="45.7787783" lon="7.4836802"><ele>1282.857142857143</ele><time>2026-04-19T09:26:13.029Z</time></trkpt><trkpt lat="45.7787293" lon="7.4836175"><ele>1280.4285714285716</ele><time>2026-04-19T09:26:13.939Z</time></trkpt><trkpt lat="45.7786793" lon="7.483545"><ele>1278.0</ele><time>2026-04-19T09:26:14.941Z</time></trkpt><trkpt lat="45.7786256" lon="7.483476"><ele>1278.0000000000002</ele><time>2026-04-19T09:26:15.94Z</time></trkpt><trkpt lat="45.7785716" lon="7.4834087"><ele>1278.0</ele><time>2026-04-19T09:26:16.941Z</time></trkpt><trkpt lat="45.7785147" lon="7.4833554"><ele>1278.0</ele><time>2026-04-19T09:26:17.94Z</time></trkpt><trkpt lat="45.778459" lon="7.4833075"><ele>1278.0</ele><time>2026-04-19T09:26:18.938Z</time></trkpt><trkpt lat="45.7783965" lon="7.4832553"><ele>1278.0</ele><time>2026-04-19T09:26:19.941Z</time></trkpt><trkpt lat="45.7783342" lon="7.4832057"><ele>1278.0000000000002</ele><time>2026-04-19T09:26:21.025Z</time></trkpt><trkpt lat="45.7782658" lon="7.4831583"><ele>1278.0</ele><time>2026-04-19T09:26:22.025Z</time></trkpt><trkpt lat="45.7781971" lon="7.483107"><ele>1276.5714285714287</ele><time>2026-04-19T09:26:23.023Z</time></trkpt><trkpt lat="45.7781313" lon="7.4830591"><ele>1275.142857142857</ele><time>2026-04-19T09:26:24.024Z</time></trkpt><trkpt lat="45.7780673" lon="7.4830099"><ele>1273.7142857142858</ele><time>2026-04-19T09:26:24.946Z</time></trkpt><trkpt lat="45.7780049" lon="7.4829648"><ele>1272.2857142857142</ele><time>2026-04-19T09:26:25.947Z</time></trkpt><trkpt lat="45.7779472" lon="7.4829099"><ele>1270.857142857143</ele><time>2026-04-19T09:26:26.945Z</time></trkpt><trkpt lat="45.7778941" lon="7.4828449"><ele>1269.4285714285716</ele><time>2026-04-19T09:26:27.943Z</time></trkpt><trkpt lat="45.777848" lon="7.4827719"><ele>1268.0</ele><time>2026-04-19T09:26:28.951Z</time></trkpt><trkpt lat="45.7777531" lon="7.4826447"><ele>1268.0</ele><time>2026-04-19T09:26:30.946Z</time></trkpt><trkpt lat="45.7777015" lon="7.4825891"><ele>1268.0</ele><time>2026-04-19T09:26:32.025Z</time></trkpt><trkpt lat="45.7776466" lon="7.4825286"><ele>1268.0</ele><time>2026-04-19T09:26:33.023Z</time></trkpt><trkpt lat="45.7775901" lon="7.4824722"><ele>1268.0</ele><time>2026-04-19T09:26:34.025Z</time></trkpt><trkpt lat="45.7775303" lon="7.4824269"><ele>1268.0</ele><time>2026-04-19T09:26:34.945Z</time></trkpt><trkpt lat="45.7774697" lon="7.4823898"><ele>1268.0</ele><time>2026-04-19T09:26:35.945Z</time></trkpt><trkpt lat="45.7774022" lon="7.4823687"><ele>1268.0</ele><time>2026-04-19T09:26:37.056Z</time></trkpt><trkpt lat="45.7773346" lon="7.482351"><ele>1271.857142857143</ele><time>2026-04-19T09:26:37.982Z</time></trkpt><trkpt lat="45.7772696" lon="7.4823411"><ele>1275.7142857142858</ele><time>2026-04-19T09:26:39.031Z</time></trkpt><trkpt lat="45.7772034" lon="7.4823308"><ele>1279.5714285714284</ele><time>2026-04-19T09:26:39.94Z</time></trkpt><trkpt lat="45.7771346" lon="7.4823138"><ele>1283.4285714285716</ele><time>2026-04-19T09:26:40.94Z</time></trkpt><trkpt lat="45.7770668" lon="7.4822854"><ele>1287.2857142857142</ele><time>2026-04-19T09:26:41.963Z</time></trkpt><trkpt lat="45.7770004" lon="7.4822521"><ele>1291.142857142857</ele><time>2026-04-19T09:26:43.027Z</time></trkpt><trkpt lat="45.7769349" lon="7.4822056"><ele>1295.0</ele><time>2026-04-19T09:26:44.028Z</time></trkpt><trkpt lat="45.7768725" lon="7.482155"><ele>1294.0</ele><time>2026-04-19T09:26:44.94Z</time></trkpt><trkpt lat="45.7768163" lon="7.4820961"><ele>1293.0</ele><time>2026-04-19T09:26:45.941Z</time></trkpt><trkpt lat="45.7767636" lon="7.4820286"><ele>1292.0</ele><time>2026-04-19T09:26:46.981Z</time></trkpt><trkpt lat="45.7767114" lon="7.4819551"><ele>1291.0</ele><time>2026-04-19T09:26:48.028Z</time></trkpt><trkpt lat="45.7766606" lon="7.4818848"><ele>1290.0</ele><time>2026-04-19T09:26:49.038Z</time></trkpt><trkpt lat="45.7766125" lon="7.4818115"><ele>1289.0</ele><time>2026-04-19T09:26:49.949Z</time></trkpt><trkpt lat="45.7765668" lon="7.4817396"><ele>1288.0</ele><time>2026-04-19T09:26:50.945Z</time></trkpt><trkpt lat="45.7765194" lon="7.4816621"><ele>1288.0</ele><time>2026-04-19T09:26:51.975Z</time></trkpt><trkpt lat="45.7764772" lon="7.4815811"><ele>1288.0</ele><time>2026-04-19T09:26:53.037Z</time></trkpt><trkpt lat="45.7764377" lon="7.4814973"><ele>1288.0</ele><time>2026-04-19T09:26:54.031Z</time></trkpt><trkpt lat="45.7763981" lon="7.4814103"><ele>1288.0</ele><time>2026-04-19T09:26:54.943Z</time></trkpt><trkpt lat="45.7763613" lon="7.4813144"><ele>1288.0</ele><time>2026-04-19T09:26:55.944Z</time></trkpt><trkpt lat="45.7763294" lon="7.4812189"><ele>1288.0</ele><time>2026-04-19T09:26:56.943Z</time></trkpt><trkpt lat="45.7762968" lon="7.4811227"><ele>1288.0</ele><time>2026-04-19T09:26:57.946Z</time></trkpt><trkpt lat="45.7762686" lon="7.4810204"><ele>1284.0</ele><time>2026-04-19T09:26:58.932Z</time></trkpt><trkpt lat="45.776241" lon="7.4809186"><ele>1280.0</ele><time>2026-04-19T09:26:59.942Z</time></trkpt><trkpt lat="45.7762154" lon="7.4808149"><ele>1276.0</ele><time>2026-04-19T09:27:00.943Z</time></trkpt><trkpt lat="45.7761927" lon="7.4807068"><ele>1272.0</ele><time>2026-04-19T09:27:01.942Z</time></trkpt><trkpt lat="45.776173" lon="7.4806015"><ele>1268.0</ele><time>2026-04-19T09:27:02.944Z</time></trkpt><trkpt lat="45.7761493" lon="7.4804895"><ele>1264.0</ele><time>2026-04-19T09:27:03.946Z</time></trkpt><trkpt lat="45.7761281" lon="7.4803782"><ele>1262.0</ele><time>2026-04-19T09:27:04.942Z</time></trkpt><trkpt lat="45.7761095" lon="7.4802737"><ele>1260.0</ele><time>2026-04-19T09:27:05.942Z</time></trkpt><trkpt lat="45.776088" lon="7.4801707"><ele>1258.0</ele><time>2026-04-19T09:27:06.942Z</time></trkpt><trkpt lat="45.7760541" lon="7.480076"><ele>1256.0</ele><time>2026-04-19T09:27:07.943Z</time></trkpt><trkpt lat="45.7760151" lon="7.4799831"><ele>1254.0</ele><time>2026-04-19T09:27:08.942Z</time></trkpt><trkpt lat="45.7759613" lon="7.4799002"><ele>1252.0</ele><time>2026-04-19T09:27:09.946Z</time></trkpt><trkpt lat="45.7758989" lon="7.4798282"><ele>1252.0</ele><time>2026-04-19T09:27:10.947Z</time></trkpt><trkpt lat="45.7758287" lon="7.4797744"><ele>1252.0</ele><time>2026-04-19T09:27:11.944Z</time></trkpt><trkpt lat="45.775761" lon="7.4797192"><ele>1252.0</ele><time>2026-04-19T09:27:12.942Z</time></trkpt><trkpt lat="45.7756924" lon="7.4796605"><ele>1252.0</ele><time>2026-04-19T09:27:13.943Z</time></trkpt><trkpt lat="45.7756213" lon="7.4795997"><ele>1252.0</ele><time>2026-04-19T09:27:14.942Z</time></trkpt><trkpt lat="45.7755524" lon="7.4795425"><ele>1252.0</ele><time>2026-04-19T09:27:15.939Z</time></trkpt><trkpt lat="45.7754799" lon="7.4794791"><ele>1252.0</ele><time>2026-04-19T09:27:16.942Z</time></trkpt><trkpt lat="45.7754045" lon="7.4794392"><ele>1252.0</ele><time>2026-04-19T09:27:17.941Z</time></trkpt><trkpt lat="45.7753305" lon="7.4794015"><ele>1252.0</ele><time>2026-04-19T09:27:18.942Z</time></trkpt><trkpt lat="45.7752557" lon="7.4793676"><ele>1252.0</ele><time>2026-04-19T09:27:19.941Z</time></trkpt><trkpt lat="45.7751795" lon="7.4793326"><ele>1252.0</ele><time>2026-04-19T09:27:20.948Z</time></trkpt><trkpt lat="45.7751077" lon="7.4792979"><ele>1252.0</ele><time>2026-04-19T09:27:21.944Z</time></trkpt><trkpt lat="45.7750325" lon="7.4792601"><ele>1255.142857142857</ele><time>2026-04-19T09:27:22.941Z</time></trkpt><trkpt lat="45.7749579" lon="7.4792233"><ele>1258.2857142857142</ele><time>2026-04-19T09:27:23.942Z</time></trkpt><trkpt lat="45.7748856" lon="7.4791831"><ele>1261.4285714285716</ele><time>2026-04-19T09:27:24.942Z</time></trkpt><trkpt lat="45.7748172" lon="7.4791447"><ele>1264.5714285714284</ele><time>2026-04-19T09:27:25.944Z</time></trkpt><trkpt lat="45.7747462" lon="7.4791093"><ele>1267.7142857142858</ele><time>2026-04-19T09:27:26.946Z</time></trkpt><trkpt lat="45.7746761" lon="7.4790859"><ele>1270.857142857143</ele><time>2026-04-19T09:27:27.946Z</time></trkpt><trkpt lat="45.7746061" lon="7.4790768"><ele>1274.0</ele><time>2026-04-19T09:27:28.945Z</time></trkpt><trkpt lat="45.7745375" lon="7.4790662"><ele>1274.0</ele><time>2026-04-19T09:27:29.939Z</time></trkpt><trkpt lat="45.7744662" lon="7.4790494"><ele>1274.0</ele><time>2026-04-19T09:27:30.94Z</time></trkpt><trkpt lat="45.7743902" lon="7.4790341"><ele>1274.0</ele><time>2026-04-19T09:27:31.938Z</time></trkpt><trkpt lat="45.7743105" lon="7.4790186"><ele>1274.0</ele><time>2026-04-19T09:27:32.945Z</time></trkpt><trkpt lat="45.7742259" lon="7.47899"><ele>1274.0</ele><time>2026-04-19T09:27:34.03Z</time></trkpt><trkpt lat="45.7741402" lon="7.4789604"><ele>1274.0</ele><time>2026-04-19T09:27:34.946Z</time></trkpt><trkpt lat="45.7740509" lon="7.4789389"><ele>1274.0</ele><time>2026-04-19T09:27:35.944Z</time></trkpt><trkpt lat="45.7739642" lon="7.4788938"><ele>1274.0</ele><time>2026-04-19T09:27:36.946Z</time></trkpt><trkpt lat="45.7738815" lon="7.4788258"><ele>1274.0</ele><time>2026-04-19T09:27:38.01Z</time></trkpt><trkpt lat="45.7738205" lon="7.4787168"><ele>1274.0</ele><time>2026-04-19T09:27:39.015Z</time></trkpt><trkpt lat="45.7737886" lon="7.4785831"><ele>1274.0</ele><time>2026-04-19T09:27:39.942Z</time></trkpt><trkpt lat="45.7737579" lon="7.4784484"><ele>1269.5</ele><time>2026-04-19T09:27:40.944Z</time></trkpt><trkpt lat="45.7737293" lon="7.4783017"><ele>1265.0</ele><time>2026-04-19T09:27:42.05Z</time></trkpt><trkpt lat="45.7736746" lon="7.4780068"><ele>1260.5</ele><time>2026-04-19T09:27:44.028Z</time></trkpt><trkpt lat="45.7736409" lon="7.4778594"><ele>1256.0</ele><time>2026-04-19T09:27:44.948Z</time></trkpt><trkpt lat="45.7735821" lon="7.4777179"><ele>1256.25</ele><time>2026-04-19T09:27:46.031Z</time></trkpt><trkpt lat="45.7735122" lon="7.4775922"><ele>1256.5</ele><time>2026-04-19T09:27:46.949Z</time></trkpt><trkpt lat="45.7734249" lon="7.4774825"><ele>1256.75</ele><time>2026-04-19T09:27:47.952Z</time></trkpt><trkpt lat="45.7733387" lon="7.4773757"><ele>1257.0</ele><time>2026-04-19T09:27:48.955Z</time></trkpt><trkpt lat="45.7732617" lon="7.4772415"><ele>1253.75</ele><time>2026-04-19T09:27:49.955Z</time></trkpt><trkpt lat="45.7732079" lon="7.4770721"><ele>1250.5</ele><time>2026-04-19T09:27:50.956Z</time></trkpt><trkpt lat="45.7731743" lon="7.4768917"><ele>1247.25</ele><time>2026-04-19T09:27:51.984Z</time></trkpt><trkpt lat="45.7731611" lon="7.4767077"><ele>1244.0</ele><time>2026-04-19T09:27:52.98Z</time></trkpt><trkpt lat="45.773155" lon="7.4765268"><ele>1244.0</ele><time>2026-04-19T09:27:53.956Z</time></trkpt><trkpt lat="45.7731462" lon="7.4763445"><ele>1244.0</ele><time>2026-04-19T09:27:54.959Z</time></trkpt><trkpt lat="45.7731334" lon="7.4761615"><ele>1244.0</ele><time>2026-04-19T09:27:55.953Z</time></trkpt><trkpt lat="45.7731234" lon="7.475978"><ele>1244.0</ele><time>2026-04-19T09:27:56.954Z</time></trkpt><trkpt lat="45.7731024" lon="7.4758028"><ele>1240.25</ele><time>2026-04-19T09:27:57.955Z</time></trkpt><trkpt lat="45.7730528" lon="7.4756325"><ele>1236.5</ele><time>2026-04-19T09:27:58.957Z</time></trkpt><trkpt lat="45.7729793" lon="7.4754808"><ele>1232.75</ele><time>2026-04-19T09:27:59.954Z</time></trkpt><trkpt lat="45.7728831" lon="7.4753428"><ele>1229.0</ele><time>2026-04-19T09:28:00.954Z</time></trkpt><trkpt lat="45.7727749" lon="7.4752284"><ele>1230.75</ele><time>2026-04-19T09:28:01.955Z</time></trkpt><trkpt lat="45.7726541" lon="7.4751355"><ele>1232.5</ele><time>2026-04-19T09:28:02.956Z</time></trkpt><trkpt lat="45.772529" lon="7.4750579"><ele>1234.25</ele><time>2026-04-19T09:28:03.958Z</time></trkpt><trkpt lat="45.7724053" lon="7.4749684"><ele>1236.0</ele><time>2026-04-19T09:28:04.956Z</time></trkpt><trkpt lat="45.7723007" lon="7.4748479"><ele>1236.0</ele><time>2026-04-19T09:28:05.955Z</time></trkpt><trkpt lat="45.7722182" lon="7.4747067"><ele>1236.0</ele><time>2026-04-19T09:28:06.958Z</time></trkpt><trkpt lat="45.7721409" lon="7.4745464"><ele>1236.0</ele><time>2026-04-19T09:28:07.962Z</time></trkpt><trkpt lat="45.7720747" lon="7.4743763"><ele>1236.0</ele><time>2026-04-19T09:28:09.026Z</time></trkpt><trkpt lat="45.7720143" lon="7.4741942"><ele>1230.75</ele><time>2026-04-19T09:28:09.945Z</time></trkpt><trkpt lat="45.7719644" lon="7.4740078"><ele>1225.5</ele><time>2026-04-19T09:28:10.946Z</time></trkpt><trkpt lat="45.7719334" lon="7.4738151"><ele>1220.25</ele><time>2026-04-19T09:28:11.947Z</time></trkpt><trkpt lat="45.7719116" lon="7.4736107"><ele>1215.0</ele><time>2026-04-19T09:28:13.027Z</time></trkpt><trkpt lat="45.7718993" lon="7.473408"><ele>1210.75</ele><time>2026-04-19T09:28:14.029Z</time></trkpt><trkpt lat="45.7718915" lon="7.4731998"><ele>1206.5</ele><time>2026-04-19T09:28:14.944Z</time></trkpt><trkpt lat="45.7718945" lon="7.472994"><ele>1202.25</ele><time>2026-04-19T09:28:15.945Z</time></trkpt><trkpt lat="45.7718932" lon="7.4727955"><ele>1198.0</ele><time>2026-04-19T09:28:16.943Z</time></trkpt><trkpt lat="45.7718816" lon="7.4726017"><ele>1198.75</ele><time>2026-04-19T09:28:18.05Z</time></trkpt><trkpt lat="45.7718465" lon="7.4724312"><ele>1199.5</ele><time>2026-04-19T09:28:18.967Z</time></trkpt><trkpt lat="45.7717955" lon="7.4722788"><ele>1200.25</ele><time>2026-04-19T09:28:19.948Z</time></trkpt><trkpt lat="45.771728" lon="7.4721562"><ele>1201.0</ele><time>2026-04-19T09:28:20.946Z</time></trkpt><trkpt lat="45.7716526" lon="7.4720508"><ele>1201.0</ele><time>2026-04-19T09:28:21.951Z</time></trkpt><trkpt lat="45.7715811" lon="7.4719518"><ele>1201.0</ele><time>2026-04-19T09:28:23.014Z</time></trkpt><trkpt lat="45.7715154" lon="7.4718527"><ele>1201.0</ele><time>2026-04-19T09:28:24.015Z</time></trkpt><trkpt lat="45.7714541" lon="7.4717665"><ele>1201.0</ele><time>2026-04-19T09:28:24.945Z</time></trkpt><trkpt lat="45.7713875" lon="7.4716842"><ele>1201.0</ele><time>2026-04-19T09:28:25.952Z</time></trkpt><trkpt lat="45.771322" lon="7.4716103"><ele>1201.0000000000002</ele><time>2026-04-19T09:28:26.947Z</time></trkpt><trkpt lat="45.7712534" lon="7.4715593"><ele>1201.0</ele><time>2026-04-19T09:28:28.026Z</time></trkpt><trkpt lat="45.7711817" lon="7.4715252"><ele>1201.0</ele><time>2026-04-19T09:28:29.026Z</time></trkpt><trkpt lat="45.7711124" lon="7.4715018"><ele>1201.0</ele><time>2026-04-19T09:28:29.944Z</time></trkpt><trkpt lat="45.7710409" lon="7.4714904"><ele>1201.0</ele><time>2026-04-19T09:28:30.945Z</time></trkpt><trkpt lat="45.7709689" lon="7.4714729"><ele>1201.0000000000002</ele><time>2026-04-19T09:28:32.065Z</time></trkpt><trkpt lat="45.7708913" lon="7.4714559"><ele>1201.0</ele><time>2026-04-19T09:28:33.028Z</time></trkpt><trkpt lat="45.7708123" lon="7.4714225"><ele>1199.6666666666665</ele><time>2026-04-19T09:28:34.025Z</time></trkpt><trkpt lat="45.7707364" lon="7.4713712"><ele>1198.3333333333333</ele><time>2026-04-19T09:28:34.945Z</time></trkpt><trkpt lat="45.7706613" lon="7.4713145"><ele>1197.0</ele><time>2026-04-19T09:28:35.946Z</time></trkpt><trkpt lat="45.7705878" lon="7.4712448"><ele>1195.6666666666667</ele><time>2026-04-19T09:28:36.945Z</time></trkpt><trkpt lat="45.7705237" lon="7.4711547"><ele>1194.3333333333335</ele><time>2026-04-19T09:28:37.949Z</time></trkpt><trkpt lat="45.7704655" lon="7.4710552"><ele>1193.0</ele><time>2026-04-19T09:28:38.946Z</time></trkpt><trkpt lat="45.770403" lon="7.4709615"><ele>1193.0</ele><time>2026-04-19T09:28:39.944Z</time></trkpt><trkpt lat="45.770345" lon="7.4708643"><ele>1193.0</ele><time>2026-04-19T09:28:40.947Z</time></trkpt><trkpt lat="45.770284" lon="7.4707602"><ele>1193.0</ele><time>2026-04-19T09:28:42.03Z</time></trkpt><trkpt lat="45.7702202" lon="7.4706706"><ele>1193.0</ele><time>2026-04-19T09:28:43.026Z</time></trkpt><trkpt lat="45.7701571" lon="7.4705791"><ele>1193.0</ele><time>2026-04-19T09:28:43.963Z</time></trkpt><trkpt lat="45.7700966" lon="7.4704755"><ele>1194.6</ele><time>2026-04-19T09:28:44.959Z</time></trkpt><trkpt lat="45.7700366" lon="7.4703678"><ele>1196.1999999999998</ele><time>2026-04-19T09:28:45.954Z</time></trkpt><trkpt lat="45.7699766" lon="7.4702568"><ele>1197.8</ele><time>2026-04-19T09:28:46.954Z</time></trkpt><trkpt lat="45.7699191" lon="7.4701469"><ele>1199.3999999999999</ele><time>2026-04-19T09:28:47.958Z</time></trkpt><trkpt lat="45.7698589" lon="7.4700435"><ele>1201.0</ele><time>2026-04-19T09:28:48.961Z</time></trkpt><trkpt lat="45.7697914" lon="7.4699478"><ele>1201.0</ele><time>2026-04-19T09:28:49.951Z</time></trkpt><trkpt lat="45.7697204" lon="7.4698542"><ele>1201.0</ele><time>2026-04-19T09:28:51.026Z</time></trkpt><trkpt lat="45.7696415" lon="7.4697652"><ele>1201.0</ele><time>2026-04-19T09:28:52.03Z</time></trkpt><trkpt lat="45.7695635" lon="7.4696859"><ele>1201.0</ele><time>2026-04-19T09:28:52.96Z</time></trkpt><trkpt lat="45.7694851" lon="7.4696023"><ele>1201.0</ele><time>2026-04-19T09:28:53.942Z</time></trkpt><trkpt lat="45.7694084" lon="7.4695233"><ele>1200.5</ele><time>2026-04-19T09:28:54.949Z</time></trkpt><trkpt lat="45.7693298" lon="7.469455"><ele>1200.0</ele><time>2026-04-19T09:28:55.944Z</time></trkpt><trkpt lat="45.76926" lon="7.4693825"><ele>1199.5</ele><time>2026-04-19T09:28:56.947Z</time></trkpt><trkpt lat="45.7691861" lon="7.4693147"><ele>1199.0</ele><time>2026-04-19T09:28:57.943Z</time></trkpt><trkpt lat="45.7691183" lon="7.4692472"><ele>1198.5</ele><time>2026-04-19T09:28:58.945Z</time></trkpt><trkpt lat="45.7690501" lon="7.4691877"><ele>1198.0</ele><time>2026-04-19T09:28:59.945Z</time></trkpt><trkpt lat="45.7689841" lon="7.4691311"><ele>1198.0</ele><time>2026-04-19T09:29:00.949Z</time></trkpt><trkpt lat="45.7689228" lon="7.4690666"><ele>1198.0</ele><time>2026-04-19T09:29:02.025Z</time></trkpt><trkpt lat="45.7688651" lon="7.4690024"><ele>1198.0</ele><time>2026-04-19T09:29:03.029Z</time></trkpt><trkpt lat="45.7688112" lon="7.4689326"><ele>1198.0</ele><time>2026-04-19T09:29:04.026Z</time></trkpt><trkpt lat="45.7687618" lon="7.4688591"><ele>1198.0</ele><time>2026-04-19T09:29:04.946Z</time></trkpt><trkpt lat="45.7687124" lon="7.4687875"><ele>1198.0</ele><time>2026-04-19T09:29:05.951Z</time></trkpt><trkpt lat="45.768668" lon="7.468719"><ele>1198.0</ele><time>2026-04-19T09:29:06.951Z</time></trkpt><trkpt lat="45.7686216" lon="7.4686517"><ele>1198.2</ele><time>2026-04-19T09:29:08.03Z</time></trkpt><trkpt lat="45.7685743" lon="7.4685816"><ele>1198.4</ele><time>2026-04-19T09:29:08.954Z</time></trkpt><trkpt lat="45.7684845" lon="7.4684561"><ele>1198.6000000000001</ele><time>2026-04-19T09:29:11.056Z</time></trkpt><trkpt lat="45.7683936" lon="7.4683626"><ele>1198.8</ele><time>2026-04-19T09:29:13.028Z</time></trkpt><trkpt lat="45.7683163" lon="7.4682946"><ele>1199.0</ele><time>2026-04-19T09:29:14.947Z</time></trkpt><trkpt lat="45.7682364" lon="7.4682521"><ele>1199.0</ele><time>2026-04-19T09:29:16.94Z</time></trkpt><trkpt lat="45.7681443" lon="7.4682297"><ele>1199.0</ele><time>2026-04-19T09:29:19.028Z</time></trkpt><trkpt lat="45.7680721" lon="7.4682246"><ele>1199.0</ele><time>2026-04-19T09:29:20.949Z</time></trkpt><trkpt lat="45.7679914" lon="7.4681664"><ele>1199.0</ele><time>2026-04-19T09:29:24.027Z</time></trkpt><trkpt lat="45.7679298" lon="7.4681405"><ele>1199.0</ele><time>2026-04-19T09:29:25.959Z</time></trkpt><trkpt lat="45.7678687" lon="7.4681116"><ele>1199.0</ele><time>2026-04-19T09:29:27.958Z</time></trkpt><trkpt lat="45.767789" lon="7.4680491"><ele>1199.0</ele><time>2026-04-19T09:29:30.954Z</time></trkpt><trkpt lat="45.7677129" lon="7.4680011"><ele>1199.0</ele><time>2026-04-19T09:29:34.028Z</time></trkpt><trkpt lat="45.767653" lon="7.467969"><ele>1199.0</ele><time>2026-04-19T09:29:35.946Z</time></trkpt><trkpt lat="45.7675676" lon="7.4679236"><ele>1199.0</ele><time>2026-04-19T09:29:38.945Z</time></trkpt><trkpt lat="45.7675055" lon="7.4679012"><ele>1199.0</ele><time>2026-04-19T09:29:40.947Z</time></trkpt><trkpt lat="45.7674282" lon="7.4678657"><ele>1199.0</ele><time>2026-04-19T09:29:43.952Z</time></trkpt><trkpt lat="45.7673417" lon="7.4678597"><ele>1197.0</ele><time>2026-04-19T09:29:46.951Z</time></trkpt><trkpt lat="45.7672798" lon="7.467839"><ele>1195.0</ele><time>2026-04-19T09:29:48.95Z</time></trkpt><trkpt lat="45.767191" lon="7.4678086"><ele>1193.0</ele><time>2026-04-19T09:29:52.026Z</time></trkpt><trkpt lat="45.7671262" lon="7.4677907"><ele>1191.0</ele><time>2026-04-19T09:29:53.948Z</time></trkpt><trkpt lat="45.7670555" lon="7.4677837"><ele>1189.0</ele><time>2026-04-19T09:29:55.95Z</time></trkpt><trkpt lat="45.7669889" lon="7.4677698"><ele>1187.0</ele><time>2026-04-19T09:29:57.952Z</time></trkpt><trkpt lat="45.766891" lon="7.4677717"><ele>1188.6666666666667</ele><time>2026-04-19T09:30:01.023Z</time></trkpt><trkpt lat="45.76682" lon="7.4677845"><ele>1190.3333333333335</ele><time>2026-04-19T09:30:03.026Z</time></trkpt><trkpt lat="45.7667526" lon="7.4678014"><ele>1192.0</ele><time>2026-04-19T09:30:04.961Z</time></trkpt><trkpt lat="45.7666819" lon="7.4678078"><ele>1193.6666666666667</ele><time>2026-04-19T09:30:06.957Z</time></trkpt><trkpt lat="45.7665907" lon="7.467816"><ele>1195.3333333333333</ele><time>2026-04-19T09:30:09.944Z</time></trkpt><trkpt lat="45.766502" lon="7.4678293"><ele>1197.0</ele><time>2026-04-19T09:30:13.036Z</time></trkpt><trkpt lat="45.7664116" lon="7.4678395"><ele>1197.0</ele><time>2026-04-19T09:30:15.947Z</time></trkpt><trkpt lat="45.7663275" lon="7.4678344"><ele>1197.0</ele><time>2026-04-19T09:30:18.945Z</time></trkpt><trkpt lat="45.7662491" lon="7.4678181"><ele>1197.0</ele><time>2026-04-19T09:30:21.977Z</time></trkpt><trkpt lat="45.7661761" lon="7.4677908"><ele>1197.0</ele><time>2026-04-19T09:30:24.946Z</time></trkpt><trkpt lat="45.7660997" lon="7.467769"><ele>1197.0</ele><time>2026-04-19T09:30:27.948Z</time></trkpt><trkpt lat="45.7660285" lon="7.4677602"><ele>1197.0</ele><time>2026-04-19T09:30:30.949Z</time></trkpt><trkpt lat="45.7659591" lon="7.4677681"><ele>1199.1666666666667</ele><time>2026-04-19T09:30:34.033Z</time></trkpt><trkpt lat="45.7658897" lon="7.467763"><ele>1201.3333333333333</ele><time>2026-04-19T09:30:36.941Z</time></trkpt><trkpt lat="45.765814" lon="7.4677589"><ele>1203.5</ele><time>2026-04-19T09:30:39.945Z</time></trkpt><trkpt lat="45.7657265" lon="7.4677484"><ele>1205.6666666666665</ele><time>2026-04-19T09:30:43.029Z</time></trkpt><trkpt lat="45.7656462" lon="7.4677339"><ele>1207.8333333333333</ele><time>2026-04-19T09:30:45.945Z</time></trkpt><trkpt lat="45.7655759" lon="7.4677231"><ele>1210.0</ele><time>2026-04-19T09:30:48.942Z</time></trkpt><trkpt lat="45.7655045" lon="7.4677196"><ele>1210.0</ele><time>2026-04-19T09:30:51.946Z</time></trkpt><trkpt lat="45.7654292" lon="7.4677163"><ele>1210.0</ele><time>2026-04-19T09:30:54.944Z</time></trkpt><trkpt lat="45.7653527" lon="7.4677108"><ele>1210.0</ele><time>2026-04-19T09:30:57.941Z</time></trkpt><trkpt lat="45.7652751" lon="7.4677127"><ele>1210.0</ele><time>2026-04-19T09:31:00.945Z</time></trkpt><trkpt lat="45.7651901" lon="7.4677073"><ele>1210.0</ele><time>2026-04-19T09:31:04.017Z</time></trkpt><trkpt lat="45.7651081" lon="7.4676989"><ele>1210.0</ele><time>2026-04-19T09:31:06.947Z</time></trkpt><trkpt lat="45.7650296" lon="7.4676909"><ele>1211.142857142857</ele><time>2026-04-19T09:31:09.942Z</time></trkpt><trkpt lat="45.7649614" lon="7.4676896"><ele>1212.2857142857142</ele><time>2026-04-19T09:31:12.944Z</time></trkpt><trkpt lat="45.764897" lon="7.4676917"><ele>1213.4285714285716</ele><time>2026-04-19T09:31:15.953Z</time></trkpt><trkpt lat="45.7648309" lon="7.4676965"><ele>1214.5714285714284</ele><time>2026-04-19T09:31:18.953Z</time></trkpt><trkpt lat="45.7647652" lon="7.467705"><ele>1215.7142857142858</ele><time>2026-04-19T09:31:22.031Z</time></trkpt><trkpt lat="45.764699" lon="7.4677167"><ele>1216.857142857143</ele><time>2026-04-19T09:31:24.944Z</time></trkpt><trkpt lat="45.764634" lon="7.4677267"><ele>1218.0</ele><time>2026-04-19T09:31:27.946Z</time></trkpt><trkpt lat="45.7645712" lon="7.4677433"><ele>1218.0</ele><time>2026-04-19T09:31:30.944Z</time></trkpt><trkpt lat="45.7645052" lon="7.4677555"><ele>1218.0</ele><time>2026-04-19T09:31:34.035Z</time></trkpt><trkpt lat="45.7644427" lon="7.4677694"><ele>1218.0</ele><time>2026-04-19T09:31:36.943Z</time></trkpt><trkpt lat="45.7643596" lon="7.4677848"><ele>1218.0</ele><time>2026-04-19T09:31:40.942Z</time></trkpt><trkpt lat="45.7642937" lon="7.4677979"><ele>1218.0</ele><time>2026-04-19T09:31:44.023Z</time></trkpt><trkpt lat="45.7642232" lon="7.4678106"><ele>1218.0</ele><time>2026-04-19T09:31:46.938Z</time></trkpt><trkpt lat="45.7641598" lon="7.4678193"><ele>1218.0</ele><time>2026-04-19T09:31:49.944Z</time></trkpt><trkpt lat="45.7640898" lon="7.4678322"><ele>1218.7142857142858</ele><time>2026-04-19T09:31:52.943Z</time></trkpt><trkpt lat="45.7640181" lon="7.4678363"><ele>1219.4285714285716</ele><time>2026-04-19T09:31:55.948Z</time></trkpt><trkpt lat="45.76395" lon="7.4678417"><ele>1220.142857142857</ele><time>2026-04-19T09:31:58.945Z</time></trkpt><trkpt lat="45.7638787" lon="7.4678441"><ele>1220.857142857143</ele><time>2026-04-19T09:32:02.02Z</time></trkpt><trkpt lat="45.7638079" lon="7.4678477"><ele>1221.5714285714287</ele><time>2026-04-19T09:32:04.949Z</time></trkpt><trkpt lat="45.7637349" lon="7.4678533"><ele>1222.2857142857142</ele><time>2026-04-19T09:32:07.946Z</time></trkpt><trkpt lat="45.7636648" lon="7.4678462"><ele>1223.0</ele><time>2026-04-19T09:32:10.945Z</time></trkpt><trkpt lat="45.7635926" lon="7.4678375"><ele>1224.142857142857</ele><time>2026-04-19T09:32:14.03Z</time></trkpt><trkpt lat="45.7635265" lon="7.4678248"><ele>1225.2857142857144</ele><time>2026-04-19T09:32:16.944Z</time></trkpt><trkpt lat="45.7634573" lon="7.4678116"><ele>1226.4285714285716</ele><time>2026-04-19T09:32:19.944Z</time></trkpt><trkpt lat="45.7633863" lon="7.467799"><ele>1227.5714285714284</ele><time>2026-04-19T09:32:22.946Z</time></trkpt><trkpt lat="45.7633159" lon="7.4677892"><ele>1228.7142857142858</ele><time>2026-04-19T09:32:25.948Z</time></trkpt><trkpt lat="45.7632463" lon="7.4677837"><ele>1229.857142857143</ele><time>2026-04-19T09:32:28.947Z</time></trkpt><trkpt lat="45.7631764" lon="7.4677883"><ele>1231.0</ele><time>2026-04-19T09:32:31.953Z</time></trkpt><trkpt lat="45.7631076" lon="7.4678015"><ele>1231.0</ele><time>2026-04-19T09:32:34.955Z</time></trkpt><trkpt lat="45.7630382" lon="7.4678156"><ele>1231.0</ele><time>2026-04-19T09:32:37.954Z</time></trkpt><trkpt lat="45.7629665" lon="7.467815"><ele>1231.0</ele><time>2026-04-19T09:32:40.957Z</time></trkpt><trkpt lat="45.7628968" lon="7.4678172"><ele>1231.0</ele><time>2026-04-19T09:32:44.031Z</time></trkpt><trkpt lat="45.7628254" lon="7.4678251"><ele>1231.0</ele><time>2026-04-19T09:32:46.942Z</time></trkpt><trkpt lat="45.7627563" lon="7.4678371"><ele>1231.0</ele><time>2026-04-19T09:32:49.947Z</time></trkpt><trkpt lat="45.7626849" lon="7.467857"><ele>1231.0</ele><time>2026-04-19T09:32:52.947Z</time></trkpt><trkpt lat="45.7626188" lon="7.467888"><ele>1231.0</ele><time>2026-04-19T09:32:55.951Z</time></trkpt><trkpt lat="45.7625492" lon="7.4679246"><ele>1231.0</ele><time>2026-04-19T09:32:58.953Z</time></trkpt><trkpt lat="45.762476" lon="7.4679663"><ele>1231.0</ele><time>2026-04-19T09:33:01.947Z</time></trkpt><trkpt lat="45.7624001" lon="7.4680109"><ele>1231.0</ele><time>2026-04-19T09:33:04.946Z</time></trkpt><trkpt lat="45.7623242" lon="7.4680452"><ele>1231.0</ele><time>2026-04-19T09:33:07.944Z</time></trkpt><trkpt lat="45.7622581" lon="7.4680895"><ele>1231.0</ele><time>2026-04-19T09:33:10.941Z</time></trkpt><trkpt lat="45.7621862" lon="7.4681258"><ele>1235.3333333333333</ele><time>2026-04-19T09:33:13.945Z</time></trkpt><trkpt lat="45.762114" lon="7.4681615"><ele>1239.6666666666665</ele><time>2026-04-19T09:33:17.062Z</time></trkpt><trkpt lat="45.7620536" lon="7.4682171"><ele>1244.0</ele><time>2026-04-19T09:33:19.943Z</time></trkpt><trkpt lat="45.7619986" lon="7.4683096"><ele>1248.3333333333333</ele><time>2026-04-19T09:33:22.955Z</time></trkpt><trkpt lat="45.7619622" lon="7.4684253"><ele>1252.6666666666667</ele><time>2026-04-19T09:33:26.027Z</time></trkpt><trkpt lat="45.7619314" lon="7.468519"><ele>1257.0</ele><time>2026-04-19T09:33:27.95Z</time></trkpt><trkpt lat="45.7618878" lon="7.468619"><ele>1255.4285714285716</ele><time>2026-04-19T09:33:29.947Z</time></trkpt><trkpt lat="45.7618448" lon="7.4687253"><ele>1253.857142857143</ele><time>2026-04-19T09:33:31.948Z</time></trkpt><trkpt lat="45.7617952" lon="7.4688167"><ele>1252.2857142857142</ele><time>2026-04-19T09:33:33.95Z</time></trkpt><trkpt lat="45.7617558" lon="7.4689101"><ele>1250.7142857142858</ele><time>2026-04-19T09:33:36.028Z</time></trkpt><trkpt lat="45.7617157" lon="7.4689872"><ele>1249.142857142857</ele><time>2026-04-19T09:33:37.945Z</time></trkpt><trkpt lat="45.7616785" lon="7.4690675"><ele>1247.5714285714287</ele><time>2026-04-19T09:33:39.945Z</time></trkpt><trkpt lat="45.7616461" lon="7.4691554"><ele>1246.0</ele><time>2026-04-19T09:33:41.948Z</time></trkpt><trkpt lat="45.7616074" lon="7.4692356"><ele>1246.0</ele><time>2026-04-19T09:33:44.038Z</time></trkpt><trkpt lat="45.7615731" lon="7.4693339"><ele>1246.0</ele><time>2026-04-19T09:33:45.946Z</time></trkpt><trkpt lat="45.7615429" lon="7.4694403"><ele>1246.0</ele><time>2026-04-19T09:33:47.947Z</time></trkpt><trkpt lat="45.7615163" lon="7.4695436"><ele>1246.0</ele><time>2026-04-19T09:33:49.948Z</time></trkpt><trkpt lat="45.7614909" lon="7.4696447"><ele>1246.0</ele><time>2026-04-19T09:33:51.94Z</time></trkpt><trkpt lat="45.7614644" lon="7.4697493"><ele>1246.0</ele><time>2026-04-19T09:33:53.944Z</time></trkpt><trkpt lat="45.7614183" lon="7.4698425"><ele>1246.8333333333333</ele><time>2026-04-19T09:33:56.051Z</time></trkpt><trkpt lat="45.7613524" lon="7.4699068"><ele>1247.6666666666665</ele><time>2026-04-19T09:33:57.947Z</time></trkpt><trkpt lat="45.7612725" lon="7.4699467"><ele>1248.5</ele><time>2026-04-19T09:33:59.944Z</time></trkpt><trkpt lat="45.7612068" lon="7.4700298"><ele>1249.3333333333333</ele><time>2026-04-19T09:34:01.942Z</time></trkpt><trkpt lat="45.7611991" lon="7.4701534"><ele>1250.1666666666667</ele><time>2026-04-19T09:34:04.029Z</time></trkpt><trkpt lat="45.761212" lon="7.4702699"><ele>1251.0</ele><time>2026-04-19T09:34:05.949Z</time></trkpt><trkpt lat="45.76122" lon="7.4703947"><ele>1252.5714285714284</ele><time>2026-04-19T09:34:08.948Z</time></trkpt><trkpt lat="45.7611764" lon="7.4705124"><ele>1254.1428571428573</ele><time>2026-04-19T09:34:12.027Z</time></trkpt><trkpt lat="45.7611398" lon="7.4705927"><ele>1255.7142857142858</ele><time>2026-04-19T09:34:13.943Z</time></trkpt><trkpt lat="45.7611049" lon="7.4706736"><ele>1257.2857142857142</ele><time>2026-04-19T09:34:15.948Z</time></trkpt><trkpt lat="45.7610651" lon="7.4707589"><ele>1258.8571428571427</ele><time>2026-04-19T09:34:17.949Z</time></trkpt><trkpt lat="45.7610342" lon="7.4708438"><ele>1260.4285714285716</ele><time>2026-04-19T09:34:19.946Z</time></trkpt><trkpt lat="45.761003" lon="7.4709477"><ele>1262.0</ele><time>2026-04-19T09:34:21.953Z</time></trkpt><trkpt lat="45.7609815" lon="7.4710532"><ele>1260.0</ele><time>2026-04-19T09:34:23.952Z</time></trkpt><trkpt lat="45.7609673" lon="7.4711683"><ele>1258.0</ele><time>2026-04-19T09:34:25.951Z</time></trkpt><trkpt lat="45.7609362" lon="7.4712658"><ele>1256.0</ele><time>2026-04-19T09:34:27.97Z</time></trkpt><trkpt lat="45.7608834" lon="7.4713184"><ele>1254.0</ele><time>2026-04-19T09:34:29.948Z</time></trkpt><trkpt lat="45.7608201" lon="7.4713649"><ele>1252.0</ele><time>2026-04-19T09:34:31.957Z</time></trkpt><trkpt lat="45.7607647" lon="7.4714162"><ele>1250.0</ele><time>2026-04-19T09:34:33.954Z</time></trkpt><trkpt lat="45.7607054" lon="7.4714546"><ele>1248.0</ele><time>2026-04-19T09:34:36.05Z</time></trkpt><trkpt lat="45.7606523" lon="7.4715032"><ele>1248.0</ele><time>2026-04-19T09:34:38.052Z</time></trkpt><trkpt lat="45.760573" lon="7.471571"><ele>1248.0</ele><time>2026-04-19T09:34:40.951Z</time></trkpt><trkpt lat="45.7605116" lon="7.4716026"><ele>1248.0</ele><time>2026-04-19T09:34:43.961Z</time></trkpt><trkpt lat="45.7604594" lon="7.4716647"><ele>1248.0</ele><time>2026-04-19T09:42:38.945Z</time></trkpt><trkpt lat="45.7603917" lon="7.4717174"><ele>1248.0</ele><time>2026-04-19T09:42:41.941Z</time></trkpt><trkpt lat="45.7603149" lon="7.4717815"><ele>1248.0</ele><time>2026-04-19T09:42:44.948Z</time></trkpt><trkpt lat="45.7602595" lon="7.471825"><ele>1247.5</ele><time>2026-04-19T09:42:46.948Z</time></trkpt><trkpt lat="45.7601811" lon="7.4718947"><ele>1247.0</ele><time>2026-04-19T09:42:49.946Z</time></trkpt><trkpt lat="45.7601306" lon="7.4719494"><ele>1246.5</ele><time>2026-04-19T09:42:51.946Z</time></trkpt><trkpt lat="45.7600564" lon="7.4720029"><ele>1246.0</ele><time>2026-04-19T09:42:54.948Z</time></trkpt><trkpt lat="45.7599712" lon="7.4720505"><ele>1245.5</ele><time>2026-04-19T09:42:57.945Z</time></trkpt><trkpt lat="45.7598994" lon="7.4721258"><ele>1245.0</ele><time>2026-04-19T09:43:00.95Z</time></trkpt><trkpt lat="45.7598511" lon="7.4722322"><ele>1245.0</ele><time>2026-04-19T09:43:03.943Z</time></trkpt><trkpt lat="45.7598349" lon="7.4723551"><ele>1245.0</ele><time>2026-04-19T09:43:06.952Z</time></trkpt><trkpt lat="45.7598061" lon="7.4724801"><ele>1245.0</ele><time>2026-04-19T09:43:09.947Z</time></trkpt><trkpt lat="45.7597575" lon="7.4725913"><ele>1245.0</ele><time>2026-04-19T09:43:12.943Z</time></trkpt><trkpt lat="45.7596979" lon="7.4726911"><ele>1245.0</ele><time>2026-04-19T09:43:15.948Z</time></trkpt><trkpt lat="45.7596342" lon="7.47278"><ele>1245.0</ele><time>2026-04-19T09:43:18.946Z</time></trkpt><trkpt lat="45.7595722" lon="7.4728709"><ele>1245.0</ele><time>2026-04-19T09:43:21.944Z</time></trkpt><trkpt lat="45.759506" lon="7.4729537"><ele>1245.0</ele><time>2026-04-19T09:43:24.948Z</time></trkpt><trkpt lat="45.7594311" lon="7.473031"><ele>1245.0</ele><time>2026-04-19T09:43:27.948Z</time></trkpt><trkpt lat="45.7593581" lon="7.4731136"><ele>1245.0</ele><time>2026-04-19T09:43:30.948Z</time></trkpt><trkpt lat="45.7592917" lon="7.4731915"><ele>1245.0</ele><time>2026-04-19T09:43:33.951Z</time></trkpt><trkpt lat="45.7592423" lon="7.4732863"><ele>1245.0</ele><time>2026-04-19T09:43:36.952Z</time></trkpt><trkpt lat="45.7592264" lon="7.473412"><ele>1245.0</ele><time>2026-04-19T09:43:39.955Z</time></trkpt><trkpt lat="45.7592245" lon="7.4735409"><ele>1245.0</ele><time>2026-04-19T09:43:42.946Z</time></trkpt><trkpt lat="45.7592431" lon="7.4736739"><ele>1245.0</ele><time>2026-04-19T09:43:45.95Z</time></trkpt><trkpt lat="45.7592736" lon="7.4738042"><ele>1245.0</ele><time>2026-04-19T09:43:48.954Z</time></trkpt><trkpt lat="45.7593001" lon="7.4738967"><ele>1245.0</ele><time>2026-04-19T09:43:50.945Z</time></trkpt><trkpt lat="45.7593262" lon="7.4739891"><ele>1244.7142857142858</ele><time>2026-04-19T09:43:52.95Z</time></trkpt><trkpt lat="45.7593563" lon="7.4740809"><ele>1244.4285714285716</ele><time>2026-04-19T09:43:54.954Z</time></trkpt><trkpt lat="45.7594008" lon="7.4741763"><ele>1244.1428571428573</ele><time>2026-04-19T09:43:56.953Z</time></trkpt><trkpt lat="45.7594482" lon="7.4742612"><ele>1243.857142857143</ele><time>2026-04-19T09:43:58.948Z</time></trkpt><trkpt lat="45.7594933" lon="7.4743378"><ele>1243.5714285714287</ele><time>2026-04-19T09:44:00.951Z</time></trkpt><trkpt lat="45.7595484" lon="7.474408"><ele>1243.2857142857144</ele><time>2026-04-19T09:44:02.951Z</time></trkpt><trkpt lat="45.759603" lon="7.4744732"><ele>1243.0</ele><time>2026-04-19T09:44:04.945Z</time></trkpt><trkpt lat="45.759651" lon="7.4745406"><ele>1245.0</ele><time>2026-04-19T09:44:06.953Z</time></trkpt><trkpt lat="45.7597128" lon="7.4745855"><ele>1247.0</ele><time>2026-04-19T09:44:08.953Z</time></trkpt><trkpt lat="45.7597845" lon="7.4745934"><ele>1249.0</ele><time>2026-04-19T09:44:10.948Z</time></trkpt><trkpt lat="45.7598592" lon="7.4746181"><ele>1251.0</ele><time>2026-04-19T09:44:12.951Z</time></trkpt><trkpt lat="45.7599603" lon="7.4746561"><ele>1253.0</ele><time>2026-04-19T09:44:14.949Z</time></trkpt><trkpt lat="45.760039" lon="7.4747811"><ele>1255.0</ele><time>2026-04-19T09:44:16.942Z</time></trkpt><trkpt lat="45.7600631" lon="7.4749531"><ele>1255.0</ele><time>2026-04-19T09:44:18.951Z</time></trkpt><trkpt lat="45.7600684" lon="7.4750497"><ele>1255.0</ele><time>2026-04-19T09:44:19.951Z</time></trkpt><trkpt lat="45.7600756" lon="7.4751483"><ele>1255.0</ele><time>2026-04-19T09:44:20.952Z</time></trkpt><trkpt lat="45.7600829" lon="7.475255"><ele>1255.0</ele><time>2026-04-19T09:44:21.95Z</time></trkpt><trkpt lat="45.7600914" lon="7.4753633"><ele>1255.0</ele><time>2026-04-19T09:44:22.956Z</time></trkpt><trkpt lat="45.7601052" lon="7.4754853"><ele>1255.0</ele><time>2026-04-19T09:44:23.948Z</time></trkpt><trkpt lat="45.760119" lon="7.4756076"><ele>1252.5</ele><time>2026-04-19T09:44:24.947Z</time></trkpt><trkpt lat="45.760134" lon="7.4757292"><ele>1250.0</ele><time>2026-04-19T09:44:25.949Z</time></trkpt><trkpt lat="45.7601558" lon="7.4758504"><ele>1247.5</ele><time>2026-04-19T09:44:26.952Z</time></trkpt><trkpt lat="45.7601795" lon="7.4759768"><ele>1245.0</ele><time>2026-04-19T09:44:27.943Z</time></trkpt><trkpt lat="45.7602125" lon="7.47609"><ele>1242.5</ele><time>2026-04-19T09:44:28.945Z</time></trkpt><trkpt lat="45.7602383" lon="7.4761943"><ele>1240.0</ele><time>2026-04-19T09:44:29.948Z</time></trkpt><trkpt lat="45.7602556" lon="7.4762922"><ele>1247.5</ele><time>2026-04-19T09:44:30.953Z</time></trkpt><trkpt lat="45.760249" lon="7.4763886"><ele>1255.0</ele><time>2026-04-19T09:44:31.946Z</time></trkpt><trkpt lat="45.7602301" lon="7.4764821"><ele>1262.5</ele><time>2026-04-19T09:44:32.95Z</time></trkpt><trkpt lat="45.7602245" lon="7.4765761"><ele>1270.0</ele><time>2026-04-19T09:44:33.945Z</time></trkpt><trkpt lat="45.7602226" lon="7.4766724"><ele>1277.5</ele><time>2026-04-19T09:44:34.948Z</time></trkpt><trkpt lat="45.7602566" lon="7.4768379"><ele>1285.0</ele><time>2026-04-19T09:44:36.945Z</time></trkpt><trkpt lat="45.7602887" lon="7.4769748"><ele>1283.0</ele><time>2026-04-19T09:44:38.951Z</time></trkpt><trkpt lat="45.7602853" lon="7.477126"><ele>1281.0</ele><time>2026-04-19T09:44:40.947Z</time></trkpt><trkpt lat="45.7603026" lon="7.4773017"><ele>1279.0</ele><time>2026-04-19T09:44:42.949Z</time></trkpt><trkpt lat="45.7603128" lon="7.4773999"><ele>1277.0</ele><time>2026-04-19T09:44:43.95Z</time></trkpt><trkpt lat="45.7603216" lon="7.4774993"><ele>1275.0</ele><time>2026-04-19T09:44:44.951Z</time></trkpt><trkpt lat="45.7603307" lon="7.4776113"><ele>1273.0</ele><time>2026-04-19T09:44:45.951Z</time></trkpt><trkpt lat="45.760342" lon="7.4777268"><ele>1273.0</ele><time>2026-04-19T09:44:46.953Z</time></trkpt><trkpt lat="45.7603597" lon="7.4778344"><ele>1273.0</ele><time>2026-04-19T09:44:47.949Z</time></trkpt><trkpt lat="45.7603851" lon="7.4779375"><ele>1273.0</ele><time>2026-04-19T09:44:48.947Z</time></trkpt><trkpt lat="45.7604027" lon="7.478036"><ele>1273.0</ele><time>2026-04-19T09:44:49.947Z</time></trkpt><trkpt lat="45.7604089" lon="7.4781393"><ele>1273.0</ele><time>2026-04-19T09:44:50.95Z</time></trkpt><trkpt lat="45.7604036" lon="7.4782411"><ele>1273.0</ele><time>2026-04-19T09:44:51.949Z</time></trkpt><trkpt lat="45.7603893" lon="7.4783388"><ele>1273.0</ele><time>2026-04-19T09:44:52.944Z</time></trkpt><trkpt lat="45.7603765" lon="7.4784381"><ele>1271.6666666666665</ele><time>2026-04-19T09:44:53.953Z</time></trkpt><trkpt lat="45.7603635" lon="7.4785368"><ele>1270.3333333333333</ele><time>2026-04-19T09:44:54.95Z</time></trkpt><trkpt lat="45.7603523" lon="7.4786329"><ele>1269.0</ele><time>2026-04-19T09:44:55.945Z</time></trkpt><trkpt lat="45.7603617" lon="7.478725"><ele>1267.6666666666667</ele><time>2026-04-19T09:44:56.955Z</time></trkpt><trkpt lat="45.7603813" lon="7.4788207"><ele>1266.3333333333335</ele><time>2026-04-19T09:44:57.951Z</time></trkpt><trkpt lat="45.7604087" lon="7.4789027"><ele>1265.0</ele><time>2026-04-19T09:44:58.953Z</time></trkpt><trkpt lat="45.760461" lon="7.4790492"><ele>1262.8333333333335</ele><time>2026-04-19T09:45:00.951Z</time></trkpt><trkpt lat="45.7605003" lon="7.479188"><ele>1260.6666666666667</ele><time>2026-04-19T09:45:02.948Z</time></trkpt><trkpt lat="45.7605274" lon="7.4793172"><ele>1258.5</ele><time>2026-04-19T09:45:04.951Z</time></trkpt><trkpt lat="45.7605551" lon="7.4794239"><ele>1256.3333333333333</ele><time>2026-04-19T09:45:06.951Z</time></trkpt><trkpt lat="45.7605773" lon="7.4795292"><ele>1254.1666666666665</ele><time>2026-04-19T09:45:08.952Z</time></trkpt><trkpt lat="45.7605916" lon="7.4796363"><ele>1252.0</ele><time>2026-04-19T09:45:10.951Z</time></trkpt><trkpt lat="45.7606085" lon="7.4797485"><ele>1251.0</ele><time>2026-04-19T09:45:12.953Z</time></trkpt><trkpt lat="45.7606182" lon="7.4798617"><ele>1250.0</ele><time>2026-04-19T09:45:14.95Z</time></trkpt><trkpt lat="45.7606326" lon="7.4799741"><ele>1249.0</ele><time>2026-04-19T09:45:16.957Z</time></trkpt><trkpt lat="45.7606596" lon="7.4800817"><ele>1248.0</ele><time>2026-04-19T09:45:18.947Z</time></trkpt><trkpt lat="45.7606795" lon="7.4801925"><ele>1247.0</ele><time>2026-04-19T09:45:20.947Z</time></trkpt><trkpt lat="45.7607043" lon="7.4802939"><ele>1246.0</ele><time>2026-04-19T09:45:22.956Z</time></trkpt><trkpt lat="45.7607295" lon="7.480395"><ele>1244.5</ele><time>2026-04-19T09:45:24.953Z</time></trkpt><trkpt lat="45.7607536" lon="7.4804991"><ele>1243.0</ele><time>2026-04-19T09:45:26.953Z</time></trkpt><trkpt lat="45.7607794" lon="7.4806079"><ele>1241.5</ele><time>2026-04-19T09:45:28.951Z</time></trkpt><trkpt lat="45.7607914" lon="7.4807184"><ele>1240.0</ele><time>2026-04-19T09:45:30.947Z</time></trkpt><trkpt lat="45.7608128" lon="7.4808387"><ele>1238.5</ele><time>2026-04-19T09:45:32.945Z</time></trkpt><trkpt lat="45.7608427" lon="7.4809469"><ele>1237.0</ele><time>2026-04-19T09:45:34.946Z</time></trkpt><trkpt lat="45.7608809" lon="7.4810564"><ele>1237.0</ele><time>2026-04-19T09:45:36.952Z</time></trkpt><trkpt lat="45.7609061" lon="7.481177"><ele>1237.0</ele><time>2026-04-19T09:45:38.949Z</time></trkpt><trkpt lat="45.7609201" lon="7.4812975"><ele>1237.0</ele><time>2026-04-19T09:45:40.947Z</time></trkpt><trkpt lat="45.7609327" lon="7.4814242"><ele>1237.0</ele><time>2026-04-19T09:45:42.95Z</time></trkpt><trkpt lat="45.7609408" lon="7.481546"><ele>1237.0</ele><time>2026-04-19T09:45:44.951Z</time></trkpt><trkpt lat="45.7609457" lon="7.4816831"><ele>1237.0</ele><time>2026-04-19T09:45:46.948Z</time></trkpt><trkpt lat="45.7609439" lon="7.4818226"><ele>1235.5</ele><time>2026-04-19T09:45:48.949Z</time></trkpt><trkpt lat="45.7609462" lon="7.4819716"><ele>1234.0</ele><time>2026-04-19T09:45:50.95Z</time></trkpt><trkpt lat="45.7609642" lon="7.4820987"><ele>1232.5</ele><time>2026-04-19T09:45:52.951Z</time></trkpt><trkpt lat="45.7609968" lon="7.4821979"><ele>1231.0</ele><time>2026-04-19T09:45:54.945Z</time></trkpt><trkpt lat="45.7610463" lon="7.4822563"><ele>1229.5</ele><time>2026-04-19T09:45:56.951Z</time></trkpt><trkpt lat="45.7610568" lon="7.4823869"><ele>1228.0</ele><time>2026-04-19T09:45:59.95Z</time></trkpt><trkpt lat="45.7610477" lon="7.4824784"><ele>1233.4</ele><time>2026-04-19T09:46:01.946Z</time></trkpt><trkpt lat="45.7610762" lon="7.4826105"><ele>1238.8</ele><time>2026-04-19T09:46:04.952Z</time></trkpt><trkpt lat="45.7611071" lon="7.4827029"><ele>1244.2</ele><time>2026-04-19T09:46:06.954Z</time></trkpt><trkpt lat="45.7611406" lon="7.4828064"><ele>1249.6</ele><time>2026-04-19T09:46:08.951Z</time></trkpt><trkpt lat="45.7611818" lon="7.4829392"><ele>1255.0</ele><time>2026-04-19T09:46:10.946Z</time></trkpt><trkpt lat="45.7612283" lon="7.4830944"><ele>1255.0</ele><time>2026-04-19T09:46:12.949Z</time></trkpt><trkpt lat="45.7612418" lon="7.4831907"><ele>1255.0</ele><time>2026-04-19T09:46:13.946Z</time></trkpt><trkpt lat="45.761251" lon="7.4833579"><ele>1255.0</ele><time>2026-04-19T09:46:15.951Z</time></trkpt><trkpt lat="45.7612472" lon="7.4835399"><ele>1255.0</ele><time>2026-04-19T09:46:17.95Z</time></trkpt><trkpt lat="45.7612441" lon="7.4836338"><ele>1255.0</ele><time>2026-04-19T09:46:18.946Z</time></trkpt><trkpt lat="45.7612454" lon="7.4837263"><ele>1255.0</ele><time>2026-04-19T09:46:19.952Z</time></trkpt><trkpt lat="45.7612632" lon="7.4838186"><ele>1253.0</ele><time>2026-04-19T09:46:20.952Z</time></trkpt><trkpt lat="45.7613174" lon="7.483963"><ele>1251.0</ele><time>2026-04-19T09:46:22.949Z</time></trkpt><trkpt lat="45.7613527" lon="7.4840961"><ele>1249.0</ele><time>2026-04-19T09:46:24.947Z</time></trkpt><trkpt lat="45.7613087" lon="7.484225"><ele>1247.0</ele><time>2026-04-19T09:46:26.948Z</time></trkpt><trkpt lat="45.7612442" lon="7.484349"><ele>1245.0</ele><time>2026-04-19T09:46:28.954Z</time></trkpt><trkpt lat="45.7611798" lon="7.484472"><ele>1243.2</ele><time>2026-04-19T09:46:30.95Z</time></trkpt><trkpt lat="45.7611508" lon="7.4846019"><ele>1241.4</ele><time>2026-04-19T09:46:32.954Z</time></trkpt><trkpt lat="45.7611367" lon="7.4847474"><ele>1239.6</ele><time>2026-04-19T09:46:34.95Z</time></trkpt><trkpt lat="45.7611483" lon="7.4848936"><ele>1237.8</ele><time>2026-04-19T09:46:36.947Z</time></trkpt><trkpt lat="45.7611628" lon="7.4850442"><ele>1236.0</ele><time>2026-04-19T09:46:38.957Z</time></trkpt><trkpt lat="45.7611918" lon="7.4851951"><ele>1236.0</ele><time>2026-04-19T09:46:40.951Z</time></trkpt><trkpt lat="45.7612497" lon="7.4853317"><ele>1236.0</ele><time>2026-04-19T09:46:42.953Z</time></trkpt><trkpt lat="45.7613335" lon="7.4854207"><ele>1236.0</ele><time>2026-04-19T09:46:44.951Z</time></trkpt><trkpt lat="45.7613589" lon="7.4855364"><ele>1236.0</ele><time>2026-04-19T09:46:46.947Z</time></trkpt><trkpt lat="45.7613237" lon="7.485671"><ele>1236.0</ele><time>2026-04-19T09:46:48.949Z</time></trkpt><trkpt lat="45.7612656" lon="7.485806"><ele>1236.3999999999999</ele><time>2026-04-19T09:46:50.947Z</time></trkpt><trkpt lat="45.7611965" lon="7.4859279"><ele>1236.8</ele><time>2026-04-19T09:46:52.946Z</time></trkpt><trkpt lat="45.7611428" lon="7.4860182"><ele>1237.1999999999998</ele><time>2026-04-19T09:46:54.946Z</time></trkpt><trkpt lat="45.7611199" lon="7.486134"><ele>1237.6</ele><time>2026-04-19T09:46:56.954Z</time></trkpt><trkpt lat="45.7611126" lon="7.4862856"><ele>1238.0</ele><time>2026-04-19T09:46:58.953Z</time></trkpt><trkpt lat="45.7611296" lon="7.4864628"><ele>1238.8333333333335</ele><time>2026-04-19T09:47:00.952Z</time></trkpt><trkpt lat="45.7611463" lon="7.4866439"><ele>1239.6666666666667</ele><time>2026-04-19T09:47:02.95Z</time></trkpt><trkpt lat="45.7611268" lon="7.486817"><ele>1240.5</ele><time>2026-04-19T09:47:04.949Z</time></trkpt><trkpt lat="45.7611013" lon="7.486904"><ele>1241.3333333333333</ele><time>2026-04-19T09:47:05.949Z</time></trkpt><trkpt lat="45.7610703" lon="7.48699"><ele>1242.1666666666665</ele><time>2026-04-19T09:47:06.946Z</time></trkpt><trkpt lat="45.7610449" lon="7.4870768"><ele>1243.0</ele><time>2026-04-19T09:47:07.947Z</time></trkpt><trkpt lat="45.7610339" lon="7.4871804"><ele>1243.0</ele><time>2026-04-19T09:47:08.944Z</time></trkpt><trkpt lat="45.7610328" lon="7.4872871"><ele>1243.0</ele><time>2026-04-19T09:47:09.955Z</time></trkpt><trkpt lat="45.7610199" lon="7.4873911"><ele>1243.0</ele><time>2026-04-19T09:47:10.948Z</time></trkpt><trkpt lat="45.7610088" lon="7.4874903"><ele>1243.0</ele><time>2026-04-19T09:47:11.951Z</time></trkpt><trkpt lat="45.7609984" lon="7.487586"><ele>1243.0</ele><time>2026-04-19T09:47:12.95Z</time></trkpt><trkpt lat="45.7609963" lon="7.4876772"><ele>1243.0</ele><time>2026-04-19T09:47:13.95Z</time></trkpt><trkpt lat="45.7609875" lon="7.487858"><ele>1233.3333333333333</ele><time>2026-04-19T09:47:15.952Z</time></trkpt><trkpt lat="45.7609826" lon="7.4879487"><ele>1223.6666666666665</ele><time>2026-04-19T09:47:16.945Z</time></trkpt><trkpt lat="45.7609793" lon="7.4880485"><ele>1214.0</ele><time>2026-04-19T09:47:17.949Z</time></trkpt><trkpt lat="45.7609781" lon="7.4881464"><ele>1204.3333333333333</ele><time>2026-04-19T09:47:18.95Z</time></trkpt><trkpt lat="45.7609745" lon="7.4882428"><ele>1194.6666666666667</ele><time>2026-04-19T09:47:19.953Z</time></trkpt><trkpt lat="45.7609787" lon="7.4883349"><ele>1185.0</ele><time>2026-04-19T09:47:20.954Z</time></trkpt><trkpt lat="45.7609686" lon="7.4885084"><ele>1185.0</ele><time>2026-04-19T09:47:22.949Z</time></trkpt><trkpt lat="45.7609069" lon="7.4886469"><ele>1185.0</ele><time>2026-04-19T09:47:24.954Z</time></trkpt><trkpt lat="45.7608549" lon="7.4886989"><ele>1185.0</ele><time>2026-04-19T09:47:25.951Z</time></trkpt><trkpt lat="45.760755" lon="7.4888035"><ele>1185.0</ele><time>2026-04-19T09:47:27.952Z</time></trkpt><trkpt lat="45.7607067" lon="7.4888798"><ele>1185.0</ele><time>2026-04-19T09:47:28.953Z</time></trkpt><trkpt lat="45.760674" lon="7.4889763"><ele>1185.0</ele><time>2026-04-19T09:47:29.949Z</time></trkpt><trkpt lat="45.7606472" lon="7.4890753"><ele>1184.8333333333333</ele><time>2026-04-19T09:47:30.95Z</time></trkpt><trkpt lat="45.7606298" lon="7.4891707"><ele>1184.6666666666667</ele><time>2026-04-19T09:47:31.95Z</time></trkpt><trkpt lat="45.7605974" lon="7.4893403"><ele>1184.5</ele><time>2026-04-19T09:47:33.951Z</time></trkpt><trkpt lat="45.7605944" lon="7.4894314"><ele>1184.3333333333335</ele><time>2026-04-19T09:47:34.952Z</time></trkpt><trkpt lat="45.7606142" lon="7.489608"><ele>1184.1666666666667</ele><time>2026-04-19T09:47:36.946Z</time></trkpt><trkpt lat="45.7606379" lon="7.489696"><ele>1184.0</ele><time>2026-04-19T09:47:37.949Z</time></trkpt><trkpt lat="45.7606862" lon="7.4898564"><ele>1184.0</ele><time>2026-04-19T09:47:39.947Z</time></trkpt><trkpt lat="45.760734" lon="7.4899983"><ele>1184.0</ele><time>2026-04-19T09:47:41.949Z</time></trkpt><trkpt lat="45.7607065" lon="7.4901332"><ele>1184.0</ele><time>2026-04-19T09:47:43.947Z</time></trkpt><trkpt lat="45.7606246" lon="7.4902599"><ele>1184.0</ele><time>2026-04-19T09:47:45.947Z</time></trkpt><trkpt lat="45.7605762" lon="7.4903204"><ele>1184.0</ele><time>2026-04-19T09:47:46.945Z</time></trkpt><trkpt lat="45.7604987" lon="7.4904534"><ele>1184.5</ele><time>2026-04-19T09:47:48.95Z</time></trkpt><trkpt lat="45.7604457" lon="7.4906078"><ele>1185.0</ele><time>2026-04-19T09:47:50.95Z</time></trkpt><trkpt lat="45.7604301" lon="7.4906981"><ele>1185.5</ele><time>2026-04-19T09:47:51.947Z</time></trkpt><trkpt lat="45.760414" lon="7.4908712"><ele>1186.0</ele><time>2026-04-19T09:47:53.95Z</time></trkpt><trkpt lat="45.7604031" lon="7.4909614"><ele>1186.5</ele><time>2026-04-19T09:47:54.955Z</time></trkpt><trkpt lat="45.7603949" lon="7.4910525"><ele>1187.0</ele><time>2026-04-19T09:47:55.947Z</time></trkpt><trkpt lat="45.7603839" lon="7.491142"><ele>1187.0</ele><time>2026-04-19T09:47:56.954Z</time></trkpt><trkpt lat="45.7603822" lon="7.4912372"><ele>1187.0</ele><time>2026-04-19T09:47:57.952Z</time></trkpt><trkpt lat="45.760385" lon="7.4913354"><ele>1187.0</ele><time>2026-04-19T09:47:58.945Z</time></trkpt><trkpt lat="45.7603915" lon="7.491429"><ele>1187.0</ele><time>2026-04-19T09:47:59.95Z</time></trkpt><trkpt lat="45.760421" lon="7.4916011"><ele>1187.0</ele><time>2026-04-19T09:48:01.952Z</time></trkpt><trkpt lat="45.7604413" lon="7.491743"><ele>1187.0</ele><time>2026-04-19T09:48:03.949Z</time></trkpt><trkpt lat="45.7604526" lon="7.4918618"><ele>1187.8</ele><time>2026-04-19T09:48:05.949Z</time></trkpt><trkpt lat="45.7604253" lon="7.4919658"><ele>1188.6</ele><time>2026-04-19T09:48:07.945Z</time></trkpt><trkpt lat="45.7604034" lon="7.4920821"><ele>1189.3999999999999</ele><time>2026-04-19T09:48:09.95Z</time></trkpt><trkpt lat="45.7603933" lon="7.4922148"><ele>1190.2</ele><time>2026-04-19T09:48:11.949Z</time></trkpt><trkpt lat="45.7603837" lon="7.4923661"><ele>1191.0</ele><time>2026-04-19T09:48:13.945Z</time></trkpt><trkpt lat="45.7603525" lon="7.4925195"><ele>1191.2</ele><time>2026-04-19T09:48:15.951Z</time></trkpt><trkpt lat="45.7602819" lon="7.4926385"><ele>1191.3999999999999</ele><time>2026-04-19T09:48:17.954Z</time></trkpt><trkpt lat="45.7602223" lon="7.4926813"><ele>1191.6</ele><time>2026-04-19T09:48:18.949Z</time></trkpt><trkpt lat="45.760103" lon="7.4927545"><ele>1191.8</ele><time>2026-04-19T09:48:20.948Z</time></trkpt><trkpt lat="45.7600436" lon="7.4927844"><ele>1192.0</ele><time>2026-04-19T09:48:21.95Z</time></trkpt><trkpt lat="45.7599401" lon="7.4928744"><ele>1185.0</ele><time>2026-04-19T09:48:23.947Z</time></trkpt><trkpt lat="45.7598606" lon="7.4929976"><ele>1178.0</ele><time>2026-04-19T09:48:25.943Z</time></trkpt><trkpt lat="45.7598104" lon="7.4931652"><ele>1171.0</ele><time>2026-04-19T09:48:27.954Z</time></trkpt><trkpt lat="45.7597969" lon="7.4933431"><ele>1164.0</ele><time>2026-04-19T09:48:29.944Z</time></trkpt><trkpt lat="45.759805" lon="7.4935006"><ele>1164.0</ele><time>2026-04-19T09:48:31.947Z</time></trkpt><trkpt lat="45.7598263" lon="7.4936686"><ele>1164.0</ele><time>2026-04-19T09:48:33.946Z</time></trkpt><trkpt lat="45.7598582" lon="7.4938409"><ele>1164.0</ele><time>2026-04-19T09:48:35.953Z</time></trkpt><trkpt lat="45.7598634" lon="7.4939347"><ele>1164.0</ele><time>2026-04-19T09:48:36.945Z</time></trkpt><trkpt lat="45.7598755" lon="7.4941103"><ele>1164.0</ele><time>2026-04-19T09:48:38.947Z</time></trkpt><trkpt lat="45.7598821" lon="7.494209"><ele>1163.6666666666667</ele><time>2026-04-19T09:48:39.953Z</time></trkpt><trkpt lat="45.7598941" lon="7.4943004"><ele>1163.3333333333333</ele><time>2026-04-19T09:48:40.953Z</time></trkpt><trkpt lat="45.7599302" lon="7.4944519"><ele>1163.0</ele><time>2026-04-19T09:48:42.949Z</time></trkpt><trkpt lat="45.7599707" lon="7.4945605"><ele>1162.6666666666665</ele><time>2026-04-19T09:48:44.943Z</time></trkpt><trkpt lat="45.7598835" lon="7.4946246"><ele>1162.3333333333333</ele><time>2026-04-19T09:48:47.946Z</time></trkpt><trkpt lat="45.7598409" lon="7.4945136"><ele>1162.0</ele><time>2026-04-19T09:48:49.949Z</time></trkpt><trkpt lat="45.7598065" lon="7.4943746"><ele>1162.0</ele><time>2026-04-19T09:48:51.953Z</time></trkpt><trkpt lat="45.7597826" lon="7.4942258"><ele>1162.0</ele><time>2026-04-19T09:48:53.954Z</time></trkpt><trkpt lat="45.759727" lon="7.4940763"><ele>1162.0</ele><time>2026-04-19T09:48:55.953Z</time></trkpt><trkpt lat="45.7596849" lon="7.493992"><ele>1162.0</ele><time>2026-04-19T09:48:56.946Z</time></trkpt><trkpt lat="45.7596404" lon="7.4939147"><ele>1162.0</ele><time>2026-04-19T09:48:57.956Z</time></trkpt><trkpt lat="45.7595957" lon="7.4938354"><ele>1162.0</ele><time>2026-04-19T09:48:58.952Z</time></trkpt><trkpt lat="45.7595512" lon="7.4937622"><ele>1162.2857142857142</ele><time>2026-04-19T09:48:59.949Z</time></trkpt><trkpt lat="45.7595072" lon="7.4936855"><ele>1162.5714285714284</ele><time>2026-04-19T09:49:00.958Z</time></trkpt><trkpt lat="45.7594697" lon="7.4936034"><ele>1162.857142857143</ele><time>2026-04-19T09:49:01.952Z</time></trkpt><trkpt lat="45.7594329" lon="7.4935232"><ele>1163.142857142857</ele><time>2026-04-19T09:49:02.951Z</time></trkpt><trkpt lat="45.7593955" lon="7.4934405"><ele>1163.4285714285713</ele><time>2026-04-19T09:49:03.953Z</time></trkpt><trkpt lat="45.7593617" lon="7.4933566"><ele>1163.7142857142858</ele><time>2026-04-19T09:49:04.951Z</time></trkpt><trkpt lat="45.7593289" lon="7.4932642"><ele>1164.0</ele><time>2026-04-19T09:49:05.949Z</time></trkpt><trkpt lat="45.7593091" lon="7.4931708"><ele>1162.8333333333333</ele><time>2026-04-19T09:49:06.944Z</time></trkpt><trkpt lat="45.7593128" lon="7.4930583"><ele>1161.6666666666667</ele><time>2026-04-19T09:49:07.953Z</time></trkpt><trkpt lat="45.7593188" lon="7.4929474"><ele>1160.5</ele><time>2026-04-19T09:49:08.948Z</time></trkpt><trkpt lat="45.7593364" lon="7.4928322"><ele>1159.3333333333335</ele><time>2026-04-19T09:49:09.957Z</time></trkpt><trkpt lat="45.7593607" lon="7.4927269"><ele>1158.1666666666667</ele><time>2026-04-19T09:49:10.95Z</time></trkpt><trkpt lat="45.7593834" lon="7.4926398"><ele>1157.0</ele><time>2026-04-19T09:49:11.946Z</time></trkpt><trkpt lat="45.7594533" lon="7.492489"><ele>1157.0</ele><time>2026-04-19T09:49:13.944Z</time></trkpt><trkpt lat="45.7594948" lon="7.4924009"><ele>1157.0</ele><time>2026-04-19T09:49:14.952Z</time></trkpt><trkpt lat="45.7595175" lon="7.4922917"><ele>1157.0</ele><time>2026-04-19T09:49:15.945Z</time></trkpt><trkpt lat="45.7595139" lon="7.4921794"><ele>1157.0</ele><time>2026-04-19T09:49:16.95Z</time></trkpt><trkpt lat="45.7595049" lon="7.4920766"><ele>1157.0</ele><time>2026-04-19T09:49:17.949Z</time></trkpt><trkpt lat="45.7594713" lon="7.4919302"><ele>1157.0</ele><time>2026-04-19T09:49:19.949Z</time></trkpt><trkpt lat="45.7593976" lon="7.4919255"><ele>1157.0</ele><time>2026-04-19T09:49:21.942Z</time></trkpt><trkpt lat="45.7593762" lon="7.4920478"><ele>1157.0</ele><time>2026-04-19T09:49:23.949Z</time></trkpt><trkpt lat="45.7593857" lon="7.492228"><ele>1157.0</ele><time>2026-04-19T09:49:25.955Z</time></trkpt><trkpt lat="45.7593552" lon="7.4923155"><ele>1157.0</ele><time>2026-04-19T09:49:26.962Z</time></trkpt><trkpt lat="45.7593014" lon="7.4923879"><ele>1157.0</ele><time>2026-04-19T09:49:27.95Z</time></trkpt><trkpt lat="45.7592432" lon="7.4924249"><ele>1157.0</ele><time>2026-04-19T09:49:28.954Z</time></trkpt><trkpt lat="45.7591342" lon="7.4924893"><ele>1151.3333333333335</ele><time>2026-04-19T09:49:30.951Z</time></trkpt><trkpt lat="45.7590874" lon="7.4926239"><ele>1145.6666666666667</ele><time>2026-04-19T09:49:32.95Z</time></trkpt><trkpt lat="45.7590724" lon="7.492734"><ele>1140.0</ele><time>2026-04-19T09:49:33.949Z</time></trkpt><trkpt lat="45.759068" lon="7.4928442"><ele>1134.3333333333333</ele><time>2026-04-19T09:49:34.948Z</time></trkpt><trkpt lat="45.7590631" lon="7.4929968"><ele>1128.6666666666665</ele><time>2026-04-19T09:49:36.943Z</time></trkpt><trkpt lat="45.7589858" lon="7.4930011"><ele>1123.0</ele><time>2026-04-19T09:49:39.951Z</time></trkpt><trkpt lat="45.7589821" lon="7.4929082"><ele>1122.8</ele><time>2026-04-19T09:49:40.949Z</time></trkpt><trkpt lat="45.7589805" lon="7.4927412"><ele>1122.6</ele><time>2026-04-19T09:49:42.947Z</time></trkpt><trkpt lat="45.7589583" lon="7.4926555"><ele>1122.4</ele><time>2026-04-19T09:49:43.949Z</time></trkpt><trkpt lat="45.7589329" lon="7.4925712"><ele>1122.2</ele><time>2026-04-19T09:49:44.95Z</time></trkpt><trkpt lat="45.7589395" lon="7.4924181"><ele>1122.0</ele><time>2026-04-19T09:49:46.943Z</time></trkpt><trkpt lat="45.7590331" lon="7.4922993"><ele>1122.0</ele><time>2026-04-19T09:49:48.942Z</time></trkpt><trkpt lat="45.7590842" lon="7.4922333"><ele>1122.0</ele><time>2026-04-19T09:49:49.947Z</time></trkpt><trkpt lat="45.7591142" lon="7.4921409"><ele>1122.0</ele><time>2026-04-19T09:49:50.948Z</time></trkpt><trkpt lat="45.7591085" lon="7.4920381"><ele>1122.0</ele><time>2026-04-19T09:49:51.952Z</time></trkpt><trkpt lat="45.7590916" lon="7.4919415"><ele>1122.0</ele><time>2026-04-19T09:49:52.947Z</time></trkpt><trkpt lat="45.7590739" lon="7.4918488"><ele>1122.0</ele><time>2026-04-19T09:49:53.953Z</time></trkpt><trkpt lat="45.7590735" lon="7.4917534"><ele>1122.0</ele><time>2026-04-19T09:49:54.944Z</time></trkpt><trkpt lat="45.7590812" lon="7.4916536"><ele>1120.6666666666667</ele><time>2026-04-19T09:49:55.946Z</time></trkpt><trkpt lat="45.7591009" lon="7.4915486"><ele>1119.3333333333333</ele><time>2026-04-19T09:49:56.948Z</time></trkpt><trkpt lat="45.759122" lon="7.4914597"><ele>1118.0</ele><time>2026-04-19T09:49:57.952Z</time></trkpt><trkpt lat="45.7591271" lon="7.4913348"><ele>1116.6666666666665</ele><time>2026-04-19T09:49:59.945Z</time></trkpt><trkpt lat="45.7590387" lon="7.4913356"><ele>1115.3333333333333</ele><time>2026-04-19T09:50:01.947Z</time></trkpt><trkpt lat="45.7590034" lon="7.491467"><ele>1114.0</ele><time>2026-04-19T09:50:03.949Z</time></trkpt><trkpt lat="45.758963" lon="7.4916311"><ele>1114.0</ele><time>2026-04-19T09:50:05.946Z</time></trkpt><trkpt lat="45.7588827" lon="7.4917744"><ele>1114.0</ele><time>2026-04-19T09:50:07.949Z</time></trkpt><trkpt lat="45.7587953" lon="7.4919095"><ele>1114.0</ele><time>2026-04-19T09:50:09.951Z</time></trkpt><trkpt lat="45.7586915" lon="7.4920025"><ele>1114.0</ele><time>2026-04-19T09:50:11.95Z</time></trkpt><trkpt lat="45.7586294" lon="7.4920309"><ele>1114.0</ele><time>2026-04-19T09:50:12.947Z</time></trkpt><trkpt lat="45.7585677" lon="7.4920512"><ele>1107.6000000000001</ele><time>2026-04-19T09:50:13.948Z</time></trkpt><trkpt lat="45.7584661" lon="7.49211"><ele>1101.2</ele><time>2026-04-19T09:50:15.947Z</time></trkpt><trkpt lat="45.7584342" lon="7.4922571"><ele>1094.8000000000002</ele><time>2026-04-19T09:50:17.947Z</time></trkpt><trkpt lat="45.7584516" lon="7.4923496"><ele>1088.4</ele><time>2026-04-19T09:50:18.945Z</time></trkpt><trkpt lat="45.7584917" lon="7.4924938"><ele>1082.0</ele><time>2026-04-19T09:50:20.955Z</time></trkpt><trkpt lat="45.7584418" lon="7.4925668"><ele>1082.0</ele><time>2026-04-19T09:50:22.95Z</time></trkpt><trkpt lat="45.7583817" lon="7.4924542"><ele>1082.0</ele><time>2026-04-19T09:50:24.949Z</time></trkpt><trkpt lat="45.7583674" lon="7.4922936"><ele>1082.0</ele><time>2026-04-19T09:50:26.956Z</time></trkpt><trkpt lat="45.7582969" lon="7.4921644"><ele>1082.0</ele><time>2026-04-19T09:50:28.945Z</time></trkpt><trkpt lat="45.7582377" lon="7.4920678"><ele>1082.0</ele><time>2026-04-19T09:50:30.95Z</time></trkpt><trkpt lat="45.7582395" lon="7.4919248"><ele>1080.5</ele><time>2026-04-19T09:50:32.95Z</time></trkpt><trkpt lat="45.7582986" lon="7.4918751"><ele>1079.0</ele><time>2026-04-19T09:50:33.953Z</time></trkpt><trkpt lat="45.7583693" lon="7.4918328"><ele>1077.5</ele><time>2026-04-19T09:50:34.948Z</time></trkpt><trkpt lat="45.7584311" lon="7.4917751"><ele>1076.0</ele><time>2026-04-19T09:50:35.951Z</time></trkpt><trkpt lat="45.7584873" lon="7.4917081"><ele>1074.5</ele><time>2026-04-19T09:50:36.947Z</time></trkpt><trkpt lat="45.7585322" lon="7.4916133"><ele>1073.0</ele><time>2026-04-19T09:50:37.948Z</time></trkpt><trkpt lat="45.7585727" lon="7.4915108"><ele>1071.3333333333335</ele><time>2026-04-19T09:50:38.949Z</time></trkpt><trkpt lat="45.7586058" lon="7.4914085"><ele>1069.6666666666667</ele><time>2026-04-19T09:50:39.944Z</time></trkpt><trkpt lat="45.7586163" lon="7.4913002"><ele>1068.0</ele><time>2026-04-19T09:50:40.953Z</time></trkpt><trkpt lat="45.7585992" lon="7.4911877"><ele>1066.3333333333333</ele><time>2026-04-19T09:50:41.945Z</time></trkpt><trkpt lat="45.7585676" lon="7.4910642"><ele>1064.6666666666665</ele><time>2026-04-19T09:50:42.951Z</time></trkpt><trkpt lat="45.7585236" lon="7.4909359"><ele>1063.0</ele><time>2026-04-19T09:50:43.944Z</time></trkpt><trkpt lat="45.7584845" lon="7.4908124"><ele>1063.0</ele><time>2026-04-19T09:50:44.942Z</time></trkpt><trkpt lat="45.7584543" lon="7.4906697"><ele>1063.0</ele><time>2026-04-19T09:50:45.946Z</time></trkpt><trkpt lat="45.758438" lon="7.4905175"><ele>1063.0</ele><time>2026-04-19T09:50:46.945Z</time></trkpt><trkpt lat="45.75843" lon="7.4903651"><ele>1063.0</ele><time>2026-04-19T09:50:47.945Z</time></trkpt><trkpt lat="45.7584076" lon="7.4902236"><ele>1063.0</ele><time>2026-04-19T09:50:48.95Z</time></trkpt><trkpt lat="45.7583837" lon="7.4901102"><ele>1063.2857142857142</ele><time>2026-04-19T09:50:49.945Z</time></trkpt><trkpt lat="45.7583528" lon="7.4900079"><ele>1063.5714285714287</ele><time>2026-04-19T09:50:50.95Z</time></trkpt><trkpt lat="45.7583198" lon="7.489917"><ele>1063.857142857143</ele><time>2026-04-19T09:50:51.944Z</time></trkpt><trkpt lat="45.7582997" lon="7.4898303"><ele>1064.142857142857</ele><time>2026-04-19T09:50:52.948Z</time></trkpt><trkpt lat="45.7582894" lon="7.4897401"><ele>1064.4285714285713</ele><time>2026-04-19T09:50:53.947Z</time></trkpt><trkpt lat="45.7582867" lon="7.4896397"><ele>1064.7142857142858</ele><time>2026-04-19T09:50:54.951Z</time></trkpt><trkpt lat="45.758292" lon="7.4895276"><ele>1065.0</ele><time>2026-04-19T09:50:55.947Z</time></trkpt><trkpt lat="45.7583014" lon="7.4894089"><ele>1065.1666666666667</ele><time>2026-04-19T09:50:56.951Z</time></trkpt><trkpt lat="45.75831" lon="7.4892978"><ele>1065.3333333333333</ele><time>2026-04-19T09:50:57.956Z</time></trkpt><trkpt lat="45.7583161" lon="7.4891931"><ele>1065.5</ele><time>2026-04-19T09:50:58.945Z</time></trkpt><trkpt lat="45.7583102" lon="7.4890966"><ele>1065.6666666666665</ele><time>2026-04-19T09:50:59.953Z</time></trkpt><trkpt lat="45.7582931" lon="7.4889985"><ele>1065.8333333333333</ele><time>2026-04-19T09:51:00.947Z</time></trkpt><trkpt lat="45.7582661" lon="7.4889146"><ele>1066.0</ele><time>2026-04-19T09:51:01.945Z</time></trkpt><trkpt lat="45.7582416" lon="7.4887781"><ele>1066.0</ele><time>2026-04-19T09:51:03.952Z</time></trkpt><trkpt lat="45.7582453" lon="7.4886709"><ele>1066.0</ele><time>2026-04-19T09:51:05.947Z</time></trkpt><trkpt lat="45.7582586" lon="7.4885655"><ele>1066.0</ele><time>2026-04-19T09:51:07.948Z</time></trkpt><trkpt lat="45.75824" lon="7.4884524"><ele>1066.0</ele><time>2026-04-19T09:51:09.954Z</time></trkpt><trkpt lat="45.7582033" lon="7.488343"><ele>1066.0</ele><time>2026-04-19T09:51:11.947Z</time></trkpt><trkpt lat="45.7581827" lon="7.4881769"><ele>1066.0</ele><time>2026-04-19T09:51:13.946Z</time></trkpt><trkpt lat="45.7581622" lon="7.4880889"><ele>1066.0</ele><time>2026-04-19T09:51:14.948Z</time></trkpt><trkpt lat="45.7581538" lon="7.4879937"><ele>1066.0</ele><time>2026-04-19T09:51:15.951Z</time></trkpt><trkpt lat="45.7581459" lon="7.4879005"><ele>1066.0</ele><time>2026-04-19T09:51:16.952Z</time></trkpt><trkpt lat="45.7581349" lon="7.4877388"><ele>1066.0</ele><time>2026-04-19T09:51:18.945Z</time></trkpt><trkpt lat="45.758123" lon="7.4875975"><ele>1066.0</ele><time>2026-04-19T09:51:20.95Z</time></trkpt><trkpt lat="45.7580984" lon="7.4874872"><ele>1066.0</ele><time>2026-04-19T09:51:22.946Z</time></trkpt><trkpt lat="45.7580683" lon="7.4873897"><ele>1067.0</ele><time>2026-04-19T09:51:24.946Z</time></trkpt><trkpt lat="45.7580354" lon="7.4872819"><ele>1068.0</ele><time>2026-04-19T09:51:26.951Z</time></trkpt><trkpt lat="45.7579991" lon="7.487183"><ele>1069.0</ele><time>2026-04-19T09:51:28.946Z</time></trkpt><trkpt lat="45.7579633" lon="7.4871085"><ele>1070.0</ele><time>2026-04-19T09:51:30.947Z</time></trkpt><trkpt lat="45.7579029" lon="7.4870201"><ele>1071.0</ele><time>2026-04-19T09:51:33.945Z</time></trkpt><trkpt lat="45.7578757" lon="7.4869354"><ele>1072.0</ele><time>2026-04-19T09:51:35.945Z</time></trkpt><trkpt lat="45.7578552" lon="7.4868223"><ele>1073.5</ele><time>2026-04-19T09:51:37.95Z</time></trkpt><trkpt lat="45.7578504" lon="7.4867008"><ele>1075.0</ele><time>2026-04-19T09:51:39.951Z</time></trkpt><trkpt lat="45.7578567" lon="7.4865777"><ele>1076.5</ele><time>2026-04-19T09:51:41.947Z</time></trkpt><trkpt lat="45.7578711" lon="7.486457"><ele>1078.0</ele><time>2026-04-19T09:51:43.942Z</time></trkpt><trkpt lat="45.7578994" lon="7.4863468"><ele>1079.5</ele><time>2026-04-19T09:51:45.948Z</time></trkpt><trkpt lat="45.7579296" lon="7.4862494"><ele>1081.0</ele><time>2026-04-19T09:51:47.944Z</time></trkpt><trkpt lat="45.7579478" lon="7.4861527"><ele>1081.3333333333333</ele><time>2026-04-19T09:51:49.949Z</time></trkpt><trkpt lat="45.7579605" lon="7.4860413"><ele>1081.6666666666665</ele><time>2026-04-19T09:51:51.953Z</time></trkpt><trkpt lat="45.7579204" lon="7.4859254"><ele>1082.0</ele><time>2026-04-19T09:51:53.948Z</time></trkpt><trkpt lat="45.7578586" lon="7.4858543"><ele>1082.3333333333333</ele><time>2026-04-19T09:51:56.022Z</time></trkpt><trkpt lat="45.7577899" lon="7.4857724"><ele>1082.6666666666667</ele><time>2026-04-19T09:51:57.959Z</time></trkpt><trkpt lat="45.7577282" lon="7.485699"><ele>1083.0</ele><time>2026-04-19T09:51:59.955Z</time></trkpt><trkpt lat="45.7576869" lon="7.4855986"><ele>1077.1666666666667</ele><time>2026-04-19T09:52:01.965Z</time></trkpt><trkpt lat="45.7576629" lon="7.4854842"><ele>1071.3333333333333</ele><time>2026-04-19T09:52:03.972Z</time></trkpt><trkpt lat="45.7576348" lon="7.4853685"><ele>1065.5</ele><time>2026-04-19T09:52:06.028Z</time></trkpt><trkpt lat="45.7576222" lon="7.4852605"><ele>1059.6666666666665</ele><time>2026-04-19T09:52:07.961Z</time></trkpt><trkpt lat="45.7576085" lon="7.4851368"><ele>1053.8333333333333</ele><time>2026-04-19T09:52:09.961Z</time></trkpt><trkpt lat="45.7576121" lon="7.4850185"><ele>1048.0</ele><time>2026-04-19T09:52:11.96Z</time></trkpt><trkpt lat="45.7576142" lon="7.4848962"><ele>1048.0</ele><time>2026-04-19T09:52:13.959Z</time></trkpt><trkpt lat="45.7576189" lon="7.4847742"><ele>1048.0</ele><time>2026-04-19T09:52:16.026Z</time></trkpt><trkpt lat="45.7576229" lon="7.4846561"><ele>1048.0</ele><time>2026-04-19T09:52:18.026Z</time></trkpt><trkpt lat="45.7576241" lon="7.484539"><ele>1048.0</ele><time>2026-04-19T09:52:19.953Z</time></trkpt><trkpt lat="45.7576261" lon="7.4844247"><ele>1048.0</ele><time>2026-04-19T09:52:21.95Z</time></trkpt><trkpt lat="45.7576256" lon="7.4842974"><ele>1048.0</ele><time>2026-04-19T09:52:23.953Z</time></trkpt><trkpt lat="45.7576314" lon="7.4841746"><ele>1048.2</ele><time>2026-04-19T09:52:25.953Z</time></trkpt><trkpt lat="45.7576332" lon="7.4840467"><ele>1048.4</ele><time>2026-04-19T09:52:27.949Z</time></trkpt><trkpt lat="45.7576412" lon="7.4839162"><ele>1048.6000000000001</ele><time>2026-04-19T09:52:29.946Z</time></trkpt><trkpt lat="45.757652" lon="7.4837841"><ele>1048.8</ele><time>2026-04-19T09:52:31.953Z</time></trkpt><trkpt lat="45.7576566" lon="7.4836579"><ele>1049.0</ele><time>2026-04-19T09:52:33.984Z</time></trkpt><trkpt lat="45.7576689" lon="7.4835269"><ele>1048.2</ele><time>2026-04-19T09:52:35.951Z</time></trkpt><trkpt lat="45.7576875" lon="7.4833866"><ele>1047.4</ele><time>2026-04-19T09:52:37.945Z</time></trkpt><trkpt lat="45.7577143" lon="7.4832448"><ele>1046.6</ele><time>2026-04-19T09:52:39.95Z</time></trkpt><trkpt lat="45.7577436" lon="7.4831016"><ele>1045.8</ele><time>2026-04-19T09:52:42.019Z</time></trkpt><trkpt lat="45.7577777" lon="7.4829529"><ele>1045.0</ele><time>2026-04-19T09:52:44.016Z</time></trkpt><trkpt lat="45.7578032" lon="7.482805"><ele>1050.8333333333333</ele><time>2026-04-19T09:52:45.946Z</time></trkpt><trkpt lat="45.7578281" lon="7.4826505"><ele>1056.6666666666665</ele><time>2026-04-19T09:52:47.953Z</time></trkpt><trkpt lat="45.7578604" lon="7.4824903"><ele>1062.5</ele><time>2026-04-19T09:52:49.948Z</time></trkpt><trkpt lat="45.7578786" lon="7.4824002"><ele>1068.3333333333333</ele><time>2026-04-19T09:52:50.943Z</time></trkpt><trkpt lat="45.7578994" lon="7.4823069"><ele>1074.1666666666667</ele><time>2026-04-19T09:52:51.949Z</time></trkpt><trkpt lat="45.7579198" lon="7.4822014"><ele>1080.0</ele><time>2026-04-19T09:52:52.953Z</time></trkpt><trkpt lat="45.7579394" lon="7.4820917"><ele>1080.0</ele><time>2026-04-19T09:52:53.952Z</time></trkpt><trkpt lat="45.7579634" lon="7.4819704"><ele>1080.0</ele><time>2026-04-19T09:52:54.948Z</time></trkpt><trkpt lat="45.7579918" lon="7.481849"><ele>1080.0</ele><time>2026-04-19T09:52:55.952Z</time></trkpt><trkpt lat="45.7580241" lon="7.4817219"><ele>1080.0</ele><time>2026-04-19T09:52:56.945Z</time></trkpt><trkpt lat="45.7580512" lon="7.4816041"><ele>1080.0</ele><time>2026-04-19T09:52:57.945Z</time></trkpt><trkpt lat="45.7580681" lon="7.4814912"><ele>1080.0</ele><time>2026-04-19T09:52:59.029Z</time></trkpt><trkpt lat="45.7580764" lon="7.4813808"><ele>1080.0</ele><time>2026-04-19T09:52:59.935Z</time></trkpt><trkpt lat="45.7580731" lon="7.4812676"><ele>1080.0</ele><time>2026-04-19T09:53:00.939Z</time></trkpt><trkpt lat="45.7580706" lon="7.4811661"><ele>1080.0</ele><time>2026-04-19T09:53:01.939Z</time></trkpt><trkpt lat="45.758062" lon="7.4810581"><ele>1080.0</ele><time>2026-04-19T09:53:03.027Z</time></trkpt><trkpt lat="45.7580508" lon="7.4809559"><ele>1080.0</ele><time>2026-04-19T09:53:04.026Z</time></trkpt><trkpt lat="45.7580445" lon="7.4808542"><ele>1080.0</ele><time>2026-04-19T09:53:04.943Z</time></trkpt><trkpt lat="45.7580407" lon="7.4807539"><ele>1080.0</ele><time>2026-04-19T09:53:05.937Z</time></trkpt><trkpt lat="45.7580442" lon="7.4806576"><ele>1079.1666666666667</ele><time>2026-04-19T09:53:07.044Z</time></trkpt><trkpt lat="45.7580704" lon="7.4804571"><ele>1078.3333333333333</ele><time>2026-04-19T09:53:09.029Z</time></trkpt><trkpt lat="45.7580773" lon="7.4803525"><ele>1077.5</ele><time>2026-04-19T09:53:09.943Z</time></trkpt><trkpt lat="45.7580728" lon="7.4802541"><ele>1076.6666666666665</ele><time>2026-04-19T09:53:10.943Z</time></trkpt><trkpt lat="45.7580615" lon="7.4801573"><ele>1075.8333333333333</ele><time>2026-04-19T09:53:11.964Z</time></trkpt><trkpt lat="45.7580425" lon="7.4800595"><ele>1075.0</ele><time>2026-04-19T09:53:13.028Z</time></trkpt><trkpt lat="45.7580145" lon="7.4799643"><ele>1075.0000000000002</ele><time>2026-04-19T09:53:14.026Z</time></trkpt><trkpt lat="45.7579873" lon="7.479866"><ele>1075.0</ele><time>2026-04-19T09:53:14.946Z</time></trkpt><trkpt lat="45.7579665" lon="7.4797749"><ele>1075.0</ele><time>2026-04-19T09:53:15.946Z</time></trkpt><trkpt lat="45.7579399" lon="7.4796724"><ele>1075.0</ele><time>2026-04-19T09:53:17.027Z</time></trkpt><trkpt lat="45.757911" lon="7.479581"><ele>1075.0</ele><time>2026-04-19T09:53:18.03Z</time></trkpt><trkpt lat="45.757878" lon="7.4794921"><ele>1075.0000000000002</ele><time>2026-04-19T09:53:19.026Z</time></trkpt><trkpt lat="45.7578416" lon="7.4794004"><ele>1075.0</ele><time>2026-04-19T09:53:19.945Z</time></trkpt><trkpt lat="45.7578055" lon="7.4793077"><ele>1075.4285714285716</ele><time>2026-04-19T09:53:20.947Z</time></trkpt><trkpt lat="45.7577761" lon="7.4792115"><ele>1075.857142857143</ele><time>2026-04-19T09:53:22.05Z</time></trkpt><trkpt lat="45.757759" lon="7.4791086"><ele>1076.2857142857142</ele><time>2026-04-19T09:53:23.03Z</time></trkpt><trkpt lat="45.7577686" lon="7.4790103"><ele>1076.7142857142858</ele><time>2026-04-19T09:53:24.028Z</time></trkpt><trkpt lat="45.7577901" lon="7.4789052"><ele>1077.142857142857</ele><time>2026-04-19T09:53:24.99Z</time></trkpt><trkpt lat="45.7578049" lon="7.4788049"><ele>1077.5714285714287</ele><time>2026-04-19T09:53:25.959Z</time></trkpt><trkpt lat="45.7578003" lon="7.4786905"><ele>1078.0</ele><time>2026-04-19T09:53:26.957Z</time></trkpt><trkpt lat="45.7577613" lon="7.4785973"><ele>1079.2857142857142</ele><time>2026-04-19T09:53:27.96Z</time></trkpt><trkpt lat="45.757704" lon="7.4785218"><ele>1080.5714285714284</ele><time>2026-04-19T09:53:28.955Z</time></trkpt><trkpt lat="45.7576383" lon="7.478459"><ele>1081.857142857143</ele><time>2026-04-19T09:53:29.961Z</time></trkpt><trkpt lat="45.7575736" lon="7.4784107"><ele>1083.142857142857</ele><time>2026-04-19T09:53:30.992Z</time></trkpt><trkpt lat="45.7575159" lon="7.4783575"><ele>1084.4285714285713</ele><time>2026-04-19T09:53:31.959Z</time></trkpt><trkpt lat="45.7574829" lon="7.4782804"><ele>1085.7142857142858</ele><time>2026-04-19T09:53:33.025Z</time></trkpt><trkpt lat="45.757476" lon="7.4781898"><ele>1087.0</ele><time>2026-04-19T09:53:34.026Z</time></trkpt><trkpt lat="45.7575331" lon="7.478052"><ele>1081.6</ele><time>2026-04-19T09:53:35.96Z</time></trkpt><trkpt lat="45.757578" lon="7.4778989"><ele>1076.2</ele><time>2026-04-19T09:53:37.961Z</time></trkpt><trkpt lat="45.7575404" lon="7.4777479"><ele>1070.8</ele><time>2026-04-19T09:53:39.956Z</time></trkpt><trkpt lat="45.7574379" lon="7.4776666"><ele>1065.4</ele><time>2026-04-19T09:53:41.973Z</time></trkpt><trkpt lat="45.7573818" lon="7.4776254"><ele>1060.0</ele><time>2026-04-19T09:53:42.989Z</time></trkpt><trkpt lat="45.7572724" lon="7.4775438"><ele>1059.9999999999998</ele><time>2026-04-19T09:53:44.963Z</time></trkpt><trkpt lat="45.7572079" lon="7.4774948"><ele>1060.0</ele><time>2026-04-19T09:53:45.966Z</time></trkpt><trkpt lat="45.7571398" lon="7.4774542"><ele>1060.0</ele><time>2026-04-19T09:53:46.961Z</time></trkpt><trkpt lat="45.7570731" lon="7.4774078"><ele>1060.0</ele><time>2026-04-19T09:53:47.962Z</time></trkpt><trkpt lat="45.7570058" lon="7.4773556"><ele>1060.0</ele><time>2026-04-19T09:53:48.962Z</time></trkpt><trkpt lat="45.7569473" lon="7.4772926"><ele>1059.9999999999998</ele><time>2026-04-19T09:53:49.961Z</time></trkpt><trkpt lat="45.756911" lon="7.4772078"><ele>1060.0</ele><time>2026-04-19T09:53:50.959Z</time></trkpt><trkpt lat="45.7568826" lon="7.4771147"><ele>1057.1666666666665</ele><time>2026-04-19T09:53:51.962Z</time></trkpt><trkpt lat="45.7568517" lon="7.4770297"><ele>1054.3333333333333</ele><time>2026-04-19T09:53:52.965Z</time></trkpt><trkpt lat="45.7568256" lon="7.4769425"><ele>1051.5</ele><time>2026-04-19T09:53:53.962Z</time></trkpt><trkpt lat="45.7568031" lon="7.4768533"><ele>1048.6666666666667</ele><time>2026-04-19T09:53:54.962Z</time></trkpt><trkpt lat="45.756753" lon="7.4766901"><ele>1045.8333333333335</ele><time>2026-04-19T09:53:56.962Z</time></trkpt><trkpt lat="45.7567022" lon="7.4765335"><ele>1043.0</ele><time>2026-04-19T09:53:59.029Z</time></trkpt><trkpt lat="45.7566314" lon="7.4763923"><ele>1043.0</ele><time>2026-04-19T09:54:00.953Z</time></trkpt><trkpt lat="45.7565357" lon="7.4762909"><ele>1043.0</ele><time>2026-04-19T09:54:03.024Z</time></trkpt><trkpt lat="45.7564256" lon="7.4762211"><ele>1043.0</ele><time>2026-04-19T09:54:04.951Z</time></trkpt><trkpt lat="45.7563131" lon="7.4761817"><ele>1043.0</ele><time>2026-04-19T09:54:06.956Z</time></trkpt><trkpt lat="45.7562506" lon="7.4761695"><ele>1043.0</ele><time>2026-04-19T09:54:08.032Z</time></trkpt><trkpt lat="45.7561798" lon="7.4761589"><ele>1041.8333333333335</ele><time>2026-04-19T09:54:09.027Z</time></trkpt><trkpt lat="45.7560681" lon="7.4760701"><ele>1040.6666666666667</ele><time>2026-04-19T09:54:11.016Z</time></trkpt><trkpt lat="45.756018" lon="7.4759928"><ele>1039.5</ele><time>2026-04-19T09:54:12.028Z</time></trkpt><trkpt lat="45.7559626" lon="7.4759185"><ele>1038.3333333333333</ele><time>2026-04-19T09:54:13.029Z</time></trkpt><trkpt lat="45.7559155" lon="7.4758329"><ele>1037.1666666666665</ele><time>2026-04-19T09:54:14.028Z</time></trkpt><trkpt lat="45.7558594" lon="7.4757421"><ele>1036.0</ele><time>2026-04-19T09:54:14.954Z</time></trkpt><trkpt lat="45.755805" lon="7.4756447"><ele>1036.0</ele><time>2026-04-19T09:54:15.951Z</time></trkpt><trkpt lat="45.7557398" lon="7.4755571"><ele>1036.0</ele><time>2026-04-19T09:54:16.95Z</time></trkpt><trkpt lat="45.7556667" lon="7.4754711"><ele>1036.0</ele><time>2026-04-19T09:54:17.95Z</time></trkpt><trkpt lat="45.755603" lon="7.4753879"><ele>1036.0</ele><time>2026-04-19T09:54:18.953Z</time></trkpt><trkpt lat="45.7555352" lon="7.4753066"><ele>1036.0</ele><time>2026-04-19T09:54:19.948Z</time></trkpt><trkpt lat="45.7554716" lon="7.4752355"><ele>1036.0</ele><time>2026-04-19T09:54:20.953Z</time></trkpt><trkpt lat="45.7554019" lon="7.4751685"><ele>1033.1666666666665</ele><time>2026-04-19T09:54:21.947Z</time></trkpt><trkpt lat="45.7553376" lon="7.4750931"><ele>1030.3333333333333</ele><time>2026-04-19T09:54:23.03Z</time></trkpt><trkpt lat="45.7552819" lon="7.4750153"><ele>1027.5</ele><time>2026-04-19T09:54:23.952Z</time></trkpt><trkpt lat="45.7552246" lon="7.4749371"><ele>1024.6666666666667</ele><time>2026-04-19T09:54:24.949Z</time></trkpt><trkpt lat="45.7551706" lon="7.4748665"><ele>1021.8333333333334</ele><time>2026-04-19T09:54:25.944Z</time></trkpt><trkpt lat="45.7551169" lon="7.474793"><ele>1019.0</ele><time>2026-04-19T09:54:26.951Z</time></trkpt><trkpt lat="45.7550662" lon="7.4747281"><ele>1019.0000000000001</ele><time>2026-04-19T09:54:27.943Z</time></trkpt><trkpt lat="45.7550173" lon="7.4746564"><ele>1019.0</ele><time>2026-04-19T09:54:28.945Z</time></trkpt><trkpt lat="45.7549711" lon="7.474586"><ele>1019.0</ele><time>2026-04-19T09:54:29.943Z</time></trkpt><trkpt lat="45.7549308" lon="7.4745113"><ele>1019.0</ele><time>2026-04-19T09:54:30.952Z</time></trkpt><trkpt lat="45.754897" lon="7.4744328"><ele>1019.0000000000001</ele><time>2026-04-19T09:54:32.032Z</time></trkpt><trkpt lat="45.7548696" lon="7.4743498"><ele>1019.0</ele><time>2026-04-19T09:54:32.948Z</time></trkpt><trkpt lat="45.7548328" lon="7.4741858"><ele>1022.0</ele><time>2026-04-19T09:54:34.949Z</time></trkpt><trkpt lat="45.7548256" lon="7.4740152"><ele>1025.0</ele><time>2026-04-19T09:54:36.938Z</time></trkpt><trkpt lat="45.7548257" lon="7.473841"><ele>1028.0</ele><time>2026-04-19T09:54:39.032Z</time></trkpt><trkpt lat="45.7547917" lon="7.4736708"><ele>1031.0</ele><time>2026-04-19T09:54:40.948Z</time></trkpt><trkpt lat="45.7547514" lon="7.4735983"><ele>1034.0</ele><time>2026-04-19T09:54:42.042Z</time></trkpt><trkpt lat="45.7547051" lon="7.4735308"><ele>1035.7142857142858</ele><time>2026-04-19T09:54:43.027Z</time></trkpt><trkpt lat="45.7546556" lon="7.4734646"><ele>1037.4285714285716</ele><time>2026-04-19T09:54:44.022Z</time></trkpt><trkpt lat="45.7546149" lon="7.473391"><ele>1039.142857142857</ele><time>2026-04-19T09:54:44.952Z</time></trkpt><trkpt lat="45.7545759" lon="7.4733043"><ele>1040.857142857143</ele><time>2026-04-19T09:54:45.955Z</time></trkpt><trkpt lat="45.7545568" lon="7.4732011"><ele>1042.5714285714284</ele><time>2026-04-19T09:54:47.044Z</time></trkpt><trkpt lat="45.7545388" lon="7.4730917"><ele>1044.2857142857142</ele><time>2026-04-19T09:54:48.023Z</time></trkpt><trkpt lat="45.7545222" lon="7.4729813"><ele>1046.0</ele><time>2026-04-19T09:54:49.027Z</time></trkpt><trkpt lat="45.7544971" lon="7.4728672"><ele>1047.3333333333335</ele><time>2026-04-19T09:54:49.944Z</time></trkpt><trkpt lat="45.75448" lon="7.4727507"><ele>1048.6666666666667</ele><time>2026-04-19T09:54:50.951Z</time></trkpt><trkpt lat="45.7544593" lon="7.4726276"><ele>1050.0</ele><time>2026-04-19T09:54:51.98Z</time></trkpt><trkpt lat="45.7544389" lon="7.4725046"><ele>1051.3333333333333</ele><time>2026-04-19T09:54:53.025Z</time></trkpt><trkpt lat="45.7544104" lon="7.4723813"><ele>1052.6666666666665</ele><time>2026-04-19T09:54:54.025Z</time></trkpt><trkpt lat="45.7543868" lon="7.4722614"><ele>1054.0</ele><time>2026-04-19T09:54:54.948Z</time></trkpt><trkpt lat="45.7543652" lon="7.4721359"><ele>1046.2</ele><time>2026-04-19T09:54:55.948Z</time></trkpt><trkpt lat="45.7543408" lon="7.4720062"><ele>1038.4</ele><time>2026-04-19T09:54:56.942Z</time></trkpt><trkpt lat="45.7543149" lon="7.471882"><ele>1030.6</ele><time>2026-04-19T09:54:58.026Z</time></trkpt><trkpt lat="45.7542969" lon="7.4717598"><ele>1022.8</ele><time>2026-04-19T09:54:59.026Z</time></trkpt><trkpt lat="45.7542769" lon="7.4716266"><ele>1015.0</ele><time>2026-04-19T09:54:59.954Z</time></trkpt><trkpt lat="45.7542566" lon="7.4715064"><ele>1015.0</ele><time>2026-04-19T09:55:00.95Z</time></trkpt><trkpt lat="45.7542346" lon="7.4713969"><ele>1015.0</ele><time>2026-04-19T09:55:02.053Z</time></trkpt><trkpt lat="45.7542167" lon="7.4713017"><ele>1015.0</ele><time>2026-04-19T09:55:03.026Z</time></trkpt><trkpt lat="45.7541942" lon="7.4711343"><ele>1015.0</ele><time>2026-04-19T09:55:04.947Z</time></trkpt><trkpt lat="45.7541832" lon="7.4710192"><ele>1015.0</ele><time>2026-04-19T09:55:06.956Z</time></trkpt><trkpt lat="45.7541086" lon="7.4709161"><ele>1015.3333333333333</ele><time>2026-04-19T09:55:22.95Z</time></trkpt><trkpt lat="45.7540368" lon="7.4708745"><ele>1015.6666666666666</ele><time>2026-04-19T09:55:24.947Z</time></trkpt><trkpt lat="45.7539955" lon="7.4707674"><ele>1016.0</ele><time>2026-04-19T09:55:26.948Z</time></trkpt><trkpt lat="45.7540011" lon="7.4706763"><ele>1016.3333333333333</ele><time>2026-04-19T09:55:27.952Z</time></trkpt><trkpt lat="45.7539928" lon="7.4704983"><ele>1016.6666666666666</ele><time>2026-04-19T09:55:29.952Z</time></trkpt><trkpt lat="45.753984" lon="7.4703987"><ele>1017.0</ele><time>2026-04-19T09:55:30.95Z</time></trkpt><trkpt lat="45.753974" lon="7.4702939"><ele>1017.8333333333334</ele><time>2026-04-19T09:55:31.95Z</time></trkpt><trkpt lat="45.7539584" lon="7.4701855"><ele>1018.6666666666667</ele><time>2026-04-19T09:55:32.944Z</time></trkpt><trkpt lat="45.7539332" lon="7.4700772"><ele>1019.5</ele><time>2026-04-19T09:55:33.942Z</time></trkpt><trkpt lat="45.7539029" lon="7.4699662"><ele>1020.3333333333334</ele><time>2026-04-19T09:55:34.947Z</time></trkpt><trkpt lat="45.7538751" lon="7.4698576"><ele>1021.1666666666667</ele><time>2026-04-19T09:55:35.947Z</time></trkpt><trkpt lat="45.7538468" lon="7.4697473"><ele>1022.0</ele><time>2026-04-19T09:55:36.956Z</time></trkpt><trkpt lat="45.7538159" lon="7.4696318"><ele>1023.4000000000001</ele><time>2026-04-19T09:55:37.949Z</time></trkpt><trkpt lat="45.7537863" lon="7.4695099"><ele>1024.8000000000002</ele><time>2026-04-19T09:55:38.948Z</time></trkpt><trkpt lat="45.753758" lon="7.4693919"><ele>1026.2</ele><time>2026-04-19T09:55:39.948Z</time></trkpt><trkpt lat="45.7537272" lon="7.4692659"><ele>1027.6000000000001</ele><time>2026-04-19T09:55:40.946Z</time></trkpt><trkpt lat="45.7536912" lon="7.4691381"><ele>1029.0</ele><time>2026-04-19T09:55:41.942Z</time></trkpt><trkpt lat="45.7536561" lon="7.4690053"><ele>1029.0</ele><time>2026-04-19T09:55:42.945Z</time></trkpt><trkpt lat="45.7536235" lon="7.4688711"><ele>1029.0</ele><time>2026-04-19T09:55:43.946Z</time></trkpt><trkpt lat="45.7535903" lon="7.468734"><ele>1029.0</ele><time>2026-04-19T09:55:44.944Z</time></trkpt><trkpt lat="45.7535565" lon="7.4685945"><ele>1029.0</ele><time>2026-04-19T09:55:45.945Z</time></trkpt><trkpt lat="45.7535235" lon="7.4684497"><ele>1029.0</ele><time>2026-04-19T09:55:46.953Z</time></trkpt><trkpt lat="45.7534841" lon="7.4683072"><ele>1022.2</ele><time>2026-04-19T09:55:47.944Z</time></trkpt><trkpt lat="45.7534516" lon="7.4681601"><ele>1015.4000000000001</ele><time>2026-04-19T09:55:48.952Z</time></trkpt><trkpt lat="45.7534182" lon="7.4680105"><ele>1008.6</ele><time>2026-04-19T09:55:49.952Z</time></trkpt><trkpt lat="45.7533925" lon="7.4678655"><ele>1001.8</ele><time>2026-04-19T09:55:50.947Z</time></trkpt><trkpt lat="45.7533697" lon="7.4677182"><ele>995.0</ele><time>2026-04-19T09:55:51.949Z</time></trkpt><trkpt lat="45.7533464" lon="7.4675738"><ele>995.0</ele><time>2026-04-19T09:55:52.951Z</time></trkpt><trkpt lat="45.7533265" lon="7.4674207"><ele>995.0</ele><time>2026-04-19T09:55:53.944Z</time></trkpt><trkpt lat="45.7533147" lon="7.4672558"><ele>995.0</ele><time>2026-04-19T09:55:54.949Z</time></trkpt><trkpt lat="45.7533055" lon="7.4670898"><ele>995.0</ele><time>2026-04-19T09:55:55.951Z</time></trkpt><trkpt lat="45.7532944" lon="7.4669257"><ele>994.6</ele><time>2026-04-19T09:55:56.947Z</time></trkpt><trkpt lat="45.7532846" lon="7.4667675"><ele>994.2</ele><time>2026-04-19T09:55:57.946Z</time></trkpt><trkpt lat="45.7532789" lon="7.466627"><ele>993.8</ele><time>2026-04-19T09:55:58.948Z</time></trkpt><trkpt lat="45.7532611" lon="7.4664915"><ele>993.4</ele><time>2026-04-19T09:55:59.948Z</time></trkpt><trkpt lat="45.7532197" lon="7.4663648"><ele>993.0</ele><time>2026-04-19T09:56:00.947Z</time></trkpt><trkpt lat="45.7531571" lon="7.4662442"><ele>991.8</ele><time>2026-04-19T09:56:01.945Z</time></trkpt><trkpt lat="45.7530844" lon="7.4661385"><ele>990.5999999999999</ele><time>2026-04-19T09:56:02.948Z</time></trkpt><trkpt lat="45.7530042" lon="7.4660375"><ele>989.4000000000001</ele><time>2026-04-19T09:56:03.951Z</time></trkpt><trkpt lat="45.7529226" lon="7.4659426"><ele>988.2</ele><time>2026-04-19T09:56:04.944Z</time></trkpt><trkpt lat="45.7528421" lon="7.4658451"><ele>987.0</ele><time>2026-04-19T09:56:05.955Z</time></trkpt><trkpt lat="45.7527723" lon="7.4657485"><ele>987.0</ele><time>2026-04-19T09:56:06.946Z</time></trkpt><trkpt lat="45.7527103" lon="7.4656422"><ele>987.0</ele><time>2026-04-19T09:56:07.944Z</time></trkpt><trkpt lat="45.7526505" lon="7.4655415"><ele>987.0</ele><time>2026-04-19T09:56:08.947Z</time></trkpt><trkpt lat="45.7525927" lon="7.4654478"><ele>987.0</ele><time>2026-04-19T09:56:09.945Z</time></trkpt><trkpt lat="45.7525375" lon="7.4653644"><ele>987.0</ele><time>2026-04-19T09:56:10.949Z</time></trkpt><trkpt lat="45.7524648" lon="7.4652967"><ele>987.0</ele><time>2026-04-19T09:56:11.949Z</time></trkpt><trkpt lat="45.7523854" lon="7.4652477"><ele>983.6</ele><time>2026-04-19T09:56:12.95Z</time></trkpt><trkpt lat="45.7522932" lon="7.4652537"><ele>980.2</ele><time>2026-04-19T09:56:13.949Z</time></trkpt><trkpt lat="45.7522061" lon="7.4652913"><ele>976.8</ele><time>2026-04-19T09:56:14.943Z</time></trkpt><trkpt lat="45.7521215" lon="7.4653566"><ele>973.4</ele><time>2026-04-19T09:56:15.944Z</time></trkpt><trkpt lat="45.7520456" lon="7.4654172"><ele>970.0</ele><time>2026-04-19T09:56:16.95Z</time></trkpt><trkpt lat="45.7519678" lon="7.4654685"><ele>969.9999999999999</ele><time>2026-04-19T09:56:17.95Z</time></trkpt><trkpt lat="45.7518964" lon="7.4654945"><ele>970.0</ele><time>2026-04-19T09:56:18.946Z</time></trkpt><trkpt lat="45.7518335" lon="7.4654747"><ele>970.0</ele><time>2026-04-19T09:56:19.954Z</time></trkpt><trkpt lat="45.7517936" lon="7.4653195"><ele>970.0</ele><time>2026-04-19T09:56:21.941Z</time></trkpt><trkpt lat="45.7518204" lon="7.4652211"><ele>969.9999999999999</ele><time>2026-04-19T09:56:22.944Z</time></trkpt><trkpt lat="45.7518608" lon="7.4651435"><ele>970.0</ele><time>2026-04-19T09:56:23.946Z</time></trkpt><trkpt lat="45.7519052" lon="7.4650712"><ele>969.9999999999999</ele><time>2026-04-19T09:56:24.948Z</time></trkpt><trkpt lat="45.7519484" lon="7.4649801"><ele>970.0</ele><time>2026-04-19T09:56:25.942Z</time></trkpt><trkpt lat="45.7519927" lon="7.4648906"><ele>970.0</ele><time>2026-04-19T09:56:26.954Z</time></trkpt><trkpt lat="45.7520349" lon="7.4647918"><ele>970.0</ele><time>2026-04-19T09:56:27.946Z</time></trkpt><trkpt lat="45.7520847" lon="7.464687"><ele>969.9999999999999</ele><time>2026-04-19T09:56:28.946Z</time></trkpt><trkpt lat="45.7521361" lon="7.4645838"><ele>970.0</ele><time>2026-04-19T09:56:29.948Z</time></trkpt><trkpt lat="45.7521935" lon="7.4644795"><ele>967.6666666666666</ele><time>2026-04-19T09:56:30.946Z</time></trkpt><trkpt lat="45.752238" lon="7.4643765"><ele>965.3333333333333</ele><time>2026-04-19T09:56:31.949Z</time></trkpt><trkpt lat="45.7522611" lon="7.4642818"><ele>963.0</ele><time>2026-04-19T09:56:32.948Z</time></trkpt><trkpt lat="45.7522733" lon="7.464192"><ele>960.6666666666667</ele><time>2026-04-19T09:56:33.949Z</time></trkpt><trkpt lat="45.752262" lon="7.4640895"><ele>958.3333333333334</ele><time>2026-04-19T09:56:34.941Z</time></trkpt><trkpt lat="45.7522329" lon="7.4639775"><ele>956.0</ele><time>2026-04-19T09:56:35.95Z</time></trkpt><trkpt lat="45.7521817" lon="7.463875"><ele>956.0000000000001</ele><time>2026-04-19T09:56:36.949Z</time></trkpt><trkpt lat="45.752119" lon="7.4637877"><ele>956.0</ele><time>2026-04-19T09:56:37.951Z</time></trkpt><trkpt lat="45.7520604" lon="7.4637196"><ele>956.0000000000001</ele><time>2026-04-19T09:56:38.945Z</time></trkpt><trkpt lat="45.7520085" lon="7.4636562"><ele>956.0000000000001</ele><time>2026-04-19T09:56:39.955Z</time></trkpt><trkpt lat="45.7519522" lon="7.4635849"><ele>956.0</ele><time>2026-04-19T09:56:40.948Z</time></trkpt><trkpt lat="45.7518994" lon="7.4635182"><ele>956.0000000000001</ele><time>2026-04-19T09:56:41.946Z</time></trkpt><trkpt lat="45.7518509" lon="7.4634552"><ele>956.0000000000001</ele><time>2026-04-19T09:56:42.948Z</time></trkpt><trkpt lat="45.7517441" lon="7.463369"><ele>953.2857142857144</ele><time>2026-04-19T09:56:44.948Z</time></trkpt><trkpt lat="45.7516853" lon="7.4633291"><ele>950.5714285714287</ele><time>2026-04-19T09:56:45.949Z</time></trkpt><trkpt lat="45.7515629" lon="7.4633037"><ele>947.8571428571429</ele><time>2026-04-19T09:56:47.95Z</time></trkpt><trkpt lat="45.7515004" lon="7.4633235"><ele>945.1428571428572</ele><time>2026-04-19T09:56:48.945Z</time></trkpt><trkpt lat="45.7514395" lon="7.4633507"><ele>942.4285714285716</ele><time>2026-04-19T09:56:49.943Z</time></trkpt><trkpt lat="45.7513798" lon="7.4633869"><ele>939.7142857142857</ele><time>2026-04-19T09:56:50.953Z</time></trkpt><trkpt lat="45.7513194" lon="7.4634136"><ele>937.0</ele><time>2026-04-19T09:56:51.948Z</time></trkpt><trkpt lat="45.75125" lon="7.4634383"><ele>937.0</ele><time>2026-04-19T09:56:52.954Z</time></trkpt><trkpt lat="45.7511858" lon="7.4634644"><ele>937.0</ele><time>2026-04-19T09:56:53.952Z</time></trkpt><trkpt lat="45.7511188" lon="7.4634754"><ele>937.0</ele><time>2026-04-19T09:56:54.948Z</time></trkpt><trkpt lat="45.7510516" lon="7.4634733"><ele>937.0</ele><time>2026-04-19T09:56:55.948Z</time></trkpt><trkpt lat="45.7509813" lon="7.463448"><ele>937.0</ele><time>2026-04-19T09:56:56.947Z</time></trkpt><trkpt lat="45.7509167" lon="7.463414"><ele>937.0</ele><time>2026-04-19T09:56:57.95Z</time></trkpt><trkpt lat="45.7508526" lon="7.4633621"><ele>937.0</ele><time>2026-04-19T09:56:58.944Z</time></trkpt><trkpt lat="45.7507777" lon="7.4633126"><ele>935.6666666666666</ele><time>2026-04-19T09:56:59.948Z</time></trkpt><trkpt lat="45.7506982" lon="7.4632834"><ele>934.3333333333333</ele><time>2026-04-19T09:57:00.948Z</time></trkpt><trkpt lat="45.7506162" lon="7.4633006"><ele>933.0</ele><time>2026-04-19T09:57:01.945Z</time></trkpt><trkpt lat="45.7505487" lon="7.4633784"><ele>931.6666666666667</ele><time>2026-04-19T09:57:02.945Z</time></trkpt><trkpt lat="45.7505048" lon="7.4634795"><ele>930.3333333333334</ele><time>2026-04-19T09:57:03.95Z</time></trkpt><trkpt lat="45.7504804" lon="7.4635907"><ele>929.0</ele><time>2026-04-19T09:57:04.942Z</time></trkpt><trkpt lat="45.7504619" lon="7.4637178"><ele>930.0</ele><time>2026-04-19T09:57:05.948Z</time></trkpt><trkpt lat="45.7504457" lon="7.4638477"><ele>931.0000000000001</ele><time>2026-04-19T09:57:06.95Z</time></trkpt><trkpt lat="45.7504273" lon="7.4639725"><ele>932.0000000000001</ele><time>2026-04-19T09:57:07.95Z</time></trkpt><trkpt lat="45.7504074" lon="7.4641047"><ele>933.0</ele><time>2026-04-19T09:57:08.946Z</time></trkpt><trkpt lat="45.7503837" lon="7.4642379"><ele>934.0</ele><time>2026-04-19T09:57:09.95Z</time></trkpt><trkpt lat="45.7503601" lon="7.4643704"><ele>934.0</ele><time>2026-04-19T09:57:10.947Z</time></trkpt><trkpt lat="45.7503403" lon="7.4645128"><ele>934.0000000000001</ele><time>2026-04-19T09:57:11.945Z</time></trkpt><trkpt lat="45.7503255" lon="7.4646567"><ele>934.0000000000001</ele><time>2026-04-19T09:57:12.947Z</time></trkpt><trkpt lat="45.7503265" lon="7.464794"><ele>934.0</ele><time>2026-04-19T09:57:13.95Z</time></trkpt><trkpt lat="45.7503395" lon="7.4649363"><ele>934.0</ele><time>2026-04-19T09:57:14.947Z</time></trkpt><trkpt lat="45.750353" lon="7.465084"><ele>934.6</ele><time>2026-04-19T09:57:15.952Z</time></trkpt><trkpt lat="45.7503673" lon="7.4652311"><ele>935.2</ele><time>2026-04-19T09:57:16.947Z</time></trkpt><trkpt lat="45.7503799" lon="7.4653774"><ele>935.8000000000001</ele><time>2026-04-19T09:57:17.945Z</time></trkpt><trkpt lat="45.7503922" lon="7.4655268"><ele>936.4000000000001</ele><time>2026-04-19T09:57:18.947Z</time></trkpt><trkpt lat="45.7504064" lon="7.4656745"><ele>937.0</ele><time>2026-04-19T09:57:19.95Z</time></trkpt><trkpt lat="45.7504176" lon="7.4658144"><ele>937.0</ele><time>2026-04-19T09:57:20.944Z</time></trkpt><trkpt lat="45.7504357" lon="7.4659614"><ele>937.0</ele><time>2026-04-19T09:57:21.946Z</time></trkpt><trkpt lat="45.7504525" lon="7.4661046"><ele>937.0</ele><time>2026-04-19T09:57:22.946Z</time></trkpt><trkpt lat="45.7504668" lon="7.4662507"><ele>937.0</ele><time>2026-04-19T09:57:23.954Z</time></trkpt><trkpt lat="45.7504778" lon="7.4663962"><ele>937.0</ele><time>2026-04-19T09:57:24.946Z</time></trkpt><trkpt lat="45.7504938" lon="7.4665495"><ele>935.8</ele><time>2026-04-19T09:57:25.948Z</time></trkpt><trkpt lat="45.7505132" lon="7.4666988"><ele>934.6</ele><time>2026-04-19T09:57:26.951Z</time></trkpt><trkpt lat="45.7505258" lon="7.4668469"><ele>933.3999999999999</ele><time>2026-04-19T09:57:27.949Z</time></trkpt><trkpt lat="45.7505408" lon="7.466996"><ele>932.1999999999999</ele><time>2026-04-19T09:57:28.949Z</time></trkpt><trkpt lat="45.7505577" lon="7.4671484"><ele>931.0</ele><time>2026-04-19T09:57:29.946Z</time></trkpt><trkpt lat="45.7505757" lon="7.4672923"><ele>927.4</ele><time>2026-04-19T09:57:30.941Z</time></trkpt><trkpt lat="45.7506103" lon="7.4674367"><ele>923.8</ele><time>2026-04-19T09:57:31.946Z</time></trkpt><trkpt lat="45.7506773" lon="7.4675591"><ele>920.1999999999999</ele><time>2026-04-19T09:57:32.941Z</time></trkpt><trkpt lat="45.7507638" lon="7.4676567"><ele>916.5999999999999</ele><time>2026-04-19T09:57:33.951Z</time></trkpt><trkpt lat="45.7508554" lon="7.4677369"><ele>913.0</ele><time>2026-04-19T09:57:34.946Z</time></trkpt><trkpt lat="45.7509566" lon="7.4678089"><ele>913.5</ele><time>2026-04-19T09:57:35.945Z</time></trkpt><trkpt lat="45.7510546" lon="7.4678925"><ele>914.0</ele><time>2026-04-19T09:57:36.941Z</time></trkpt><trkpt lat="45.75115" lon="7.4679811"><ele>914.5</ele><time>2026-04-19T09:57:37.947Z</time></trkpt><trkpt lat="45.7512428" lon="7.4680907"><ele>915.0</ele><time>2026-04-19T09:57:38.948Z</time></trkpt><trkpt lat="45.7513401" lon="7.4681912"><ele>915.0</ele><time>2026-04-19T09:57:39.948Z</time></trkpt><trkpt lat="45.7514385" lon="7.4683083"><ele>915.0</ele><time>2026-04-19T09:57:40.952Z</time></trkpt><trkpt lat="45.7515235" lon="7.4684372"><ele>915.0</ele><time>2026-04-19T09:57:41.947Z</time></trkpt><trkpt lat="45.7515908" lon="7.4685953"><ele>915.0</ele><time>2026-04-19T09:57:42.951Z</time></trkpt><trkpt lat="45.7516323" lon="7.4687679"><ele>911.0</ele><time>2026-04-19T09:57:43.947Z</time></trkpt><trkpt lat="45.7516447" lon="7.4689469"><ele>907.0</ele><time>2026-04-19T09:57:44.949Z</time></trkpt><trkpt lat="45.7516335" lon="7.469135"><ele>903.0</ele><time>2026-04-19T09:57:45.954Z</time></trkpt><trkpt lat="45.751624" lon="7.4693231"><ele>899.0</ele><time>2026-04-19T09:57:46.95Z</time></trkpt><trkpt lat="45.7516317" lon="7.469516"><ele>896.25</ele><time>2026-04-19T09:57:47.947Z</time></trkpt><trkpt lat="45.751656" lon="7.4697095"><ele>893.5</ele><time>2026-04-19T09:57:48.948Z</time></trkpt><trkpt lat="45.7516864" lon="7.4698967"><ele>890.75</ele><time>2026-04-19T09:57:49.952Z</time></trkpt><trkpt lat="45.7517202" lon="7.4700829"><ele>888.0</ele><time>2026-04-19T09:57:50.951Z</time></trkpt><trkpt lat="45.7517558" lon="7.4702672"><ele>886.25</ele><time>2026-04-19T09:57:51.942Z</time></trkpt><trkpt lat="45.7517851" lon="7.470455"><ele>884.5</ele><time>2026-04-19T09:57:52.954Z</time></trkpt><trkpt lat="45.7518125" lon="7.4706304"><ele>882.75</ele><time>2026-04-19T09:57:53.951Z</time></trkpt><trkpt lat="45.7518371" lon="7.4707967"><ele>881.0</ele><time>2026-04-19T09:57:54.946Z</time></trkpt><trkpt lat="45.7518612" lon="7.4709505"><ele>879.8333333333334</ele><time>2026-04-19T09:57:55.943Z</time></trkpt><trkpt lat="45.7518791" lon="7.4710819"><ele>878.6666666666667</ele><time>2026-04-19T09:57:56.953Z</time></trkpt><trkpt lat="45.7518988" lon="7.471192"><ele>877.5</ele><time>2026-04-19T09:57:57.94Z</time></trkpt><trkpt lat="45.7519162" lon="7.4712949"><ele>876.3333333333333</ele><time>2026-04-19T09:57:58.95Z</time></trkpt><trkpt lat="45.7519261" lon="7.4713939"><ele>875.1666666666666</ele><time>2026-04-19T09:57:59.946Z</time></trkpt><trkpt lat="45.7518822" lon="7.4715457"><ele>874.0</ele><time>2026-04-19T09:58:01.944Z</time></trkpt><trkpt lat="45.7517834" lon="7.4714889"><ele>873.9999999999999</ele><time>2026-04-19T09:58:03.941Z</time></trkpt><trkpt lat="45.7517531" lon="7.4714064"><ele>874.0</ele><time>2026-04-19T09:58:04.951Z</time></trkpt><trkpt lat="45.7517449" lon="7.4713157"><ele>874.0</ele><time>2026-04-19T09:58:05.946Z</time></trkpt><trkpt lat="45.7516994" lon="7.4711476"><ele>874.0</ele><time>2026-04-19T09:58:07.95Z</time></trkpt><trkpt lat="45.7516643" lon="7.4710505"><ele>873.9999999999999</ele><time>2026-04-19T09:58:08.949Z</time></trkpt><trkpt lat="45.7516277" lon="7.470946"><ele>874.0</ele><time>2026-04-19T09:58:09.949Z</time></trkpt><trkpt lat="45.7515836" lon="7.4708423"><ele>875.4000000000001</ele><time>2026-04-19T09:58:10.942Z</time></trkpt><trkpt lat="45.751543" lon="7.4707295"><ele>876.8000000000001</ele><time>2026-04-19T09:58:11.949Z</time></trkpt><trkpt lat="45.7514974" lon="7.4706156"><ele>878.1999999999999</ele><time>2026-04-19T09:58:12.949Z</time></trkpt><trkpt lat="45.7514478" lon="7.470505"><ele>879.5999999999999</ele><time>2026-04-19T09:58:13.947Z</time></trkpt><trkpt lat="45.7514" lon="7.4703941"><ele>881.0</ele><time>2026-04-19T09:58:14.95Z</time></trkpt><trkpt lat="45.7513484" lon="7.4702726"><ele>882.1666666666667</ele><time>2026-04-19T09:58:15.948Z</time></trkpt><trkpt lat="45.7513002" lon="7.4701571"><ele>883.3333333333334</ele><time>2026-04-19T09:58:16.95Z</time></trkpt><trkpt lat="45.7512505" lon="7.4700482"><ele>884.5</ele><time>2026-04-19T09:58:17.946Z</time></trkpt><trkpt lat="45.7512119" lon="7.4699542"><ele>885.6666666666667</ele><time>2026-04-19T09:58:18.948Z</time></trkpt><trkpt lat="45.7511731" lon="7.469869"><ele>886.8333333333334</ele><time>2026-04-19T09:58:19.946Z</time></trkpt><trkpt lat="45.7510609" lon="7.4698562"><ele>888.0</ele><time>2026-04-19T09:58:21.945Z</time></trkpt><trkpt lat="45.7510289" lon="7.4699431"><ele>888.0</ele><time>2026-04-19T09:58:22.946Z</time></trkpt><trkpt lat="45.7510275" lon="7.4700527"><ele>888.0</ele><time>2026-04-19T09:58:23.945Z</time></trkpt><trkpt lat="45.7510388" lon="7.4701581"><ele>888.0</ele><time>2026-04-19T09:58:24.949Z</time></trkpt><trkpt lat="45.751061" lon="7.4702624"><ele>888.0</ele><time>2026-04-19T09:58:25.949Z</time></trkpt><trkpt lat="45.7510832" lon="7.4703691"><ele>888.0</ele><time>2026-04-19T09:58:26.943Z</time></trkpt><trkpt lat="45.7511069" lon="7.4704907"><ele>888.0</ele><time>2026-04-19T09:58:27.955Z</time></trkpt><trkpt lat="45.7511284" lon="7.4706193"><ele>886.5999999999999</ele><time>2026-04-19T09:58:28.95Z</time></trkpt><trkpt lat="45.7511437" lon="7.4707542"><ele>885.1999999999999</ele><time>2026-04-19T09:58:29.944Z</time></trkpt><trkpt lat="45.7511605" lon="7.4708952"><ele>883.8</ele><time>2026-04-19T09:58:30.944Z</time></trkpt><trkpt lat="45.7511823" lon="7.4710381"><ele>882.4</ele><time>2026-04-19T09:58:31.942Z</time></trkpt><trkpt lat="45.7512189" lon="7.4711861"><ele>881.0</ele><time>2026-04-19T09:58:32.944Z</time></trkpt><trkpt lat="45.751271" lon="7.4713378"><ele>879.5999999999999</ele><time>2026-04-19T09:58:33.948Z</time></trkpt><trkpt lat="45.7513194" lon="7.471494"><ele>878.1999999999999</ele><time>2026-04-19T09:58:34.949Z</time></trkpt><trkpt lat="45.7513683" lon="7.4716337"><ele>876.8000000000001</ele><time>2026-04-19T09:58:35.954Z</time></trkpt><trkpt lat="45.7514196" lon="7.4717522"><ele>875.4000000000001</ele><time>2026-04-19T09:58:36.948Z</time></trkpt><trkpt lat="45.7514688" lon="7.4718483"><ele>874.0</ele><time>2026-04-19T09:58:37.949Z</time></trkpt><trkpt lat="45.7514818" lon="7.4719533"><ele>873.9999999999999</ele><time>2026-04-19T09:58:38.949Z</time></trkpt><trkpt lat="45.7514184" lon="7.4720695"><ele>874.0</ele><time>2026-04-19T09:58:40.944Z</time></trkpt><trkpt lat="45.7513364" lon="7.4720048"><ele>874.0</ele><time>2026-04-19T09:58:41.943Z</time></trkpt><trkpt lat="45.7512853" lon="7.4719215"><ele>874.0</ele><time>2026-04-19T09:58:42.946Z</time></trkpt><trkpt lat="45.7512425" lon="7.4718141"><ele>873.9999999999999</ele><time>2026-04-19T09:58:43.948Z</time></trkpt><trkpt lat="45.7512005" lon="7.4717129"><ele>874.0</ele><time>2026-04-19T09:58:44.946Z</time></trkpt><trkpt lat="45.7511364" lon="7.4716265"><ele>874.0</ele><time>2026-04-19T09:58:45.949Z</time></trkpt><trkpt lat="45.7510628" lon="7.4715591"><ele>874.0000000000001</ele><time>2026-04-19T09:58:46.947Z</time></trkpt><trkpt lat="45.7509808" lon="7.4715135"><ele>874.0000000000001</ele><time>2026-04-19T09:58:47.949Z</time></trkpt><trkpt lat="45.7508876" lon="7.471495"><ele>874.0</ele><time>2026-04-19T09:58:48.947Z</time></trkpt><trkpt lat="45.7507993" lon="7.4714865"><ele>874.0</ele><time>2026-04-19T09:58:49.957Z</time></trkpt><trkpt lat="45.7507106" lon="7.4714442"><ele>869.0</ele><time>2026-04-19T09:58:50.946Z</time></trkpt><trkpt lat="45.7506472" lon="7.4713699"><ele>864.0000000000001</ele><time>2026-04-19T09:58:51.948Z</time></trkpt><trkpt lat="45.7506035" lon="7.4712472"><ele>859.0</ele><time>2026-04-19T09:58:52.944Z</time></trkpt><trkpt lat="45.7505729" lon="7.4711027"><ele>854.0</ele><time>2026-04-19T09:58:53.944Z</time></trkpt><trkpt lat="45.75055" lon="7.4709547"><ele>849.0</ele><time>2026-04-19T09:58:54.948Z</time></trkpt><trkpt lat="45.7505268" lon="7.4708193"><ele>849.0</ele><time>2026-04-19T09:58:55.954Z</time></trkpt><trkpt lat="45.7505052" lon="7.4706718"><ele>849.0</ele><time>2026-04-19T09:58:56.952Z</time></trkpt><trkpt lat="45.7504871" lon="7.4705151"><ele>849.0</ele><time>2026-04-19T09:58:57.951Z</time></trkpt><trkpt lat="45.750469" lon="7.4703537"><ele>849.0</ele><time>2026-04-19T09:58:58.948Z</time></trkpt><trkpt lat="45.7504644" lon="7.4701873"><ele>849.0</ele><time>2026-04-19T09:58:59.949Z</time></trkpt><trkpt lat="45.7504543" lon="7.4700165"><ele>849.75</ele><time>2026-04-19T09:59:00.944Z</time></trkpt><trkpt lat="45.7504257" lon="7.4698545"><ele>850.5</ele><time>2026-04-19T09:59:01.946Z</time></trkpt><trkpt lat="45.7503662" lon="7.4697062"><ele>851.25</ele><time>2026-04-19T09:59:02.948Z</time></trkpt><trkpt lat="45.750272" lon="7.4695748"><ele>852.0</ele><time>2026-04-19T09:59:03.947Z</time></trkpt><trkpt lat="45.7501722" lon="7.469444"><ele>844.0</ele><time>2026-04-19T09:59:04.947Z</time></trkpt><trkpt lat="45.7500759" lon="7.4693092"><ele>836.0</ele><time>2026-04-19T09:59:05.948Z</time></trkpt><trkpt lat="45.7499896" lon="7.4691729"><ele>828.0</ele><time>2026-04-19T09:59:06.947Z</time></trkpt><trkpt lat="45.7499137" lon="7.4690408"><ele>820.0</ele><time>2026-04-19T09:59:07.951Z</time></trkpt><trkpt lat="45.7498252" lon="7.4688982"><ele>827.75</ele><time>2026-04-19T09:59:08.951Z</time></trkpt><trkpt lat="45.7497387" lon="7.4687642"><ele>835.5</ele><time>2026-04-19T09:59:09.95Z</time></trkpt><trkpt lat="45.7496503" lon="7.4686381"><ele>843.25</ele><time>2026-04-19T09:59:10.945Z</time></trkpt><trkpt lat="45.7495574" lon="7.4685098"><ele>851.0</ele><time>2026-04-19T09:59:11.945Z</time></trkpt><trkpt lat="45.7494669" lon="7.4683932"><ele>851.0</ele><time>2026-04-19T09:59:12.956Z</time></trkpt><trkpt lat="45.7493833" lon="7.4682735"><ele>851.0</ele><time>2026-04-19T09:59:13.949Z</time></trkpt><trkpt lat="45.7493036" lon="7.4681508"><ele>851.0</ele><time>2026-04-19T09:59:14.952Z</time></trkpt><trkpt lat="45.7492217" lon="7.4680298"><ele>851.0</ele><time>2026-04-19T09:59:15.948Z</time></trkpt><trkpt lat="45.749146" lon="7.4679104"><ele>847.5999999999999</ele><time>2026-04-19T09:59:16.947Z</time></trkpt><trkpt lat="45.749066" lon="7.4677888"><ele>844.2</ele><time>2026-04-19T09:59:17.945Z</time></trkpt><trkpt lat="45.7490025" lon="7.4676672"><ele>840.8</ele><time>2026-04-19T09:59:18.95Z</time></trkpt><trkpt lat="45.7489427" lon="7.4675566"><ele>837.4000000000001</ele><time>2026-04-19T09:59:19.947Z</time></trkpt><trkpt lat="45.7488989" lon="7.4674421"><ele>834.0</ele><time>2026-04-19T09:59:20.95Z</time></trkpt><trkpt lat="45.7488656" lon="7.4673407"><ele>834.0</ele><time>2026-04-19T09:59:21.944Z</time></trkpt><trkpt lat="45.7488316" lon="7.4672619"><ele>834.0</ele><time>2026-04-19T09:59:22.945Z</time></trkpt><trkpt lat="45.7487037" lon="7.4672485"><ele>834.0</ele><time>2026-04-19T09:59:24.952Z</time></trkpt><trkpt lat="45.7486486" lon="7.4673002"><ele>834.0</ele><time>2026-04-19T09:59:25.945Z</time></trkpt><trkpt lat="45.7486711" lon="7.4674752"><ele>834.0</ele><time>2026-04-19T09:59:27.945Z</time></trkpt><trkpt lat="45.7487182" lon="7.4675495"><ele>834.0</ele><time>2026-04-19T09:59:28.952Z</time></trkpt><trkpt lat="45.7487659" lon="7.4676311"><ele>834.0</ele><time>2026-04-19T09:59:29.944Z</time></trkpt><trkpt lat="45.7488133" lon="7.4677204"><ele>834.0</ele><time>2026-04-19T09:59:30.95Z</time></trkpt><trkpt lat="45.7488607" lon="7.4678194"><ele>834.0</ele><time>2026-04-19T09:59:31.946Z</time></trkpt><trkpt lat="45.7489086" lon="7.4679186"><ele>834.0</ele><time>2026-04-19T09:59:32.953Z</time></trkpt><trkpt lat="45.7489621" lon="7.4680181"><ele>834.0</ele><time>2026-04-19T09:59:33.947Z</time></trkpt><trkpt lat="45.7490125" lon="7.4681289"><ele>827.8000000000001</ele><time>2026-04-19T09:59:34.955Z</time></trkpt><trkpt lat="45.7490675" lon="7.4682502"><ele>821.6</ele><time>2026-04-19T09:59:35.945Z</time></trkpt><trkpt lat="45.7491277" lon="7.4683679"><ele>815.4</ele><time>2026-04-19T09:59:36.949Z</time></trkpt><trkpt lat="45.7491897" lon="7.4684905"><ele>809.2</ele><time>2026-04-19T09:59:37.944Z</time></trkpt><trkpt lat="45.7492486" lon="7.4686201"><ele>803.0</ele><time>2026-04-19T09:59:38.952Z</time></trkpt><trkpt lat="45.7493041" lon="7.4687585"><ele>807.25</ele><time>2026-04-19T09:59:39.951Z</time></trkpt><trkpt lat="45.7493582" lon="7.4689024"><ele>811.5</ele><time>2026-04-19T09:59:40.949Z</time></trkpt><trkpt lat="45.7494032" lon="7.4690543"><ele>815.75</ele><time>2026-04-19T09:59:41.945Z</time></trkpt><trkpt lat="45.7494398" lon="7.4692224"><ele>820.0</ele><time>2026-04-19T09:59:42.948Z</time></trkpt><trkpt lat="45.7494633" lon="7.4694026"><ele>820.0</ele><time>2026-04-19T09:59:43.946Z</time></trkpt><trkpt lat="45.7494819" lon="7.4695815"><ele>820.0</ele><time>2026-04-19T09:59:44.949Z</time></trkpt><trkpt lat="45.7495032" lon="7.4697561"><ele>820.0</ele><time>2026-04-19T09:59:45.943Z</time></trkpt><trkpt lat="45.7495195" lon="7.4699244"><ele>820.0</ele><time>2026-04-19T09:59:46.95Z</time></trkpt><trkpt lat="45.7495278" lon="7.4701013"><ele>818.5</ele><time>2026-04-19T09:59:47.948Z</time></trkpt><trkpt lat="45.7495411" lon="7.4702857"><ele>817.0</ele><time>2026-04-19T09:59:48.944Z</time></trkpt><trkpt lat="45.7495403" lon="7.4704725"><ele>815.5</ele><time>2026-04-19T09:59:49.945Z</time></trkpt><trkpt lat="45.7495179" lon="7.470655"><ele>814.0</ele><time>2026-04-19T09:59:50.946Z</time></trkpt><trkpt lat="45.7494819" lon="7.4708296"><ele>812.25</ele><time>2026-04-19T09:59:51.948Z</time></trkpt><trkpt lat="45.7494548" lon="7.4710107"><ele>810.5</ele><time>2026-04-19T09:59:52.95Z</time></trkpt><trkpt lat="45.7494482" lon="7.4711924"><ele>808.75</ele><time>2026-04-19T09:59:53.948Z</time></trkpt><trkpt lat="45.7494649" lon="7.471366"><ele>807.0</ele><time>2026-04-19T09:59:54.948Z</time></trkpt><trkpt lat="45.7495097" lon="7.4715351"><ele>804.5</ele><time>2026-04-19T09:59:55.945Z</time></trkpt><trkpt lat="45.7495675" lon="7.4716892"><ele>802.0</ele><time>2026-04-19T09:59:56.95Z</time></trkpt><trkpt lat="45.7496353" lon="7.4718378"><ele>799.5</ele><time>2026-04-19T09:59:57.947Z</time></trkpt><trkpt lat="45.7497034" lon="7.4719901"><ele>797.0</ele><time>2026-04-19T09:59:58.946Z</time></trkpt><trkpt lat="45.7497634" lon="7.4721408"><ele>791.75</ele><time>2026-04-19T09:59:59.951Z</time></trkpt><trkpt lat="45.7498278" lon="7.4722901"><ele>786.5</ele><time>2026-04-19T10:00:00.946Z</time></trkpt><trkpt lat="45.7498921" lon="7.4724365"><ele>781.25</ele><time>2026-04-19T10:00:01.949Z</time></trkpt><trkpt lat="45.7499583" lon="7.4725865"><ele>776.0</ele><time>2026-04-19T10:00:02.944Z</time></trkpt><trkpt lat="45.7500169" lon="7.4727354"><ele>776.0</ele><time>2026-04-19T10:00:03.948Z</time></trkpt><trkpt lat="45.7500702" lon="7.472885"><ele>776.0</ele><time>2026-04-19T10:00:04.95Z</time></trkpt><trkpt lat="45.7501109" lon="7.4730489"><ele>776.0</ele><time>2026-04-19T10:00:05.944Z</time></trkpt><trkpt lat="45.750138" lon="7.4732155"><ele>776.0</ele><time>2026-04-19T10:00:06.949Z</time></trkpt><trkpt lat="45.750158" lon="7.4733818"><ele>777.25</ele><time>2026-04-19T10:00:07.951Z</time></trkpt><trkpt lat="45.7501779" lon="7.4735505"><ele>778.5</ele><time>2026-04-19T10:00:08.949Z</time></trkpt><trkpt lat="45.7502054" lon="7.4737241"><ele>779.75</ele><time>2026-04-19T10:00:09.945Z</time></trkpt><trkpt lat="45.7502468" lon="7.4738933"><ele>781.0</ele><time>2026-04-19T10:00:10.955Z</time></trkpt><trkpt lat="45.7503048" lon="7.4740497"><ele>781.0</ele><time>2026-04-19T10:00:11.944Z</time></trkpt><trkpt lat="45.7503753" lon="7.4742003"><ele>781.0</ele><time>2026-04-19T10:00:12.953Z</time></trkpt><trkpt lat="45.7504553" lon="7.4743468"><ele>781.0</ele><time>2026-04-19T10:00:13.947Z</time></trkpt><trkpt lat="45.7505382" lon="7.474499"><ele>781.0</ele><time>2026-04-19T10:00:14.947Z</time></trkpt><trkpt lat="45.750615" lon="7.4746606"><ele>775.0</ele><time>2026-04-19T10:00:15.949Z</time></trkpt><trkpt lat="45.7506978" lon="7.4748104"><ele>769.0</ele><time>2026-04-19T10:00:16.943Z</time></trkpt><trkpt lat="45.7507796" lon="7.4749688"><ele>763.0</ele><time>2026-04-19T10:00:17.951Z</time></trkpt><trkpt lat="45.7508595" lon="7.4751269"><ele>757.0</ele><time>2026-04-19T10:00:18.95Z</time></trkpt><trkpt lat="45.7509419" lon="7.4752829"><ele>752.0</ele><time>2026-04-19T10:00:19.946Z</time></trkpt><trkpt lat="45.7510167" lon="7.4754493"><ele>747.0</ele><time>2026-04-19T10:00:20.949Z</time></trkpt><trkpt lat="45.7510761" lon="7.4755954"><ele>742.0</ele><time>2026-04-19T10:00:21.949Z</time></trkpt><trkpt lat="45.7511245" lon="7.4757386"><ele>737.0</ele><time>2026-04-19T10:00:22.952Z</time></trkpt><trkpt lat="45.7511546" lon="7.4758893"><ele>744.0</ele><time>2026-04-19T10:00:23.95Z</time></trkpt><trkpt lat="45.751166" lon="7.476042"><ele>751.0</ele><time>2026-04-19T10:00:24.952Z</time></trkpt><trkpt lat="45.7511761" lon="7.4761818"><ele>758.0</ele><time>2026-04-19T10:00:25.948Z</time></trkpt><trkpt lat="45.7511863" lon="7.4763202"><ele>765.0</ele><time>2026-04-19T10:00:26.943Z</time></trkpt><trkpt lat="45.7511856" lon="7.4764575"><ele>772.0</ele><time>2026-04-19T10:00:27.95Z</time></trkpt><trkpt lat="45.7511766" lon="7.4766068"><ele>772.0</ele><time>2026-04-19T10:00:28.953Z</time></trkpt><trkpt lat="45.7511592" lon="7.476754"><ele>772.0</ele><time>2026-04-19T10:00:29.943Z</time></trkpt><trkpt lat="45.7511344" lon="7.4769072"><ele>772.0</ele><time>2026-04-19T10:00:30.951Z</time></trkpt><trkpt lat="45.7511066" lon="7.4770684"><ele>772.0</ele><time>2026-04-19T10:00:31.946Z</time></trkpt><trkpt lat="45.7510763" lon="7.4772387"><ele>771.0</ele><time>2026-04-19T10:00:32.944Z</time></trkpt><trkpt lat="45.7510663" lon="7.4773977"><ele>770.0</ele><time>2026-04-19T10:00:33.947Z</time></trkpt><trkpt lat="45.7510523" lon="7.4775587"><ele>769.0</ele><time>2026-04-19T10:00:34.95Z</time></trkpt><trkpt lat="45.7510134" lon="7.4777215"><ele>768.0</ele><time>2026-04-19T10:00:35.945Z</time></trkpt><trkpt lat="45.7509433" lon="7.4778589"><ele>756.25</ele><time>2026-04-19T10:00:36.94Z</time></trkpt><trkpt lat="45.750869" lon="7.4779952"><ele>744.5</ele><time>2026-04-19T10:00:37.945Z</time></trkpt><trkpt lat="45.7508073" lon="7.4781347"><ele>732.75</ele><time>2026-04-19T10:00:38.945Z</time></trkpt><trkpt lat="45.7507619" lon="7.4782925"><ele>721.0</ele><time>2026-04-19T10:00:39.95Z</time></trkpt><trkpt lat="45.7507304" lon="7.4784644"><ele>721.0</ele><time>2026-04-19T10:00:40.947Z</time></trkpt><trkpt lat="45.7507021" lon="7.4786374"><ele>721.0</ele><time>2026-04-19T10:00:41.95Z</time></trkpt><trkpt lat="45.7506686" lon="7.4788112"><ele>721.0</ele><time>2026-04-19T10:00:42.941Z</time></trkpt><trkpt lat="45.7506347" lon="7.478984"><ele>721.0</ele><time>2026-04-19T10:00:43.949Z</time></trkpt><trkpt lat="45.7505993" lon="7.4791656"><ele>721.5</ele><time>2026-04-19T10:00:44.949Z</time></trkpt><trkpt lat="45.7505644" lon="7.479342"><ele>722.0</ele><time>2026-04-19T10:00:45.948Z</time></trkpt><trkpt lat="45.7505401" lon="7.4795245"><ele>722.5</ele><time>2026-04-19T10:00:46.943Z</time></trkpt><trkpt lat="45.7505328" lon="7.4797122"><ele>723.0</ele><time>2026-04-19T10:00:47.95Z</time></trkpt><trkpt lat="45.7505403" lon="7.4799062"><ele>723.0</ele><time>2026-04-19T10:00:48.951Z</time></trkpt><trkpt lat="45.7505506" lon="7.4800942"><ele>723.0</ele><time>2026-04-19T10:00:49.948Z</time></trkpt><trkpt lat="45.7505663" lon="7.4802816"><ele>723.0</ele><time>2026-04-19T10:00:50.951Z</time></trkpt><trkpt lat="45.7505825" lon="7.4804788"><ele>723.0</ele><time>2026-04-19T10:00:51.952Z</time></trkpt><trkpt lat="45.7505901" lon="7.4806757"><ele>722.0</ele><time>2026-04-19T10:00:52.949Z</time></trkpt><trkpt lat="45.7505923" lon="7.4808807"><ele>721.0</ele><time>2026-04-19T10:00:53.947Z</time></trkpt><trkpt lat="45.750597" lon="7.4810826"><ele>720.0</ele><time>2026-04-19T10:00:54.951Z</time></trkpt><trkpt lat="45.7506025" lon="7.4812657"><ele>719.0</ele><time>2026-04-19T10:00:55.951Z</time></trkpt><trkpt lat="45.7506073" lon="7.4814233"><ele>718.0</ele><time>2026-04-19T10:00:56.947Z</time></trkpt><trkpt lat="45.7506107" lon="7.4815665"><ele>717.0</ele><time>2026-04-19T10:00:57.945Z</time></trkpt><trkpt lat="45.7506164" lon="7.481689"><ele>716.0</ele><time>2026-04-19T10:00:58.949Z</time></trkpt><trkpt lat="45.7506287" lon="7.4817889"><ele>715.0</ele><time>2026-04-19T10:00:59.952Z</time></trkpt><trkpt lat="45.7506216" lon="7.4818827"><ele>714.0</ele><time>2026-04-19T10:01:00.948Z</time></trkpt><trkpt lat="45.750523" lon="7.4819778"><ele>713.0</ele><time>2026-04-19T10:01:02.954Z</time></trkpt><trkpt lat="45.7504539" lon="7.481948"><ele>713.0</ele><time>2026-04-19T10:01:03.952Z</time></trkpt><trkpt lat="45.7504166" lon="7.4818671"><ele>713.0</ele><time>2026-04-19T10:01:04.943Z</time></trkpt><trkpt lat="45.7503967" lon="7.481756"><ele>713.0</ele><time>2026-04-19T10:01:05.949Z</time></trkpt><trkpt lat="45.7503859" lon="7.4816468"><ele>713.0</ele><time>2026-04-19T10:01:06.942Z</time></trkpt><trkpt lat="45.7503714" lon="7.4815413"><ele>713.0</ele><time>2026-04-19T10:01:07.95Z</time></trkpt><trkpt lat="45.750359" lon="7.4814264"><ele>713.0</ele><time>2026-04-19T10:01:08.95Z</time></trkpt><trkpt lat="45.7503496" lon="7.4813031"><ele>714.2</ele><time>2026-04-19T10:01:09.949Z</time></trkpt><trkpt lat="45.7503302" lon="7.4811713"><ele>715.4</ele><time>2026-04-19T10:01:10.948Z</time></trkpt><trkpt lat="45.7503186" lon="7.4810329"><ele>716.6</ele><time>2026-04-19T10:01:11.949Z</time></trkpt><trkpt lat="45.7502942" lon="7.4808911"><ele>717.8000000000001</ele><time>2026-04-19T10:01:12.944Z</time></trkpt><trkpt lat="45.7502643" lon="7.4807462"><ele>719.0</ele><time>2026-04-19T10:01:13.944Z</time></trkpt><trkpt lat="45.7502365" lon="7.480599"><ele>719.0</ele><time>2026-04-19T10:01:14.951Z</time></trkpt><trkpt lat="45.7502121" lon="7.4804504"><ele>719.0</ele><time>2026-04-19T10:01:15.948Z</time></trkpt><trkpt lat="45.7501849" lon="7.4802988"><ele>719.0</ele><time>2026-04-19T10:01:16.946Z</time></trkpt><trkpt lat="45.7501508" lon="7.480143"><ele>719.0</ele><time>2026-04-19T10:01:17.954Z</time></trkpt><trkpt lat="45.7501237" lon="7.4799891"><ele>719.0</ele><time>2026-04-19T10:01:18.944Z</time></trkpt><trkpt lat="45.7500946" lon="7.4798346"><ele>711.4000000000001</ele><time>2026-04-19T10:01:19.948Z</time></trkpt><trkpt lat="45.7500665" lon="7.4796807"><ele>703.8</ele><time>2026-04-19T10:01:20.945Z</time></trkpt><trkpt lat="45.7500251" lon="7.4795326"><ele>696.2</ele><time>2026-04-19T10:01:21.944Z</time></trkpt><trkpt lat="45.7499671" lon="7.4793979"><ele>688.5999999999999</ele><time>2026-04-19T10:01:22.947Z</time></trkpt><trkpt lat="45.7499038" lon="7.4792607"><ele>681.0</ele><time>2026-04-19T10:01:23.956Z</time></trkpt><trkpt lat="45.7498429" lon="7.4791253"><ele>681.0</ele><time>2026-04-19T10:01:24.949Z</time></trkpt><trkpt lat="45.7497956" lon="7.4789823"><ele>681.0</ele><time>2026-04-19T10:01:25.948Z</time></trkpt><trkpt lat="45.7497762" lon="7.4788298"><ele>681.0</ele><time>2026-04-19T10:01:26.947Z</time></trkpt><trkpt lat="45.7497723" lon="7.4786767"><ele>681.0</ele><time>2026-04-19T10:01:27.951Z</time></trkpt><trkpt lat="45.7497704" lon="7.4785333"><ele>681.0</ele><time>2026-04-19T10:01:28.949Z</time></trkpt><trkpt lat="45.7497376" lon="7.4783955"><ele>681.8</ele><time>2026-04-19T10:01:29.951Z</time></trkpt><trkpt lat="45.7496839" lon="7.4782886"><ele>682.5999999999999</ele><time>2026-04-19T10:01:30.955Z</time></trkpt><trkpt lat="45.7496033" lon="7.4781966"><ele>683.4</ele><time>2026-04-19T10:01:31.948Z</time></trkpt><trkpt lat="45.7495125" lon="7.4781537"><ele>684.2</ele><time>2026-04-19T10:01:32.952Z</time></trkpt><trkpt lat="45.7494227" lon="7.4781229"><ele>685.0</ele><time>2026-04-19T10:01:33.949Z</time></trkpt><trkpt lat="45.7493591" lon="7.4780581"><ele>679.6</ele><time>2026-04-19T10:01:34.951Z</time></trkpt><trkpt lat="45.7493144" lon="7.4779272"><ele>674.2</ele><time>2026-04-19T10:01:35.948Z</time></trkpt><trkpt lat="45.7492892" lon="7.4777623"><ele>668.8</ele><time>2026-04-19T10:01:36.948Z</time></trkpt><trkpt lat="45.7493002" lon="7.477616"><ele>663.4</ele><time>2026-04-19T10:01:37.95Z</time></trkpt><trkpt lat="45.7493191" lon="7.4774666"><ele>658.0</ele><time>2026-04-19T10:01:38.947Z</time></trkpt><trkpt lat="45.7493292" lon="7.477323"><ele>658.0</ele><time>2026-04-19T10:01:39.95Z</time></trkpt><trkpt lat="45.749325" lon="7.4771813"><ele>658.0</ele><time>2026-04-19T10:01:40.947Z</time></trkpt><trkpt lat="45.7492929" lon="7.4770383"><ele>658.0</ele><time>2026-04-19T10:01:41.944Z</time></trkpt><trkpt lat="45.7492351" lon="7.4769165"><ele>658.0</ele><time>2026-04-19T10:01:42.951Z</time></trkpt><trkpt lat="45.749149" lon="7.476812"><ele>658.0</ele><time>2026-04-19T10:01:43.948Z</time></trkpt><trkpt lat="45.7490525" lon="7.4767695"><ele>660.0</ele><time>2026-04-19T10:01:44.948Z</time></trkpt><trkpt lat="45.7489476" lon="7.4767819"><ele>662.0</ele><time>2026-04-19T10:01:45.949Z</time></trkpt><trkpt lat="45.748847" lon="7.476801"><ele>664.0</ele><time>2026-04-19T10:01:46.95Z</time></trkpt><trkpt lat="45.7487532" lon="7.4768129"><ele>666.0</ele><time>2026-04-19T10:01:47.952Z</time></trkpt><trkpt lat="45.7486601" lon="7.4767812"><ele>668.0</ele><time>2026-04-19T10:01:48.944Z</time></trkpt><trkpt lat="45.7485846" lon="7.4767048"><ele>662.8</ele><time>2026-04-19T10:01:49.945Z</time></trkpt><trkpt lat="45.7485329" lon="7.4765762"><ele>657.5999999999999</ele><time>2026-04-19T10:01:50.948Z</time></trkpt><trkpt lat="45.7485163" lon="7.4764199"><ele>652.4000000000001</ele><time>2026-04-19T10:01:51.948Z</time></trkpt><trkpt lat="45.7485269" lon="7.4762554"><ele>647.2</ele><time>2026-04-19T10:01:52.948Z</time></trkpt><trkpt lat="45.7485331" lon="7.4760955"><ele>642.0</ele><time>2026-04-19T10:01:53.944Z</time></trkpt><trkpt lat="45.7485293" lon="7.4759368"><ele>642.0</ele><time>2026-04-19T10:01:54.946Z</time></trkpt><trkpt lat="45.7485028" lon="7.4757808"><ele>642.0</ele><time>2026-04-19T10:01:55.948Z</time></trkpt><trkpt lat="45.7484585" lon="7.4756341"><ele>642.0</ele><time>2026-04-19T10:01:56.953Z</time></trkpt><trkpt lat="45.7484031" lon="7.4754862"><ele>642.0</ele><time>2026-04-19T10:01:57.944Z</time></trkpt><trkpt lat="45.7483462" lon="7.475338"><ele>643.0</ele><time>2026-04-19T10:01:58.951Z</time></trkpt><trkpt lat="45.7482917" lon="7.4751917"><ele>644.0</ele><time>2026-04-19T10:01:59.951Z</time></trkpt><trkpt lat="45.7482321" lon="7.4750455"><ele>645.0</ele><time>2026-04-19T10:02:00.947Z</time></trkpt><trkpt lat="45.7481805" lon="7.4748971"><ele>646.0</ele><time>2026-04-19T10:02:01.948Z</time></trkpt><trkpt lat="45.7481204" lon="7.4747483"><ele>647.75</ele><time>2026-04-19T10:02:02.946Z</time></trkpt><trkpt lat="45.7480587" lon="7.4745908"><ele>649.5</ele><time>2026-04-19T10:02:03.95Z</time></trkpt><trkpt lat="45.7480014" lon="7.4744323"><ele>651.25</ele><time>2026-04-19T10:02:04.948Z</time></trkpt><trkpt lat="45.7479423" lon="7.4742801"><ele>653.0</ele><time>2026-04-19T10:02:05.952Z</time></trkpt><trkpt lat="45.7478844" lon="7.474128"><ele>653.0</ele><time>2026-04-19T10:02:06.953Z</time></trkpt><trkpt lat="45.747822" lon="7.4739783"><ele>653.0</ele><time>2026-04-19T10:02:07.95Z</time></trkpt><trkpt lat="45.7477565" lon="7.4738251"><ele>653.0</ele><time>2026-04-19T10:02:08.95Z</time></trkpt><trkpt lat="45.7476979" lon="7.473681"><ele>653.0</ele><time>2026-04-19T10:02:09.948Z</time></trkpt><trkpt lat="45.7476381" lon="7.4735416"><ele>648.25</ele><time>2026-04-19T10:02:10.954Z</time></trkpt><trkpt lat="45.7475743" lon="7.4733971"><ele>643.5</ele><time>2026-04-19T10:02:11.95Z</time></trkpt><trkpt lat="45.7475188" lon="7.4732472"><ele>638.75</ele><time>2026-04-19T10:02:12.947Z</time></trkpt><trkpt lat="45.7474625" lon="7.473093"><ele>634.0</ele><time>2026-04-19T10:02:13.95Z</time></trkpt><trkpt lat="45.747418" lon="7.4729271"><ele>634.0</ele><time>2026-04-19T10:02:14.948Z</time></trkpt><trkpt lat="45.7473713" lon="7.4727633"><ele>634.0</ele><time>2026-04-19T10:02:15.952Z</time></trkpt><trkpt lat="45.7473206" lon="7.4726032"><ele>634.0</ele><time>2026-04-19T10:02:16.952Z</time></trkpt><trkpt lat="45.7472705" lon="7.4724399"><ele>634.0</ele><time>2026-04-19T10:02:17.947Z</time></trkpt><trkpt lat="45.7472261" lon="7.4722777"><ele>634.0</ele><time>2026-04-19T10:02:18.941Z</time></trkpt><trkpt lat="45.7471773" lon="7.4721146"><ele>634.0</ele><time>2026-04-19T10:02:19.953Z</time></trkpt><trkpt lat="45.7471328" lon="7.4719544"><ele>634.0</ele><time>2026-04-19T10:02:20.955Z</time></trkpt><trkpt lat="45.7470905" lon="7.4718147"><ele>634.0</ele><time>2026-04-19T10:02:21.952Z</time></trkpt><trkpt lat="45.7470355" lon="7.4716955"><ele>633.8</ele><time>2026-04-19T10:02:22.946Z</time></trkpt><trkpt lat="45.7469459" lon="7.4716059"><ele>633.5999999999999</ele><time>2026-04-19T10:02:23.956Z</time></trkpt><trkpt lat="45.7468549" lon="7.4715657"><ele>633.4</ele><time>2026-04-19T10:02:24.95Z</time></trkpt><trkpt lat="45.7467613" lon="7.4715718"><ele>633.1999999999999</ele><time>2026-04-19T10:02:25.951Z</time></trkpt><trkpt lat="45.7466767" lon="7.4716297"><ele>633.0</ele><time>2026-04-19T10:02:26.95Z</time></trkpt><trkpt lat="45.7466114" lon="7.4717298"><ele>633.0</ele><time>2026-04-19T10:02:27.952Z</time></trkpt><trkpt lat="45.7465612" lon="7.4718421"><ele>633.0</ele><time>2026-04-19T10:02:28.952Z</time></trkpt><trkpt lat="45.746521" lon="7.4719695"><ele>633.0</ele><time>2026-04-19T10:02:29.948Z</time></trkpt><trkpt lat="45.746476" lon="7.4720949"><ele>633.0</ele><time>2026-04-19T10:02:30.954Z</time></trkpt><trkpt lat="45.7464215" lon="7.4722099"><ele>633.0</ele><time>2026-04-19T10:02:31.95Z</time></trkpt><trkpt lat="45.7463519" lon="7.4723101"><ele>628.8</ele><time>2026-04-19T10:02:32.951Z</time></trkpt><trkpt lat="45.7462746" lon="7.4724017"><ele>624.5999999999999</ele><time>2026-04-19T10:02:33.952Z</time></trkpt><trkpt lat="45.7461806" lon="7.4724742"><ele>620.4000000000001</ele><time>2026-04-19T10:02:34.953Z</time></trkpt><trkpt lat="45.7460759" lon="7.4725207"><ele>616.2</ele><time>2026-04-19T10:02:35.948Z</time></trkpt><trkpt lat="45.745967" lon="7.472558"><ele>612.0</ele><time>2026-04-19T10:02:36.958Z</time></trkpt><trkpt lat="45.7458528" lon="7.4725568"><ele>612.0</ele><time>2026-04-19T10:02:37.949Z</time></trkpt><trkpt lat="45.7457302" lon="7.4725412"><ele>612.0</ele><time>2026-04-19T10:02:38.949Z</time></trkpt><trkpt lat="45.7456063" lon="7.4725158"><ele>612.0</ele><time>2026-04-19T10:02:39.954Z</time></trkpt><trkpt lat="45.745481" lon="7.4724956"><ele>612.0</ele><time>2026-04-19T10:02:40.946Z</time></trkpt><trkpt lat="45.7453515" lon="7.4724695"><ele>612.0</ele><time>2026-04-19T10:02:41.946Z</time></trkpt><trkpt lat="45.7452301" lon="7.4724376"><ele>612.0</ele><time>2026-04-19T10:02:42.947Z</time></trkpt><trkpt lat="45.7451038" lon="7.4724125"><ele>612.0</ele><time>2026-04-19T10:02:43.957Z</time></trkpt><trkpt lat="45.7449776" lon="7.4723896"><ele>612.0</ele><time>2026-04-19T10:02:44.952Z</time></trkpt><trkpt lat="45.7448581" lon="7.4723705"><ele>609.25</ele><time>2026-04-19T10:02:45.948Z</time></trkpt><trkpt lat="45.7447317" lon="7.4723787"><ele>606.5</ele><time>2026-04-19T10:02:46.954Z</time></trkpt><trkpt lat="45.7446135" lon="7.4724258"><ele>603.75</ele><time>2026-04-19T10:02:47.95Z</time></trkpt><trkpt lat="45.7445029" lon="7.4725178"><ele>601.0</ele><time>2026-04-19T10:02:48.951Z</time></trkpt><trkpt lat="45.7444123" lon="7.47265"><ele>600.25</ele><time>2026-04-19T10:02:49.954Z</time></trkpt><trkpt lat="45.7443482" lon="7.4727951"><ele>599.5</ele><time>2026-04-19T10:02:50.95Z</time></trkpt><trkpt lat="45.7442836" lon="7.4729601"><ele>598.75</ele><time>2026-04-19T10:02:51.959Z</time></trkpt><trkpt lat="45.7442216" lon="7.4731152"><ele>598.0</ele><time>2026-04-19T10:02:52.951Z</time></trkpt><trkpt lat="45.7441389" lon="7.4732231"><ele>594.8</ele><time>2026-04-19T10:02:53.95Z</time></trkpt><trkpt lat="45.7440361" lon="7.4732774"><ele>591.5999999999999</ele><time>2026-04-19T10:02:54.951Z</time></trkpt><trkpt lat="45.7439385" lon="7.4732702"><ele>588.4000000000001</ele><time>2026-04-19T10:02:55.953Z</time></trkpt><trkpt lat="45.7438323" lon="7.473218"><ele>585.2</ele><time>2026-04-19T10:02:56.956Z</time></trkpt><trkpt lat="45.7437571" lon="7.4731236"><ele>582.0</ele><time>2026-04-19T10:02:57.951Z</time></trkpt><trkpt lat="45.743686" lon="7.4730118"><ele>581.4</ele><time>2026-04-19T10:02:58.947Z</time></trkpt><trkpt lat="45.7436186" lon="7.472903"><ele>580.8000000000001</ele><time>2026-04-19T10:02:59.947Z</time></trkpt><trkpt lat="45.7435525" lon="7.4727947"><ele>580.2</ele><time>2026-04-19T10:03:00.954Z</time></trkpt><trkpt lat="45.7434866" lon="7.4726865"><ele>579.6</ele><time>2026-04-19T10:03:01.945Z</time></trkpt><trkpt lat="45.7434183" lon="7.472586"><ele>579.0</ele><time>2026-04-19T10:03:02.947Z</time></trkpt><trkpt lat="45.7433491" lon="7.4724841"><ele>579.0</ele><time>2026-04-19T10:03:03.95Z</time></trkpt><trkpt lat="45.7432886" lon="7.4723717"><ele>579.0</ele><time>2026-04-19T10:03:04.942Z</time></trkpt><trkpt lat="45.743238" lon="7.4722501"><ele>579.0</ele><time>2026-04-19T10:03:05.951Z</time></trkpt><trkpt lat="45.7431968" lon="7.4721197"><ele>579.0</ele><time>2026-04-19T10:03:06.956Z</time></trkpt><trkpt lat="45.7431749" lon="7.4719928"><ele>579.0</ele><time>2026-04-19T10:03:07.947Z</time></trkpt><trkpt lat="45.7431557" lon="7.471855"><ele>580.8</ele><time>2026-04-19T10:03:08.952Z</time></trkpt><trkpt lat="45.7431306" lon="7.4717272"><ele>582.5999999999999</ele><time>2026-04-19T10:03:09.948Z</time></trkpt><trkpt lat="45.7431052" lon="7.4715849"><ele>584.4</ele><time>2026-04-19T10:03:10.948Z</time></trkpt><trkpt lat="45.7430806" lon="7.4714457"><ele>586.1999999999999</ele><time>2026-04-19T10:03:11.95Z</time></trkpt><trkpt lat="45.7430573" lon="7.4713105"><ele>588.0</ele><time>2026-04-19T10:03:12.948Z</time></trkpt><trkpt lat="45.7430369" lon="7.4711719"><ele>589.4</ele><time>2026-04-19T10:03:13.949Z</time></trkpt><trkpt lat="45.7430105" lon="7.4710357"><ele>590.8</ele><time>2026-04-19T10:03:14.949Z</time></trkpt><trkpt lat="45.742981" lon="7.4708985"><ele>592.2</ele><time>2026-04-19T10:03:15.948Z</time></trkpt><trkpt lat="45.7429413" lon="7.4707648"><ele>593.6</ele><time>2026-04-19T10:03:16.949Z</time></trkpt><trkpt lat="45.7428984" lon="7.4706348"><ele>595.0</ele><time>2026-04-19T10:03:17.944Z</time></trkpt><trkpt lat="45.7428542" lon="7.470503"><ele>596.2</ele><time>2026-04-19T10:03:18.948Z</time></trkpt><trkpt lat="45.742804" lon="7.4703713"><ele>597.4</ele><time>2026-04-19T10:03:19.947Z</time></trkpt><trkpt lat="45.7427493" lon="7.4702435"><ele>598.6</ele><time>2026-04-19T10:03:20.945Z</time></trkpt><trkpt lat="45.7426878" lon="7.470128"><ele>599.8</ele><time>2026-04-19T10:03:21.947Z</time></trkpt><trkpt lat="45.7426243" lon="7.4700097"><ele>601.0</ele><time>2026-04-19T10:03:22.949Z</time></trkpt><trkpt lat="45.7425641" lon="7.4698986"><ele>596.8333333333334</ele><time>2026-04-19T10:03:23.949Z</time></trkpt><trkpt lat="45.7425119" lon="7.469795"><ele>592.6666666666667</ele><time>2026-04-19T10:03:24.949Z</time></trkpt><trkpt lat="45.7424634" lon="7.4696945"><ele>588.5</ele><time>2026-04-19T10:03:25.952Z</time></trkpt><trkpt lat="45.7424267" lon="7.4695919"><ele>584.3333333333334</ele><time>2026-04-19T10:03:26.953Z</time></trkpt><trkpt lat="45.7423972" lon="7.4694974"><ele>580.1666666666666</ele><time>2026-04-19T10:03:27.95Z</time></trkpt><trkpt lat="45.7423732" lon="7.4694112"><ele>576.0</ele><time>2026-04-19T10:03:28.949Z</time></trkpt><trkpt lat="45.7423547" lon="7.4693082"><ele>576.0</ele><time>2026-04-19T10:03:29.946Z</time></trkpt><trkpt lat="45.7423488" lon="7.4691946"><ele>576.0</ele><time>2026-04-19T10:03:30.943Z</time></trkpt><trkpt lat="45.7423446" lon="7.4691019"><ele>576.0</ele><time>2026-04-19T10:03:31.943Z</time></trkpt><trkpt lat="45.7422936" lon="7.4689582"><ele>576.0</ele><time>2026-04-19T10:03:33.945Z</time></trkpt><trkpt lat="45.7422617" lon="7.4688277"><ele>576.0</ele><time>2026-04-19T10:03:35.95Z</time></trkpt><trkpt lat="45.7422395" lon="7.4687176"><ele>576.0</ele><time>2026-04-19T10:03:37.949Z</time></trkpt><trkpt lat="45.7422195" lon="7.4686243"><ele>576.1666666666666</ele><time>2026-04-19T10:03:39.95Z</time></trkpt><trkpt lat="45.7422068" lon="7.4685215"><ele>576.3333333333334</ele><time>2026-04-19T10:03:41.949Z</time></trkpt><trkpt lat="45.7421848" lon="7.4684094"><ele>576.5</ele><time>2026-04-19T10:03:43.951Z</time></trkpt><trkpt lat="45.7421799" lon="7.4683088"><ele>576.6666666666667</ele><time>2026-04-19T10:03:45.949Z</time></trkpt><trkpt lat="45.7422006" lon="7.4681886"><ele>576.8333333333334</ele><time>2026-04-19T10:03:47.945Z</time></trkpt><trkpt lat="45.7422232" lon="7.4680821"><ele>577.0</ele><time>2026-04-19T10:03:49.953Z</time></trkpt><trkpt lat="45.7422352" lon="7.467963"><ele>576.8000000000001</ele><time>2026-04-19T10:03:51.94Z</time></trkpt><trkpt lat="45.742243" lon="7.4678425"><ele>576.6</ele><time>2026-04-19T10:03:53.95Z</time></trkpt><trkpt lat="45.7422597" lon="7.4676991"><ele>576.4000000000001</ele><time>2026-04-19T10:03:55.95Z</time></trkpt><trkpt lat="45.7422802" lon="7.4675613"><ele>576.2</ele><time>2026-04-19T10:03:57.943Z</time></trkpt><trkpt lat="45.7422951" lon="7.4674262"><ele>576.0</ele><time>2026-04-19T10:03:59.951Z</time></trkpt><trkpt lat="45.7423041" lon="7.4672945"><ele>576.0</ele><time>2026-04-19T10:04:01.943Z</time></trkpt><trkpt lat="45.7423047" lon="7.4671546"><ele>576.0</ele><time>2026-04-19T10:04:03.952Z</time></trkpt><trkpt lat="45.7423031" lon="7.4670156"><ele>576.0</ele><time>2026-04-19T10:04:05.953Z</time></trkpt><trkpt lat="45.7422962" lon="7.4668865"><ele>576.0</ele><time>2026-04-19T10:04:07.951Z</time></trkpt><trkpt lat="45.7422822" lon="7.4667464"><ele>576.0</ele><time>2026-04-19T10:04:09.948Z</time></trkpt><trkpt lat="45.7422646" lon="7.4666121"><ele>575.8</ele><time>2026-04-19T10:04:12.024Z</time></trkpt><trkpt lat="45.7422449" lon="7.4664777"><ele>575.6</ele><time>2026-04-19T10:04:13.948Z</time></trkpt><trkpt lat="45.7422312" lon="7.466337"><ele>575.4</ele><time>2026-04-19T10:04:15.95Z</time></trkpt><trkpt lat="45.7422049" lon="7.4662043"><ele>575.2</ele><time>2026-04-19T10:04:18.041Z</time></trkpt><trkpt lat="45.7421788" lon="7.4660715"><ele>575.0</ele><time>2026-04-19T10:04:19.944Z</time></trkpt><trkpt lat="45.7421837" lon="7.4659358"><ele>575.4</ele><time>2026-04-19T10:04:22.031Z</time></trkpt><trkpt lat="45.7421967" lon="7.4657943"><ele>575.8</ele><time>2026-04-19T10:04:23.949Z</time></trkpt><trkpt lat="45.7422241" lon="7.4656562"><ele>576.2</ele><time>2026-04-19T10:04:25.945Z</time></trkpt><trkpt lat="45.7422566" lon="7.4655172"><ele>576.6</ele><time>2026-04-19T10:04:27.982Z</time></trkpt><trkpt lat="45.7422696" lon="7.4653705"><ele>577.0</ele><time>2026-04-19T10:04:29.946Z</time></trkpt><trkpt lat="45.7422715" lon="7.4652149"><ele>577.6</ele><time>2026-04-19T10:04:31.946Z</time></trkpt><trkpt lat="45.7422651" lon="7.4650647"><ele>578.2</ele><time>2026-04-19T10:04:34.021Z</time></trkpt><trkpt lat="45.7422556" lon="7.4649237"><ele>578.8</ele><time>2026-04-19T10:04:35.947Z</time></trkpt><trkpt lat="45.742238" lon="7.4647601"><ele>579.4</ele><time>2026-04-19T10:04:38.029Z</time></trkpt><trkpt lat="45.7421908" lon="7.4646138"><ele>580.0</ele><time>2026-04-19T10:04:39.947Z</time></trkpt><trkpt lat="45.7421569" lon="7.4644801"><ele>580.0</ele><time>2026-04-19T10:04:42.027Z</time></trkpt><trkpt lat="45.7421354" lon="7.4643817"><ele>580.0</ele><time>2026-04-19T10:04:43.957Z</time></trkpt><trkpt lat="45.7421309" lon="7.4642641"><ele>580.0</ele><time>2026-04-19T10:04:46.955Z</time></trkpt><trkpt lat="45.742185" lon="7.4641688"><ele>580.0</ele><time>2026-04-19T10:04:49.957Z</time></trkpt><trkpt lat="45.7422292" lon="7.4640958"><ele>580.0</ele><time>2026-04-19T10:04:52.016Z</time></trkpt><trkpt lat="45.7422677" lon="7.4639946"><ele>580.0</ele><time>2026-04-19T10:04:53.938Z</time></trkpt><trkpt lat="45.7422988" lon="7.4638974"><ele>580.0</ele><time>2026-04-19T10:04:55.953Z</time></trkpt><trkpt lat="45.7423285" lon="7.4638095"><ele>580.0</ele><time>2026-04-19T10:04:57.953Z</time></trkpt><trkpt lat="45.742349" lon="7.4637197"><ele>580.0</ele><time>2026-04-19T10:04:59.949Z</time></trkpt><trkpt lat="45.7423627" lon="7.4636287"><ele>580.0</ele><time>2026-04-19T10:05:01.945Z</time></trkpt><trkpt lat="45.7423746" lon="7.4635282"><ele>580.0</ele><time>2026-04-19T10:05:03.95Z</time></trkpt><trkpt lat="45.742375" lon="7.4634327"><ele>580.0</ele><time>2026-04-19T10:05:05.955Z</time></trkpt><trkpt lat="45.7423705" lon="7.4633322"><ele>580.0</ele><time>2026-04-19T10:05:07.952Z</time></trkpt><trkpt lat="45.7423736" lon="7.4632279"><ele>579.6666666666667</ele><time>2026-04-19T10:05:09.951Z</time></trkpt><trkpt lat="45.7423709" lon="7.4631351"><ele>579.3333333333334</ele><time>2026-04-19T10:05:12.023Z</time></trkpt><trkpt lat="45.7423586" lon="7.4630367"><ele>579.0</ele><time>2026-04-19T10:05:13.948Z</time></trkpt><trkpt lat="45.7423557" lon="7.4629031"><ele>578.6666666666666</ele><time>2026-04-19T10:05:16.953Z</time></trkpt><trkpt lat="45.7423801" lon="7.4628191"><ele>578.3333333333333</ele><time>2026-04-19T10:05:19.029Z</time></trkpt><trkpt lat="45.7424648" lon="7.4627466"><ele>578.0</ele><time>2026-04-19T10:05:21.954Z</time></trkpt><trkpt lat="45.7425298" lon="7.4627355"><ele>578.0</ele><time>2026-04-19T10:05:23.946Z</time></trkpt><trkpt lat="45.7425949" lon="7.4627774"><ele>578.0</ele><time>2026-04-19T10:05:25.942Z</time></trkpt><trkpt lat="45.7426653" lon="7.4628158"><ele>578.0</ele><time>2026-04-19T10:05:27.946Z</time></trkpt><trkpt lat="45.7427406" lon="7.4628404"><ele>578.0</ele><time>2026-04-19T10:05:29.946Z</time></trkpt><trkpt lat="45.7428155" lon="7.4628322"><ele>578.0</ele><time>2026-04-19T10:05:31.961Z</time></trkpt><trkpt lat="45.7429061" lon="7.4628251"><ele>578.0</ele><time>2026-04-19T10:05:34.95Z</time></trkpt><trkpt lat="45.7429699" lon="7.4628107"><ele>580.8333333333333</ele><time>2026-04-19T10:05:36.95Z</time></trkpt><trkpt lat="45.7430324" lon="7.4627888"><ele>583.6666666666666</ele><time>2026-04-19T10:05:38.953Z</time></trkpt><trkpt lat="45.7431124" lon="7.4627117"><ele>586.5</ele><time>2026-04-19T10:05:41.947Z</time></trkpt><trkpt lat="45.743168" lon="7.4626484"><ele>589.3333333333334</ele><time>2026-04-19T10:05:43.945Z</time></trkpt><trkpt lat="45.7432179" lon="7.4625842"><ele>592.1666666666667</ele><time>2026-04-19T10:05:45.951Z</time></trkpt><trkpt lat="45.7432805" lon="7.4624855"><ele>595.0</ele><time>2026-04-19T10:05:48.954Z</time></trkpt><trkpt lat="45.7433059" lon="7.4623915"><ele>595.0</ele><time>2026-04-19T10:05:50.946Z</time></trkpt><trkpt lat="45.7433157" lon="7.4622874"><ele>595.0</ele><time>2026-04-19T10:05:52.949Z</time></trkpt><trkpt lat="45.7433145" lon="7.4621837"><ele>595.0</ele><time>2026-04-19T10:05:54.953Z</time></trkpt><trkpt lat="45.7433003" lon="7.4620861"><ele>595.0</ele><time>2026-04-19T10:05:56.948Z</time></trkpt><trkpt lat="45.7432987" lon="7.4619872"><ele>595.0</ele><time>2026-04-19T10:05:58.946Z</time></trkpt><trkpt lat="45.7432871" lon="7.4618569"><ele>595.0</ele><time>2026-04-19T10:06:01.949Z</time></trkpt><trkpt lat="45.7432648" lon="7.4617663"><ele>595.0</ele><time>2026-04-19T10:06:03.951Z</time></trkpt><trkpt lat="45.7432694" lon="7.4616544"><ele>594.6666666666667</ele><time>2026-04-19T10:06:06.95Z</time></trkpt><trkpt lat="45.7432959" lon="7.4615388"><ele>594.3333333333334</ele><time>2026-04-19T10:06:09.944Z</time></trkpt><trkpt lat="45.7432528" lon="7.46147"><ele>594.0</ele><time>2026-04-19T10:06:11.951Z</time></trkpt><trkpt lat="45.7432011" lon="7.4614003"><ele>593.6666666666666</ele><time>2026-04-19T10:06:13.95Z</time></trkpt><trkpt lat="45.7431556" lon="7.4613358"><ele>593.3333333333333</ele><time>2026-04-19T10:06:15.949Z</time></trkpt><trkpt lat="45.7430845" lon="7.4612406"><ele>593.0</ele><time>2026-04-19T10:06:18.949Z</time></trkpt><trkpt lat="45.7430371" lon="7.4611442"><ele>595.6666666666666</ele><time>2026-04-19T10:06:21.956Z</time></trkpt><trkpt lat="45.7429963" lon="7.4610412"><ele>598.3333333333333</ele><time>2026-04-19T10:06:24.949Z</time></trkpt><trkpt lat="45.7429453" lon="7.46094"><ele>601.0</ele><time>2026-04-19T10:06:27.954Z</time></trkpt><trkpt lat="45.7428879" lon="7.4608515"><ele>603.6666666666666</ele><time>2026-04-19T10:06:30.951Z</time></trkpt><trkpt lat="45.742848" lon="7.460751"><ele>606.3333333333334</ele><time>2026-04-19T10:06:33.948Z</time></trkpt><trkpt lat="45.7428221" lon="7.460652"><ele>609.0</ele><time>2026-04-19T10:06:36.951Z</time></trkpt><trkpt lat="45.7427914" lon="7.4605557"><ele>612.0</ele><time>2026-04-19T10:06:39.95Z</time></trkpt><trkpt lat="45.7427867" lon="7.460435"><ele>615.0</ele><time>2026-04-19T10:06:42.947Z</time></trkpt><trkpt lat="45.7427794" lon="7.4603045"><ele>618.0</ele><time>2026-04-19T10:06:45.948Z</time></trkpt><trkpt lat="45.7427682" lon="7.4601776"><ele>621.0</ele><time>2026-04-19T10:06:48.95Z</time></trkpt><trkpt lat="45.7427675" lon="7.4600382"><ele>624.0</ele><time>2026-04-19T10:06:51.953Z</time></trkpt><trkpt lat="45.7427617" lon="7.4599387"><ele>627.0</ele><time>2026-04-19T10:06:53.948Z</time></trkpt><trkpt lat="45.7427557" lon="7.4598326"><ele>627.0</ele><time>2026-04-19T10:06:55.947Z</time></trkpt><trkpt lat="45.7427358" lon="7.4597408"><ele>627.0</ele><time>2026-04-19T10:06:57.953Z</time></trkpt><trkpt lat="45.7427153" lon="7.4596486"><ele>627.0</ele><time>2026-04-19T10:06:59.956Z</time></trkpt><trkpt lat="45.7426937" lon="7.4595382"><ele>627.0</ele><time>2026-04-19T10:07:01.948Z</time></trkpt><trkpt lat="45.7426753" lon="7.4594289"><ele>627.0</ele><time>2026-04-19T10:07:03.954Z</time></trkpt><trkpt lat="45.7426543" lon="7.4593225"><ele>627.0</ele><time>2026-04-19T10:07:05.95Z</time></trkpt><trkpt lat="45.7426383" lon="7.4592067"><ele>623.3333333333334</ele><time>2026-04-19T10:07:07.95Z</time></trkpt><trkpt lat="45.7426081" lon="7.4590947"><ele>619.6666666666666</ele><time>2026-04-19T10:07:09.953Z</time></trkpt><trkpt lat="45.7425863" lon="7.4589908"><ele>616.0</ele><time>2026-04-19T10:07:11.949Z</time></trkpt><trkpt lat="45.7425572" lon="7.458887"><ele>612.3333333333333</ele><time>2026-04-19T10:07:13.949Z</time></trkpt><trkpt lat="45.7425303" lon="7.458768"><ele>608.6666666666666</ele><time>2026-04-19T10:07:15.948Z</time></trkpt><trkpt lat="45.7425026" lon="7.4586557"><ele>605.0</ele><time>2026-04-19T10:07:17.943Z</time></trkpt><trkpt lat="45.7424795" lon="7.4585462"><ele>605.0</ele><time>2026-04-19T10:07:19.954Z</time></trkpt><trkpt lat="45.7424756" lon="7.4584316"><ele>605.0</ele><time>2026-04-19T10:07:21.95Z</time></trkpt><trkpt lat="45.7424829" lon="7.4583077"><ele>605.0</ele><time>2026-04-19T10:07:23.949Z</time></trkpt><trkpt lat="45.7424738" lon="7.4581795"><ele>605.0</ele><time>2026-04-19T10:07:25.949Z</time></trkpt><trkpt lat="45.7424742" lon="7.458063"><ele>605.0</ele><time>2026-04-19T10:07:27.948Z</time></trkpt><trkpt lat="45.7424727" lon="7.4579436"><ele>605.0</ele><time>2026-04-19T10:07:29.946Z</time></trkpt><trkpt lat="45.7424623" lon="7.4578243"><ele>606.8333333333333</ele><time>2026-04-19T10:07:31.95Z</time></trkpt><trkpt lat="45.7424302" lon="7.4577047"><ele>608.6666666666666</ele><time>2026-04-19T10:07:33.946Z</time></trkpt><trkpt lat="45.7423964" lon="7.4576037"><ele>610.5</ele><time>2026-04-19T10:07:35.955Z</time></trkpt><trkpt lat="45.7423624" lon="7.4575015"><ele>612.3333333333334</ele><time>2026-04-19T10:07:37.956Z</time></trkpt><trkpt lat="45.7423346" lon="7.4574185"><ele>614.1666666666667</ele><time>2026-04-19T10:07:39.948Z</time></trkpt><trkpt lat="45.74231" lon="7.457289"><ele>616.0</ele><time>2026-04-19T10:07:42.97Z</time></trkpt><trkpt lat="45.7422907" lon="7.4571953"><ele>618.5</ele><time>2026-04-19T10:07:44.946Z</time></trkpt><trkpt lat="45.7422687" lon="7.457101"><ele>621.0</ele><time>2026-04-19T10:07:46.951Z</time></trkpt><trkpt lat="45.742248" lon="7.4569768"><ele>623.5</ele><time>2026-04-19T10:07:49.951Z</time></trkpt><trkpt lat="45.7422193" lon="7.4568507"><ele>626.0</ele><time>2026-04-19T10:07:52.945Z</time></trkpt><trkpt lat="45.7421928" lon="7.4567228"><ele>628.5</ele><time>2026-04-19T10:07:55.953Z</time></trkpt><trkpt lat="45.742184" lon="7.4565935"><ele>631.0</ele><time>2026-04-19T10:07:58.952Z</time></trkpt><trkpt lat="45.7421973" lon="7.4564655"><ele>631.0</ele><time>2026-04-19T10:08:01.948Z</time></trkpt><trkpt lat="45.7422153" lon="7.4563377"><ele>631.0</ele><time>2026-04-19T10:08:04.949Z</time></trkpt><trkpt lat="45.7422336" lon="7.4562116"><ele>631.0</ele><time>2026-04-19T10:08:07.95Z</time></trkpt><trkpt lat="45.7422503" lon="7.4560856"><ele>631.0</ele><time>2026-04-19T10:08:10.957Z</time></trkpt><trkpt lat="45.7422568" lon="7.4559543"><ele>631.0</ele><time>2026-04-19T10:08:13.956Z</time></trkpt><trkpt lat="45.742252" lon="7.4558346"><ele>631.0</ele><time>2026-04-19T10:08:16.954Z</time></trkpt><trkpt lat="45.7422318" lon="7.4557108"><ele>633.1666666666667</ele><time>2026-04-19T10:08:19.95Z</time></trkpt><trkpt lat="45.7422146" lon="7.4555926"><ele>635.3333333333334</ele><time>2026-04-19T10:08:22.951Z</time></trkpt><trkpt lat="45.7421924" lon="7.4554719"><ele>637.5</ele><time>2026-04-19T10:08:25.951Z</time></trkpt><trkpt lat="45.7421722" lon="7.4553445"><ele>639.6666666666666</ele><time>2026-04-19T10:08:28.951Z</time></trkpt><trkpt lat="45.7421583" lon="7.4552155"><ele>641.8333333333333</ele><time>2026-04-19T10:08:31.949Z</time></trkpt><trkpt lat="45.7421435" lon="7.4550878"><ele>644.0</ele><time>2026-04-19T10:08:34.947Z</time></trkpt><trkpt lat="45.7421302" lon="7.4549668"><ele>646.1666666666666</ele><time>2026-04-19T10:08:37.952Z</time></trkpt><trkpt lat="45.7421124" lon="7.4548436"><ele>648.3333333333333</ele><time>2026-04-19T10:08:40.951Z</time></trkpt><trkpt lat="45.7421056" lon="7.4547193"><ele>650.5</ele><time>2026-04-19T10:08:43.957Z</time></trkpt><trkpt lat="45.7421215" lon="7.4545969"><ele>652.6666666666666</ele><time>2026-04-19T10:08:46.946Z</time></trkpt><trkpt lat="45.7421316" lon="7.4545002"><ele>654.8333333333334</ele><time>2026-04-19T10:08:48.951Z</time></trkpt><trkpt lat="45.7421313" lon="7.4544042"><ele>657.0</ele><time>2026-04-19T10:08:50.95Z</time></trkpt><trkpt lat="45.7421265" lon="7.4543052"><ele>657.0</ele><time>2026-04-19T10:08:53.03Z</time></trkpt><trkpt lat="45.7421208" lon="7.4542151"><ele>657.0</ele><time>2026-04-19T10:08:54.943Z</time></trkpt><trkpt lat="45.7421098" lon="7.4541257"><ele>657.0</ele><time>2026-04-19T10:08:56.94Z</time></trkpt><trkpt lat="45.7420975" lon="7.4540321"><ele>657.0</ele><time>2026-04-19T10:08:58.942Z</time></trkpt><trkpt lat="45.7420938" lon="7.4539367"><ele>657.0</ele><time>2026-04-19T10:09:00.943Z</time></trkpt><trkpt lat="45.7421039" lon="7.4538397"><ele>657.0</ele><time>2026-04-19T10:09:02.943Z</time></trkpt><trkpt lat="45.7421116" lon="7.4537478"><ele>657.0</ele><time>2026-04-19T10:09:04.942Z</time></trkpt><trkpt lat="45.742145" lon="7.4536543"><ele>657.0</ele><time>2026-04-19T10:09:06.941Z</time></trkpt><trkpt lat="45.7421867" lon="7.4535654"><ele>657.0</ele><time>2026-04-19T10:09:08.942Z</time></trkpt><trkpt lat="45.742228" lon="7.453478"><ele>657.0</ele><time>2026-04-19T10:09:10.941Z</time></trkpt><trkpt lat="45.7422707" lon="7.4533821"><ele>657.0</ele><time>2026-04-19T10:09:13.025Z</time></trkpt><trkpt lat="45.742319" lon="7.453289"><ele>657.0</ele><time>2026-04-19T10:09:14.947Z</time></trkpt><trkpt lat="45.742347" lon="7.4531855"><ele>657.0</ele><time>2026-04-19T10:09:16.949Z</time></trkpt><trkpt lat="45.7423694" lon="7.453086"><ele>657.0</ele><time>2026-04-19T10:09:18.943Z</time></trkpt><trkpt lat="45.74239" lon="7.4529799"><ele>657.0</ele><time>2026-04-19T10:09:20.954Z</time></trkpt><trkpt lat="45.7424066" lon="7.4528864"><ele>657.0</ele><time>2026-04-19T10:09:22.95Z</time></trkpt><trkpt lat="45.7424236" lon="7.4527858"><ele>657.0</ele><time>2026-04-19T10:09:24.95Z</time></trkpt><trkpt lat="45.7424434" lon="7.4526831"><ele>657.0</ele><time>2026-04-19T10:09:26.964Z</time></trkpt><trkpt lat="45.7424573" lon="7.4525749"><ele>657.0</ele><time>2026-04-19T10:09:28.947Z</time></trkpt><trkpt lat="45.7424663" lon="7.4524606"><ele>657.0</ele><time>2026-04-19T10:09:30.949Z</time></trkpt><trkpt lat="45.7424598" lon="7.4523571"><ele>654.1666666666666</ele><time>2026-04-19T10:09:32.945Z</time></trkpt><trkpt lat="45.7424509" lon="7.4522565"><ele>651.3333333333334</ele><time>2026-04-19T10:09:34.949Z</time></trkpt><trkpt lat="45.7424401" lon="7.4521434"><ele>648.5</ele><time>2026-04-19T10:09:36.944Z</time></trkpt><trkpt lat="45.7424226" lon="7.4520365"><ele>645.6666666666667</ele><time>2026-04-19T10:09:38.954Z</time></trkpt><trkpt lat="45.7424144" lon="7.4519269"><ele>642.8333333333334</ele><time>2026-04-19T10:09:41.017Z</time></trkpt><trkpt lat="45.7424159" lon="7.4518075"><ele>640.0</ele><time>2026-04-19T10:09:42.954Z</time></trkpt><trkpt lat="45.7424306" lon="7.4516915"><ele>640.3333333333334</ele><time>2026-04-19T10:09:44.945Z</time></trkpt><trkpt lat="45.7424706" lon="7.451577"><ele>640.6666666666667</ele><time>2026-04-19T10:09:47.034Z</time></trkpt><trkpt lat="45.7425103" lon="7.451475"><ele>641.0</ele><time>2026-04-19T10:09:48.946Z</time></trkpt><trkpt lat="45.7425504" lon="7.4513653"><ele>641.3333333333334</ele><time>2026-04-19T10:09:50.952Z</time></trkpt><trkpt lat="45.7425706" lon="7.4512533"><ele>641.6666666666666</ele><time>2026-04-19T10:09:52.947Z</time></trkpt><trkpt lat="45.7425804" lon="7.4511305"><ele>642.0</ele><time>2026-04-19T10:09:54.946Z</time></trkpt><trkpt lat="45.7425769" lon="7.4510105"><ele>642.0</ele><time>2026-04-19T10:09:56.944Z</time></trkpt><trkpt lat="45.7425725" lon="7.4508942"><ele>642.0</ele><time>2026-04-19T10:09:58.946Z</time></trkpt><trkpt lat="45.7425675" lon="7.4507839"><ele>642.0</ele><time>2026-04-19T10:10:00.948Z</time></trkpt><trkpt lat="45.7425657" lon="7.4506682"><ele>642.0</ele><time>2026-04-19T10:10:02.945Z</time></trkpt><trkpt lat="45.7425635" lon="7.4505522"><ele>642.0</ele><time>2026-04-19T10:10:04.945Z</time></trkpt><trkpt lat="45.7425602" lon="7.4504382"><ele>642.0</ele><time>2026-04-19T10:10:07.02Z</time></trkpt><trkpt lat="45.7425549" lon="7.4503161"><ele>642.6666666666666</ele><time>2026-04-19T10:10:08.947Z</time></trkpt><trkpt lat="45.7425515" lon="7.4501927"><ele>643.3333333333334</ele><time>2026-04-19T10:10:10.949Z</time></trkpt><trkpt lat="45.7425529" lon="7.4500747"><ele>644.0</ele><time>2026-04-19T10:10:12.942Z</time></trkpt><trkpt lat="45.7425492" lon="7.4499634"><ele>644.6666666666667</ele><time>2026-04-19T10:10:14.946Z</time></trkpt><trkpt lat="45.742552" lon="7.4498391"><ele>645.3333333333334</ele><time>2026-04-19T10:10:16.945Z</time></trkpt><trkpt lat="45.7425606" lon="7.4497207"><ele>646.0</ele><time>2026-04-19T10:10:18.945Z</time></trkpt><trkpt lat="45.7425698" lon="7.4495952"><ele>646.3333333333334</ele><time>2026-04-19T10:10:20.949Z</time></trkpt><trkpt lat="45.7425795" lon="7.4494708"><ele>646.6666666666667</ele><time>2026-04-19T10:10:22.949Z</time></trkpt><trkpt lat="45.7425866" lon="7.449345"><ele>647.0</ele><time>2026-04-19T10:10:24.942Z</time></trkpt><trkpt lat="45.7425788" lon="7.4492237"><ele>647.3333333333334</ele><time>2026-04-19T10:10:27.013Z</time></trkpt><trkpt lat="45.742551" lon="7.4491155"><ele>647.6666666666666</ele><time>2026-04-19T10:10:28.945Z</time></trkpt><trkpt lat="45.7425206" lon="7.4490124"><ele>648.0</ele><time>2026-04-19T10:10:30.941Z</time></trkpt><trkpt lat="45.7424994" lon="7.4488953"><ele>648.3333333333334</ele><time>2026-04-19T10:10:32.947Z</time></trkpt><trkpt lat="45.7424781" lon="7.4487767"><ele>648.6666666666666</ele><time>2026-04-19T10:10:34.941Z</time></trkpt><trkpt lat="45.7424713" lon="7.4486585"><ele>649.0</ele><time>2026-04-19T10:10:36.95Z</time></trkpt><trkpt lat="45.7424773" lon="7.4485307"><ele>649.3333333333333</ele><time>2026-04-19T10:10:38.944Z</time></trkpt><trkpt lat="45.7424922" lon="7.4484031"><ele>649.6666666666666</ele><time>2026-04-19T10:10:40.946Z</time></trkpt><trkpt lat="45.7425144" lon="7.4482763"><ele>650.0</ele><time>2026-04-19T10:10:42.951Z</time></trkpt><trkpt lat="45.7425406" lon="7.4481561"><ele>650.0</ele><time>2026-04-19T10:10:44.948Z</time></trkpt><trkpt lat="45.7425598" lon="7.4480287"><ele>650.0</ele><time>2026-04-19T10:10:47.03Z</time></trkpt><trkpt lat="45.7425588" lon="7.447907"><ele>650.0</ele><time>2026-04-19T10:10:48.946Z</time></trkpt><trkpt lat="45.7425507" lon="7.4477871"><ele>650.0</ele><time>2026-04-19T10:10:50.945Z</time></trkpt><trkpt lat="45.7425241" lon="7.4476681"><ele>650.0</ele><time>2026-04-19T10:10:52.946Z</time></trkpt><trkpt lat="45.7424995" lon="7.4475485"><ele>650.0</ele><time>2026-04-19T10:10:54.942Z</time></trkpt><trkpt lat="45.7424699" lon="7.4474174"><ele>651.2</ele><time>2026-04-19T10:10:57.04Z</time></trkpt><trkpt lat="45.742443" lon="7.4472983"><ele>652.4</ele><time>2026-04-19T10:10:58.942Z</time></trkpt><trkpt lat="45.742423" lon="7.4471623"><ele>653.5999999999999</ele><time>2026-04-19T10:11:00.947Z</time></trkpt><trkpt lat="45.742406" lon="7.4470409"><ele>654.8</ele><time>2026-04-19T10:11:02.948Z</time></trkpt><trkpt lat="45.7423966" lon="7.4469214"><ele>656.0</ele><time>2026-04-19T10:11:04.943Z</time></trkpt><trkpt lat="45.7423777" lon="7.4467319"><ele>657.3333333333333</ele><time>2026-04-19T10:11:08.028Z</time></trkpt><trkpt lat="45.7423665" lon="7.446617"><ele>658.6666666666666</ele><time>2026-04-19T10:11:09.947Z</time></trkpt><trkpt lat="45.742364" lon="7.4464976"><ele>660.0</ele><time>2026-04-19T10:11:11.945Z</time></trkpt><trkpt lat="45.74235" lon="7.446372"><ele>661.3333333333334</ele><time>2026-04-19T10:11:13.944Z</time></trkpt><trkpt lat="45.742322" lon="7.44625"><ele>662.6666666666667</ele><time>2026-04-19T10:11:15.95Z</time></trkpt><trkpt lat="45.7422788" lon="7.4461293"><ele>664.0</ele><time>2026-04-19T10:11:17.973Z</time></trkpt><trkpt lat="45.7422253" lon="7.4460328"><ele>664.8333333333334</ele><time>2026-04-19T10:11:19.948Z</time></trkpt><trkpt lat="45.7421839" lon="7.4459554"><ele>665.6666666666667</ele><time>2026-04-19T10:11:21.945Z</time></trkpt><trkpt lat="45.7421317" lon="7.4458655"><ele>666.5</ele><time>2026-04-19T10:11:24.945Z</time></trkpt><trkpt lat="45.7420775" lon="7.4457549"><ele>667.3333333333334</ele><time>2026-04-19T10:11:27.945Z</time></trkpt><trkpt lat="45.7420355" lon="7.4456635"><ele>668.1666666666666</ele><time>2026-04-19T10:11:29.951Z</time></trkpt><trkpt lat="45.7419936" lon="7.4455679"><ele>669.0</ele><time>2026-04-19T10:11:31.948Z</time></trkpt><trkpt lat="45.7419528" lon="7.4454847"><ele>670.3333333333334</ele><time>2026-04-19T10:11:33.95Z</time></trkpt><trkpt lat="45.741913" lon="7.4454095"><ele>671.6666666666666</ele><time>2026-04-19T10:11:35.948Z</time></trkpt><trkpt lat="45.7418771" lon="7.4453222"><ele>673.0</ele><time>2026-04-19T10:11:37.948Z</time></trkpt><trkpt lat="45.741843" lon="7.4452389"><ele>674.3333333333333</ele><time>2026-04-19T10:11:39.946Z</time></trkpt><trkpt lat="45.7417968" lon="7.4451238"><ele>675.6666666666666</ele><time>2026-04-19T10:11:42.942Z</time></trkpt><trkpt lat="45.7417682" lon="7.4450219"><ele>677.0</ele><time>2026-04-19T10:11:44.946Z</time></trkpt><trkpt lat="45.7417221" lon="7.44492"><ele>671.2</ele><time>2026-04-19T10:11:47.027Z</time></trkpt><trkpt lat="45.7416773" lon="7.4448055"><ele>665.4000000000001</ele><time>2026-04-19T10:11:49.027Z</time></trkpt><trkpt lat="45.7416509" lon="7.4446801"><ele>659.5999999999999</ele><time>2026-04-19T10:11:50.946Z</time></trkpt><trkpt lat="45.741638" lon="7.4445464"><ele>653.8</ele><time>2026-04-19T10:11:52.947Z</time></trkpt><trkpt lat="45.7416194" lon="7.4444117"><ele>648.0</ele><time>2026-04-19T10:11:54.942Z</time></trkpt><trkpt lat="45.7416052" lon="7.4442735"><ele>648.0</ele><time>2026-04-19T10:11:57.025Z</time></trkpt><trkpt lat="45.7416094" lon="7.4441353"><ele>648.0</ele><time>2026-04-19T10:11:58.947Z</time></trkpt><trkpt lat="45.7416279" lon="7.4439883"><ele>648.0</ele><time>2026-04-19T10:12:00.949Z</time></trkpt><trkpt lat="45.7416404" lon="7.4438503"><ele>648.0</ele><time>2026-04-19T10:12:02.955Z</time></trkpt><trkpt lat="45.7416433" lon="7.443716"><ele>648.0</ele><time>2026-04-19T10:12:04.944Z</time></trkpt><trkpt lat="45.7416486" lon="7.4435807"><ele>647.6666666666666</ele><time>2026-04-19T10:12:07.007Z</time></trkpt><trkpt lat="45.7416553" lon="7.4434478"><ele>647.3333333333334</ele><time>2026-04-19T10:12:09.023Z</time></trkpt><trkpt lat="45.7416782" lon="7.4433277"><ele>647.0</ele><time>2026-04-19T10:12:10.948Z</time></trkpt><trkpt lat="45.7416933" lon="7.4432126"><ele>646.6666666666667</ele><time>2026-04-19T10:12:13.018Z</time></trkpt><trkpt lat="45.7417124" lon="7.4430854"><ele>646.3333333333334</ele><time>2026-04-19T10:12:15.949Z</time></trkpt><trkpt lat="45.7417268" lon="7.4429649"><ele>646.0</ele><time>2026-04-19T10:12:19.029Z</time></trkpt><trkpt lat="45.7417958" lon="7.4428879"><ele>645.3333333333334</ele><time>2026-04-19T10:12:21.957Z</time></trkpt><trkpt lat="45.7418736" lon="7.4429291"><ele>644.6666666666667</ele><time>2026-04-19T10:12:24.963Z</time></trkpt><trkpt lat="45.7419476" lon="7.4429961"><ele>644.0</ele><time>2026-04-19T10:12:28.026Z</time></trkpt><trkpt lat="45.7419991" lon="7.4430693"><ele>643.3333333333334</ele><time>2026-04-19T10:12:30.945Z</time></trkpt><trkpt lat="45.7420747" lon="7.4430897"><ele>642.6666666666666</ele><time>2026-04-19T10:12:33.943Z</time></trkpt><trkpt lat="45.7421587" lon="7.4430926"><ele>642.0</ele><time>2026-04-19T10:12:37.023Z</time></trkpt><trkpt lat="45.7422384" lon="7.4431025"><ele>645.5714285714286</ele><time>2026-04-19T10:12:39.949Z</time></trkpt><trkpt lat="45.7423014" lon="7.4431213"><ele>649.1428571428571</ele><time>2026-04-19T10:12:42.948Z</time></trkpt><trkpt lat="45.7423762" lon="7.4431262"><ele>652.7142857142858</ele><time>2026-04-19T10:12:45.95Z</time></trkpt><trkpt lat="45.7424415" lon="7.4431347"><ele>656.2857142857142</ele><time>2026-04-19T10:12:48.948Z</time></trkpt><trkpt lat="45.7425017" lon="7.4431067"><ele>659.8571428571429</ele><time>2026-04-19T10:20:07.949Z</time></trkpt><trkpt lat="45.7425266" lon="7.4430011"><ele>663.4285714285714</ele><time>2026-04-19T10:20:11.942Z</time></trkpt><trkpt lat="45.7425222" lon="7.4428904"><ele>667.0</ele><time>2026-04-19T10:20:14.937Z</time></trkpt><trkpt lat="45.7425138" lon="7.4427992"><ele>667.0000000000001</ele><time>2026-04-19T10:20:16.938Z</time></trkpt><trkpt lat="45.7425079" lon="7.4426695"><ele>667.0</ele><time>2026-04-19T10:20:19.947Z</time></trkpt><trkpt lat="45.7425082" lon="7.4425756"><ele>667.0</ele><time>2026-04-19T10:20:21.941Z</time></trkpt><trkpt lat="45.7425155" lon="7.4424818"><ele>667.0</ele><time>2026-04-19T10:20:23.947Z</time></trkpt><trkpt lat="45.7425286" lon="7.4423807"><ele>667.0</ele><time>2026-04-19T10:20:25.943Z</time></trkpt><trkpt lat="45.7425368" lon="7.4422835"><ele>667.0000000000001</ele><time>2026-04-19T10:20:27.94Z</time></trkpt><trkpt lat="45.7425561" lon="7.4421956"><ele>667.0</ele><time>2026-04-19T10:20:29.941Z</time></trkpt><trkpt lat="45.74257" lon="7.4421042"><ele>665.7142857142858</ele><time>2026-04-19T10:20:31.937Z</time></trkpt><trkpt lat="45.7425898" lon="7.442015"><ele>664.4285714285714</ele><time>2026-04-19T10:20:33.941Z</time></trkpt><trkpt lat="45.7426028" lon="7.4419079"><ele>663.1428571428571</ele><time>2026-04-19T10:20:35.947Z</time></trkpt><trkpt lat="45.7426127" lon="7.4418022"><ele>661.8571428571429</ele><time>2026-04-19T10:20:37.943Z</time></trkpt><trkpt lat="45.7426215" lon="7.4417089"><ele>660.5714285714286</ele><time>2026-04-19T10:20:39.943Z</time></trkpt><trkpt lat="45.7426298" lon="7.4416147"><ele>659.2857142857143</ele><time>2026-04-19T10:20:41.935Z</time></trkpt><trkpt lat="45.7426349" lon="7.4415209"><ele>658.0</ele><time>2026-04-19T10:20:43.94Z</time></trkpt><trkpt lat="45.7426388" lon="7.4414307"><ele>658.0</ele><time>2026-04-19T10:20:45.938Z</time></trkpt><trkpt lat="45.7426618" lon="7.4413447"><ele>658.0</ele><time>2026-04-19T10:20:47.939Z</time></trkpt><trkpt lat="45.7426966" lon="7.4412601"><ele>658.0</ele><time>2026-04-19T10:20:49.943Z</time></trkpt><trkpt lat="45.7427396" lon="7.4411772"><ele>658.0</ele><time>2026-04-19T10:20:51.94Z</time></trkpt><trkpt lat="45.7427664" lon="7.4410859"><ele>658.0</ele><time>2026-04-19T10:20:53.942Z</time></trkpt><trkpt lat="45.7427864" lon="7.4409863"><ele>658.0</ele><time>2026-04-19T10:20:55.942Z</time></trkpt><trkpt lat="45.7427978" lon="7.4408837"><ele>658.0</ele><time>2026-04-19T10:20:57.942Z</time></trkpt><trkpt lat="45.7428116" lon="7.4407492"><ele>662.7142857142857</ele><time>2026-04-19T10:21:00.941Z</time></trkpt><trkpt lat="45.7428214" lon="7.440659"><ele>667.4285714285714</ele><time>2026-04-19T10:21:02.942Z</time></trkpt><trkpt lat="45.7428321" lon="7.4405693"><ele>672.1428571428571</ele><time>2026-04-19T10:21:04.946Z</time></trkpt><trkpt lat="45.7428361" lon="7.4404725"><ele>676.8571428571429</ele><time>2026-04-19T10:21:06.94Z</time></trkpt><trkpt lat="45.7428483" lon="7.4403739"><ele>681.5714285714286</ele><time>2026-04-19T10:21:08.935Z</time></trkpt><trkpt lat="45.7428533" lon="7.440275"><ele>686.2857142857142</ele><time>2026-04-19T10:21:10.944Z</time></trkpt><trkpt lat="45.7428621" lon="7.4401769"><ele>691.0</ele><time>2026-04-19T10:21:12.937Z</time></trkpt><trkpt lat="45.7428679" lon="7.4400715"><ele>690.9999999999999</ele><time>2026-04-19T10:21:14.942Z</time></trkpt><trkpt lat="45.7428849" lon="7.4399773"><ele>691.0</ele><time>2026-04-19T10:21:16.94Z</time></trkpt><trkpt lat="45.742905" lon="7.4398893"><ele>691.0</ele><time>2026-04-19T10:21:18.936Z</time></trkpt><trkpt lat="45.7429284" lon="7.4397797"><ele>691.0</ele><time>2026-04-19T10:21:20.946Z</time></trkpt><trkpt lat="45.7429575" lon="7.4396715"><ele>691.0</ele><time>2026-04-19T10:21:22.946Z</time></trkpt><trkpt lat="45.742968" lon="7.4395711"><ele>690.9999999999999</ele><time>2026-04-19T10:21:24.939Z</time></trkpt><trkpt lat="45.7429798" lon="7.439468"><ele>691.0</ele><time>2026-04-19T10:21:26.943Z</time></trkpt><trkpt lat="45.7429896" lon="7.4393653"><ele>689.5</ele><time>2026-04-19T10:21:28.939Z</time></trkpt><trkpt lat="45.7430052" lon="7.4392576"><ele>688.0</ele><time>2026-04-19T10:21:30.945Z</time></trkpt><trkpt lat="45.7430232" lon="7.4391524"><ele>686.5</ele><time>2026-04-19T10:21:32.95Z</time></trkpt><trkpt lat="45.743015" lon="7.4390402"><ele>685.0</ele><time>2026-04-19T10:21:34.936Z</time></trkpt><trkpt lat="45.7429933" lon="7.4389366"><ele>683.5</ele><time>2026-04-19T10:21:36.94Z</time></trkpt><trkpt lat="45.7429593" lon="7.438834"><ele>682.0</ele><time>2026-04-19T10:21:38.942Z</time></trkpt><trkpt lat="45.7429367" lon="7.4387283"><ele>681.5</ele><time>2026-04-19T10:21:40.935Z</time></trkpt><trkpt lat="45.7429147" lon="7.4386274"><ele>681.0</ele><time>2026-04-19T10:21:42.938Z</time></trkpt><trkpt lat="45.7428684" lon="7.4385336"><ele>680.5</ele><time>2026-04-19T10:21:44.942Z</time></trkpt><trkpt lat="45.7428322" lon="7.4384232"><ele>680.0</ele><time>2026-04-19T10:21:46.944Z</time></trkpt><trkpt lat="45.7428086" lon="7.4383193"><ele>679.5</ele><time>2026-04-19T10:21:48.941Z</time></trkpt><trkpt lat="45.7427855" lon="7.4382107"><ele>679.0</ele><time>2026-04-19T10:21:50.938Z</time></trkpt><trkpt lat="45.742771" lon="7.4381105"><ele>679.0</ele><time>2026-04-19T10:21:52.942Z</time></trkpt><trkpt lat="45.7427777" lon="7.4380098"><ele>679.0</ele><time>2026-04-19T10:21:54.949Z</time></trkpt><trkpt lat="45.7428025" lon="7.4379071"><ele>679.0</ele><time>2026-04-19T10:21:56.942Z</time></trkpt><trkpt lat="45.7428321" lon="7.4378086"><ele>679.0</ele><time>2026-04-19T10:21:58.942Z</time></trkpt><trkpt lat="45.7428579" lon="7.4377023"><ele>679.0</ele><time>2026-04-19T10:22:00.948Z</time></trkpt><trkpt lat="45.7428753" lon="7.4375947"><ele>679.0</ele><time>2026-04-19T10:22:02.935Z</time></trkpt><trkpt lat="45.7428709" lon="7.4374966"><ele>679.0</ele><time>2026-04-19T10:22:04.938Z</time></trkpt><trkpt lat="45.7428625" lon="7.4374038"><ele>678.0</ele><time>2026-04-19T10:22:06.943Z</time></trkpt><trkpt lat="45.7428566" lon="7.4373083"><ele>677.0</ele><time>2026-04-19T10:22:08.945Z</time></trkpt><trkpt lat="45.7428597" lon="7.4371956"><ele>676.0</ele><time>2026-04-19T10:22:10.942Z</time></trkpt><trkpt lat="45.7428869" lon="7.4371069"><ele>675.0</ele><time>2026-04-19T10:22:12.948Z</time></trkpt><trkpt lat="45.7429446" lon="7.4370664"><ele>674.0</ele><time>2026-04-19T10:22:14.945Z</time></trkpt><trkpt lat="45.7430107" lon="7.4370617"><ele>673.0</ele><time>2026-04-19T10:22:16.938Z</time></trkpt><trkpt lat="45.7430792" lon="7.4370543"><ele>672.0</ele><time>2026-04-19T10:22:18.94Z</time></trkpt><trkpt lat="45.74317" lon="7.4370306"><ele>670.0</ele><time>2026-04-19T10:22:21.943Z</time></trkpt><trkpt lat="45.7432316" lon="7.4369942"><ele>668.0</ele><time>2026-04-19T10:22:23.942Z</time></trkpt><trkpt lat="45.7432905" lon="7.4369486"><ele>666.0</ele><time>2026-04-19T10:22:25.943Z</time></trkpt><trkpt lat="45.743339" lon="7.4368909"><ele>664.0</ele><time>2026-04-19T10:22:27.939Z</time></trkpt><trkpt lat="45.7433833" lon="7.4368211"><ele>662.0</ele><time>2026-04-19T10:22:29.941Z</time></trkpt><trkpt lat="45.7434363" lon="7.4367381"><ele>660.0</ele><time>2026-04-19T10:22:32.942Z</time></trkpt><trkpt lat="45.7435096" lon="7.4366727"><ele>658.0</ele><time>2026-04-19T10:22:36.946Z</time></trkpt><trkpt lat="45.7435546" lon="7.4365994"><ele>662.2857142857143</ele><time>2026-04-19T10:22:39.945Z</time></trkpt><trkpt lat="45.7435759" lon="7.4364993"><ele>666.5714285714286</ele><time>2026-04-19T10:22:43.94Z</time></trkpt><trkpt lat="45.7435889" lon="7.4365987"><ele>670.8571428571429</ele><time>2026-04-19T10:22:54.945Z</time></trkpt><trkpt lat="45.7435642" lon="7.4367146"><ele>675.1428571428571</ele><time>2026-04-19T10:22:58.94Z</time></trkpt><trkpt lat="45.7435792" lon="7.4368089"><ele>679.4285714285714</ele><time>2026-04-19T10:23:01.943Z</time></trkpt><trkpt lat="45.743642" lon="7.4368692"><ele>683.7142857142858</ele><time>2026-04-19T10:23:04.939Z</time></trkpt><trkpt lat="45.7437119" lon="7.4368574"><ele>688.0</ele><time>2026-04-19T10:23:07.939Z</time></trkpt><trkpt lat="45.7437737" lon="7.4368234"><ele>688.0000000000001</ele><time>2026-04-19T10:23:10.937Z</time></trkpt><trkpt lat="45.7438315" lon="7.4367722"><ele>688.0</ele><time>2026-04-19T10:23:13.941Z</time></trkpt><trkpt lat="45.7438702" lon="7.4366981"><ele>688.0</ele><time>2026-04-19T10:23:16.947Z</time></trkpt><trkpt lat="45.7439153" lon="7.4366294"><ele>688.0</ele><time>2026-04-19T10:23:19.946Z</time></trkpt><trkpt lat="45.7439517" lon="7.4365423"><ele>688.0</ele><time>2026-04-19T10:23:23.027Z</time></trkpt><trkpt lat="45.7440027" lon="7.4364511"><ele>688.0000000000001</ele><time>2026-04-19T10:23:25.939Z</time></trkpt><trkpt lat="45.7440413" lon="7.4363538"><ele>688.0</ele><time>2026-04-19T10:23:28.97Z</time></trkpt><trkpt lat="45.7440778" lon="7.4362597"><ele>687.0</ele><time>2026-04-19T10:23:32.014Z</time></trkpt><trkpt lat="45.7441037" lon="7.4361525"><ele>686.0</ele><time>2026-04-19T10:23:34.938Z</time></trkpt><trkpt lat="45.7441274" lon="7.4360453"><ele>685.0</ele><time>2026-04-19T10:23:37.935Z</time></trkpt><trkpt lat="45.7441432" lon="7.4359375"><ele>684.0</ele><time>2026-04-19T10:23:40.935Z</time></trkpt><trkpt lat="45.7441594" lon="7.4358274"><ele>683.0</ele><time>2026-04-19T10:23:43.936Z</time></trkpt><trkpt lat="45.7441617" lon="7.4357221"><ele>682.0</ele><time>2026-04-19T10:23:46.939Z</time></trkpt><trkpt lat="45.7441686" lon="7.4356109"><ele>682.0</ele><time>2026-04-19T10:23:49.938Z</time></trkpt><trkpt lat="45.7441809" lon="7.4355027"><ele>682.0</ele><time>2026-04-19T10:23:52.936Z</time></trkpt><trkpt lat="45.7441972" lon="7.4354008"><ele>682.0</ele><time>2026-04-19T10:23:55.944Z</time></trkpt><trkpt lat="45.744225" lon="7.4352892"><ele>682.0</ele><time>2026-04-19T10:23:58.936Z</time></trkpt><trkpt lat="45.7442534" lon="7.4351777"><ele>682.0</ele><time>2026-04-19T10:24:01.94Z</time></trkpt><trkpt lat="45.7443121" lon="7.4350898"><ele>682.0</ele><time>2026-04-19T10:24:04.938Z</time></trkpt><trkpt lat="45.7443723" lon="7.435001"><ele>685.3333333333334</ele><time>2026-04-19T10:24:07.941Z</time></trkpt><trkpt lat="45.7444058" lon="7.4349175"><ele>688.6666666666667</ele><time>2026-04-19T10:24:09.94Z</time></trkpt><trkpt lat="45.7444531" lon="7.4348011"><ele>692.0</ele><time>2026-04-19T10:24:12.949Z</time></trkpt><trkpt lat="45.7444831" lon="7.4347103"><ele>695.3333333333334</ele><time>2026-04-19T10:24:14.953Z</time></trkpt><trkpt lat="45.7445076" lon="7.4346262"><ele>698.6666666666666</ele><time>2026-04-19T10:24:16.955Z</time></trkpt><trkpt lat="45.7445565" lon="7.4345145"><ele>702.0</ele><time>2026-04-19T10:24:19.945Z</time></trkpt><trkpt lat="45.7445929" lon="7.4344298"><ele>702.0</ele><time>2026-04-19T10:24:22.031Z</time></trkpt><trkpt lat="45.7446305" lon="7.434331"><ele>702.0</ele><time>2026-04-19T10:24:23.949Z</time></trkpt><trkpt lat="45.7446629" lon="7.4342255"><ele>702.0</ele><time>2026-04-19T10:24:25.957Z</time></trkpt><trkpt lat="45.7447042" lon="7.4341248"><ele>702.0</ele><time>2026-04-19T10:24:27.955Z</time></trkpt><trkpt lat="45.7447444" lon="7.4340227"><ele>702.0</ele><time>2026-04-19T10:24:29.953Z</time></trkpt><trkpt lat="45.7447672" lon="7.4339292"><ele>702.0</ele><time>2026-04-19T10:24:32.025Z</time></trkpt><trkpt lat="45.7447753" lon="7.4338179"><ele>700.1666666666666</ele><time>2026-04-19T10:24:33.949Z</time></trkpt><trkpt lat="45.7447783" lon="7.4337066"><ele>698.3333333333334</ele><time>2026-04-19T10:24:35.953Z</time></trkpt><trkpt lat="45.7447878" lon="7.4335983"><ele>696.5</ele><time>2026-04-19T10:24:38.033Z</time></trkpt><trkpt lat="45.7448046" lon="7.4334876"><ele>694.6666666666667</ele><time>2026-04-19T10:24:39.941Z</time></trkpt><trkpt lat="45.7448232" lon="7.4333932"><ele>692.8333333333334</ele><time>2026-04-19T10:24:41.962Z</time></trkpt><trkpt lat="45.7448314" lon="7.4332973"><ele>691.0</ele><time>2026-04-19T10:24:43.969Z</time></trkpt><trkpt lat="45.7448484" lon="7.433169"><ele>691.0</ele><time>2026-04-19T10:24:46.941Z</time></trkpt><trkpt lat="45.7448779" lon="7.4330494"><ele>691.0</ele><time>2026-04-19T10:24:49.933Z</time></trkpt><trkpt lat="45.7449205" lon="7.4329399"><ele>691.0</ele><time>2026-04-19T10:24:52.936Z</time></trkpt><trkpt lat="45.7449601" lon="7.432868"><ele>691.0</ele><time>2026-04-19T10:24:54.939Z</time></trkpt><trkpt lat="45.7450101" lon="7.4327539"><ele>691.0</ele><time>2026-04-19T10:24:57.939Z</time></trkpt><trkpt lat="45.7450255" lon="7.4326613"><ele>691.0</ele><time>2026-04-19T10:24:59.936Z</time></trkpt><trkpt lat="45.7450303" lon="7.4325709"><ele>690.4285714285713</ele><time>2026-04-19T10:25:02.038Z</time></trkpt><trkpt lat="45.7450215" lon="7.4324751"><ele>689.8571428571429</ele><time>2026-04-19T10:25:03.947Z</time></trkpt><trkpt lat="45.7450116" lon="7.4323813"><ele>689.2857142857142</ele><time>2026-04-19T10:25:05.949Z</time></trkpt><trkpt lat="45.7449994" lon="7.4322833"><ele>688.7142857142857</ele><time>2026-04-19T10:25:07.946Z</time></trkpt><trkpt lat="45.7450058" lon="7.4321521"><ele>688.1428571428571</ele><time>2026-04-19T10:25:11.025Z</time></trkpt><trkpt lat="45.7450144" lon="7.4320518"><ele>687.5714285714286</ele><time>2026-04-19T10:25:13.031Z</time></trkpt><trkpt lat="45.7450349" lon="7.4319403"><ele>687.0</ele><time>2026-04-19T10:25:14.942Z</time></trkpt><trkpt lat="45.7450572" lon="7.4318305"><ele>687.0</ele><time>2026-04-19T10:25:16.944Z</time></trkpt><trkpt lat="45.745075" lon="7.4317269"><ele>687.0</ele><time>2026-04-19T10:25:18.943Z</time></trkpt><trkpt lat="45.7450895" lon="7.4316254"><ele>687.0</ele><time>2026-04-19T10:25:20.947Z</time></trkpt><trkpt lat="45.7451014" lon="7.4315243"><ele>687.0</ele><time>2026-04-19T10:25:22.947Z</time></trkpt><trkpt lat="45.7451038" lon="7.4314176"><ele>687.0</ele><time>2026-04-19T10:25:24.943Z</time></trkpt><trkpt lat="45.7451087" lon="7.4313168"><ele>687.0</ele><time>2026-04-19T10:25:26.942Z</time></trkpt><trkpt lat="45.7450932" lon="7.4311769"><ele>687.1666666666666</ele><time>2026-04-19T10:25:29.943Z</time></trkpt><trkpt lat="45.7450886" lon="7.431085"><ele>687.3333333333334</ele><time>2026-04-19T10:25:31.951Z</time></trkpt><trkpt lat="45.745083" lon="7.4309505"><ele>687.5</ele><time>2026-04-19T10:25:34.95Z</time></trkpt><trkpt lat="45.7450824" lon="7.4308543"><ele>687.6666666666667</ele><time>2026-04-19T10:25:36.947Z</time></trkpt><trkpt lat="45.7450954" lon="7.4307251"><ele>687.8333333333334</ele><time>2026-04-19T10:25:39.952Z</time></trkpt><trkpt lat="45.7451019" lon="7.4306338"><ele>688.0</ele><time>2026-04-19T10:25:41.953Z</time></trkpt><trkpt lat="45.7451194" lon="7.4305064"><ele>687.8333333333334</ele><time>2026-04-19T10:25:44.954Z</time></trkpt><trkpt lat="45.7451397" lon="7.4303906"><ele>687.6666666666667</ele><time>2026-04-19T10:25:48.051Z</time></trkpt><trkpt lat="45.745145" lon="7.4302715"><ele>687.5</ele><time>2026-04-19T10:25:50.938Z</time></trkpt><trkpt lat="45.7451484" lon="7.4301537"><ele>687.3333333333334</ele><time>2026-04-19T10:25:53.937Z</time></trkpt><trkpt lat="45.745155" lon="7.4300341"><ele>687.1666666666666</ele><time>2026-04-19T10:25:57.031Z</time></trkpt><trkpt lat="45.7451751" lon="7.4299062"><ele>687.0</ele><time>2026-04-19T10:26:00.952Z</time></trkpt><trkpt lat="45.7451879" lon="7.429802"><ele>692.2857142857143</ele><time>2026-04-19T10:26:03.946Z</time></trkpt><trkpt lat="45.7452178" lon="7.4297092"><ele>697.5714285714286</ele><time>2026-04-19T10:26:06.946Z</time></trkpt><trkpt lat="45.745287" lon="7.4296657"><ele>702.8571428571429</ele><time>2026-04-19T10:26:10.942Z</time></trkpt><trkpt lat="45.7453488" lon="7.4297"><ele>708.1428571428571</ele><time>2026-04-19T10:26:13.939Z</time></trkpt><trkpt lat="45.7453803" lon="7.4297885"><ele>713.4285714285713</ele><time>2026-04-19T10:26:17.015Z</time></trkpt><trkpt lat="45.7453936" lon="7.4299004"><ele>718.7142857142857</ele><time>2026-04-19T10:26:20.95Z</time></trkpt><trkpt lat="45.7454128" lon="7.4300004"><ele>724.0</ele><time>2026-04-19T10:26:24.947Z</time></trkpt><trkpt lat="45.7454304" lon="7.4300967"><ele>724.0</ele><time>2026-04-19T10:26:28.988Z</time></trkpt><trkpt lat="45.745451" lon="7.4302122"><ele>724.0</ele><time>2026-04-19T10:26:32.943Z</time></trkpt><trkpt lat="45.7454651" lon="7.4303195"><ele>724.0</ele><time>2026-04-19T10:26:36.946Z</time></trkpt><trkpt lat="45.7454728" lon="7.4304368"><ele>724.0</ele><time>2026-04-19T10:26:40.942Z</time></trkpt><trkpt lat="45.7454887" lon="7.4305339"><ele>724.0</ele><time>2026-04-19T10:26:44.943Z</time></trkpt><trkpt lat="45.7455025" lon="7.4306355"><ele>724.0</ele><time>2026-04-19T10:26:48.955Z</time></trkpt><trkpt lat="45.7455159" lon="7.4307371"><ele>724.5</ele><time>2026-04-19T10:26:52.935Z</time></trkpt><trkpt lat="45.7455281" lon="7.4308372"><ele>725.0</ele><time>2026-04-19T10:26:56.934Z</time></trkpt><trkpt lat="45.7455435" lon="7.4309512"><ele>725.5</ele><time>2026-04-19T10:27:01.03Z</time></trkpt><trkpt lat="45.7455574" lon="7.4310587"><ele>726.0</ele><time>2026-04-19T10:27:04.945Z</time></trkpt><trkpt lat="45.7455764" lon="7.4311731"><ele>726.5</ele><time>2026-04-19T10:27:08.941Z</time></trkpt><trkpt lat="45.7456207" lon="7.431256"><ele>727.0</ele><time>2026-04-19T10:27:12.973Z</time></trkpt><trkpt lat="45.7456971" lon="7.4312738"><ele>727.0</ele><time>2026-04-19T10:27:16.945Z</time></trkpt><trkpt lat="45.7457248" lon="7.4311757"><ele>727.0</ele><time>2026-04-19T10:27:20.945Z</time></trkpt><trkpt lat="45.7457117" lon="7.4310592"><ele>727.0</ele><time>2026-04-19T10:27:24.946Z</time></trkpt><trkpt lat="45.7457016" lon="7.4309608"><ele>727.0</ele><time>2026-04-19T10:27:28.946Z</time></trkpt><trkpt lat="45.7457119" lon="7.4308505"><ele>727.0</ele><time>2026-04-19T10:27:32.943Z</time></trkpt><trkpt lat="45.7457471" lon="7.4307464"><ele>727.0</ele><time>2026-04-19T10:27:36.943Z</time></trkpt><trkpt lat="45.745825" lon="7.4307265"><ele>727.0</ele><time>2026-04-19T10:27:41.013Z</time></trkpt><trkpt lat="45.7458664" lon="7.4307965"><ele>727.0</ele><time>2026-04-19T10:27:43.946Z</time></trkpt><trkpt lat="45.7458719" lon="7.4309107"><ele>727.0</ele><time>2026-04-19T10:27:47.951Z</time></trkpt><trkpt lat="45.7458777" lon="7.4310223"><ele>727.0</ele><time>2026-04-19T10:27:52.026Z</time></trkpt><trkpt lat="45.7458896" lon="7.4311125"><ele>727.0</ele><time>2026-04-19T10:27:54.948Z</time></trkpt><trkpt lat="45.7459017" lon="7.4312036"><ele>727.0</ele><time>2026-04-19T10:27:57.946Z</time></trkpt><trkpt lat="45.7459314" lon="7.4312867"><ele>727.0</ele><time>2026-04-19T10:28:00.945Z</time></trkpt><trkpt lat="45.7459919" lon="7.4313395"><ele>727.0</ele><time>2026-04-19T10:28:04.964Z</time></trkpt><trkpt lat="45.7460394" lon="7.43125"><ele>727.0</ele><time>2026-04-19T10:28:08.951Z</time></trkpt><trkpt lat="45.7460374" lon="7.431133"><ele>727.0</ele><time>2026-04-19T10:28:13.025Z</time></trkpt><trkpt lat="45.7460303" lon="7.4310421"><ele>727.0</ele><time>2026-04-19T10:28:15.95Z</time></trkpt><trkpt lat="45.7460271" lon="7.4309215"><ele>727.0</ele><time>2026-04-19T10:28:19.953Z</time></trkpt><trkpt lat="45.746033" lon="7.4308304"><ele>727.0</ele><time>2026-04-19T10:28:22.957Z</time></trkpt><trkpt lat="45.7460398" lon="7.4307401"><ele>727.0</ele><time>2026-04-19T10:28:25.953Z</time></trkpt><trkpt lat="45.7460593" lon="7.4306286"><ele>732.1666666666667</ele><time>2026-04-19T10:28:29.955Z</time></trkpt><trkpt lat="45.7460965" lon="7.4305187"><ele>737.3333333333334</ele><time>2026-04-19T10:28:33.963Z</time></trkpt><trkpt lat="45.7461397" lon="7.4304183"><ele>742.5</ele><time>2026-04-19T10:28:37.95Z</time></trkpt><trkpt lat="45.7461737" lon="7.4303341"><ele>747.6666666666666</ele><time>2026-04-19T10:28:40.957Z</time></trkpt><trkpt lat="45.7462114" lon="7.4302609"><ele>752.8333333333333</ele><time>2026-04-19T10:28:43.953Z</time></trkpt><trkpt lat="45.7462568" lon="7.43017"><ele>758.0</ele><time>2026-04-19T10:28:48.017Z</time></trkpt><trkpt lat="45.7463358" lon="7.4301616"><ele>758.0000000000001</ele><time>2026-04-19T10:28:52.033Z</time></trkpt><trkpt lat="45.7463914" lon="7.4302098"><ele>758.0</ele><time>2026-04-19T10:28:54.944Z</time></trkpt><trkpt lat="45.7464322" lon="7.4302803"><ele>758.0</ele><time>2026-04-19T10:28:57.939Z</time></trkpt><trkpt lat="45.7464459" lon="7.4303939"><ele>758.0</ele><time>2026-04-19T10:29:01.947Z</time></trkpt><trkpt lat="45.7464519" lon="7.430486"><ele>758.0</ele><time>2026-04-19T10:29:04.943Z</time></trkpt><trkpt lat="45.7464427" lon="7.4306014"><ele>758.0000000000001</ele><time>2026-04-19T10:29:08.944Z</time></trkpt><trkpt lat="45.7464378" lon="7.4307145"><ele>758.0</ele><time>2026-04-19T10:29:12.942Z</time></trkpt><trkpt lat="45.7464383" lon="7.4308294"><ele>759.2857142857143</ele><time>2026-04-19T10:29:16.95Z</time></trkpt><trkpt lat="45.7464369" lon="7.4309431"><ele>760.5714285714286</ele><time>2026-04-19T10:29:21.027Z</time></trkpt><trkpt lat="45.7464373" lon="7.4310338"><ele>761.8571428571429</ele><time>2026-04-19T10:29:23.956Z</time></trkpt><trkpt lat="45.7464621" lon="7.4311213"><ele>763.1428571428571</ele><time>2026-04-19T10:29:26.95Z</time></trkpt><trkpt lat="45.7465397" lon="7.4311345"><ele>764.4285714285714</ele><time>2026-04-19T10:29:30.951Z</time></trkpt><trkpt lat="45.746565" lon="7.4310442"><ele>765.7142857142858</ele><time>2026-04-19T10:29:34.018Z</time></trkpt><trkpt lat="45.746567" lon="7.4309486"><ele>767.0</ele><time>2026-04-19T10:29:36.951Z</time></trkpt><trkpt lat="45.7465681" lon="7.4308567"><ele>767.0</ele><time>2026-04-19T10:29:39.95Z</time></trkpt><trkpt lat="45.7466129" lon="7.4307629"><ele>767.0</ele><time>2026-04-19T10:29:43.942Z</time></trkpt><trkpt lat="45.7466614" lon="7.4306725"><ele>767.0</ele><time>2026-04-19T10:29:46.945Z</time></trkpt><trkpt lat="45.746709" lon="7.430579"><ele>767.0</ele><time>2026-04-19T10:29:49.941Z</time></trkpt><trkpt lat="45.7467578" lon="7.4304983"><ele>767.0</ele><time>2026-04-19T10:29:53.036Z</time></trkpt><trkpt lat="45.7467964" lon="7.4303967"><ele>767.0</ele><time>2026-04-19T10:29:55.951Z</time></trkpt><trkpt lat="45.7468253" lon="7.430295"><ele>765.5</ele><time>2026-04-19T10:29:58.954Z</time></trkpt><trkpt lat="45.7468419" lon="7.4301867"><ele>764.0</ele><time>2026-04-19T10:30:02.027Z</time></trkpt><trkpt lat="45.7468619" lon="7.4300721"><ele>762.5</ele><time>2026-04-19T10:30:04.95Z</time></trkpt><trkpt lat="45.7469093" lon="7.4300055"><ele>761.0</ele><time>2026-04-19T10:30:07.948Z</time></trkpt><trkpt lat="45.7469725" lon="7.4300826"><ele>759.5</ele><time>2026-04-19T10:30:10.943Z</time></trkpt><trkpt lat="45.746973" lon="7.4301849"><ele>758.0</ele><time>2026-04-19T10:30:14.028Z</time></trkpt><trkpt lat="45.7469723" lon="7.4302943"><ele>764.6666666666666</ele><time>2026-04-19T10:30:16.944Z</time></trkpt><trkpt lat="45.7469802" lon="7.4304026"><ele>771.3333333333333</ele><time>2026-04-19T10:30:19.946Z</time></trkpt><trkpt lat="45.7469906" lon="7.4305132"><ele>778.0</ele><time>2026-04-19T10:30:22.947Z</time></trkpt><trkpt lat="45.7469898" lon="7.4306243"><ele>784.6666666666666</ele><time>2026-04-19T10:30:25.945Z</time></trkpt><trkpt lat="45.7469852" lon="7.4307364"><ele>791.3333333333334</ele><time>2026-04-19T10:30:28.941Z</time></trkpt><trkpt lat="45.7469678" lon="7.430847"><ele>798.0</ele><time>2026-04-19T10:30:31.951Z</time></trkpt><trkpt lat="45.7469582" lon="7.4309543"><ele>798.6666666666666</ele><time>2026-04-19T10:30:34.947Z</time></trkpt><trkpt lat="45.7469397" lon="7.4310637"><ele>799.3333333333333</ele><time>2026-04-19T10:30:37.943Z</time></trkpt><trkpt lat="45.7469274" lon="7.4311886"><ele>800.0</ele><time>2026-04-19T10:30:40.949Z</time></trkpt><trkpt lat="45.7469224" lon="7.4313044"><ele>800.6666666666666</ele><time>2026-04-19T10:30:43.947Z</time></trkpt><trkpt lat="45.7469234" lon="7.43142"><ele>801.3333333333333</ele><time>2026-04-19T10:30:47.017Z</time></trkpt><trkpt lat="45.7469493" lon="7.4315233"><ele>802.0</ele><time>2026-04-19T10:30:49.95Z</time></trkpt><trkpt lat="45.7470282" lon="7.4314953"><ele>801.9999999999999</ele><time>2026-04-19T10:30:52.953Z</time></trkpt><trkpt lat="45.7470603" lon="7.4314167"><ele>802.0</ele><time>2026-04-19T10:30:54.944Z</time></trkpt><trkpt lat="45.7471032" lon="7.4313104"><ele>802.0</ele><time>2026-04-19T10:30:57.941Z</time></trkpt><trkpt lat="45.7471548" lon="7.4312229"><ele>802.0</ele><time>2026-04-19T10:31:00.936Z</time></trkpt><trkpt lat="45.7472045" lon="7.4311503"><ele>801.9999999999999</ele><time>2026-04-19T10:31:03.938Z</time></trkpt><trkpt lat="45.7472574" lon="7.4310775"><ele>802.0</ele><time>2026-04-19T10:31:06.975Z</time></trkpt><trkpt lat="45.7473115" lon="7.4309808"><ele>801.9999999999999</ele><time>2026-04-19T10:31:09.943Z</time></trkpt><trkpt lat="45.7473452" lon="7.4308693"><ele>802.0</ele><time>2026-04-19T10:31:12.942Z</time></trkpt><trkpt lat="45.7473524" lon="7.4307499"><ele>802.0</ele><time>2026-04-19T10:31:16.018Z</time></trkpt><trkpt lat="45.747345" lon="7.4306304"><ele>802.0</ele><time>2026-04-19T10:31:18.952Z</time></trkpt><trkpt lat="45.7473285" lon="7.4305085"><ele>801.9999999999999</ele><time>2026-04-19T10:31:21.949Z</time></trkpt><trkpt lat="45.7473135" lon="7.4303964"><ele>802.0</ele><time>2026-04-19T10:31:24.945Z</time></trkpt><trkpt lat="45.7473138" lon="7.430291"><ele>801.3333333333333</ele><time>2026-04-19T10:31:27.943Z</time></trkpt><trkpt lat="45.7473211" lon="7.4301863"><ele>800.6666666666666</ele><time>2026-04-19T10:31:30.946Z</time></trkpt><trkpt lat="45.7473391" lon="7.4300662"><ele>800.0</ele><time>2026-04-19T10:31:34.033Z</time></trkpt><trkpt lat="45.7473572" lon="7.4299434"><ele>799.3333333333333</ele><time>2026-04-19T10:31:36.944Z</time></trkpt><trkpt lat="45.7473719" lon="7.4298097"><ele>798.6666666666666</ele><time>2026-04-19T10:31:39.946Z</time></trkpt><trkpt lat="45.7474029" lon="7.4297294"><ele>798.0</ele><time>2026-04-19T10:31:41.944Z</time></trkpt><trkpt lat="45.7474628" lon="7.4296666"><ele>798.0</ele><time>2026-04-19T10:31:43.941Z</time></trkpt><trkpt lat="45.7475263" lon="7.429644"><ele>798.0</ele><time>2026-04-19T10:31:46.056Z</time></trkpt><trkpt lat="45.747597" lon="7.4295549"><ele>798.0</ele><time>2026-04-19T10:31:48.032Z</time></trkpt><trkpt lat="45.7476375" lon="7.429459"><ele>798.0</ele><time>2026-04-19T10:31:49.934Z</time></trkpt><trkpt lat="45.7475667" lon="7.4293582"><ele>798.0</ele><time>2026-04-19T10:31:52.942Z</time></trkpt><trkpt lat="45.7475124" lon="7.4292968"><ele>798.0</ele><time>2026-04-19T10:31:54.956Z</time></trkpt><trkpt lat="45.7474668" lon="7.4291844"><ele>796.6666666666666</ele><time>2026-04-19T10:31:57.947Z</time></trkpt><trkpt lat="45.7474364" lon="7.4290603"><ele>795.3333333333333</ele><time>2026-04-19T10:32:00.946Z</time></trkpt><trkpt lat="45.7474318" lon="7.4289663"><ele>794.0</ele><time>2026-04-19T10:32:02.951Z</time></trkpt><trkpt lat="45.7474332" lon="7.4288722"><ele>792.6666666666666</ele><time>2026-04-19T10:32:04.955Z</time></trkpt><trkpt lat="45.7474446" lon="7.4287524"><ele>791.3333333333333</ele><time>2026-04-19T10:32:08.028Z</time></trkpt><trkpt lat="45.7474837" lon="7.4286672"><ele>790.0</ele><time>2026-04-19T10:32:10.943Z</time></trkpt><trkpt lat="45.7475208" lon="7.4285521"><ele>789.3333333333333</ele><time>2026-04-19T10:32:14.06Z</time></trkpt><trkpt lat="45.7475234" lon="7.4284295"><ele>788.6666666666666</ele><time>2026-04-19T10:32:16.957Z</time></trkpt><trkpt lat="45.7475125" lon="7.4283068"><ele>788.0</ele><time>2026-04-19T10:32:19.944Z</time></trkpt><trkpt lat="45.7475311" lon="7.4281889"><ele>787.3333333333333</ele><time>2026-04-19T10:32:22.948Z</time></trkpt><trkpt lat="45.7475667" lon="7.4281045"><ele>786.6666666666666</ele><time>2026-04-19T10:32:25.941Z</time></trkpt><trkpt lat="45.7476193" lon="7.4280205"><ele>786.0</ele><time>2026-04-19T10:32:29.941Z</time></trkpt><trkpt lat="45.7476548" lon="7.4279422"><ele>785.6666666666666</ele><time>2026-04-19T10:32:32.947Z</time></trkpt><trkpt lat="45.7476691" lon="7.4278341"><ele>785.3333333333333</ele><time>2026-04-19T10:32:35.94Z</time></trkpt><trkpt lat="45.7476671" lon="7.4277249"><ele>785.0</ele><time>2026-04-19T10:32:39.023Z</time></trkpt><trkpt lat="45.7476463" lon="7.4276112"><ele>784.6666666666666</ele><time>2026-04-19T10:32:41.94Z</time></trkpt><trkpt lat="45.7476226" lon="7.4275098"><ele>784.3333333333333</ele><time>2026-04-19T10:32:44.939Z</time></trkpt><trkpt lat="45.7476298" lon="7.4274033"><ele>784.0</ele><time>2026-04-19T10:32:49.031Z</time></trkpt><trkpt lat="45.7476464" lon="7.4273129"><ele>822.0</ele><time>2026-04-19T10:33:18.94Z</time></trkpt><trkpt lat="45.747869" lon="7.4266883"><ele>822.0</ele><time>2026-04-19T10:39:58.933Z</time></trkpt><trkpt lat="45.7478857" lon="7.4265973"><ele>822.0</ele><time>2026-04-19T10:40:01.937Z</time></trkpt><trkpt lat="45.7479114" lon="7.4264787"><ele>822.0</ele><time>2026-04-19T10:40:04.937Z</time></trkpt><trkpt lat="45.747915" lon="7.4263481"><ele>822.0</ele><time>2026-04-19T10:40:07.931Z</time></trkpt><trkpt lat="45.7479105" lon="7.4262575"><ele>822.0</ele><time>2026-04-19T10:40:09.939Z</time></trkpt><trkpt lat="45.7479321" lon="7.4261699"><ele>822.0</ele><time>2026-04-19T10:40:11.935Z</time></trkpt><trkpt lat="45.7479802" lon="7.4260495"><ele>820.1428571428571</ele><time>2026-04-19T10:40:14.938Z</time></trkpt><trkpt lat="45.7480318" lon="7.4259745"><ele>818.2857142857142</ele><time>2026-04-19T10:40:16.931Z</time></trkpt><trkpt lat="45.7480882" lon="7.4259058"><ele>816.4285714285714</ele><time>2026-04-19T10:40:18.931Z</time></trkpt><trkpt lat="45.7481525" lon="7.4258628"><ele>814.5714285714286</ele><time>2026-04-19T10:40:20.939Z</time></trkpt><trkpt lat="45.7482268" lon="7.4258249"><ele>812.7142857142858</ele><time>2026-04-19T10:40:22.939Z</time></trkpt><trkpt lat="45.7482916" lon="7.4257653"><ele>810.8571428571429</ele><time>2026-04-19T10:40:24.933Z</time></trkpt><trkpt lat="45.7483449" lon="7.4256926"><ele>809.0</ele><time>2026-04-19T10:40:26.93Z</time></trkpt><trkpt lat="45.7483878" lon="7.4256103"><ele>809.0</ele><time>2026-04-19T10:40:28.937Z</time></trkpt><trkpt lat="45.748424" lon="7.425525"><ele>809.0</ele><time>2026-04-19T10:40:30.933Z</time></trkpt><trkpt lat="45.7484463" lon="7.425431"><ele>809.0</ele><time>2026-04-19T10:40:32.932Z</time></trkpt><trkpt lat="45.7484412" lon="7.4253369"><ele>809.0</ele><time>2026-04-19T10:40:34.933Z</time></trkpt><trkpt lat="45.7484127" lon="7.4252533"><ele>809.0</ele><time>2026-04-19T10:40:36.938Z</time></trkpt><trkpt lat="45.7483385" lon="7.425161"><ele>809.0</ele><time>2026-04-19T10:40:39.929Z</time></trkpt><trkpt lat="45.748274" lon="7.4251041"><ele>809.0</ele><time>2026-04-19T10:40:41.94Z</time></trkpt><trkpt lat="45.748224" lon="7.4250091"><ele>808.6666666666667</ele><time>2026-04-19T10:40:43.934Z</time></trkpt><trkpt lat="45.7482083" lon="7.4248902"><ele>808.3333333333334</ele><time>2026-04-19T10:40:45.937Z</time></trkpt><trkpt lat="45.7482191" lon="7.4247801"><ele>808.0</ele><time>2026-04-19T10:40:47.938Z</time></trkpt><trkpt lat="45.7482198" lon="7.4246535"><ele>807.6666666666667</ele><time>2026-04-19T10:40:49.936Z</time></trkpt><trkpt lat="45.74821" lon="7.4245124"><ele>807.3333333333334</ele><time>2026-04-19T10:40:51.938Z</time></trkpt><trkpt lat="45.748189" lon="7.424396"><ele>807.0</ele><time>2026-04-19T10:40:53.944Z</time></trkpt><trkpt lat="45.7481655" lon="7.4242767"><ele>807.8333333333334</ele><time>2026-04-19T10:40:55.936Z</time></trkpt><trkpt lat="45.7481224" lon="7.4241663"><ele>808.6666666666667</ele><time>2026-04-19T10:40:57.938Z</time></trkpt><trkpt lat="45.7480587" lon="7.4240701"><ele>809.5</ele><time>2026-04-19T10:40:59.94Z</time></trkpt><trkpt lat="45.7480004" lon="7.4239854"><ele>810.3333333333334</ele><time>2026-04-19T10:41:01.939Z</time></trkpt><trkpt lat="45.7479688" lon="7.4238796"><ele>811.1666666666667</ele><time>2026-04-19T10:41:03.934Z</time></trkpt><trkpt lat="45.7479633" lon="7.4237565"><ele>812.0</ele><time>2026-04-19T10:41:05.939Z</time></trkpt><trkpt lat="45.7479841" lon="7.4236446"><ele>812.3333333333334</ele><time>2026-04-19T10:41:07.934Z</time></trkpt><trkpt lat="45.7480085" lon="7.4235351"><ele>812.6666666666667</ele><time>2026-04-19T10:41:09.936Z</time></trkpt><trkpt lat="45.7480279" lon="7.4234275"><ele>813.0</ele><time>2026-04-19T10:41:11.94Z</time></trkpt><trkpt lat="45.7480523" lon="7.423302"><ele>813.3333333333333</ele><time>2026-04-19T10:41:13.936Z</time></trkpt><trkpt lat="45.7480859" lon="7.4231762"><ele>813.6666666666666</ele><time>2026-04-19T10:41:15.935Z</time></trkpt><trkpt lat="45.7481252" lon="7.4230731"><ele>814.0</ele><time>2026-04-19T10:41:17.931Z</time></trkpt><trkpt lat="45.7481528" lon="7.4229699"><ele>813.9999999999999</ele><time>2026-04-19T10:41:19.934Z</time></trkpt><trkpt lat="45.7481721" lon="7.4228682"><ele>814.0</ele><time>2026-04-19T10:41:21.931Z</time></trkpt><trkpt lat="45.7481916" lon="7.4227617"><ele>814.0</ele><time>2026-04-19T10:41:23.933Z</time></trkpt><trkpt lat="45.7482011" lon="7.4226557"><ele>814.0</ele><time>2026-04-19T10:41:25.936Z</time></trkpt><trkpt lat="45.748209" lon="7.4225514"><ele>813.9999999999999</ele><time>2026-04-19T10:41:27.937Z</time></trkpt><trkpt lat="45.7482502" lon="7.4224663"><ele>814.0</ele><time>2026-04-19T10:41:29.935Z</time></trkpt><trkpt lat="45.7483284" lon="7.4224446"><ele>813.9999999999999</ele><time>2026-04-19T10:41:31.94Z</time></trkpt><trkpt lat="45.7483784" lon="7.4225089"><ele>814.0</ele><time>2026-04-19T10:41:33.941Z</time></trkpt><trkpt lat="45.7484086" lon="7.4226083"><ele>814.0</ele><time>2026-04-19T10:41:35.941Z</time></trkpt><trkpt lat="45.748425" lon="7.4227052"><ele>814.0</ele><time>2026-04-19T10:41:37.936Z</time></trkpt><trkpt lat="45.7484305" lon="7.4227954"><ele>813.9999999999999</ele><time>2026-04-19T10:41:39.937Z</time></trkpt><trkpt lat="45.7484582" lon="7.4229212"><ele>814.0</ele><time>2026-04-19T10:41:42.936Z</time></trkpt><trkpt lat="45.7484974" lon="7.4230379"><ele>818.8571428571429</ele><time>2026-04-19T10:41:45.937Z</time></trkpt><trkpt lat="45.7485743" lon="7.4230899"><ele>823.7142857142858</ele><time>2026-04-19T10:41:48.936Z</time></trkpt><trkpt lat="45.7486327" lon="7.4230371"><ele>828.5714285714287</ele><time>2026-04-19T10:41:50.936Z</time></trkpt><trkpt lat="45.7486779" lon="7.4229218"><ele>833.4285714285714</ele><time>2026-04-19T10:41:53.938Z</time></trkpt><trkpt lat="45.7486874" lon="7.4228297"><ele>838.2857142857142</ele><time>2026-04-19T10:41:55.936Z</time></trkpt><trkpt lat="45.748694" lon="7.4227342"><ele>843.1428571428572</ele><time>2026-04-19T10:41:57.937Z</time></trkpt><trkpt lat="45.7486961" lon="7.4226368"><ele>848.0</ele><time>2026-04-19T10:41:59.938Z</time></trkpt><trkpt lat="45.7486938" lon="7.4225422"><ele>848.0</ele><time>2026-04-19T10:42:01.939Z</time></trkpt><trkpt lat="45.7486913" lon="7.4224478"><ele>848.0</ele><time>2026-04-19T10:42:03.939Z</time></trkpt><trkpt lat="45.7486871" lon="7.4223561"><ele>848.0</ele><time>2026-04-19T10:42:05.935Z</time></trkpt><trkpt lat="45.7486905" lon="7.4222652"><ele>848.0</ele><time>2026-04-19T10:42:07.943Z</time></trkpt><trkpt lat="45.7486972" lon="7.4221691"><ele>848.0</ele><time>2026-04-19T10:42:09.933Z</time></trkpt><trkpt lat="45.7487048" lon="7.4220694"><ele>848.0</ele><time>2026-04-19T10:42:11.932Z</time></trkpt><trkpt lat="45.7487069" lon="7.4219646"><ele>848.0</ele><time>2026-04-19T10:42:13.935Z</time></trkpt><trkpt lat="45.7487158" lon="7.4218497"><ele>847.3333333333334</ele><time>2026-04-19T10:42:15.942Z</time></trkpt><trkpt lat="45.748723" lon="7.4217325"><ele>846.6666666666667</ele><time>2026-04-19T10:42:17.938Z</time></trkpt><trkpt lat="45.7487281" lon="7.4216071"><ele>846.0</ele><time>2026-04-19T10:42:19.933Z</time></trkpt><trkpt lat="45.7487284" lon="7.4214879"><ele>845.3333333333333</ele><time>2026-04-19T10:42:21.933Z</time></trkpt><trkpt lat="45.7487252" lon="7.4213978"><ele>844.6666666666666</ele><time>2026-04-19T10:42:23.933Z</time></trkpt><trkpt lat="45.7487398" lon="7.4213093"><ele>844.0</ele><time>2026-04-19T10:42:25.936Z</time></trkpt><trkpt lat="45.7487712" lon="7.4212067"><ele>843.4999999999999</ele><time>2026-04-19T10:42:27.936Z</time></trkpt><trkpt lat="45.7488107" lon="7.4211038"><ele>843.0</ele><time>2026-04-19T10:42:29.938Z</time></trkpt><trkpt lat="45.7488436" lon="7.4209917"><ele>842.5</ele><time>2026-04-19T10:42:31.934Z</time></trkpt><trkpt lat="45.7488805" lon="7.4208742"><ele>842.0</ele><time>2026-04-19T10:42:33.936Z</time></trkpt><trkpt lat="45.7488899" lon="7.4207539"><ele>841.4999999999999</ele><time>2026-04-19T10:42:35.931Z</time></trkpt><trkpt lat="45.7489036" lon="7.4206253"><ele>841.0</ele><time>2026-04-19T10:42:37.937Z</time></trkpt><trkpt lat="45.7489195" lon="7.4205089"><ele>840.1666666666666</ele><time>2026-04-19T10:42:39.935Z</time></trkpt><trkpt lat="45.7489554" lon="7.4203989"><ele>839.3333333333333</ele><time>2026-04-19T10:42:41.934Z</time></trkpt><trkpt lat="45.7489842" lon="7.4202833"><ele>838.5</ele><time>2026-04-19T10:42:43.935Z</time></trkpt><trkpt lat="45.7490205" lon="7.4201707"><ele>837.6666666666667</ele><time>2026-04-19T10:42:45.932Z</time></trkpt><trkpt lat="45.7490525" lon="7.4200613"><ele>836.8333333333334</ele><time>2026-04-19T10:42:47.939Z</time></trkpt><trkpt lat="45.7490841" lon="7.4199375"><ele>836.0</ele><time>2026-04-19T10:42:49.93Z</time></trkpt><trkpt lat="45.7491166" lon="7.4198214"><ele>836.0000000000001</ele><time>2026-04-19T10:42:51.938Z</time></trkpt><trkpt lat="45.7491579" lon="7.4197074"><ele>836.0</ele><time>2026-04-19T10:42:53.934Z</time></trkpt><trkpt lat="45.7491877" lon="7.4195976"><ele>836.0</ele><time>2026-04-19T10:42:55.936Z</time></trkpt><trkpt lat="45.7492138" lon="7.419506"><ele>836.0</ele><time>2026-04-19T10:42:57.938Z</time></trkpt><trkpt lat="45.749246" lon="7.4194091"><ele>836.0000000000001</ele><time>2026-04-19T10:42:59.946Z</time></trkpt><trkpt lat="45.7492701" lon="7.4192999"><ele>836.0</ele><time>2026-04-19T10:43:01.932Z</time></trkpt><trkpt lat="45.7492811" lon="7.4191997"><ele>835.1666666666667</ele><time>2026-04-19T10:43:03.938Z</time></trkpt><trkpt lat="45.7493005" lon="7.4190931"><ele>834.3333333333334</ele><time>2026-04-19T10:43:05.94Z</time></trkpt><trkpt lat="45.7493243" lon="7.4189888"><ele>833.5</ele><time>2026-04-19T10:43:07.935Z</time></trkpt><trkpt lat="45.7493412" lon="7.4188836"><ele>832.6666666666667</ele><time>2026-04-19T10:43:09.953Z</time></trkpt><trkpt lat="45.7493677" lon="7.4187756"><ele>831.8333333333334</ele><time>2026-04-19T10:43:11.936Z</time></trkpt><trkpt lat="45.749395" lon="7.4186761"><ele>831.0</ele><time>2026-04-19T10:43:13.931Z</time></trkpt><trkpt lat="45.7494253" lon="7.4185856"><ele>833.2857142857142</ele><time>2026-04-19T10:43:15.944Z</time></trkpt><trkpt lat="45.7494655" lon="7.4185113"><ele>835.5714285714286</ele><time>2026-04-19T10:43:17.939Z</time></trkpt><trkpt lat="45.7495263" lon="7.4184535"><ele>837.8571428571429</ele><time>2026-04-19T10:43:19.936Z</time></trkpt><trkpt lat="45.7495873" lon="7.4184047"><ele>840.1428571428571</ele><time>2026-04-19T10:43:21.937Z</time></trkpt><trkpt lat="45.7496697" lon="7.4183565"><ele>842.4285714285714</ele><time>2026-04-19T10:43:23.937Z</time></trkpt><trkpt lat="45.7497428" lon="7.4183403"><ele>844.7142857142857</ele><time>2026-04-19T10:43:25.94Z</time></trkpt><trkpt lat="45.7498125" lon="7.4183191"><ele>847.0</ele><time>2026-04-19T10:43:27.937Z</time></trkpt><trkpt lat="45.7498827" lon="7.4182778"><ele>846.9999999999999</ele><time>2026-04-19T10:43:29.936Z</time></trkpt><trkpt lat="45.7499461" lon="7.4182064"><ele>847.0</ele><time>2026-04-19T10:43:31.937Z</time></trkpt><trkpt lat="45.7500019" lon="7.4181192"><ele>847.0</ele><time>2026-04-19T10:43:33.934Z</time></trkpt><trkpt lat="45.7500374" lon="7.4180264"><ele>847.0</ele><time>2026-04-19T10:43:35.938Z</time></trkpt><trkpt lat="45.7500582" lon="7.4179369"><ele>846.9999999999999</ele><time>2026-04-19T10:43:37.94Z</time></trkpt><trkpt lat="45.7500769" lon="7.4178453"><ele>847.0</ele><time>2026-04-19T10:43:39.941Z</time></trkpt><trkpt lat="45.7501297" lon="7.4177564"><ele>844.9999999999999</ele><time>2026-04-19T10:43:42.937Z</time></trkpt><trkpt lat="45.7501827" lon="7.4176607"><ele>843.0</ele><time>2026-04-19T10:43:47.935Z</time></trkpt><trkpt lat="45.7502164" lon="7.4175452"><ele>841.0</ele><time>2026-04-19T10:43:50.93Z</time></trkpt><trkpt lat="45.7502482" lon="7.4174367"><ele>839.0</ele><time>2026-04-19T10:43:52.935Z</time></trkpt><trkpt lat="45.7502343" lon="7.4173059"><ele>836.9999999999999</ele><time>2026-04-19T10:43:54.933Z</time></trkpt><trkpt lat="45.7502" lon="7.417205"><ele>835.0</ele><time>2026-04-19T10:43:56.933Z</time></trkpt><trkpt lat="45.7501694" lon="7.4170912"><ele>835.0</ele><time>2026-04-19T10:43:58.943Z</time></trkpt><trkpt lat="45.7501535" lon="7.4169579"><ele>835.0</ele><time>2026-04-19T10:44:00.939Z</time></trkpt><trkpt lat="45.750156" lon="7.4168274"><ele>835.0</ele><time>2026-04-19T10:44:02.944Z</time></trkpt><trkpt lat="45.7501775" lon="7.4167113"><ele>835.0</ele><time>2026-04-19T10:44:04.944Z</time></trkpt><trkpt lat="45.7501991" lon="7.4165868"><ele>835.0</ele><time>2026-04-19T10:44:06.934Z</time></trkpt><trkpt lat="45.7502231" lon="7.4164592"><ele>841.2</ele><time>2026-04-19T10:44:08.937Z</time></trkpt><trkpt lat="45.7502393" lon="7.4163329"><ele>847.4</ele><time>2026-04-19T10:44:10.938Z</time></trkpt><trkpt lat="45.7502655" lon="7.4162113"><ele>853.5999999999999</ele><time>2026-04-19T10:44:12.939Z</time></trkpt><trkpt lat="45.7502826" lon="7.4160816"><ele>859.8</ele><time>2026-04-19T10:44:14.935Z</time></trkpt><trkpt lat="45.7503097" lon="7.415955"><ele>866.0</ele><time>2026-04-19T10:44:16.931Z</time></trkpt><trkpt lat="45.750334" lon="7.415835"><ele>866.0</ele><time>2026-04-19T10:44:18.934Z</time></trkpt><trkpt lat="45.7503522" lon="7.4157069"><ele>865.9999999999999</ele><time>2026-04-19T10:44:20.937Z</time></trkpt><trkpt lat="45.7503686" lon="7.4155693"><ele>865.9999999999999</ele><time>2026-04-19T10:44:22.936Z</time></trkpt><trkpt lat="45.7503934" lon="7.4154485"><ele>866.0</ele><time>2026-04-19T10:44:24.935Z</time></trkpt><trkpt lat="45.7504008" lon="7.4153231"><ele>866.0</ele><time>2026-04-19T10:44:26.934Z</time></trkpt><trkpt lat="45.7504164" lon="7.4151993"><ele>865.6666666666667</ele><time>2026-04-19T10:44:28.935Z</time></trkpt><trkpt lat="45.7504403" lon="7.4150776"><ele>865.3333333333334</ele><time>2026-04-19T10:44:30.936Z</time></trkpt><trkpt lat="45.7504711" lon="7.414961"><ele>865.0</ele><time>2026-04-19T10:44:32.937Z</time></trkpt><trkpt lat="45.7505043" lon="7.4148417"><ele>864.6666666666667</ele><time>2026-04-19T10:44:34.932Z</time></trkpt><trkpt lat="45.750534" lon="7.4147217"><ele>864.3333333333334</ele><time>2026-04-19T10:44:36.941Z</time></trkpt><trkpt lat="45.7505628" lon="7.4145991"><ele>864.0</ele><time>2026-04-19T10:44:38.935Z</time></trkpt><trkpt lat="45.7505979" lon="7.4144914"><ele>862.4285714285714</ele><time>2026-04-19T10:44:40.935Z</time></trkpt><trkpt lat="45.7506304" lon="7.4143899"><ele>860.8571428571429</ele><time>2026-04-19T10:44:42.946Z</time></trkpt><trkpt lat="45.7506522" lon="7.4142854"><ele>859.2857142857142</ele><time>2026-04-19T10:44:44.935Z</time></trkpt><trkpt lat="45.7506719" lon="7.4141877"><ele>857.7142857142858</ele><time>2026-04-19T10:44:46.936Z</time></trkpt><trkpt lat="45.7507062" lon="7.4140949"><ele>856.1428571428572</ele><time>2026-04-19T10:44:48.934Z</time></trkpt><trkpt lat="45.7507474" lon="7.4140177"><ele>854.5714285714286</ele><time>2026-04-19T10:44:50.935Z</time></trkpt><trkpt lat="45.7508074" lon="7.413951"><ele>853.0</ele><time>2026-04-19T10:44:52.941Z</time></trkpt><trkpt lat="45.7508632" lon="7.4138877"><ele>853.0</ele><time>2026-04-19T10:44:54.936Z</time></trkpt><trkpt lat="45.7509267" lon="7.4138473"><ele>853.0</ele><time>2026-04-19T10:44:56.94Z</time></trkpt><trkpt lat="45.7509847" lon="7.4138072"><ele>853.0</ele><time>2026-04-19T10:44:58.939Z</time></trkpt><trkpt lat="45.7510386" lon="7.4137523"><ele>853.0</ele><time>2026-04-19T10:45:00.931Z</time></trkpt><trkpt lat="45.7511307" lon="7.4137443"><ele>853.0</ele><time>2026-04-19T10:45:03.939Z</time></trkpt><trkpt lat="45.7511481" lon="7.4138536"><ele>853.0</ele><time>2026-04-19T10:45:05.932Z</time></trkpt><trkpt lat="45.7511112" lon="7.4139355"><ele>853.0</ele><time>2026-04-19T10:45:07.936Z</time></trkpt><trkpt lat="45.7510697" lon="7.4140062"><ele>853.0</ele><time>2026-04-19T10:45:09.937Z</time></trkpt><trkpt lat="45.7510191" lon="7.4140702"><ele>853.0</ele><time>2026-04-19T10:45:11.929Z</time></trkpt><trkpt lat="45.7509762" lon="7.4141453"><ele>853.0</ele><time>2026-04-19T10:45:13.938Z</time></trkpt><trkpt lat="45.7509466" lon="7.4142309"><ele>853.0</ele><time>2026-04-19T10:45:15.937Z</time></trkpt><trkpt lat="45.7509288" lon="7.4143298"><ele>853.0</ele><time>2026-04-19T10:45:17.93Z</time></trkpt><trkpt lat="45.7509207" lon="7.4144291"><ele>853.0</ele><time>2026-04-19T10:45:19.935Z</time></trkpt><trkpt lat="45.7509032" lon="7.4145282"><ele>853.0</ele><time>2026-04-19T10:45:21.932Z</time></trkpt><trkpt lat="45.7508944" lon="7.414631"><ele>854.5714285714286</ele><time>2026-04-19T10:45:23.938Z</time></trkpt><trkpt lat="45.7509023" lon="7.41473"><ele>856.1428571428572</ele><time>2026-04-19T10:45:25.94Z</time></trkpt><trkpt lat="45.7509102" lon="7.4148264"><ele>857.7142857142858</ele><time>2026-04-19T10:45:27.933Z</time></trkpt><trkpt lat="45.7509196" lon="7.4149178"><ele>859.2857142857142</ele><time>2026-04-19T10:45:29.938Z</time></trkpt><trkpt lat="45.7509222" lon="7.4150172"><ele>860.8571428571429</ele><time>2026-04-19T10:45:31.937Z</time></trkpt><trkpt lat="45.7509324" lon="7.4151125"><ele>862.4285714285714</ele><time>2026-04-19T10:45:33.939Z</time></trkpt><trkpt lat="45.7509447" lon="7.4152018"><ele>864.0</ele><time>2026-04-19T10:45:35.938Z</time></trkpt><trkpt lat="45.7509555" lon="7.4152971"><ele>864.0</ele><time>2026-04-19T10:45:37.934Z</time></trkpt><trkpt lat="45.7509684" lon="7.4153956"><ele>864.0</ele><time>2026-04-19T10:45:39.943Z</time></trkpt><trkpt lat="45.7509761" lon="7.4154889"><ele>864.0</ele><time>2026-04-19T10:45:41.94Z</time></trkpt><trkpt lat="45.7509947" lon="7.4155968"><ele>864.0</ele><time>2026-04-19T10:45:44.937Z</time></trkpt><trkpt lat="45.7510071" lon="7.415697"><ele>864.0</ele><time>2026-04-19T10:45:47.94Z</time></trkpt><trkpt lat="45.7510108" lon="7.4158033"><ele>864.0</ele><time>2026-04-19T10:45:50.94Z</time></trkpt><trkpt lat="45.751015" lon="7.4159115"><ele>864.0</ele><time>2026-04-19T10:45:53.936Z</time></trkpt><trkpt lat="45.7510284" lon="7.4160126"><ele>864.3333333333334</ele><time>2026-04-19T10:45:56.938Z</time></trkpt><trkpt lat="45.7510395" lon="7.416117"><ele>864.6666666666667</ele><time>2026-04-19T10:45:59.94Z</time></trkpt><trkpt lat="45.7510452" lon="7.4162257"><ele>865.0</ele><time>2026-04-19T10:46:02.932Z</time></trkpt><trkpt lat="45.7510512" lon="7.416336"><ele>865.3333333333334</ele><time>2026-04-19T10:46:05.941Z</time></trkpt><trkpt lat="45.7510616" lon="7.4164464"><ele>865.6666666666667</ele><time>2026-04-19T10:46:08.941Z</time></trkpt><trkpt lat="45.7510746" lon="7.4165545"><ele>866.0</ele><time>2026-04-19T10:46:11.938Z</time></trkpt><trkpt lat="45.7510878" lon="7.4166688"><ele>872.1666666666667</ele><time>2026-04-19T10:46:14.937Z</time></trkpt><trkpt lat="45.7511032" lon="7.416776"><ele>878.3333333333334</ele><time>2026-04-19T10:46:17.938Z</time></trkpt><trkpt lat="45.7511195" lon="7.4168927"><ele>884.5</ele><time>2026-04-19T10:46:20.937Z</time></trkpt><trkpt lat="45.7511543" lon="7.4170067"><ele>890.6666666666667</ele><time>2026-04-19T10:46:23.936Z</time></trkpt><trkpt lat="45.7511957" lon="7.4171044"><ele>896.8333333333334</ele><time>2026-04-19T10:46:26.934Z</time></trkpt><trkpt lat="45.7512312" lon="7.4171962"><ele>903.0</ele><time>2026-04-19T10:46:29.935Z</time></trkpt><trkpt lat="45.7512253" lon="7.4172894"><ele>903.6666666666666</ele><time>2026-04-19T10:46:32.94Z</time></trkpt><trkpt lat="45.7512263" lon="7.4174036"><ele>904.3333333333333</ele><time>2026-04-19T10:46:35.937Z</time></trkpt><trkpt lat="45.7512501" lon="7.4174983"><ele>905.0</ele><time>2026-04-19T10:46:38.939Z</time></trkpt><trkpt lat="45.7513277" lon="7.4175417"><ele>905.6666666666666</ele><time>2026-04-19T10:46:41.934Z</time></trkpt><trkpt lat="45.7513965" lon="7.417494"><ele>906.3333333333333</ele><time>2026-04-19T10:46:44.939Z</time></trkpt><trkpt lat="45.7514379" lon="7.4174195"><ele>907.0</ele><time>2026-04-19T10:46:47.94Z</time></trkpt><trkpt lat="45.7514856" lon="7.4173262"><ele>906.9999999999999</ele><time>2026-04-19T10:46:50.942Z</time></trkpt><trkpt lat="45.7515081" lon="7.4172257"><ele>907.0</ele><time>2026-04-19T10:46:53.936Z</time></trkpt><trkpt lat="45.751533" lon="7.4171038"><ele>907.0</ele><time>2026-04-19T10:46:56.937Z</time></trkpt><trkpt lat="45.7515421" lon="7.416987"><ele>907.0</ele><time>2026-04-19T10:46:59.929Z</time></trkpt><trkpt lat="45.7515481" lon="7.416892"><ele>906.9999999999999</ele><time>2026-04-19T10:47:01.938Z</time></trkpt><trkpt lat="45.7515668" lon="7.4167714"><ele>907.0</ele><time>2026-04-19T10:47:04.94Z</time></trkpt><trkpt lat="45.7515857" lon="7.4166584"><ele>906.3333333333333</ele><time>2026-04-19T10:47:07.936Z</time></trkpt><trkpt lat="45.7516013" lon="7.4165476"><ele>905.6666666666666</ele><time>2026-04-19T10:47:10.944Z</time></trkpt><trkpt lat="45.7516194" lon="7.4164265"><ele>905.0</ele><time>2026-04-19T10:47:13.943Z</time></trkpt><trkpt lat="45.7516456" lon="7.4163153"><ele>904.3333333333333</ele><time>2026-04-19T10:47:16.941Z</time></trkpt><trkpt lat="45.7516754" lon="7.4162105"><ele>903.6666666666666</ele><time>2026-04-19T10:47:19.94Z</time></trkpt><trkpt lat="45.7517239" lon="7.4161202"><ele>903.0</ele><time>2026-04-19T10:47:22.937Z</time></trkpt><trkpt lat="45.7517718" lon="7.4160358"><ele>903.0</ele><time>2026-04-19T10:47:25.937Z</time></trkpt><trkpt lat="45.7518321" lon="7.4161237"><ele>903.0</ele><time>2026-04-19T10:47:28.936Z</time></trkpt><trkpt lat="45.7518577" lon="7.4162303"><ele>903.0</ele><time>2026-04-19T10:47:31.938Z</time></trkpt><trkpt lat="45.7518711" lon="7.4163477"><ele>903.0</ele><time>2026-04-19T10:47:34.941Z</time></trkpt><trkpt lat="45.7518953" lon="7.4164673"><ele>903.0</ele><time>2026-04-19T10:47:37.936Z</time></trkpt><trkpt lat="45.7519174" lon="7.4165869"><ele>903.0</ele><time>2026-04-19T10:47:40.932Z</time></trkpt><trkpt lat="45.7519383" lon="7.4166953"><ele>910.1666666666666</ele><time>2026-04-19T10:47:43.939Z</time></trkpt><trkpt lat="45.7519455" lon="7.4168178"><ele>917.3333333333333</ele><time>2026-04-19T10:47:46.936Z</time></trkpt><trkpt lat="45.7519433" lon="7.416938"><ele>924.5</ele><time>2026-04-19T10:47:49.938Z</time></trkpt><trkpt lat="45.7519246" lon="7.4170498"><ele>931.6666666666666</ele><time>2026-04-19T10:47:52.944Z</time></trkpt><trkpt lat="45.7519052" lon="7.4171692"><ele>938.8333333333333</ele><time>2026-04-19T10:47:55.939Z</time></trkpt><trkpt lat="45.7518949" lon="7.4172899"><ele>946.0</ele><time>2026-04-19T10:47:58.932Z</time></trkpt><trkpt lat="45.7518819" lon="7.417416"><ele>946.9999999999999</ele><time>2026-04-19T10:48:01.94Z</time></trkpt><trkpt lat="45.7518801" lon="7.417536"><ele>948.0</ele><time>2026-04-19T10:48:04.929Z</time></trkpt><trkpt lat="45.7518745" lon="7.4176588"><ele>949.0</ele><time>2026-04-19T10:48:07.94Z</time></trkpt><trkpt lat="45.7518753" lon="7.4177857"><ele>950.0</ele><time>2026-04-19T10:48:10.933Z</time></trkpt><trkpt lat="45.751884" lon="7.417911"><ele>950.9999999999999</ele><time>2026-04-19T10:48:13.94Z</time></trkpt><trkpt lat="45.7518922" lon="7.418037"><ele>952.0</ele><time>2026-04-19T10:48:16.939Z</time></trkpt><trkpt lat="45.7518938" lon="7.418149"><ele>951.9999999999999</ele><time>2026-04-19T10:48:19.945Z</time></trkpt><trkpt lat="45.7518909" lon="7.4182711"><ele>952.0</ele><time>2026-04-19T10:48:22.937Z</time></trkpt><trkpt lat="45.7519005" lon="7.4183925"><ele>952.0</ele><time>2026-04-19T10:48:25.933Z</time></trkpt><trkpt lat="45.7519153" lon="7.4184816"><ele>952.0</ele><time>2026-04-19T10:48:27.941Z</time></trkpt><trkpt lat="45.7519464" lon="7.4186026"><ele>951.9999999999999</ele><time>2026-04-19T10:48:30.937Z</time></trkpt><trkpt lat="45.7519809" lon="7.4187052"><ele>952.0</ele><time>2026-04-19T10:48:33.938Z</time></trkpt><trkpt lat="45.7520205" lon="7.4188176"><ele>951.6666666666666</ele><time>2026-04-19T10:48:36.943Z</time></trkpt><trkpt lat="45.7520536" lon="7.4189263"><ele>951.3333333333333</ele><time>2026-04-19T10:48:39.935Z</time></trkpt><trkpt lat="45.7520868" lon="7.4190367"><ele>951.0</ele><time>2026-04-19T10:48:42.937Z</time></trkpt><trkpt lat="45.7521142" lon="7.4191381"><ele>950.6666666666667</ele><time>2026-04-19T10:48:45.937Z</time></trkpt><trkpt lat="45.7521474" lon="7.4192391"><ele>950.3333333333334</ele><time>2026-04-19T10:48:48.935Z</time></trkpt><trkpt lat="45.7521834" lon="7.4193356"><ele>950.0</ele><time>2026-04-19T10:48:51.936Z</time></trkpt><trkpt lat="45.7522405" lon="7.4194245"><ele>950.0000000000001</ele><time>2026-04-19T10:48:55.94Z</time></trkpt><trkpt lat="45.7522953" lon="7.4195288"><ele>950.0</ele><time>2026-04-19T10:48:58.939Z</time></trkpt><trkpt lat="45.7523414" lon="7.419626"><ele>950.0</ele><time>2026-04-19T10:49:01.942Z</time></trkpt><trkpt lat="45.7523788" lon="7.4197308"><ele>950.0</ele><time>2026-04-19T10:49:04.943Z</time></trkpt><trkpt lat="45.7524032" lon="7.419837"><ele>950.0000000000001</ele><time>2026-04-19T10:49:07.938Z</time></trkpt><trkpt lat="45.7524196" lon="7.4199378"><ele>950.0</ele><time>2026-04-19T10:49:10.938Z</time></trkpt><trkpt lat="45.7524052" lon="7.4200541"><ele>951.0000000000001</ele><time>2026-04-19T10:49:13.937Z</time></trkpt><trkpt lat="45.7523863" lon="7.4201613"><ele>952.0</ele><time>2026-04-19T10:49:16.938Z</time></trkpt><trkpt lat="45.7523502" lon="7.4202606"><ele>953.0</ele><time>2026-04-19T10:49:19.942Z</time></trkpt><trkpt lat="45.7523038" lon="7.4203655"><ele>954.0</ele><time>2026-04-19T10:49:22.939Z</time></trkpt><trkpt lat="45.7522344" lon="7.4204505"><ele>955.0000000000001</ele><time>2026-04-19T10:49:25.937Z</time></trkpt><trkpt lat="45.7521615" lon="7.420488"><ele>956.0</ele><time>2026-04-19T10:49:28.932Z</time></trkpt><trkpt lat="45.7520865" lon="7.4205381"><ele>958.5000000000001</ele><time>2026-04-19T10:49:31.932Z</time></trkpt><trkpt lat="45.7520137" lon="7.4205945"><ele>961.0</ele><time>2026-04-19T10:49:34.937Z</time></trkpt><trkpt lat="45.7519581" lon="7.4206811"><ele>963.5</ele><time>2026-04-19T10:49:37.935Z</time></trkpt><trkpt lat="45.7519463" lon="7.4208004"><ele>966.0</ele><time>2026-04-19T10:49:40.941Z</time></trkpt><trkpt lat="45.7519495" lon="7.4209223"><ele>968.5000000000001</ele><time>2026-04-19T10:49:43.94Z</time></trkpt><trkpt lat="45.7519525" lon="7.4210379"><ele>971.0</ele><time>2026-04-19T10:49:46.938Z</time></trkpt><trkpt lat="45.7519368" lon="7.421157"><ele>971.0000000000001</ele><time>2026-04-19T10:49:49.947Z</time></trkpt><trkpt lat="45.751904" lon="7.4212854"><ele>971.0</ele><time>2026-04-19T10:49:52.942Z</time></trkpt><trkpt lat="45.7518762" lon="7.4213693"><ele>971.0</ele><time>2026-04-19T10:49:54.938Z</time></trkpt><trkpt lat="45.7518473" lon="7.4214506"><ele>971.0</ele><time>2026-04-19T10:49:56.942Z</time></trkpt><trkpt lat="45.7518019" lon="7.4215707"><ele>971.0000000000001</ele><time>2026-04-19T10:49:59.942Z</time></trkpt><trkpt lat="45.7517723" lon="7.4216547"><ele>971.0</ele><time>2026-04-19T10:50:01.944Z</time></trkpt><trkpt lat="45.7517535" lon="7.4217477"><ele>969.8333333333334</ele><time>2026-04-19T10:50:03.935Z</time></trkpt><trkpt lat="45.7517377" lon="7.4218562"><ele>968.6666666666667</ele><time>2026-04-19T10:50:05.938Z</time></trkpt><trkpt lat="45.7516999" lon="7.4219394"><ele>967.5</ele><time>2026-04-19T10:50:07.937Z</time></trkpt><trkpt lat="45.7516643" lon="7.422029"><ele>966.3333333333333</ele><time>2026-04-19T10:50:09.93Z</time></trkpt><trkpt lat="45.7516372" lon="7.4221152"><ele>965.1666666666666</ele><time>2026-04-19T10:50:11.937Z</time></trkpt><trkpt lat="45.7515819" lon="7.422226"><ele>964.0</ele><time>2026-04-19T10:50:14.937Z</time></trkpt><trkpt lat="45.7515266" lon="7.4223056"><ele>963.9999999999999</ele><time>2026-04-19T10:50:17.933Z</time></trkpt><trkpt lat="45.751474" lon="7.42236"><ele>964.0</ele><time>2026-04-19T10:50:21.942Z</time></trkpt><trkpt lat="45.7514014" lon="7.422464"><ele>964.0</ele><time>2026-04-19T10:50:24.938Z</time></trkpt><trkpt lat="45.7513362" lon="7.4225534"><ele>964.0</ele><time>2026-04-19T10:50:26.935Z</time></trkpt><trkpt lat="45.7512906" lon="7.4226428"><ele>963.9999999999999</ele><time>2026-04-19T10:50:28.933Z</time></trkpt><trkpt lat="45.751264" lon="7.4227387"><ele>964.0</ele><time>2026-04-19T10:50:30.936Z</time></trkpt><trkpt lat="45.7512323" lon="7.4228171"><ele>963.9999999999999</ele><time>2026-04-19T10:50:32.934Z</time></trkpt><trkpt lat="45.7512093" lon="7.4229171"><ele>964.0</ele><time>2026-04-19T10:50:35.942Z</time></trkpt><trkpt lat="45.7512016" lon="7.4230314"><ele>964.0</ele><time>2026-04-19T10:50:38.941Z</time></trkpt><trkpt lat="45.7511735" lon="7.4231286"><ele>964.0</ele><time>2026-04-19T10:50:41.944Z</time></trkpt><trkpt lat="45.7511515" lon="7.4232558"><ele>963.9999999999999</ele><time>2026-04-19T10:50:44.937Z</time></trkpt><trkpt lat="45.7511375" lon="7.4233492"><ele>964.0</ele><time>2026-04-19T10:50:46.94Z</time></trkpt><trkpt lat="45.7511031" lon="7.4234422"><ele>965.8333333333333</ele><time>2026-04-19T10:50:48.935Z</time></trkpt><trkpt lat="45.7510691" lon="7.4235263"><ele>967.6666666666666</ele><time>2026-04-19T10:50:50.937Z</time></trkpt><trkpt lat="45.7510307" lon="7.423646"><ele>969.5</ele><time>2026-04-19T10:50:53.94Z</time></trkpt><trkpt lat="45.7510091" lon="7.4237664"><ele>971.3333333333333</ele><time>2026-04-19T10:50:56.938Z</time></trkpt><trkpt lat="45.7510003" lon="7.4238584"><ele>973.1666666666666</ele><time>2026-04-19T10:50:59.934Z</time></trkpt><trkpt lat="45.7510064" lon="7.4239541"><ele>975.0</ele><time>2026-04-19T10:51:02.938Z</time></trkpt><trkpt lat="45.7509897" lon="7.4240646"><ele>970.8333333333334</ele><time>2026-04-19T10:51:05.943Z</time></trkpt><trkpt lat="45.7509845" lon="7.4241911"><ele>966.6666666666667</ele><time>2026-04-19T10:51:08.937Z</time></trkpt><trkpt lat="45.7509757" lon="7.4243097"><ele>962.5</ele><time>2026-04-19T10:51:11.944Z</time></trkpt><trkpt lat="45.7509662" lon="7.424428"><ele>958.3333333333334</ele><time>2026-04-19T10:51:14.939Z</time></trkpt><trkpt lat="45.7509442" lon="7.4245519"><ele>954.1666666666667</ele><time>2026-04-19T10:51:17.944Z</time></trkpt><trkpt lat="45.750933" lon="7.4246765"><ele>950.0</ele><time>2026-04-19T10:51:20.94Z</time></trkpt><trkpt lat="45.7509205" lon="7.4247707"><ele>950.0</ele><time>2026-04-19T10:51:22.938Z</time></trkpt><trkpt lat="45.7509021" lon="7.4248667"><ele>950.0000000000001</ele><time>2026-04-19T10:51:24.944Z</time></trkpt><trkpt lat="45.750894" lon="7.4249702"><ele>950.0</ele><time>2026-04-19T10:51:27.029Z</time></trkpt><trkpt lat="45.7508757" lon="7.4250798"><ele>950.0</ele><time>2026-04-19T10:51:29.951Z</time></trkpt><trkpt lat="45.7508927" lon="7.4251745"><ele>950.0000000000001</ele><time>2026-04-19T10:51:33.952Z</time></trkpt><trkpt lat="45.7509088" lon="7.4252744"><ele>950.0</ele><time>2026-04-19T10:51:36.949Z</time></trkpt><trkpt lat="45.750918" lon="7.4253678"><ele>950.0</ele><time>2026-04-19T10:51:38.954Z</time></trkpt><trkpt lat="45.7509139" lon="7.4254912"><ele>950.5000000000001</ele><time>2026-04-19T10:51:41.955Z</time></trkpt><trkpt lat="45.750927" lon="7.4256079"><ele>951.0</ele><time>2026-04-19T10:51:44.952Z</time></trkpt><trkpt lat="45.7509386" lon="7.4257108"><ele>951.5</ele><time>2026-04-19T10:51:48.956Z</time></trkpt><trkpt lat="45.7509549" lon="7.4258191"><ele>952.0</ele><time>2026-04-19T10:51:52.03Z</time></trkpt><trkpt lat="45.7509614" lon="7.4259184"><ele>952.5000000000001</ele><time>2026-04-19T10:51:53.942Z</time></trkpt><trkpt lat="45.7509651" lon="7.4260354"><ele>953.0</ele><time>2026-04-19T10:51:56.943Z</time></trkpt><trkpt lat="45.7509622" lon="7.4261661"><ele>953.0000000000001</ele><time>2026-04-19T10:52:00.026Z</time></trkpt><trkpt lat="45.7509741" lon="7.4262702"><ele>953.0</ele><time>2026-04-19T10:52:02.941Z</time></trkpt><trkpt lat="45.7509555" lon="7.4263979"><ele>953.0</ele><time>2026-04-19T10:52:06.943Z</time></trkpt><trkpt lat="45.7509458" lon="7.4265204"><ele>953.0</ele><time>2026-04-19T10:52:09.943Z</time></trkpt><trkpt lat="45.7509522" lon="7.4266294"><ele>953.0000000000001</ele><time>2026-04-19T10:52:12.947Z</time></trkpt><trkpt lat="45.7509757" lon="7.4267504"><ele>953.0</ele><time>2026-04-19T10:52:15.948Z</time></trkpt><trkpt lat="45.7510201" lon="7.4268371"><ele>961.5000000000001</ele><time>2026-04-19T10:52:18.944Z</time></trkpt><trkpt lat="45.7510584" lon="7.4269171"><ele>970.0</ele><time>2026-04-19T10:52:21.939Z</time></trkpt><trkpt lat="45.7511109" lon="7.4270196"><ele>978.5</ele><time>2026-04-19T10:52:24.947Z</time></trkpt><trkpt lat="45.7511502" lon="7.4271148"><ele>987.0</ele><time>2026-04-19T10:52:27.944Z</time></trkpt><trkpt lat="45.7511641" lon="7.4272054"><ele>995.5000000000001</ele><time>2026-04-19T10:52:30.944Z</time></trkpt><trkpt lat="45.7511762" lon="7.4273175"><ele>1004.0</ele><time>2026-04-19T10:52:33.942Z</time></trkpt><trkpt lat="45.7511831" lon="7.4274332"><ele>1004.0000000000001</ele><time>2026-04-19T10:52:36.945Z</time></trkpt><trkpt lat="45.7512129" lon="7.4275415"><ele>1004.0</ele><time>2026-04-19T10:52:40.948Z</time></trkpt><trkpt lat="45.751237" lon="7.4276531"><ele>1004.0</ele><time>2026-04-19T10:52:43.946Z</time></trkpt><trkpt lat="45.7512691" lon="7.4277622"><ele>1004.0</ele><time>2026-04-19T10:52:46.942Z</time></trkpt><trkpt lat="45.7512906" lon="7.4278779"><ele>1004.0000000000001</ele><time>2026-04-19T10:52:49.945Z</time></trkpt><trkpt lat="45.7512935" lon="7.4279988"><ele>1004.0</ele><time>2026-04-19T10:52:52.945Z</time></trkpt><trkpt lat="45.7512971" lon="7.4281024"><ele>1001.8333333333334</ele><time>2026-04-19T10:52:54.949Z</time></trkpt><trkpt lat="45.7512972" lon="7.4282324"><ele>999.6666666666667</ele><time>2026-04-19T10:52:56.94Z</time></trkpt><trkpt lat="45.7513033" lon="7.4283422"><ele>997.5</ele><time>2026-04-19T10:52:58.94Z</time></trkpt><trkpt lat="45.7513153" lon="7.4284579"><ele>995.3333333333333</ele><time>2026-04-19T10:53:01.942Z</time></trkpt><trkpt lat="45.7513474" lon="7.4285769"><ele>993.1666666666666</ele><time>2026-04-19T10:53:04.952Z</time></trkpt><trkpt lat="45.7513777" lon="7.4286687"><ele>991.0</ele><time>2026-04-19T10:53:06.949Z</time></trkpt><trkpt lat="45.7514139" lon="7.4287637"><ele>988.6666666666666</ele><time>2026-04-19T10:53:08.946Z</time></trkpt><trkpt lat="45.7514506" lon="7.428855"><ele>986.3333333333333</ele><time>2026-04-19T10:53:10.948Z</time></trkpt><trkpt lat="45.7514905" lon="7.4289355"><ele>984.0</ele><time>2026-04-19T10:53:13.024Z</time></trkpt><trkpt lat="45.7515213" lon="7.4290251"><ele>981.6666666666667</ele><time>2026-04-19T10:53:15.027Z</time></trkpt><trkpt lat="45.7515532" lon="7.4291124"><ele>979.3333333333334</ele><time>2026-04-19T10:53:16.957Z</time></trkpt><trkpt lat="45.7515937" lon="7.4292166"><ele>977.0</ele><time>2026-04-19T10:53:19.953Z</time></trkpt><trkpt lat="45.7516264" lon="7.4293298"><ele>977.0000000000001</ele><time>2026-04-19T10:53:23.011Z</time></trkpt><trkpt lat="45.7516278" lon="7.4294374"><ele>977.0</ele><time>2026-04-19T10:53:25.941Z</time></trkpt><trkpt lat="45.7516113" lon="7.4295678"><ele>977.0</ele><time>2026-04-19T10:53:28.941Z</time></trkpt><trkpt lat="45.7516045" lon="7.4297144"><ele>977.0</ele><time>2026-04-19T10:53:30.94Z</time></trkpt><trkpt lat="45.7515988" lon="7.4298245"><ele>977.0000000000001</ele><time>2026-04-19T10:53:32.949Z</time></trkpt><trkpt lat="45.7515953" lon="7.4299235"><ele>977.0</ele><time>2026-04-19T10:53:34.939Z</time></trkpt><trkpt lat="45.7515661" lon="7.4300426"><ele>976.0000000000001</ele><time>2026-04-19T10:53:37.94Z</time></trkpt><trkpt lat="45.7515297" lon="7.4301266"><ele>975.0</ele><time>2026-04-19T10:53:39.939Z</time></trkpt><trkpt lat="45.7514826" lon="7.4302024"><ele>974.0000000000001</ele><time>2026-04-19T10:53:42.028Z</time></trkpt><trkpt lat="45.7514315" lon="7.4302652"><ele>973.0000000000001</ele><time>2026-04-19T10:53:43.946Z</time></trkpt><trkpt lat="45.7513757" lon="7.4303262"><ele>972.0</ele><time>2026-04-19T10:53:45.98Z</time></trkpt><trkpt lat="45.7513052" lon="7.4303763"><ele>971.0000000000001</ele><time>2026-04-19T10:53:47.951Z</time></trkpt><trkpt lat="45.7512363" lon="7.4304198"><ele>970.0000000000001</ele><time>2026-04-19T10:53:49.95Z</time></trkpt><trkpt lat="45.7511518" lon="7.4304566"><ele>970.0000000000001</ele><time>2026-04-19T10:53:52.946Z</time></trkpt><trkpt lat="45.751078" lon="7.4304598"><ele>970.0</ele><time>2026-04-19T10:53:56.95Z</time></trkpt><trkpt lat="45.7510391" lon="7.4305477"><ele>970.0000000000001</ele><time>2026-04-19T10:54:00.945Z</time></trkpt><trkpt lat="45.751041" lon="7.4306763"><ele>970.0000000000001</ele><time>2026-04-19T10:54:03.946Z</time></trkpt><trkpt lat="45.7510178" lon="7.4307642"><ele>970.0</ele><time>2026-04-19T10:54:05.946Z</time></trkpt><trkpt lat="45.7509804" lon="7.4308497"><ele>970.0000000000001</ele><time>2026-04-19T10:54:07.943Z</time></trkpt><trkpt lat="45.7509718" lon="7.43094"><ele>970.0000000000001</ele><time>2026-04-19T10:54:09.948Z</time></trkpt><trkpt lat="45.7509607" lon="7.4310385"><ele>965.8</ele><time>2026-04-19T10:54:11.947Z</time></trkpt><trkpt lat="45.7509197" lon="7.4311506"><ele>961.6</ele><time>2026-04-19T10:54:13.944Z</time></trkpt><trkpt lat="45.7508726" lon="7.4313003"><ele>957.4000000000001</ele><time>2026-04-19T10:54:15.962Z</time></trkpt><trkpt lat="45.7507882" lon="7.431403"><ele>953.2</ele><time>2026-04-19T10:54:17.946Z</time></trkpt><trkpt lat="45.7506787" lon="7.4314611"><ele>949.0</ele><time>2026-04-19T10:54:19.946Z</time></trkpt><trkpt lat="45.7505705" lon="7.4315193"><ele>949.0</ele><time>2026-04-19T10:54:22.015Z</time></trkpt><trkpt lat="45.7505008" lon="7.4316419"><ele>949.0</ele><time>2026-04-19T10:54:23.957Z</time></trkpt><trkpt lat="45.7504259" lon="7.4317743"><ele>949.0</ele><time>2026-04-19T10:54:25.983Z</time></trkpt><trkpt lat="45.7503463" lon="7.431902"><ele>949.0</ele><time>2026-04-19T10:54:28.031Z</time></trkpt><trkpt lat="45.7502602" lon="7.4320295"><ele>945.1666666666666</ele><time>2026-04-19T10:54:29.957Z</time></trkpt><trkpt lat="45.7501976" lon="7.4321768"><ele>941.3333333333333</ele><time>2026-04-19T10:54:31.954Z</time></trkpt><trkpt lat="45.7501711" lon="7.432268"><ele>937.5</ele><time>2026-04-19T10:54:33.027Z</time></trkpt><trkpt lat="45.7501495" lon="7.4323699"><ele>933.6666666666667</ele><time>2026-04-19T10:54:33.949Z</time></trkpt><trkpt lat="45.7501289" lon="7.4324699"><ele>929.8333333333334</ele><time>2026-04-19T10:54:34.944Z</time></trkpt><trkpt lat="45.7501171" lon="7.4325692"><ele>926.0</ele><time>2026-04-19T10:54:35.959Z</time></trkpt><trkpt lat="45.7501084" lon="7.4326619"><ele>926.0000000000001</ele><time>2026-04-19T10:54:37.028Z</time></trkpt><trkpt lat="45.7500983" lon="7.4328104"><ele>926.0</ele><time>2026-04-19T10:54:38.945Z</time></trkpt><trkpt lat="45.7500583" lon="7.432889"><ele>926.0</ele><time>2026-04-19T10:54:40.952Z</time></trkpt><trkpt lat="45.7500058" lon="7.4328328"><ele>926.0</ele><time>2026-04-19T10:54:43.038Z</time></trkpt><trkpt lat="45.7499909" lon="7.4327041"><ele>926.0000000000001</ele><time>2026-04-19T10:54:44.957Z</time></trkpt><trkpt lat="45.7500121" lon="7.4325494"><ele>926.0</ele><time>2026-04-19T10:54:47.024Z</time></trkpt><trkpt lat="45.7500538" lon="7.4323969"><ele>926.0000000000001</ele><time>2026-04-19T10:54:48.942Z</time></trkpt><trkpt lat="45.7500665" lon="7.4323081"><ele>926.0</ele><time>2026-04-19T10:54:49.947Z</time></trkpt><trkpt lat="45.7500868" lon="7.4322169"><ele>926.0</ele><time>2026-04-19T10:54:50.936Z</time></trkpt><trkpt lat="45.7501063" lon="7.432131"><ele>926.0</ele><time>2026-04-19T10:54:51.944Z</time></trkpt><trkpt lat="45.7501242" lon="7.4320439"><ele>926.0000000000001</ele><time>2026-04-19T10:54:52.945Z</time></trkpt><trkpt lat="45.750146" lon="7.4318773"><ele>926.0</ele><time>2026-04-19T10:54:54.945Z</time></trkpt><trkpt lat="45.7501663" lon="7.4317273"><ele>924.2857142857142</ele><time>2026-04-19T10:54:56.946Z</time></trkpt><trkpt lat="45.7501883" lon="7.4316019"><ele>922.5714285714284</ele><time>2026-04-19T10:54:58.946Z</time></trkpt><trkpt lat="45.7501901" lon="7.4315074"><ele>920.8571428571429</ele><time>2026-04-19T10:55:00.939Z</time></trkpt><trkpt lat="45.7502278" lon="7.4314214"><ele>919.1428571428571</ele><time>2026-04-19T10:55:02.938Z</time></trkpt><trkpt lat="45.7502464" lon="7.431328"><ele>917.4285714285714</ele><time>2026-04-19T10:55:04.934Z</time></trkpt><trkpt lat="45.7502712" lon="7.4312327"><ele>915.7142857142858</ele><time>2026-04-19T10:55:06.937Z</time></trkpt><trkpt lat="45.7503086" lon="7.431149"><ele>914.0000000000001</ele><time>2026-04-19T10:55:08.934Z</time></trkpt><trkpt lat="45.7503313" lon="7.4310448"><ele>917.4285714285716</ele><time>2026-04-19T10:55:11.938Z</time></trkpt><trkpt lat="45.7503499" lon="7.430929"><ele>920.8571428571429</ele><time>2026-04-19T10:55:14.935Z</time></trkpt><trkpt lat="45.7503781" lon="7.4308265"><ele>924.2857142857143</ele><time>2026-04-19T10:55:17.937Z</time></trkpt><trkpt lat="45.7503991" lon="7.4307059"><ele>927.7142857142858</ele><time>2026-04-19T10:55:20.939Z</time></trkpt><trkpt lat="45.7503883" lon="7.4306107"><ele>931.1428571428571</ele><time>2026-04-19T10:55:23.03Z</time></trkpt><trkpt lat="45.7503947" lon="7.4305192"><ele>934.5714285714286</ele><time>2026-04-19T10:55:24.945Z</time></trkpt><trkpt lat="45.750417" lon="7.4304256"><ele>938.0</ele><time>2026-04-19T10:55:26.946Z</time></trkpt><trkpt lat="45.7504411" lon="7.4303412"><ele>938.0</ele><time>2026-04-19T10:55:28.944Z</time></trkpt><trkpt lat="45.7504545" lon="7.4304335"><ele>938.0</ele><time>2026-04-19T10:55:32.027Z</time></trkpt><trkpt lat="45.7504949" lon="7.4305054"><ele>939.0</ele><time>2026-04-19T10:55:36.947Z</time></trkpt></trkseg></trk></gpx>